<?xml version="1.0" encoding="UTF-8" standalone="no" ?>
<gpx xmlns="http://www.topografix.com/GPX/1/1" xmlns:xsi="http://www.w3.org/2001/XMLSchema-instance" xsi:schemaLocation="http://www.topografix.com/GPX/1/1 http://www.topografix.com/GPX/1/1/gpx.xsd" version="1.1" creator="VisuGPX - https://www.visugpx.com">
  <metadata>
    <name>gringojack@aol.com</name>
    <desc><![CDATA[433 m de dénivelé et 25 km. Température: environ 0° ressenti]]></desc>
  </metadata>
  <trk>
    <name><![CDATA[130209ROBSebastienPourraqueBesse]]></name>
    <cmt><![CDATA[HR decrease: 121/91/30]]></cmt>
    <trkseg>
      <trkpt lat="43.40402" lon="6.06537">
        <ele>230.60000610352</ele>
        <time>2013-02-09T13:05:31Z</time>
      </trkpt>
      <trkpt lat="43.40402" lon="6.06537">
        <ele>230.60000610352</ele>
        <time>2013-02-09T13:05:35Z</time>
      </trkpt>
      <trkpt lat="43.40402" lon="6.06537">
        <ele>230.60000610352</ele>
        <time>2013-02-09T13:05:36Z</time>
      </trkpt>
      <trkpt lat="43.40404" lon="6.06536">
        <ele>230.60000610352</ele>
        <time>2013-02-09T13:05:38Z</time>
      </trkpt>
      <trkpt lat="43.40403" lon="6.06531">
        <ele>230.60000610352</ele>
        <time>2013-02-09T13:05:42Z</time>
      </trkpt>
      <trkpt lat="43.40403" lon="6.06526">
        <ele>230.60000610352</ele>
        <time>2013-02-09T13:05:44Z</time>
      </trkpt>
      <trkpt lat="43.40403" lon="6.06524">
        <ele>230.60000610352</ele>
        <time>2013-02-09T13:05:45Z</time>
      </trkpt>
      <trkpt lat="43.40405" lon="6.06511">
        <ele>230.60000610352</ele>
        <time>2013-02-09T13:05:48Z</time>
      </trkpt>
      <trkpt lat="43.40405" lon="6.06506">
        <ele>230.60000610352</ele>
        <time>2013-02-09T13:05:49Z</time>
      </trkpt>
      <trkpt lat="43.40406" lon="6.06491">
        <ele>230.60000610352</ele>
        <time>2013-02-09T13:05:52Z</time>
      </trkpt>
      <trkpt lat="43.40405" lon="6.06487">
        <ele>230.60000610352</ele>
        <time>2013-02-09T13:05:53Z</time>
      </trkpt>
      <trkpt lat="43.40403" lon="6.06482">
        <ele>230.60000610352</ele>
        <time>2013-02-09T13:05:55Z</time>
      </trkpt>
      <trkpt lat="43.40395" lon="6.06483">
        <ele>230.60000610352</ele>
        <time>2013-02-09T13:05:58Z</time>
      </trkpt>
      <trkpt lat="43.40393" lon="6.06484">
        <ele>230.60000610352</ele>
        <time>2013-02-09T13:05:59Z</time>
      </trkpt>
      <trkpt lat="43.40384" lon="6.06491">
        <ele>230.60000610352</ele>
        <time>2013-02-09T13:06:03Z</time>
      </trkpt>
      <trkpt lat="43.40382" lon="6.06493">
        <ele>230.60000610352</ele>
        <time>2013-02-09T13:06:04Z</time>
      </trkpt>
      <trkpt lat="43.40368" lon="6.06501">
        <ele>230.60000610352</ele>
        <time>2013-02-09T13:06:10Z</time>
      </trkpt>
      <trkpt lat="43.4035" lon="6.06513">
        <ele>230.60000610352</ele>
        <time>2013-02-09T13:06:16Z</time>
      </trkpt>
      <trkpt lat="43.4033" lon="6.06528">
        <ele>230.60000610352</ele>
        <time>2013-02-09T13:06:22Z</time>
      </trkpt>
      <trkpt lat="43.40318" lon="6.06536">
        <ele>230.60000610352</ele>
        <time>2013-02-09T13:06:25Z</time>
      </trkpt>
      <trkpt lat="43.40299" lon="6.06545">
        <ele>230.60000610352</ele>
        <time>2013-02-09T13:06:30Z</time>
      </trkpt>
      <trkpt lat="43.40266" lon="6.06555">
        <ele>230.60000610352</ele>
        <time>2013-02-09T13:06:38Z</time>
      </trkpt>
      <trkpt lat="43.40246" lon="6.06568">
        <ele>230.60000610352</ele>
        <time>2013-02-09T13:06:43Z</time>
      </trkpt>
      <trkpt lat="43.40242" lon="6.06573">
        <ele>230.60000610352</ele>
        <time>2013-02-09T13:06:44Z</time>
      </trkpt>
      <trkpt lat="43.40233" lon="6.06597">
        <ele>230.60000610352</ele>
        <time>2013-02-09T13:06:48Z</time>
      </trkpt>
      <trkpt lat="43.40215" lon="6.06623">
        <ele>230.60000610352</ele>
        <time>2013-02-09T13:06:53Z</time>
      </trkpt>
      <trkpt lat="43.40208" lon="6.06634">
        <ele>230.60000610352</ele>
        <time>2013-02-09T13:06:55Z</time>
      </trkpt>
      <trkpt lat="43.40201" lon="6.06653">
        <ele>230.60000610352</ele>
        <time>2013-02-09T13:06:58Z</time>
      </trkpt>
      <trkpt lat="43.40186" lon="6.0669">
        <ele>230.60000610352</ele>
        <time>2013-02-09T13:07:04Z</time>
      </trkpt>
      <trkpt lat="43.40169" lon="6.06727">
        <ele>230.60000610352</ele>
        <time>2013-02-09T13:07:11Z</time>
      </trkpt>
      <trkpt lat="43.40164" lon="6.06737">
        <ele>230.60000610352</ele>
        <time>2013-02-09T13:07:13Z</time>
      </trkpt>
      <trkpt lat="43.4015" lon="6.0677">
        <ele>231</ele>
        <time>2013-02-09T13:07:20Z</time>
      </trkpt>
      <trkpt lat="43.40147" lon="6.06779">
        <ele>231.80000305176</ele>
        <time>2013-02-09T13:07:22Z</time>
      </trkpt>
      <trkpt lat="43.40136" lon="6.0681">
        <ele>232.60000610352</ele>
        <time>2013-02-09T13:07:29Z</time>
      </trkpt>
      <trkpt lat="43.40133" lon="6.06819">
        <ele>233.19999694824</ele>
        <time>2013-02-09T13:07:31Z</time>
      </trkpt>
      <trkpt lat="43.4013" lon="6.06833">
        <ele>234.39999389648</ele>
        <time>2013-02-09T13:07:34Z</time>
      </trkpt>
      <trkpt lat="43.40126" lon="6.06845">
        <ele>234.80000305176</ele>
        <time>2013-02-09T13:07:37Z</time>
      </trkpt>
      <trkpt lat="43.40117" lon="6.0687">
        <ele>235.39999389648</ele>
        <time>2013-02-09T13:07:43Z</time>
      </trkpt>
      <trkpt lat="43.40115" lon="6.06873">
        <ele>236.19999694824</ele>
        <time>2013-02-09T13:07:44Z</time>
      </trkpt>
      <trkpt lat="43.40114" lon="6.06877">
        <ele>236.60000610352</ele>
        <time>2013-02-09T13:07:45Z</time>
      </trkpt>
      <trkpt lat="43.4011" lon="6.06894">
        <ele>237.19999694824</ele>
        <time>2013-02-09T13:07:49Z</time>
      </trkpt>
      <trkpt lat="43.40109" lon="6.06912">
        <ele>237.19999694824</ele>
        <time>2013-02-09T13:07:52Z</time>
      </trkpt>
      <trkpt lat="43.4011" lon="6.06924">
        <ele>237.19999694824</ele>
        <time>2013-02-09T13:07:54Z</time>
      </trkpt>
      <trkpt lat="43.40116" lon="6.06954">
        <ele>237.19999694824</ele>
        <time>2013-02-09T13:07:59Z</time>
      </trkpt>
      <trkpt lat="43.40118" lon="6.06966">
        <ele>237.19999694824</ele>
        <time>2013-02-09T13:08:01Z</time>
      </trkpt>
      <trkpt lat="43.40122" lon="6.07003">
        <ele>237.19999694824</ele>
        <time>2013-02-09T13:08:07Z</time>
      </trkpt>
      <trkpt lat="43.40122" lon="6.07008">
        <ele>237.19999694824</ele>
        <time>2013-02-09T13:08:08Z</time>
      </trkpt>
      <trkpt lat="43.40121" lon="6.07058">
        <ele>237.19999694824</ele>
        <time>2013-02-09T13:08:16Z</time>
      </trkpt>
      <trkpt lat="43.40123" lon="6.07104">
        <ele>237.19999694824</ele>
        <time>2013-02-09T13:08:23Z</time>
      </trkpt>
      <trkpt lat="43.40127" lon="6.07134">
        <ele>236.80000305176</ele>
        <time>2013-02-09T13:08:27Z</time>
      </trkpt>
      <trkpt lat="43.40128" lon="6.07149">
        <ele>235.80000305176</ele>
        <time>2013-02-09T13:08:29Z</time>
      </trkpt>
      <trkpt lat="43.40128" lon="6.07163">
        <ele>235</ele>
        <time>2013-02-09T13:08:31Z</time>
      </trkpt>
      <trkpt lat="43.40129" lon="6.07169">
        <ele>235</ele>
        <time>2013-02-09T13:08:32Z</time>
      </trkpt>
      <trkpt lat="43.40136" lon="6.0722">
        <ele>235</ele>
        <time>2013-02-09T13:08:40Z</time>
      </trkpt>
      <trkpt lat="43.40143" lon="6.07259">
        <ele>235</ele>
        <time>2013-02-09T13:08:46Z</time>
      </trkpt>
      <trkpt lat="43.40145" lon="6.07277">
        <ele>235</ele>
        <time>2013-02-09T13:08:49Z</time>
      </trkpt>
      <trkpt lat="43.40137" lon="6.07385">
        <ele>235</ele>
        <time>2013-02-09T13:09:07Z</time>
      </trkpt>
      <trkpt lat="43.40137" lon="6.07391">
        <ele>235</ele>
        <time>2013-02-09T13:09:08Z</time>
      </trkpt>
      <trkpt lat="43.40142" lon="6.07418">
        <ele>235</ele>
        <time>2013-02-09T13:09:13Z</time>
      </trkpt>
      <trkpt lat="43.40145" lon="6.07434">
        <ele>235.80000305176</ele>
        <time>2013-02-09T13:09:16Z</time>
      </trkpt>
      <trkpt lat="43.40145" lon="6.07439">
        <ele>236.19999694824</ele>
        <time>2013-02-09T13:09:17Z</time>
      </trkpt>
      <trkpt lat="43.40145" lon="6.07448">
        <ele>237</ele>
        <time>2013-02-09T13:09:19Z</time>
      </trkpt>
      <trkpt lat="43.40144" lon="6.07479">
        <ele>237</ele>
        <time>2013-02-09T13:09:26Z</time>
      </trkpt>
      <trkpt lat="43.40141" lon="6.07498">
        <ele>237.39999389648</ele>
        <time>2013-02-09T13:09:31Z</time>
      </trkpt>
      <trkpt lat="43.40139" lon="6.07501">
        <ele>237.80000305176</ele>
        <time>2013-02-09T13:09:32Z</time>
      </trkpt>
      <trkpt lat="43.40137" lon="6.07508">
        <ele>238.60000610352</ele>
        <time>2013-02-09T13:09:34Z</time>
      </trkpt>
      <trkpt lat="43.40135" lon="6.07511">
        <ele>239</ele>
        <time>2013-02-09T13:09:35Z</time>
      </trkpt>
      <trkpt lat="43.40129" lon="6.07527">
        <ele>239</ele>
        <time>2013-02-09T13:09:40Z</time>
      </trkpt>
      <trkpt lat="43.40122" lon="6.07544">
        <ele>239.60000610352</ele>
        <time>2013-02-09T13:09:45Z</time>
      </trkpt>
      <trkpt lat="43.40118" lon="6.07551">
        <ele>240.39999389648</ele>
        <time>2013-02-09T13:09:47Z</time>
      </trkpt>
      <trkpt lat="43.40105" lon="6.07571">
        <ele>241.19999694824</ele>
        <time>2013-02-09T13:09:54Z</time>
      </trkpt>
      <trkpt lat="43.40095" lon="6.07592">
        <ele>241.19999694824</ele>
        <time>2013-02-09T13:10:00Z</time>
      </trkpt>
      <trkpt lat="43.40091" lon="6.07616">
        <ele>241.19999694824</ele>
        <time>2013-02-09T13:10:06Z</time>
      </trkpt>
      <trkpt lat="43.4009" lon="6.07627">
        <ele>242.60000610352</ele>
        <time>2013-02-09T13:10:09Z</time>
      </trkpt>
      <trkpt lat="43.4009" lon="6.07637">
        <ele>243.39999389648</ele>
        <time>2013-02-09T13:10:12Z</time>
      </trkpt>
      <trkpt lat="43.40087" lon="6.07659">
        <ele>243.39999389648</ele>
        <time>2013-02-09T13:10:19Z</time>
      </trkpt>
      <trkpt lat="43.40083" lon="6.07671">
        <ele>245.19999694824</ele>
        <time>2013-02-09T13:10:23Z</time>
      </trkpt>
      <trkpt lat="43.40082" lon="6.07674">
        <ele>245.60000610352</ele>
        <time>2013-02-09T13:10:24Z</time>
      </trkpt>
      <trkpt lat="43.40073" lon="6.0769">
        <ele>247.39999389648</ele>
        <time>2013-02-09T13:10:31Z</time>
      </trkpt>
      <trkpt lat="43.40069" lon="6.07697">
        <ele>248</ele>
        <time>2013-02-09T13:10:34Z</time>
      </trkpt>
      <trkpt lat="43.40062" lon="6.07706">
        <ele>248</ele>
        <time>2013-02-09T13:10:39Z</time>
      </trkpt>
      <trkpt lat="43.40059" lon="6.0771">
        <ele>248</ele>
        <time>2013-02-09T13:10:41Z</time>
      </trkpt>
      <trkpt lat="43.40049" lon="6.07721">
        <ele>248</ele>
        <time>2013-02-09T13:10:47Z</time>
      </trkpt>
      <trkpt lat="43.40042" lon="6.0773">
        <ele>248</ele>
        <time>2013-02-09T13:10:51Z</time>
      </trkpt>
      <trkpt lat="43.40036" lon="6.07742">
        <ele>248</ele>
        <time>2013-02-09T13:10:55Z</time>
      </trkpt>
      <trkpt lat="43.40029" lon="6.07763">
        <ele>248</ele>
        <time>2013-02-09T13:11:01Z</time>
      </trkpt>
      <trkpt lat="43.40026" lon="6.07774">
        <ele>248.39999389648</ele>
        <time>2013-02-09T13:11:04Z</time>
      </trkpt>
      <trkpt lat="43.40023" lon="6.07785">
        <ele>249.60000610352</ele>
        <time>2013-02-09T13:11:07Z</time>
      </trkpt>
      <trkpt lat="43.40014" lon="6.07812">
        <ele>250</ele>
        <time>2013-02-09T13:11:14Z</time>
      </trkpt>
      <trkpt lat="43.40004" lon="6.07849">
        <ele>250</ele>
        <time>2013-02-09T13:11:23Z</time>
      </trkpt>
      <trkpt lat="43.39995" lon="6.07884">
        <ele>250</ele>
        <time>2013-02-09T13:11:31Z</time>
      </trkpt>
      <trkpt lat="43.39985" lon="6.07916">
        <ele>251.39999389648</ele>
        <time>2013-02-09T13:11:40Z</time>
      </trkpt>
      <trkpt lat="43.39978" lon="6.0795">
        <ele>252.60000610352</ele>
        <time>2013-02-09T13:11:49Z</time>
      </trkpt>
      <trkpt lat="43.39973" lon="6.0797">
        <ele>254.19999694824</ele>
        <time>2013-02-09T13:11:55Z</time>
      </trkpt>
      <trkpt lat="43.39969" lon="6.07975">
        <ele>255</ele>
        <time>2013-02-09T13:11:58Z</time>
      </trkpt>
      <trkpt lat="43.39965" lon="6.07977">
        <ele>255.80000305176</ele>
        <time>2013-02-09T13:12:00Z</time>
      </trkpt>
      <trkpt lat="43.39962" lon="6.07979">
        <ele>256.20001220703</ele>
        <time>2013-02-09T13:12:01Z</time>
      </trkpt>
      <trkpt lat="43.39948" lon="6.07986">
        <ele>256.20001220703</ele>
        <time>2013-02-09T13:12:07Z</time>
      </trkpt>
      <trkpt lat="43.39932" lon="6.07995">
        <ele>257</ele>
        <time>2013-02-09T13:12:13Z</time>
      </trkpt>
      <trkpt lat="43.39924" lon="6.07999">
        <ele>258.20001220703</ele>
        <time>2013-02-09T13:12:16Z</time>
      </trkpt>
      <trkpt lat="43.39912" lon="6.08013">
        <ele>258.20001220703</ele>
        <time>2013-02-09T13:12:22Z</time>
      </trkpt>
      <trkpt lat="43.39908" lon="6.08018">
        <ele>258.20001220703</ele>
        <time>2013-02-09T13:12:24Z</time>
      </trkpt>
      <trkpt lat="43.39893" lon="6.08033">
        <ele>258.20001220703</ele>
        <time>2013-02-09T13:12:30Z</time>
      </trkpt>
      <trkpt lat="43.39882" lon="6.08032">
        <ele>258.20001220703</ele>
        <time>2013-02-09T13:12:33Z</time>
      </trkpt>
      <trkpt lat="43.39875" lon="6.08029">
        <ele>258.20001220703</ele>
        <time>2013-02-09T13:12:35Z</time>
      </trkpt>
      <trkpt lat="43.39867" lon="6.08025">
        <ele>258.20001220703</ele>
        <time>2013-02-09T13:12:37Z</time>
      </trkpt>
      <trkpt lat="43.39861" lon="6.08021">
        <ele>258.20001220703</ele>
        <time>2013-02-09T13:12:39Z</time>
      </trkpt>
      <trkpt lat="43.39857" lon="6.08019">
        <ele>257.79998779297</ele>
        <time>2013-02-09T13:12:40Z</time>
      </trkpt>
      <trkpt lat="43.39854" lon="6.08017">
        <ele>257.39999389648</ele>
        <time>2013-02-09T13:12:41Z</time>
      </trkpt>
      <trkpt lat="43.39851" lon="6.08015">
        <ele>257</ele>
        <time>2013-02-09T13:12:42Z</time>
      </trkpt>
      <trkpt lat="43.3984" lon="6.08008">
        <ele>256.20001220703</ele>
        <time>2013-02-09T13:12:46Z</time>
      </trkpt>
      <trkpt lat="43.39829" lon="6.08001">
        <ele>256.20001220703</ele>
        <time>2013-02-09T13:12:51Z</time>
      </trkpt>
      <trkpt lat="43.39798" lon="6.07985">
        <ele>256.20001220703</ele>
        <time>2013-02-09T13:13:03Z</time>
      </trkpt>
      <trkpt lat="43.39774" lon="6.07974">
        <ele>256.20001220703</ele>
        <time>2013-02-09T13:13:13Z</time>
      </trkpt>
      <trkpt lat="43.39765" lon="6.07969">
        <ele>256.60000610352</ele>
        <time>2013-02-09T13:13:18Z</time>
      </trkpt>
      <trkpt lat="43.39756" lon="6.07966">
        <ele>258.39999389648</ele>
        <time>2013-02-09T13:13:22Z</time>
      </trkpt>
      <trkpt lat="43.39746" lon="6.0796">
        <ele>258.39999389648</ele>
        <time>2013-02-09T13:13:27Z</time>
      </trkpt>
      <trkpt lat="43.3974" lon="6.07957">
        <ele>259.20001220703</ele>
        <time>2013-02-09T13:13:30Z</time>
      </trkpt>
      <trkpt lat="43.39738" lon="6.07956">
        <ele>259.60000610352</ele>
        <time>2013-02-09T13:13:31Z</time>
      </trkpt>
      <trkpt lat="43.39734" lon="6.07953">
        <ele>260.39999389648</ele>
        <time>2013-02-09T13:13:33Z</time>
      </trkpt>
      <trkpt lat="43.39724" lon="6.07941">
        <ele>260.39999389648</ele>
        <time>2013-02-09T13:13:39Z</time>
      </trkpt>
      <trkpt lat="43.39717" lon="6.0793">
        <ele>260.39999389648</ele>
        <time>2013-02-09T13:13:45Z</time>
      </trkpt>
      <trkpt lat="43.39712" lon="6.07924">
        <ele>261.20001220703</ele>
        <time>2013-02-09T13:13:49Z</time>
      </trkpt>
      <trkpt lat="43.39708" lon="6.07921">
        <ele>262.39999389648</ele>
        <time>2013-02-09T13:13:52Z</time>
      </trkpt>
      <trkpt lat="43.39702" lon="6.07913">
        <ele>262.79998779297</ele>
        <time>2013-02-09T13:13:57Z</time>
      </trkpt>
      <trkpt lat="43.39693" lon="6.07902">
        <ele>264.60000610352</ele>
        <time>2013-02-09T13:14:04Z</time>
      </trkpt>
      <trkpt lat="43.3969" lon="6.07898">
        <ele>265</ele>
        <time>2013-02-09T13:14:07Z</time>
      </trkpt>
      <trkpt lat="43.39684" lon="6.07895">
        <ele>266.60000610352</ele>
        <time>2013-02-09T13:14:11Z</time>
      </trkpt>
      <trkpt lat="43.39671" lon="6.07891">
        <ele>266.60000610352</ele>
        <time>2013-02-09T13:14:17Z</time>
      </trkpt>
      <trkpt lat="43.39661" lon="6.07889">
        <ele>266.60000610352</ele>
        <time>2013-02-09T13:14:23Z</time>
      </trkpt>
      <trkpt lat="43.3965" lon="6.07889">
        <ele>267</ele>
        <time>2013-02-09T13:14:29Z</time>
      </trkpt>
      <trkpt lat="43.39642" lon="6.07889">
        <ele>268.60000610352</ele>
        <time>2013-02-09T13:14:33Z</time>
      </trkpt>
      <trkpt lat="43.39638" lon="6.0789">
        <ele>268.60000610352</ele>
        <time>2013-02-09T13:14:35Z</time>
      </trkpt>
      <trkpt lat="43.39625" lon="6.07895">
        <ele>268.60000610352</ele>
        <time>2013-02-09T13:14:41Z</time>
      </trkpt>
      <trkpt lat="43.39621" lon="6.07898">
        <ele>268.60000610352</ele>
        <time>2013-02-09T13:14:43Z</time>
      </trkpt>
      <trkpt lat="43.39606" lon="6.07903">
        <ele>268.60000610352</ele>
        <time>2013-02-09T13:14:51Z</time>
      </trkpt>
      <trkpt lat="43.39598" lon="6.07905">
        <ele>269.20001220703</ele>
        <time>2013-02-09T13:14:56Z</time>
      </trkpt>
      <trkpt lat="43.39592" lon="6.07905">
        <ele>270.39999389648</ele>
        <time>2013-02-09T13:14:59Z</time>
      </trkpt>
      <trkpt lat="43.39587" lon="6.07906">
        <ele>271.20001220703</ele>
        <time>2013-02-09T13:15:03Z</time>
      </trkpt>
      <trkpt lat="43.39584" lon="6.07907">
        <ele>272.20001220703</ele>
        <time>2013-02-09T13:15:05Z</time>
      </trkpt>
      <trkpt lat="43.39581" lon="6.0791">
        <ele>273</ele>
        <time>2013-02-09T13:15:07Z</time>
      </trkpt>
      <trkpt lat="43.39579" lon="6.07916">
        <ele>273</ele>
        <time>2013-02-09T13:15:10Z</time>
      </trkpt>
      <trkpt lat="43.39576" lon="6.07928">
        <ele>273</ele>
        <time>2013-02-09T13:15:15Z</time>
      </trkpt>
      <trkpt lat="43.39569" lon="6.07933">
        <ele>273.39999389648</ele>
        <time>2013-02-09T13:15:21Z</time>
      </trkpt>
      <trkpt lat="43.39557" lon="6.07938">
        <ele>275.20001220703</ele>
        <time>2013-02-09T13:15:28Z</time>
      </trkpt>
      <trkpt lat="43.39551" lon="6.0794">
        <ele>275.60000610352</ele>
        <time>2013-02-09T13:15:32Z</time>
      </trkpt>
      <trkpt lat="43.39539" lon="6.07944">
        <ele>277.60000610352</ele>
        <time>2013-02-09T13:15:40Z</time>
      </trkpt>
      <trkpt lat="43.39533" lon="6.07946">
        <ele>279.20001220703</ele>
        <time>2013-02-09T13:15:44Z</time>
      </trkpt>
      <trkpt lat="43.39519" lon="6.07952">
        <ele>279.20001220703</ele>
        <time>2013-02-09T13:15:54Z</time>
      </trkpt>
      <trkpt lat="43.39505" lon="6.07944">
        <ele>279.20001220703</ele>
        <time>2013-02-09T13:16:05Z</time>
      </trkpt>
      <trkpt lat="43.39497" lon="6.07943">
        <ele>279.60000610352</ele>
        <time>2013-02-09T13:16:10Z</time>
      </trkpt>
      <trkpt lat="43.39496" lon="6.07941">
        <ele>280</ele>
        <time>2013-02-09T13:16:11Z</time>
      </trkpt>
      <trkpt lat="43.39492" lon="6.07928">
        <ele>281.20001220703</ele>
        <time>2013-02-09T13:16:19Z</time>
      </trkpt>
      <trkpt lat="43.39486" lon="6.07917">
        <ele>281.20001220703</ele>
        <time>2013-02-09T13:16:25Z</time>
      </trkpt>
      <trkpt lat="43.3948" lon="6.07912">
        <ele>282.20001220703</ele>
        <time>2013-02-09T13:16:30Z</time>
      </trkpt>
      <trkpt lat="43.39477" lon="6.07904">
        <ele>283.39999389648</ele>
        <time>2013-02-09T13:16:35Z</time>
      </trkpt>
      <trkpt lat="43.3947" lon="6.07899">
        <ele>283.79998779297</ele>
        <time>2013-02-09T13:16:43Z</time>
      </trkpt>
      <trkpt lat="43.39469" lon="6.07898">
        <ele>284.20001220703</ele>
        <time>2013-02-09T13:16:44Z</time>
      </trkpt>
      <trkpt lat="43.39466" lon="6.0789">
        <ele>285.60000610352</ele>
        <time>2013-02-09T13:16:49Z</time>
      </trkpt>
      <trkpt lat="43.39462" lon="6.07889">
        <ele>285.60000610352</ele>
        <time>2013-02-09T13:16:53Z</time>
      </trkpt>
      <trkpt lat="43.39456" lon="6.07893">
        <ele>285.60000610352</ele>
        <time>2013-02-09T13:17:00Z</time>
      </trkpt>
      <trkpt lat="43.3945" lon="6.07896">
        <ele>286</ele>
        <time>2013-02-09T13:17:04Z</time>
      </trkpt>
      <trkpt lat="43.39448" lon="6.07896">
        <ele>286.39999389648</ele>
        <time>2013-02-09T13:17:05Z</time>
      </trkpt>
      <trkpt lat="43.39446" lon="6.07896">
        <ele>287.20001220703</ele>
        <time>2013-02-09T13:17:07Z</time>
      </trkpt>
      <trkpt lat="43.39442" lon="6.07898">
        <ele>288.39999389648</ele>
        <time>2013-02-09T13:17:11Z</time>
      </trkpt>
      <trkpt lat="43.39442" lon="6.07898">
        <ele>289.20001220703</ele>
        <time>2013-02-09T13:17:12Z</time>
      </trkpt>
      <trkpt lat="43.39442" lon="6.07898">
        <ele>289.60000610352</ele>
        <time>2013-02-09T13:17:33Z</time>
      </trkpt>
      <trkpt lat="43.39442" lon="6.07898">
        <ele>289.60000610352</ele>
        <time>2013-02-09T13:17:40Z</time>
      </trkpt>
      <trkpt lat="43.39442" lon="6.07899">
        <ele>289.60000610352</ele>
        <time>2013-02-09T13:17:43Z</time>
      </trkpt>
      <trkpt lat="43.39442" lon="6.07899">
        <ele>289.60000610352</ele>
        <time>2013-02-09T13:18:00Z</time>
      </trkpt>
      <trkpt lat="43.39442" lon="6.07898">
        <ele>289.60000610352</ele>
        <time>2013-02-09T13:18:21Z</time>
      </trkpt>
      <trkpt lat="43.39442" lon="6.07898">
        <ele>289.60000610352</ele>
        <time>2013-02-09T13:18:45Z</time>
      </trkpt>
      <trkpt lat="43.39442" lon="6.07898">
        <ele>289.60000610352</ele>
        <time>2013-02-09T13:18:55Z</time>
      </trkpt>
      <trkpt lat="43.39442" lon="6.07899">
        <ele>289.60000610352</ele>
        <time>2013-02-09T13:19:04Z</time>
      </trkpt>
      <trkpt lat="43.3944" lon="6.07905">
        <ele>289.60000610352</ele>
        <time>2013-02-09T13:19:09Z</time>
      </trkpt>
      <trkpt lat="43.39441" lon="6.07911">
        <ele>289.60000610352</ele>
        <time>2013-02-09T13:19:11Z</time>
      </trkpt>
      <trkpt lat="43.3944" lon="6.07916">
        <ele>289.60000610352</ele>
        <time>2013-02-09T13:19:13Z</time>
      </trkpt>
      <trkpt lat="43.39438" lon="6.07923">
        <ele>289.60000610352</ele>
        <time>2013-02-09T13:19:15Z</time>
      </trkpt>
      <trkpt lat="43.39431" lon="6.07945">
        <ele>289.60000610352</ele>
        <time>2013-02-09T13:19:21Z</time>
      </trkpt>
      <trkpt lat="43.39424" lon="6.07962">
        <ele>289.60000610352</ele>
        <time>2013-02-09T13:19:26Z</time>
      </trkpt>
      <trkpt lat="43.39413" lon="6.07965">
        <ele>289.60000610352</ele>
        <time>2013-02-09T13:19:30Z</time>
      </trkpt>
      <trkpt lat="43.39406" lon="6.07967">
        <ele>289.60000610352</ele>
        <time>2013-02-09T13:19:33Z</time>
      </trkpt>
      <trkpt lat="43.39397" lon="6.07968">
        <ele>289.60000610352</ele>
        <time>2013-02-09T13:19:36Z</time>
      </trkpt>
      <trkpt lat="43.39394" lon="6.07966">
        <ele>289.60000610352</ele>
        <time>2013-02-09T13:19:37Z</time>
      </trkpt>
      <trkpt lat="43.39392" lon="6.07966">
        <ele>289.60000610352</ele>
        <time>2013-02-09T13:19:39Z</time>
      </trkpt>
      <trkpt lat="43.39388" lon="6.07966">
        <ele>289.60000610352</ele>
        <time>2013-02-09T13:19:41Z</time>
      </trkpt>
      <trkpt lat="43.39388" lon="6.07966">
        <ele>289.60000610352</ele>
        <time>2013-02-09T13:19:45Z</time>
      </trkpt>
      <trkpt lat="43.39388" lon="6.07966">
        <ele>289.60000610352</ele>
        <time>2013-02-09T13:20:01Z</time>
      </trkpt>
      <trkpt lat="43.39388" lon="6.07966">
        <ele>289.60000610352</ele>
        <time>2013-02-09T13:20:16Z</time>
      </trkpt>
      <trkpt lat="43.39384" lon="6.07966">
        <ele>289.60000610352</ele>
        <time>2013-02-09T13:20:25Z</time>
      </trkpt>
      <trkpt lat="43.39383" lon="6.07967">
        <ele>289.60000610352</ele>
        <time>2013-02-09T13:20:26Z</time>
      </trkpt>
      <trkpt lat="43.39378" lon="6.07969">
        <ele>289.60000610352</ele>
        <time>2013-02-09T13:20:30Z</time>
      </trkpt>
      <trkpt lat="43.39374" lon="6.07974">
        <ele>289.60000610352</ele>
        <time>2013-02-09T13:20:33Z</time>
      </trkpt>
      <trkpt lat="43.39373" lon="6.07978">
        <ele>289.60000610352</ele>
        <time>2013-02-09T13:20:36Z</time>
      </trkpt>
      <trkpt lat="43.39373" lon="6.0798">
        <ele>289.60000610352</ele>
        <time>2013-02-09T13:20:41Z</time>
      </trkpt>
      <trkpt lat="43.39369" lon="6.07993">
        <ele>289.60000610352</ele>
        <time>2013-02-09T13:20:44Z</time>
      </trkpt>
      <trkpt lat="43.39363" lon="6.08003">
        <ele>289.60000610352</ele>
        <time>2013-02-09T13:20:48Z</time>
      </trkpt>
      <trkpt lat="43.39362" lon="6.08007">
        <ele>289.60000610352</ele>
        <time>2013-02-09T13:20:49Z</time>
      </trkpt>
      <trkpt lat="43.3936" lon="6.08014">
        <ele>289.60000610352</ele>
        <time>2013-02-09T13:20:52Z</time>
      </trkpt>
      <trkpt lat="43.39359" lon="6.08017">
        <ele>289.60000610352</ele>
        <time>2013-02-09T13:20:53Z</time>
      </trkpt>
      <trkpt lat="43.39356" lon="6.08026">
        <ele>289.60000610352</ele>
        <time>2013-02-09T13:20:58Z</time>
      </trkpt>
      <trkpt lat="43.39351" lon="6.08031">
        <ele>289.60000610352</ele>
        <time>2013-02-09T13:21:04Z</time>
      </trkpt>
      <trkpt lat="43.39344" lon="6.08038">
        <ele>289.60000610352</ele>
        <time>2013-02-09T13:21:09Z</time>
      </trkpt>
      <trkpt lat="43.3934" lon="6.08041">
        <ele>289.60000610352</ele>
        <time>2013-02-09T13:21:11Z</time>
      </trkpt>
      <trkpt lat="43.39339" lon="6.08043">
        <ele>290.20001220703</ele>
        <time>2013-02-09T13:21:12Z</time>
      </trkpt>
      <trkpt lat="43.39337" lon="6.08047">
        <ele>291.60000610352</ele>
        <time>2013-02-09T13:21:15Z</time>
      </trkpt>
      <trkpt lat="43.39336" lon="6.08048">
        <ele>292</ele>
        <time>2013-02-09T13:21:16Z</time>
      </trkpt>
      <trkpt lat="43.39336" lon="6.08049">
        <ele>292</ele>
        <time>2013-02-09T13:21:19Z</time>
      </trkpt>
      <trkpt lat="43.39336" lon="6.08049">
        <ele>292</ele>
        <time>2013-02-09T13:21:44Z</time>
      </trkpt>
      <trkpt lat="43.39336" lon="6.08049">
        <ele>292</ele>
        <time>2013-02-09T13:22:04Z</time>
      </trkpt>
      <trkpt lat="43.39336" lon="6.08049">
        <ele>292</ele>
        <time>2013-02-09T13:22:15Z</time>
      </trkpt>
      <trkpt lat="43.39334" lon="6.0805">
        <ele>292</ele>
        <time>2013-02-09T13:22:23Z</time>
      </trkpt>
      <trkpt lat="43.39332" lon="6.08054">
        <ele>292</ele>
        <time>2013-02-09T13:22:25Z</time>
      </trkpt>
      <trkpt lat="43.39331" lon="6.08056">
        <ele>292</ele>
        <time>2013-02-09T13:22:27Z</time>
      </trkpt>
      <trkpt lat="43.39328" lon="6.08062">
        <ele>292</ele>
        <time>2013-02-09T13:22:31Z</time>
      </trkpt>
      <trkpt lat="43.39326" lon="6.08067">
        <ele>292</ele>
        <time>2013-02-09T13:22:34Z</time>
      </trkpt>
      <trkpt lat="43.39325" lon="6.0807">
        <ele>292</ele>
        <time>2013-02-09T13:22:36Z</time>
      </trkpt>
      <trkpt lat="43.39318" lon="6.08081">
        <ele>292</ele>
        <time>2013-02-09T13:22:43Z</time>
      </trkpt>
      <trkpt lat="43.39312" lon="6.08086">
        <ele>292.39999389648</ele>
        <time>2013-02-09T13:22:47Z</time>
      </trkpt>
      <trkpt lat="43.39309" lon="6.0809">
        <ele>293.79998779297</ele>
        <time>2013-02-09T13:22:50Z</time>
      </trkpt>
      <trkpt lat="43.39304" lon="6.081">
        <ele>294.20001220703</ele>
        <time>2013-02-09T13:22:55Z</time>
      </trkpt>
      <trkpt lat="43.39303" lon="6.08101">
        <ele>294.20001220703</ele>
        <time>2013-02-09T13:22:58Z</time>
      </trkpt>
      <trkpt lat="43.39302" lon="6.08102">
        <ele>294.20001220703</ele>
        <time>2013-02-09T13:23:00Z</time>
      </trkpt>
      <trkpt lat="43.39301" lon="6.08103">
        <ele>294.20001220703</ele>
        <time>2013-02-09T13:23:01Z</time>
      </trkpt>
      <trkpt lat="43.39301" lon="6.08104">
        <ele>294.20001220703</ele>
        <time>2013-02-09T13:23:06Z</time>
      </trkpt>
      <trkpt lat="43.39301" lon="6.08104">
        <ele>294.20001220703</ele>
        <time>2013-02-09T13:23:19Z</time>
      </trkpt>
      <trkpt lat="43.39301" lon="6.08105">
        <ele>294.20001220703</ele>
        <time>2013-02-09T13:23:26Z</time>
      </trkpt>
      <trkpt lat="43.393" lon="6.08105">
        <ele>294.20001220703</ele>
        <time>2013-02-09T13:23:28Z</time>
      </trkpt>
      <trkpt lat="43.39294" lon="6.08121">
        <ele>294.20001220703</ele>
        <time>2013-02-09T13:23:36Z</time>
      </trkpt>
      <trkpt lat="43.39292" lon="6.08124">
        <ele>294.20001220703</ele>
        <time>2013-02-09T13:23:38Z</time>
      </trkpt>
      <trkpt lat="43.39291" lon="6.08126">
        <ele>294.20001220703</ele>
        <time>2013-02-09T13:23:39Z</time>
      </trkpt>
      <trkpt lat="43.39289" lon="6.0813">
        <ele>294.20001220703</ele>
        <time>2013-02-09T13:23:41Z</time>
      </trkpt>
      <trkpt lat="43.39288" lon="6.08132">
        <ele>294.60000610352</ele>
        <time>2013-02-09T13:23:42Z</time>
      </trkpt>
      <trkpt lat="43.39288" lon="6.08134">
        <ele>295</ele>
        <time>2013-02-09T13:23:43Z</time>
      </trkpt>
      <trkpt lat="43.39287" lon="6.08136">
        <ele>295.39999389648</ele>
        <time>2013-02-09T13:23:44Z</time>
      </trkpt>
      <trkpt lat="43.39286" lon="6.08141">
        <ele>296.20001220703</ele>
        <time>2013-02-09T13:23:46Z</time>
      </trkpt>
      <trkpt lat="43.39286" lon="6.08147">
        <ele>296.20001220703</ele>
        <time>2013-02-09T13:23:49Z</time>
      </trkpt>
      <trkpt lat="43.39286" lon="6.08152">
        <ele>297</ele>
        <time>2013-02-09T13:23:52Z</time>
      </trkpt>
      <trkpt lat="43.39286" lon="6.08153">
        <ele>297.39999389648</ele>
        <time>2013-02-09T13:23:53Z</time>
      </trkpt>
      <trkpt lat="43.39286" lon="6.08153">
        <ele>297.79998779297</ele>
        <time>2013-02-09T13:23:54Z</time>
      </trkpt>
      <trkpt lat="43.39286" lon="6.08153">
        <ele>298.20001220703</ele>
        <time>2013-02-09T13:23:55Z</time>
      </trkpt>
      <trkpt lat="43.39286" lon="6.08153">
        <ele>298.20001220703</ele>
        <time>2013-02-09T13:24:09Z</time>
      </trkpt>
      <trkpt lat="43.39286" lon="6.08152">
        <ele>298.20001220703</ele>
        <time>2013-02-09T13:24:47Z</time>
      </trkpt>
      <trkpt lat="43.39286" lon="6.08152">
        <ele>298.20001220703</ele>
        <time>2013-02-09T13:25:13Z</time>
      </trkpt>
      <trkpt lat="43.39285" lon="6.08154">
        <ele>298.20001220703</ele>
        <time>2013-02-09T13:25:16Z</time>
      </trkpt>
      <trkpt lat="43.39282" lon="6.08166">
        <ele>298.20001220703</ele>
        <time>2013-02-09T13:25:21Z</time>
      </trkpt>
      <trkpt lat="43.39281" lon="6.08168">
        <ele>298.20001220703</ele>
        <time>2013-02-09T13:25:22Z</time>
      </trkpt>
      <trkpt lat="43.39279" lon="6.08172">
        <ele>298.20001220703</ele>
        <time>2013-02-09T13:25:25Z</time>
      </trkpt>
      <trkpt lat="43.39278" lon="6.08173">
        <ele>298.20001220703</ele>
        <time>2013-02-09T13:25:26Z</time>
      </trkpt>
      <trkpt lat="43.39277" lon="6.08177">
        <ele>298.20001220703</ele>
        <time>2013-02-09T13:25:28Z</time>
      </trkpt>
      <trkpt lat="43.39277" lon="6.0818">
        <ele>298.20001220703</ele>
        <time>2013-02-09T13:25:30Z</time>
      </trkpt>
      <trkpt lat="43.39277" lon="6.08181">
        <ele>298.20001220703</ele>
        <time>2013-02-09T13:25:31Z</time>
      </trkpt>
      <trkpt lat="43.39275" lon="6.08185">
        <ele>298.20001220703</ele>
        <time>2013-02-09T13:25:34Z</time>
      </trkpt>
      <trkpt lat="43.39274" lon="6.08186">
        <ele>298.20001220703</ele>
        <time>2013-02-09T13:25:36Z</time>
      </trkpt>
      <trkpt lat="43.39274" lon="6.08186">
        <ele>299.79998779297</ele>
        <time>2013-02-09T13:25:40Z</time>
      </trkpt>
      <trkpt lat="43.39275" lon="6.08186">
        <ele>300.20001220703</ele>
        <time>2013-02-09T13:25:41Z</time>
      </trkpt>
      <trkpt lat="43.39275" lon="6.08185">
        <ele>300.20001220703</ele>
        <time>2013-02-09T13:25:45Z</time>
      </trkpt>
      <trkpt lat="43.39275" lon="6.08184">
        <ele>300.20001220703</ele>
        <time>2013-02-09T13:25:52Z</time>
      </trkpt>
      <trkpt lat="43.39275" lon="6.08184">
        <ele>300.20001220703</ele>
        <time>2013-02-09T13:25:59Z</time>
      </trkpt>
      <trkpt lat="43.39275" lon="6.08187">
        <ele>300.20001220703</ele>
        <time>2013-02-09T13:26:05Z</time>
      </trkpt>
      <trkpt lat="43.39274" lon="6.08188">
        <ele>300.20001220703</ele>
        <time>2013-02-09T13:26:06Z</time>
      </trkpt>
      <trkpt lat="43.39272" lon="6.0819">
        <ele>300.20001220703</ele>
        <time>2013-02-09T13:26:09Z</time>
      </trkpt>
      <trkpt lat="43.39271" lon="6.08193">
        <ele>300.20001220703</ele>
        <time>2013-02-09T13:26:11Z</time>
      </trkpt>
      <trkpt lat="43.39271" lon="6.08196">
        <ele>300.20001220703</ele>
        <time>2013-02-09T13:26:13Z</time>
      </trkpt>
      <trkpt lat="43.39272" lon="6.08201">
        <ele>300.20001220703</ele>
        <time>2013-02-09T13:26:16Z</time>
      </trkpt>
      <trkpt lat="43.39271" lon="6.0821">
        <ele>300.20001220703</ele>
        <time>2013-02-09T13:26:22Z</time>
      </trkpt>
      <trkpt lat="43.39271" lon="6.08212">
        <ele>300.20001220703</ele>
        <time>2013-02-09T13:26:27Z</time>
      </trkpt>
      <trkpt lat="43.39271" lon="6.08212">
        <ele>300.20001220703</ele>
        <time>2013-02-09T13:26:45Z</time>
      </trkpt>
      <trkpt lat="43.39271" lon="6.08212">
        <ele>300.20001220703</ele>
        <time>2013-02-09T13:27:10Z</time>
      </trkpt>
      <trkpt lat="43.39271" lon="6.08212">
        <ele>300.20001220703</ele>
        <time>2013-02-09T13:27:21Z</time>
      </trkpt>
      <trkpt lat="43.3927" lon="6.08217">
        <ele>300.20001220703</ele>
        <time>2013-02-09T13:27:24Z</time>
      </trkpt>
      <trkpt lat="43.39268" lon="6.08228">
        <ele>300.20001220703</ele>
        <time>2013-02-09T13:27:29Z</time>
      </trkpt>
      <trkpt lat="43.39267" lon="6.08233">
        <ele>300.60000610352</ele>
        <time>2013-02-09T13:27:31Z</time>
      </trkpt>
      <trkpt lat="43.39266" lon="6.08236">
        <ele>301.20001220703</ele>
        <time>2013-02-09T13:27:32Z</time>
      </trkpt>
      <trkpt lat="43.39266" lon="6.08238">
        <ele>301.60000610352</ele>
        <time>2013-02-09T13:27:33Z</time>
      </trkpt>
      <trkpt lat="43.39265" lon="6.08243">
        <ele>302.39999389648</ele>
        <time>2013-02-09T13:27:35Z</time>
      </trkpt>
      <trkpt lat="43.39264" lon="6.08249">
        <ele>302.39999389648</ele>
        <time>2013-02-09T13:27:38Z</time>
      </trkpt>
      <trkpt lat="43.39263" lon="6.08253">
        <ele>302.39999389648</ele>
        <time>2013-02-09T13:27:40Z</time>
      </trkpt>
      <trkpt lat="43.39257" lon="6.08264">
        <ele>302.79998779297</ele>
        <time>2013-02-09T13:27:46Z</time>
      </trkpt>
      <trkpt lat="43.39255" lon="6.08267">
        <ele>303.60000610352</ele>
        <time>2013-02-09T13:27:48Z</time>
      </trkpt>
      <trkpt lat="43.39252" lon="6.0827">
        <ele>304.39999389648</ele>
        <time>2013-02-09T13:27:52Z</time>
      </trkpt>
      <trkpt lat="43.39249" lon="6.08273">
        <ele>304.39999389648</ele>
        <time>2013-02-09T13:27:55Z</time>
      </trkpt>
      <trkpt lat="43.39247" lon="6.08275">
        <ele>304.39999389648</ele>
        <time>2013-02-09T13:27:57Z</time>
      </trkpt>
      <trkpt lat="43.39244" lon="6.08279">
        <ele>304.39999389648</ele>
        <time>2013-02-09T13:28:00Z</time>
      </trkpt>
      <trkpt lat="43.39242" lon="6.08283">
        <ele>304.39999389648</ele>
        <time>2013-02-09T13:28:02Z</time>
      </trkpt>
      <trkpt lat="43.39241" lon="6.08286">
        <ele>304.79998779297</ele>
        <time>2013-02-09T13:28:03Z</time>
      </trkpt>
      <trkpt lat="43.3924" lon="6.0829">
        <ele>305.79998779297</ele>
        <time>2013-02-09T13:28:05Z</time>
      </trkpt>
      <trkpt lat="43.39239" lon="6.08294">
        <ele>306.60000610352</ele>
        <time>2013-02-09T13:28:07Z</time>
      </trkpt>
      <trkpt lat="43.39237" lon="6.08298">
        <ele>306.60000610352</ele>
        <time>2013-02-09T13:28:10Z</time>
      </trkpt>
      <trkpt lat="43.39237" lon="6.08298">
        <ele>306.60000610352</ele>
        <time>2013-02-09T13:28:11Z</time>
      </trkpt>
      <trkpt lat="43.39237" lon="6.08298">
        <ele>306.60000610352</ele>
        <time>2013-02-09T13:28:37Z</time>
      </trkpt>
      <trkpt lat="43.39237" lon="6.08298">
        <ele>306.60000610352</ele>
        <time>2013-02-09T13:28:52Z</time>
      </trkpt>
      <trkpt lat="43.39236" lon="6.08298">
        <ele>306.60000610352</ele>
        <time>2013-02-09T13:28:54Z</time>
      </trkpt>
      <trkpt lat="43.39235" lon="6.08303">
        <ele>306.60000610352</ele>
        <time>2013-02-09T13:28:59Z</time>
      </trkpt>
      <trkpt lat="43.39233" lon="6.08304">
        <ele>306.60000610352</ele>
        <time>2013-02-09T13:29:00Z</time>
      </trkpt>
      <trkpt lat="43.39234" lon="6.0831">
        <ele>308</ele>
        <time>2013-02-09T13:29:06Z</time>
      </trkpt>
      <trkpt lat="43.39234" lon="6.0831">
        <ele>308.79998779297</ele>
        <time>2013-02-09T13:29:07Z</time>
      </trkpt>
      <trkpt lat="43.39234" lon="6.08309">
        <ele>308.79998779297</ele>
        <time>2013-02-09T13:29:11Z</time>
      </trkpt>
      <trkpt lat="43.39235" lon="6.08308">
        <ele>308.79998779297</ele>
        <time>2013-02-09T13:29:13Z</time>
      </trkpt>
      <trkpt lat="43.39235" lon="6.08306">
        <ele>308.79998779297</ele>
        <time>2013-02-09T13:29:14Z</time>
      </trkpt>
      <trkpt lat="43.39235" lon="6.08303">
        <ele>308.79998779297</ele>
        <time>2013-02-09T13:29:18Z</time>
      </trkpt>
      <trkpt lat="43.39235" lon="6.08303">
        <ele>308.79998779297</ele>
        <time>2013-02-09T13:29:25Z</time>
      </trkpt>
      <trkpt lat="43.39235" lon="6.08304">
        <ele>308.79998779297</ele>
        <time>2013-02-09T13:29:32Z</time>
      </trkpt>
      <trkpt lat="43.39235" lon="6.08304">
        <ele>308.79998779297</ele>
        <time>2013-02-09T13:29:38Z</time>
      </trkpt>
      <trkpt lat="43.39234" lon="6.08306">
        <ele>308.79998779297</ele>
        <time>2013-02-09T13:29:40Z</time>
      </trkpt>
      <trkpt lat="43.39233" lon="6.0831">
        <ele>308.79998779297</ele>
        <time>2013-02-09T13:29:42Z</time>
      </trkpt>
      <trkpt lat="43.39233" lon="6.08312">
        <ele>308.79998779297</ele>
        <time>2013-02-09T13:29:45Z</time>
      </trkpt>
      <trkpt lat="43.39232" lon="6.08314">
        <ele>308.79998779297</ele>
        <time>2013-02-09T13:29:47Z</time>
      </trkpt>
      <trkpt lat="43.3923" lon="6.08316">
        <ele>308.79998779297</ele>
        <time>2013-02-09T13:29:51Z</time>
      </trkpt>
      <trkpt lat="43.3923" lon="6.08317">
        <ele>308.79998779297</ele>
        <time>2013-02-09T13:29:58Z</time>
      </trkpt>
      <trkpt lat="43.3923" lon="6.08317">
        <ele>308.79998779297</ele>
        <time>2013-02-09T13:30:05Z</time>
      </trkpt>
      <trkpt lat="43.3923" lon="6.08317">
        <ele>308.79998779297</ele>
        <time>2013-02-09T13:30:15Z</time>
      </trkpt>
      <trkpt lat="43.3923" lon="6.08317">
        <ele>308.79998779297</ele>
        <time>2013-02-09T13:30:19Z</time>
      </trkpt>
      <trkpt lat="43.39229" lon="6.08319">
        <ele>308.79998779297</ele>
        <time>2013-02-09T13:30:24Z</time>
      </trkpt>
      <trkpt lat="43.39229" lon="6.0832">
        <ele>308.79998779297</ele>
        <time>2013-02-09T13:30:25Z</time>
      </trkpt>
      <trkpt lat="43.3923" lon="6.08323">
        <ele>308.79998779297</ele>
        <time>2013-02-09T13:30:27Z</time>
      </trkpt>
      <trkpt lat="43.39228" lon="6.08326">
        <ele>309.20001220703</ele>
        <time>2013-02-09T13:30:29Z</time>
      </trkpt>
      <trkpt lat="43.39227" lon="6.08327">
        <ele>309.60000610352</ele>
        <time>2013-02-09T13:30:30Z</time>
      </trkpt>
      <trkpt lat="43.39222" lon="6.0833">
        <ele>310.79998779297</ele>
        <time>2013-02-09T13:30:33Z</time>
      </trkpt>
      <trkpt lat="43.39221" lon="6.08334">
        <ele>310.79998779297</ele>
        <time>2013-02-09T13:30:35Z</time>
      </trkpt>
      <trkpt lat="43.39221" lon="6.08338">
        <ele>310.79998779297</ele>
        <time>2013-02-09T13:30:37Z</time>
      </trkpt>
      <trkpt lat="43.39221" lon="6.08345">
        <ele>310.79998779297</ele>
        <time>2013-02-09T13:30:40Z</time>
      </trkpt>
      <trkpt lat="43.3922" lon="6.08357">
        <ele>313</ele>
        <time>2013-02-09T13:30:45Z</time>
      </trkpt>
      <trkpt lat="43.39218" lon="6.08369">
        <ele>313</ele>
        <time>2013-02-09T13:30:52Z</time>
      </trkpt>
      <trkpt lat="43.39212" lon="6.08382">
        <ele>313.39999389648</ele>
        <time>2013-02-09T13:30:58Z</time>
      </trkpt>
      <trkpt lat="43.39212" lon="6.08386">
        <ele>314.39999389648</ele>
        <time>2013-02-09T13:31:00Z</time>
      </trkpt>
      <trkpt lat="43.39212" lon="6.08387">
        <ele>314.79998779297</ele>
        <time>2013-02-09T13:31:01Z</time>
      </trkpt>
      <trkpt lat="43.39212" lon="6.08387">
        <ele>315.20001220703</ele>
        <time>2013-02-09T13:31:03Z</time>
      </trkpt>
      <trkpt lat="43.39212" lon="6.08386">
        <ele>315.20001220703</ele>
        <time>2013-02-09T13:31:08Z</time>
      </trkpt>
      <trkpt lat="43.39212" lon="6.08386">
        <ele>315.20001220703</ele>
        <time>2013-02-09T13:31:14Z</time>
      </trkpt>
      <trkpt lat="43.39212" lon="6.08386">
        <ele>315.20001220703</ele>
        <time>2013-02-09T13:31:20Z</time>
      </trkpt>
      <trkpt lat="43.39212" lon="6.08386">
        <ele>315.20001220703</ele>
        <time>2013-02-09T13:31:29Z</time>
      </trkpt>
      <trkpt lat="43.39213" lon="6.08386">
        <ele>315.20001220703</ele>
        <time>2013-02-09T13:31:36Z</time>
      </trkpt>
      <trkpt lat="43.39213" lon="6.08386">
        <ele>315.20001220703</ele>
        <time>2013-02-09T13:31:39Z</time>
      </trkpt>
      <trkpt lat="43.39213" lon="6.08386">
        <ele>315.20001220703</ele>
        <time>2013-02-09T13:31:54Z</time>
      </trkpt>
      <trkpt lat="43.39213" lon="6.08386">
        <ele>315.20001220703</ele>
        <time>2013-02-09T13:32:19Z</time>
      </trkpt>
      <trkpt lat="43.39213" lon="6.08386">
        <ele>315.20001220703</ele>
        <time>2013-02-09T13:32:40Z</time>
      </trkpt>
      <trkpt lat="43.39213" lon="6.08386">
        <ele>315.20001220703</ele>
        <time>2013-02-09T13:33:05Z</time>
      </trkpt>
      <trkpt lat="43.39213" lon="6.08386">
        <ele>315.20001220703</ele>
        <time>2013-02-09T13:33:12Z</time>
      </trkpt>
      <trkpt lat="43.39213" lon="6.08386">
        <ele>315.20001220703</ele>
        <time>2013-02-09T13:33:15Z</time>
      </trkpt>
      <trkpt lat="43.39213" lon="6.0839">
        <ele>315.20001220703</ele>
        <time>2013-02-09T13:33:17Z</time>
      </trkpt>
      <trkpt lat="43.39212" lon="6.08404">
        <ele>315.20001220703</ele>
        <time>2013-02-09T13:33:23Z</time>
      </trkpt>
      <trkpt lat="43.39209" lon="6.08411">
        <ele>315.20001220703</ele>
        <time>2013-02-09T13:33:26Z</time>
      </trkpt>
      <trkpt lat="43.39209" lon="6.08412">
        <ele>315.60000610352</ele>
        <time>2013-02-09T13:33:27Z</time>
      </trkpt>
      <trkpt lat="43.39207" lon="6.08416">
        <ele>316.60000610352</ele>
        <time>2013-02-09T13:33:29Z</time>
      </trkpt>
      <trkpt lat="43.39206" lon="6.08419">
        <ele>317.39999389648</ele>
        <time>2013-02-09T13:33:31Z</time>
      </trkpt>
      <trkpt lat="43.39205" lon="6.08426">
        <ele>317.39999389648</ele>
        <time>2013-02-09T13:33:34Z</time>
      </trkpt>
      <trkpt lat="43.39204" lon="6.08429">
        <ele>317.79998779297</ele>
        <time>2013-02-09T13:33:36Z</time>
      </trkpt>
      <trkpt lat="43.39204" lon="6.08429">
        <ele>318.20001220703</ele>
        <time>2013-02-09T13:33:37Z</time>
      </trkpt>
      <trkpt lat="43.39204" lon="6.08429">
        <ele>318.60000610352</ele>
        <time>2013-02-09T13:33:38Z</time>
      </trkpt>
      <trkpt lat="43.39204" lon="6.08429">
        <ele>319.39999389648</ele>
        <time>2013-02-09T13:33:39Z</time>
      </trkpt>
      <trkpt lat="43.39203" lon="6.08433">
        <ele>319.39999389648</ele>
        <time>2013-02-09T13:33:45Z</time>
      </trkpt>
      <trkpt lat="43.39203" lon="6.08434">
        <ele>319.39999389648</ele>
        <time>2013-02-09T13:33:51Z</time>
      </trkpt>
      <trkpt lat="43.39204" lon="6.08441">
        <ele>320.20001220703</ele>
        <time>2013-02-09T13:34:03Z</time>
      </trkpt>
      <trkpt lat="43.39204" lon="6.08441">
        <ele>321.20001220703</ele>
        <time>2013-02-09T13:34:04Z</time>
      </trkpt>
      <trkpt lat="43.39204" lon="6.08441">
        <ele>321.60000610352</ele>
        <time>2013-02-09T13:34:13Z</time>
      </trkpt>
      <trkpt lat="43.39204" lon="6.08441">
        <ele>321.60000610352</ele>
        <time>2013-02-09T13:34:17Z</time>
      </trkpt>
      <trkpt lat="43.39204" lon="6.08442">
        <ele>321.60000610352</ele>
        <time>2013-02-09T13:34:20Z</time>
      </trkpt>
      <trkpt lat="43.39204" lon="6.08449">
        <ele>321.60000610352</ele>
        <time>2013-02-09T13:34:23Z</time>
      </trkpt>
      <trkpt lat="43.39201" lon="6.08461">
        <ele>321.60000610352</ele>
        <time>2013-02-09T13:34:28Z</time>
      </trkpt>
      <trkpt lat="43.39201" lon="6.08463">
        <ele>321.60000610352</ele>
        <time>2013-02-09T13:34:29Z</time>
      </trkpt>
      <trkpt lat="43.39201" lon="6.08468">
        <ele>321.60000610352</ele>
        <time>2013-02-09T13:34:31Z</time>
      </trkpt>
      <trkpt lat="43.39199" lon="6.08474">
        <ele>321.60000610352</ele>
        <time>2013-02-09T13:34:34Z</time>
      </trkpt>
      <trkpt lat="43.39198" lon="6.08479">
        <ele>322</ele>
        <time>2013-02-09T13:34:36Z</time>
      </trkpt>
      <trkpt lat="43.39198" lon="6.08487">
        <ele>323.79998779297</ele>
        <time>2013-02-09T13:34:40Z</time>
      </trkpt>
      <trkpt lat="43.39197" lon="6.08497">
        <ele>323.79998779297</ele>
        <time>2013-02-09T13:34:46Z</time>
      </trkpt>
      <trkpt lat="43.39196" lon="6.08499">
        <ele>323.79998779297</ele>
        <time>2013-02-09T13:34:48Z</time>
      </trkpt>
      <trkpt lat="43.39193" lon="6.08502">
        <ele>323.79998779297</ele>
        <time>2013-02-09T13:34:51Z</time>
      </trkpt>
      <trkpt lat="43.39191" lon="6.08505">
        <ele>323.79998779297</ele>
        <time>2013-02-09T13:34:54Z</time>
      </trkpt>
      <trkpt lat="43.3919" lon="6.08517">
        <ele>323.79998779297</ele>
        <time>2013-02-09T13:35:01Z</time>
      </trkpt>
      <trkpt lat="43.39188" lon="6.08522">
        <ele>323.79998779297</ele>
        <time>2013-02-09T13:35:04Z</time>
      </trkpt>
      <trkpt lat="43.39186" lon="6.08528">
        <ele>323.79998779297</ele>
        <time>2013-02-09T13:35:07Z</time>
      </trkpt>
      <trkpt lat="43.39185" lon="6.08532">
        <ele>323.79998779297</ele>
        <time>2013-02-09T13:35:10Z</time>
      </trkpt>
      <trkpt lat="43.39185" lon="6.08533">
        <ele>323.79998779297</ele>
        <time>2013-02-09T13:35:14Z</time>
      </trkpt>
      <trkpt lat="43.39185" lon="6.08533">
        <ele>323.79998779297</ele>
        <time>2013-02-09T13:35:16Z</time>
      </trkpt>
      <trkpt lat="43.39185" lon="6.08533">
        <ele>323.79998779297</ele>
        <time>2013-02-09T13:35:21Z</time>
      </trkpt>
      <trkpt lat="43.39184" lon="6.08535">
        <ele>323.79998779297</ele>
        <time>2013-02-09T13:35:25Z</time>
      </trkpt>
      <trkpt lat="43.39178" lon="6.08548">
        <ele>323.79998779297</ele>
        <time>2013-02-09T13:35:29Z</time>
      </trkpt>
      <trkpt lat="43.39172" lon="6.08571">
        <ele>323.79998779297</ele>
        <time>2013-02-09T13:35:35Z</time>
      </trkpt>
      <trkpt lat="43.39168" lon="6.08592">
        <ele>323.20001220703</ele>
        <time>2013-02-09T13:35:40Z</time>
      </trkpt>
      <trkpt lat="43.39167" lon="6.08597">
        <ele>322.79998779297</ele>
        <time>2013-02-09T13:35:41Z</time>
      </trkpt>
      <trkpt lat="43.39165" lon="6.08607">
        <ele>321.60000610352</ele>
        <time>2013-02-09T13:35:43Z</time>
      </trkpt>
      <trkpt lat="43.39165" lon="6.08612">
        <ele>321.60000610352</ele>
        <time>2013-02-09T13:35:44Z</time>
      </trkpt>
      <trkpt lat="43.39159" lon="6.08634">
        <ele>321.60000610352</ele>
        <time>2013-02-09T13:35:49Z</time>
      </trkpt>
      <trkpt lat="43.39151" lon="6.08664">
        <ele>321.60000610352</ele>
        <time>2013-02-09T13:35:58Z</time>
      </trkpt>
      <trkpt lat="43.39151" lon="6.08667">
        <ele>321.60000610352</ele>
        <time>2013-02-09T13:35:59Z</time>
      </trkpt>
      <trkpt lat="43.39149" lon="6.08678">
        <ele>321.60000610352</ele>
        <time>2013-02-09T13:36:02Z</time>
      </trkpt>
      <trkpt lat="43.39148" lon="6.08695">
        <ele>321.60000610352</ele>
        <time>2013-02-09T13:36:07Z</time>
      </trkpt>
      <trkpt lat="43.39146" lon="6.08711">
        <ele>321.60000610352</ele>
        <time>2013-02-09T13:36:11Z</time>
      </trkpt>
      <trkpt lat="43.39141" lon="6.08742">
        <ele>321.60000610352</ele>
        <time>2013-02-09T13:36:21Z</time>
      </trkpt>
      <trkpt lat="43.39139" lon="6.08757">
        <ele>321.60000610352</ele>
        <time>2013-02-09T13:36:26Z</time>
      </trkpt>
      <trkpt lat="43.39134" lon="6.08777">
        <ele>321.60000610352</ele>
        <time>2013-02-09T13:36:32Z</time>
      </trkpt>
      <trkpt lat="43.39127" lon="6.08802">
        <ele>321.60000610352</ele>
        <time>2013-02-09T13:36:38Z</time>
      </trkpt>
      <trkpt lat="43.39123" lon="6.08814">
        <ele>321.60000610352</ele>
        <time>2013-02-09T13:36:41Z</time>
      </trkpt>
      <trkpt lat="43.3912" lon="6.08827">
        <ele>321.60000610352</ele>
        <time>2013-02-09T13:36:44Z</time>
      </trkpt>
      <trkpt lat="43.39118" lon="6.08839">
        <ele>322</ele>
        <time>2013-02-09T13:36:47Z</time>
      </trkpt>
      <trkpt lat="43.39117" lon="6.08847">
        <ele>322.79998779297</ele>
        <time>2013-02-09T13:36:49Z</time>
      </trkpt>
      <trkpt lat="43.39115" lon="6.08855">
        <ele>323.60000610352</ele>
        <time>2013-02-09T13:36:51Z</time>
      </trkpt>
      <trkpt lat="43.39111" lon="6.08873">
        <ele>323.60000610352</ele>
        <time>2013-02-09T13:36:56Z</time>
      </trkpt>
      <trkpt lat="43.39106" lon="6.08888">
        <ele>323.60000610352</ele>
        <time>2013-02-09T13:37:01Z</time>
      </trkpt>
      <trkpt lat="43.39104" lon="6.08902">
        <ele>323.60000610352</ele>
        <time>2013-02-09T13:37:05Z</time>
      </trkpt>
      <trkpt lat="43.39098" lon="6.0893">
        <ele>323.60000610352</ele>
        <time>2013-02-09T13:37:13Z</time>
      </trkpt>
      <trkpt lat="43.39097" lon="6.08936">
        <ele>323.60000610352</ele>
        <time>2013-02-09T13:37:15Z</time>
      </trkpt>
      <trkpt lat="43.39091" lon="6.08958">
        <ele>323.60000610352</ele>
        <time>2013-02-09T13:37:22Z</time>
      </trkpt>
      <trkpt lat="43.39087" lon="6.08971">
        <ele>323.60000610352</ele>
        <time>2013-02-09T13:37:27Z</time>
      </trkpt>
      <trkpt lat="43.39075" lon="6.09003">
        <ele>325.60000610352</ele>
        <time>2013-02-09T13:37:38Z</time>
      </trkpt>
      <trkpt lat="43.39061" lon="6.0903">
        <ele>325.60000610352</ele>
        <time>2013-02-09T13:37:48Z</time>
      </trkpt>
      <trkpt lat="43.39046" lon="6.09059">
        <ele>325.60000610352</ele>
        <time>2013-02-09T13:37:59Z</time>
      </trkpt>
      <trkpt lat="43.39039" lon="6.09076">
        <ele>325.60000610352</ele>
        <time>2013-02-09T13:38:05Z</time>
      </trkpt>
      <trkpt lat="43.39035" lon="6.09086">
        <ele>327</ele>
        <time>2013-02-09T13:38:08Z</time>
      </trkpt>
      <trkpt lat="43.39033" lon="6.09092">
        <ele>327.79998779297</ele>
        <time>2013-02-09T13:38:10Z</time>
      </trkpt>
      <trkpt lat="43.39032" lon="6.09095">
        <ele>327.79998779297</ele>
        <time>2013-02-09T13:38:11Z</time>
      </trkpt>
      <trkpt lat="43.39028" lon="6.09106">
        <ele>327.79998779297</ele>
        <time>2013-02-09T13:38:15Z</time>
      </trkpt>
      <trkpt lat="43.39027" lon="6.09109">
        <ele>327.79998779297</ele>
        <time>2013-02-09T13:38:16Z</time>
      </trkpt>
      <trkpt lat="43.39024" lon="6.09121">
        <ele>327.79998779297</ele>
        <time>2013-02-09T13:38:21Z</time>
      </trkpt>
      <trkpt lat="43.39024" lon="6.09122">
        <ele>327.79998779297</ele>
        <time>2013-02-09T13:38:26Z</time>
      </trkpt>
      <trkpt lat="43.39024" lon="6.09122">
        <ele>327.79998779297</ele>
        <time>2013-02-09T13:38:39Z</time>
      </trkpt>
      <trkpt lat="43.39024" lon="6.09122">
        <ele>327.79998779297</ele>
        <time>2013-02-09T13:38:52Z</time>
      </trkpt>
      <trkpt lat="43.39022" lon="6.09128">
        <ele>327.79998779297</ele>
        <time>2013-02-09T13:38:57Z</time>
      </trkpt>
      <trkpt lat="43.39017" lon="6.09147">
        <ele>327.79998779297</ele>
        <time>2013-02-09T13:39:03Z</time>
      </trkpt>
      <trkpt lat="43.39012" lon="6.09168">
        <ele>327.79998779297</ele>
        <time>2013-02-09T13:39:10Z</time>
      </trkpt>
      <trkpt lat="43.3901" lon="6.09177">
        <ele>327.79998779297</ele>
        <time>2013-02-09T13:39:13Z</time>
      </trkpt>
      <trkpt lat="43.39006" lon="6.09203">
        <ele>329.79998779297</ele>
        <time>2013-02-09T13:39:21Z</time>
      </trkpt>
      <trkpt lat="43.39003" lon="6.09225">
        <ele>329.79998779297</ele>
        <time>2013-02-09T13:39:27Z</time>
      </trkpt>
      <trkpt lat="43.38999" lon="6.09245">
        <ele>329.79998779297</ele>
        <time>2013-02-09T13:39:33Z</time>
      </trkpt>
      <trkpt lat="43.38992" lon="6.09264">
        <ele>329.79998779297</ele>
        <time>2013-02-09T13:39:39Z</time>
      </trkpt>
      <trkpt lat="43.38985" lon="6.09285">
        <ele>329.79998779297</ele>
        <time>2013-02-09T13:39:46Z</time>
      </trkpt>
      <trkpt lat="43.38978" lon="6.09295">
        <ele>330.79998779297</ele>
        <time>2013-02-09T13:39:51Z</time>
      </trkpt>
      <trkpt lat="43.38974" lon="6.09302">
        <ele>332</ele>
        <time>2013-02-09T13:39:54Z</time>
      </trkpt>
      <trkpt lat="43.38968" lon="6.09312">
        <ele>332</ele>
        <time>2013-02-09T13:39:58Z</time>
      </trkpt>
      <trkpt lat="43.38962" lon="6.09323">
        <ele>332</ele>
        <time>2013-02-09T13:40:03Z</time>
      </trkpt>
      <trkpt lat="43.38958" lon="6.09334">
        <ele>333.60000610352</ele>
        <time>2013-02-09T13:40:08Z</time>
      </trkpt>
      <trkpt lat="43.38956" lon="6.09337">
        <ele>334</ele>
        <time>2013-02-09T13:40:09Z</time>
      </trkpt>
      <trkpt lat="43.38947" lon="6.09346">
        <ele>334</ele>
        <time>2013-02-09T13:40:15Z</time>
      </trkpt>
      <trkpt lat="43.38938" lon="6.09355">
        <ele>334</ele>
        <time>2013-02-09T13:40:21Z</time>
      </trkpt>
      <trkpt lat="43.38933" lon="6.09362">
        <ele>334</ele>
        <time>2013-02-09T13:40:25Z</time>
      </trkpt>
      <trkpt lat="43.38922" lon="6.09373">
        <ele>334</ele>
        <time>2013-02-09T13:40:31Z</time>
      </trkpt>
      <trkpt lat="43.38914" lon="6.09382">
        <ele>335.60000610352</ele>
        <time>2013-02-09T13:40:37Z</time>
      </trkpt>
      <trkpt lat="43.38908" lon="6.0939">
        <ele>336</ele>
        <time>2013-02-09T13:40:42Z</time>
      </trkpt>
      <trkpt lat="43.38901" lon="6.09399">
        <ele>336.60000610352</ele>
        <time>2013-02-09T13:40:47Z</time>
      </trkpt>
      <trkpt lat="43.38898" lon="6.09401">
        <ele>337.39999389648</ele>
        <time>2013-02-09T13:40:49Z</time>
      </trkpt>
      <trkpt lat="43.38895" lon="6.09404">
        <ele>338.20001220703</ele>
        <time>2013-02-09T13:40:51Z</time>
      </trkpt>
      <trkpt lat="43.38893" lon="6.09408">
        <ele>338.20001220703</ele>
        <time>2013-02-09T13:40:54Z</time>
      </trkpt>
      <trkpt lat="43.38893" lon="6.0941">
        <ele>338.20001220703</ele>
        <time>2013-02-09T13:40:55Z</time>
      </trkpt>
      <trkpt lat="43.3889" lon="6.09419">
        <ele>338.60000610352</ele>
        <time>2013-02-09T13:41:01Z</time>
      </trkpt>
      <trkpt lat="43.3889" lon="6.09419">
        <ele>339</ele>
        <time>2013-02-09T13:41:02Z</time>
      </trkpt>
      <trkpt lat="43.3889" lon="6.09419">
        <ele>340.39999389648</ele>
        <time>2013-02-09T13:41:07Z</time>
      </trkpt>
      <trkpt lat="43.38892" lon="6.09415">
        <ele>340.39999389648</ele>
        <time>2013-02-09T13:41:13Z</time>
      </trkpt>
      <trkpt lat="43.38891" lon="6.09414">
        <ele>340.39999389648</ele>
        <time>2013-02-09T13:41:14Z</time>
      </trkpt>
      <trkpt lat="43.3889" lon="6.09411">
        <ele>340.39999389648</ele>
        <time>2013-02-09T13:41:18Z</time>
      </trkpt>
      <trkpt lat="43.3889" lon="6.09411">
        <ele>340.39999389648</ele>
        <time>2013-02-09T13:41:22Z</time>
      </trkpt>
      <trkpt lat="43.3889" lon="6.09411">
        <ele>340.39999389648</ele>
        <time>2013-02-09T13:41:25Z</time>
      </trkpt>
      <trkpt lat="43.3889" lon="6.09412">
        <ele>340.39999389648</ele>
        <time>2013-02-09T13:41:30Z</time>
      </trkpt>
      <trkpt lat="43.3889" lon="6.09414">
        <ele>340.39999389648</ele>
        <time>2013-02-09T13:41:32Z</time>
      </trkpt>
      <trkpt lat="43.3889" lon="6.0942">
        <ele>340.39999389648</ele>
        <time>2013-02-09T13:41:36Z</time>
      </trkpt>
      <trkpt lat="43.38889" lon="6.0942">
        <ele>340.39999389648</ele>
        <time>2013-02-09T13:41:37Z</time>
      </trkpt>
      <trkpt lat="43.38889" lon="6.09421">
        <ele>340.39999389648</ele>
        <time>2013-02-09T13:41:40Z</time>
      </trkpt>
      <trkpt lat="43.38889" lon="6.09421">
        <ele>340.39999389648</ele>
        <time>2013-02-09T13:41:46Z</time>
      </trkpt>
      <trkpt lat="43.38887" lon="6.09421">
        <ele>340.39999389648</ele>
        <time>2013-02-09T13:41:52Z</time>
      </trkpt>
      <trkpt lat="43.38887" lon="6.09421">
        <ele>340.39999389648</ele>
        <time>2013-02-09T13:41:55Z</time>
      </trkpt>
      <trkpt lat="43.38886" lon="6.0942">
        <ele>340.39999389648</ele>
        <time>2013-02-09T13:41:56Z</time>
      </trkpt>
      <trkpt lat="43.38884" lon="6.09424">
        <ele>340.39999389648</ele>
        <time>2013-02-09T13:42:02Z</time>
      </trkpt>
      <trkpt lat="43.38883" lon="6.09426">
        <ele>340.39999389648</ele>
        <time>2013-02-09T13:42:08Z</time>
      </trkpt>
      <trkpt lat="43.38883" lon="6.09426">
        <ele>342.39999389648</ele>
        <time>2013-02-09T13:42:13Z</time>
      </trkpt>
      <trkpt lat="43.3888" lon="6.09429">
        <ele>342.39999389648</ele>
        <time>2013-02-09T13:42:22Z</time>
      </trkpt>
      <trkpt lat="43.3888" lon="6.09429">
        <ele>342.39999389648</ele>
        <time>2013-02-09T13:42:27Z</time>
      </trkpt>
      <trkpt lat="43.38879" lon="6.09429">
        <ele>342.39999389648</ele>
        <time>2013-02-09T13:42:39Z</time>
      </trkpt>
      <trkpt lat="43.38879" lon="6.09429">
        <ele>342.39999389648</ele>
        <time>2013-02-09T13:42:57Z</time>
      </trkpt>
      <trkpt lat="43.38879" lon="6.09429">
        <ele>342.39999389648</ele>
        <time>2013-02-09T13:43:06Z</time>
      </trkpt>
      <trkpt lat="43.38878" lon="6.09429">
        <ele>342.39999389648</ele>
        <time>2013-02-09T13:43:13Z</time>
      </trkpt>
      <trkpt lat="43.38875" lon="6.0943">
        <ele>342.39999389648</ele>
        <time>2013-02-09T13:43:15Z</time>
      </trkpt>
      <trkpt lat="43.38872" lon="6.09429">
        <ele>342.39999389648</ele>
        <time>2013-02-09T13:43:18Z</time>
      </trkpt>
      <trkpt lat="43.38872" lon="6.09429">
        <ele>342.39999389648</ele>
        <time>2013-02-09T13:43:29Z</time>
      </trkpt>
      <trkpt lat="43.38872" lon="6.09429">
        <ele>342.39999389648</ele>
        <time>2013-02-09T13:43:44Z</time>
      </trkpt>
      <trkpt lat="43.38871" lon="6.09429">
        <ele>342.39999389648</ele>
        <time>2013-02-09T13:43:48Z</time>
      </trkpt>
      <trkpt lat="43.38867" lon="6.09426">
        <ele>342.39999389648</ele>
        <time>2013-02-09T13:43:51Z</time>
      </trkpt>
      <trkpt lat="43.38862" lon="6.09421">
        <ele>342</ele>
        <time>2013-02-09T13:43:53Z</time>
      </trkpt>
      <trkpt lat="43.3886" lon="6.09418">
        <ele>341</ele>
        <time>2013-02-09T13:43:55Z</time>
      </trkpt>
      <trkpt lat="43.38859" lon="6.09416">
        <ele>340.20001220703</ele>
        <time>2013-02-09T13:43:56Z</time>
      </trkpt>
      <trkpt lat="43.38856" lon="6.09412">
        <ele>339.79998779297</ele>
        <time>2013-02-09T13:43:58Z</time>
      </trkpt>
      <trkpt lat="43.38853" lon="6.09406">
        <ele>339</ele>
        <time>2013-02-09T13:44:00Z</time>
      </trkpt>
      <trkpt lat="43.38851" lon="6.09405">
        <ele>338.60000610352</ele>
        <time>2013-02-09T13:44:01Z</time>
      </trkpt>
      <trkpt lat="43.38849" lon="6.09401">
        <ele>338.20001220703</ele>
        <time>2013-02-09T13:44:03Z</time>
      </trkpt>
      <trkpt lat="43.38844" lon="6.09393">
        <ele>338.20001220703</ele>
        <time>2013-02-09T13:44:08Z</time>
      </trkpt>
      <trkpt lat="43.38841" lon="6.09388">
        <ele>336.79998779297</ele>
        <time>2013-02-09T13:44:11Z</time>
      </trkpt>
      <trkpt lat="43.3884" lon="6.09389">
        <ele>336.39999389648</ele>
        <time>2013-02-09T13:44:12Z</time>
      </trkpt>
      <trkpt lat="43.3884" lon="6.09389">
        <ele>336</ele>
        <time>2013-02-09T13:44:13Z</time>
      </trkpt>
      <trkpt lat="43.38839" lon="6.09389">
        <ele>336</ele>
        <time>2013-02-09T13:44:22Z</time>
      </trkpt>
      <trkpt lat="43.38839" lon="6.09391">
        <ele>336</ele>
        <time>2013-02-09T13:44:23Z</time>
      </trkpt>
      <trkpt lat="43.38835" lon="6.0941">
        <ele>334.20001220703</ele>
        <time>2013-02-09T13:44:28Z</time>
      </trkpt>
      <trkpt lat="43.38834" lon="6.09415">
        <ele>333.20001220703</ele>
        <time>2013-02-09T13:44:30Z</time>
      </trkpt>
      <trkpt lat="43.38834" lon="6.09417">
        <ele>332.60000610352</ele>
        <time>2013-02-09T13:44:31Z</time>
      </trkpt>
      <trkpt lat="43.38834" lon="6.09419">
        <ele>332.20001220703</ele>
        <time>2013-02-09T13:44:32Z</time>
      </trkpt>
      <trkpt lat="43.38833" lon="6.09421">
        <ele>331.60000610352</ele>
        <time>2013-02-09T13:44:33Z</time>
      </trkpt>
      <trkpt lat="43.38831" lon="6.09424">
        <ele>331.60000610352</ele>
        <time>2013-02-09T13:44:36Z</time>
      </trkpt>
      <trkpt lat="43.38829" lon="6.09426">
        <ele>331.20001220703</ele>
        <time>2013-02-09T13:44:38Z</time>
      </trkpt>
      <trkpt lat="43.38828" lon="6.09425">
        <ele>330.60000610352</ele>
        <time>2013-02-09T13:44:39Z</time>
      </trkpt>
      <trkpt lat="43.38828" lon="6.09425">
        <ele>330.20001220703</ele>
        <time>2013-02-09T13:44:40Z</time>
      </trkpt>
      <trkpt lat="43.38828" lon="6.09425">
        <ele>329.79998779297</ele>
        <time>2013-02-09T13:44:41Z</time>
      </trkpt>
      <trkpt lat="43.38828" lon="6.09425">
        <ele>329.39999389648</ele>
        <time>2013-02-09T13:44:49Z</time>
      </trkpt>
      <trkpt lat="43.38828" lon="6.09425">
        <ele>329.39999389648</ele>
        <time>2013-02-09T13:44:59Z</time>
      </trkpt>
      <trkpt lat="43.38824" lon="6.09417">
        <ele>329.39999389648</ele>
        <time>2013-02-09T13:45:04Z</time>
      </trkpt>
      <trkpt lat="43.38818" lon="6.09407">
        <ele>329.39999389648</ele>
        <time>2013-02-09T13:45:06Z</time>
      </trkpt>
      <trkpt lat="43.38809" lon="6.09389">
        <ele>327.79998779297</ele>
        <time>2013-02-09T13:45:09Z</time>
      </trkpt>
      <trkpt lat="43.38805" lon="6.09383">
        <ele>326.60000610352</ele>
        <time>2013-02-09T13:45:10Z</time>
      </trkpt>
      <trkpt lat="43.388" lon="6.09378">
        <ele>326</ele>
        <time>2013-02-09T13:45:11Z</time>
      </trkpt>
      <trkpt lat="43.38795" lon="6.09372">
        <ele>325</ele>
        <time>2013-02-09T13:45:12Z</time>
      </trkpt>
      <trkpt lat="43.3879" lon="6.09366">
        <ele>324.20001220703</ele>
        <time>2013-02-09T13:45:13Z</time>
      </trkpt>
      <trkpt lat="43.38778" lon="6.09355">
        <ele>322.60000610352</ele>
        <time>2013-02-09T13:45:15Z</time>
      </trkpt>
      <trkpt lat="43.38772" lon="6.09351">
        <ele>321.79998779297</ele>
        <time>2013-02-09T13:45:16Z</time>
      </trkpt>
      <trkpt lat="43.38765" lon="6.09348">
        <ele>320.79998779297</ele>
        <time>2013-02-09T13:45:17Z</time>
      </trkpt>
      <trkpt lat="43.38758" lon="6.09344">
        <ele>319.79998779297</ele>
        <time>2013-02-09T13:45:18Z</time>
      </trkpt>
      <trkpt lat="43.38751" lon="6.09341">
        <ele>318.60000610352</ele>
        <time>2013-02-09T13:45:19Z</time>
      </trkpt>
      <trkpt lat="43.38745" lon="6.09339">
        <ele>317.39999389648</ele>
        <time>2013-02-09T13:45:20Z</time>
      </trkpt>
      <trkpt lat="43.38738" lon="6.09337">
        <ele>316.20001220703</ele>
        <time>2013-02-09T13:45:21Z</time>
      </trkpt>
      <trkpt lat="43.38731" lon="6.09336">
        <ele>314.79998779297</ele>
        <time>2013-02-09T13:45:22Z</time>
      </trkpt>
      <trkpt lat="43.38725" lon="6.09333">
        <ele>313.20001220703</ele>
        <time>2013-02-09T13:45:23Z</time>
      </trkpt>
      <trkpt lat="43.38718" lon="6.09328">
        <ele>311.60000610352</ele>
        <time>2013-02-09T13:45:24Z</time>
      </trkpt>
      <trkpt lat="43.38711" lon="6.09323">
        <ele>310.20001220703</ele>
        <time>2013-02-09T13:45:25Z</time>
      </trkpt>
      <trkpt lat="43.38705" lon="6.09319">
        <ele>308.79998779297</ele>
        <time>2013-02-09T13:45:26Z</time>
      </trkpt>
      <trkpt lat="43.38699" lon="6.09314">
        <ele>307.39999389648</ele>
        <time>2013-02-09T13:45:27Z</time>
      </trkpt>
      <trkpt lat="43.38694" lon="6.09309">
        <ele>306.20001220703</ele>
        <time>2013-02-09T13:45:28Z</time>
      </trkpt>
      <trkpt lat="43.38689" lon="6.09305">
        <ele>304.79998779297</ele>
        <time>2013-02-09T13:45:29Z</time>
      </trkpt>
      <trkpt lat="43.38685" lon="6.09301">
        <ele>303.60000610352</ele>
        <time>2013-02-09T13:45:30Z</time>
      </trkpt>
      <trkpt lat="43.38682" lon="6.09299">
        <ele>302.20001220703</ele>
        <time>2013-02-09T13:45:31Z</time>
      </trkpt>
      <trkpt lat="43.38679" lon="6.09299">
        <ele>300.79998779297</ele>
        <time>2013-02-09T13:45:32Z</time>
      </trkpt>
      <trkpt lat="43.38676" lon="6.093">
        <ele>299.60000610352</ele>
        <time>2013-02-09T13:45:33Z</time>
      </trkpt>
      <trkpt lat="43.38675" lon="6.09301">
        <ele>298.39999389648</ele>
        <time>2013-02-09T13:45:34Z</time>
      </trkpt>
      <trkpt lat="43.38673" lon="6.09304">
        <ele>295.79998779297</ele>
        <time>2013-02-09T13:45:35Z</time>
      </trkpt>
      <trkpt lat="43.38672" lon="6.09306">
        <ele>295.20001220703</ele>
        <time>2013-02-09T13:45:36Z</time>
      </trkpt>
      <trkpt lat="43.38672" lon="6.09307">
        <ele>294.39999389648</ele>
        <time>2013-02-09T13:45:37Z</time>
      </trkpt>
      <trkpt lat="43.38672" lon="6.09308">
        <ele>293.60000610352</ele>
        <time>2013-02-09T13:45:38Z</time>
      </trkpt>
      <trkpt lat="43.38672" lon="6.09308">
        <ele>292.20001220703</ele>
        <time>2013-02-09T13:45:42Z</time>
      </trkpt>
      <trkpt lat="43.38671" lon="6.09308">
        <ele>292.20001220703</ele>
        <time>2013-02-09T13:45:45Z</time>
      </trkpt>
      <trkpt lat="43.3867" lon="6.09313">
        <ele>292.20001220703</ele>
        <time>2013-02-09T13:45:48Z</time>
      </trkpt>
      <trkpt lat="43.38669" lon="6.0932">
        <ele>292.20001220703</ele>
        <time>2013-02-09T13:45:52Z</time>
      </trkpt>
      <trkpt lat="43.38669" lon="6.09322">
        <ele>292.20001220703</ele>
        <time>2013-02-09T13:45:53Z</time>
      </trkpt>
      <trkpt lat="43.38669" lon="6.09342">
        <ele>292.20001220703</ele>
        <time>2013-02-09T13:45:59Z</time>
      </trkpt>
      <trkpt lat="43.38673" lon="6.09367">
        <ele>292.20001220703</ele>
        <time>2013-02-09T13:46:04Z</time>
      </trkpt>
      <trkpt lat="43.38674" lon="6.09395">
        <ele>292.20001220703</ele>
        <time>2013-02-09T13:46:08Z</time>
      </trkpt>
      <trkpt lat="43.38673" lon="6.09404">
        <ele>291.79998779297</ele>
        <time>2013-02-09T13:46:09Z</time>
      </trkpt>
      <trkpt lat="43.38673" lon="6.09421">
        <ele>290.79998779297</ele>
        <time>2013-02-09T13:46:11Z</time>
      </trkpt>
      <trkpt lat="43.38674" lon="6.09435">
        <ele>290</ele>
        <time>2013-02-09T13:46:13Z</time>
      </trkpt>
      <trkpt lat="43.38676" lon="6.09453">
        <ele>290</ele>
        <time>2013-02-09T13:46:16Z</time>
      </trkpt>
      <trkpt lat="43.3867" lon="6.09505">
        <ele>289.39999389648</ele>
        <time>2013-02-09T13:46:24Z</time>
      </trkpt>
      <trkpt lat="43.38669" lon="6.09511">
        <ele>288.60000610352</ele>
        <time>2013-02-09T13:46:25Z</time>
      </trkpt>
      <trkpt lat="43.38668" lon="6.09525">
        <ele>287.60000610352</ele>
        <time>2013-02-09T13:46:27Z</time>
      </trkpt>
      <trkpt lat="43.38669" lon="6.09551">
        <ele>287.60000610352</ele>
        <time>2013-02-09T13:46:31Z</time>
      </trkpt>
      <trkpt lat="43.3867" lon="6.09574">
        <ele>287.60000610352</ele>
        <time>2013-02-09T13:46:35Z</time>
      </trkpt>
      <trkpt lat="43.38669" lon="6.09587">
        <ele>287.60000610352</ele>
        <time>2013-02-09T13:46:37Z</time>
      </trkpt>
      <trkpt lat="43.38666" lon="6.09615">
        <ele>287.60000610352</ele>
        <time>2013-02-09T13:46:41Z</time>
      </trkpt>
      <trkpt lat="43.38663" lon="6.0963">
        <ele>287.60000610352</ele>
        <time>2013-02-09T13:46:43Z</time>
      </trkpt>
      <trkpt lat="43.3866" lon="6.09643">
        <ele>287.60000610352</ele>
        <time>2013-02-09T13:46:45Z</time>
      </trkpt>
      <trkpt lat="43.38647" lon="6.0967">
        <ele>287.60000610352</ele>
        <time>2013-02-09T13:46:49Z</time>
      </trkpt>
      <trkpt lat="43.38644" lon="6.09677">
        <ele>287.20001220703</ele>
        <time>2013-02-09T13:46:50Z</time>
      </trkpt>
      <trkpt lat="43.38636" lon="6.09693">
        <ele>286.39999389648</ele>
        <time>2013-02-09T13:46:52Z</time>
      </trkpt>
      <trkpt lat="43.38631" lon="6.09701">
        <ele>286</ele>
        <time>2013-02-09T13:46:53Z</time>
      </trkpt>
      <trkpt lat="43.38627" lon="6.0971">
        <ele>285.39999389648</ele>
        <time>2013-02-09T13:46:54Z</time>
      </trkpt>
      <trkpt lat="43.38618" lon="6.09726">
        <ele>285</ele>
        <time>2013-02-09T13:46:56Z</time>
      </trkpt>
      <trkpt lat="43.38615" lon="6.09734">
        <ele>284.60000610352</ele>
        <time>2013-02-09T13:46:57Z</time>
      </trkpt>
      <trkpt lat="43.38612" lon="6.09742">
        <ele>284.20001220703</ele>
        <time>2013-02-09T13:46:58Z</time>
      </trkpt>
      <trkpt lat="43.38608" lon="6.0975">
        <ele>283.79998779297</ele>
        <time>2013-02-09T13:46:59Z</time>
      </trkpt>
      <trkpt lat="43.38605" lon="6.09758">
        <ele>283.39999389648</ele>
        <time>2013-02-09T13:47:00Z</time>
      </trkpt>
      <trkpt lat="43.38598" lon="6.09773">
        <ele>283</ele>
        <time>2013-02-09T13:47:02Z</time>
      </trkpt>
      <trkpt lat="43.38596" lon="6.09781">
        <ele>282.60000610352</ele>
        <time>2013-02-09T13:47:03Z</time>
      </trkpt>
      <trkpt lat="43.38594" lon="6.09788">
        <ele>282.20001220703</ele>
        <time>2013-02-09T13:47:04Z</time>
      </trkpt>
      <trkpt lat="43.38593" lon="6.09804">
        <ele>281.39999389648</ele>
        <time>2013-02-09T13:47:06Z</time>
      </trkpt>
      <trkpt lat="43.38592" lon="6.0982">
        <ele>281.39999389648</ele>
        <time>2013-02-09T13:47:09Z</time>
      </trkpt>
      <trkpt lat="43.38592" lon="6.09842">
        <ele>281.79998779297</ele>
        <time>2013-02-09T13:47:14Z</time>
      </trkpt>
      <trkpt lat="43.38592" lon="6.09845">
        <ele>282.20001220703</ele>
        <time>2013-02-09T13:47:15Z</time>
      </trkpt>
      <trkpt lat="43.38592" lon="6.09849">
        <ele>282.60000610352</ele>
        <time>2013-02-09T13:47:16Z</time>
      </trkpt>
      <trkpt lat="43.38591" lon="6.09858">
        <ele>283.39999389648</ele>
        <time>2013-02-09T13:47:18Z</time>
      </trkpt>
      <trkpt lat="43.38592" lon="6.0987">
        <ele>283.39999389648</ele>
        <time>2013-02-09T13:47:21Z</time>
      </trkpt>
      <trkpt lat="43.38593" lon="6.09886">
        <ele>284.79998779297</ele>
        <time>2013-02-09T13:47:26Z</time>
      </trkpt>
      <trkpt lat="43.38593" lon="6.09893">
        <ele>285.60000610352</ele>
        <time>2013-02-09T13:47:28Z</time>
      </trkpt>
      <trkpt lat="43.38596" lon="6.0991">
        <ele>285.60000610352</ele>
        <time>2013-02-09T13:47:34Z</time>
      </trkpt>
      <trkpt lat="43.38596" lon="6.09913">
        <ele>286</ele>
        <time>2013-02-09T13:47:35Z</time>
      </trkpt>
      <trkpt lat="43.38599" lon="6.09918">
        <ele>286.79998779297</ele>
        <time>2013-02-09T13:47:37Z</time>
      </trkpt>
      <trkpt lat="43.38601" lon="6.09924">
        <ele>287.60000610352</ele>
        <time>2013-02-09T13:47:39Z</time>
      </trkpt>
      <trkpt lat="43.38603" lon="6.09929">
        <ele>287.60000610352</ele>
        <time>2013-02-09T13:47:41Z</time>
      </trkpt>
      <trkpt lat="43.38619" lon="6.09946">
        <ele>289.20001220703</ele>
        <time>2013-02-09T13:47:50Z</time>
      </trkpt>
      <trkpt lat="43.38625" lon="6.09955">
        <ele>289.60000610352</ele>
        <time>2013-02-09T13:47:53Z</time>
      </trkpt>
      <trkpt lat="43.38638" lon="6.09968">
        <ele>289.60000610352</ele>
        <time>2013-02-09T13:48:00Z</time>
      </trkpt>
      <trkpt lat="43.38649" lon="6.09979">
        <ele>290</ele>
        <time>2013-02-09T13:48:06Z</time>
      </trkpt>
      <trkpt lat="43.38654" lon="6.09983">
        <ele>291.39999389648</ele>
        <time>2013-02-09T13:48:09Z</time>
      </trkpt>
      <trkpt lat="43.38662" lon="6.09989">
        <ele>291.79998779297</ele>
        <time>2013-02-09T13:48:13Z</time>
      </trkpt>
      <trkpt lat="43.38678" lon="6.1">
        <ele>291.79998779297</ele>
        <time>2013-02-09T13:48:20Z</time>
      </trkpt>
      <trkpt lat="43.38687" lon="6.10009">
        <ele>292.60000610352</ele>
        <time>2013-02-09T13:48:25Z</time>
      </trkpt>
      <trkpt lat="43.38688" lon="6.10011">
        <ele>293</ele>
        <time>2013-02-09T13:48:26Z</time>
      </trkpt>
      <trkpt lat="43.38699" lon="6.10029">
        <ele>293.79998779297</ele>
        <time>2013-02-09T13:48:33Z</time>
      </trkpt>
      <trkpt lat="43.38707" lon="6.10048">
        <ele>293.79998779297</ele>
        <time>2013-02-09T13:48:39Z</time>
      </trkpt>
      <trkpt lat="43.38718" lon="6.10067">
        <ele>293.79998779297</ele>
        <time>2013-02-09T13:48:46Z</time>
      </trkpt>
      <trkpt lat="43.38733" lon="6.10094">
        <ele>294.20001220703</ele>
        <time>2013-02-09T13:48:55Z</time>
      </trkpt>
      <trkpt lat="43.38736" lon="6.101">
        <ele>295</ele>
        <time>2013-02-09T13:48:57Z</time>
      </trkpt>
      <trkpt lat="43.38738" lon="6.10106">
        <ele>295.79998779297</ele>
        <time>2013-02-09T13:48:59Z</time>
      </trkpt>
      <trkpt lat="43.38746" lon="6.10118">
        <ele>295.79998779297</ele>
        <time>2013-02-09T13:49:04Z</time>
      </trkpt>
      <trkpt lat="43.38757" lon="6.1013">
        <ele>296.60000610352</ele>
        <time>2013-02-09T13:49:11Z</time>
      </trkpt>
      <trkpt lat="43.38759" lon="6.10133">
        <ele>297.60000610352</ele>
        <time>2013-02-09T13:49:13Z</time>
      </trkpt>
      <trkpt lat="43.38763" lon="6.10138">
        <ele>298</ele>
        <time>2013-02-09T13:49:16Z</time>
      </trkpt>
      <trkpt lat="43.38772" lon="6.10147">
        <ele>299.60000610352</ele>
        <time>2013-02-09T13:49:21Z</time>
      </trkpt>
      <trkpt lat="43.38775" lon="6.1015">
        <ele>300</ele>
        <time>2013-02-09T13:49:23Z</time>
      </trkpt>
      <trkpt lat="43.38787" lon="6.10163">
        <ele>300</ele>
        <time>2013-02-09T13:49:30Z</time>
      </trkpt>
      <trkpt lat="43.38788" lon="6.10164">
        <ele>300.39999389648</ele>
        <time>2013-02-09T13:49:31Z</time>
      </trkpt>
      <trkpt lat="43.38789" lon="6.10165">
        <ele>300.79998779297</ele>
        <time>2013-02-09T13:49:32Z</time>
      </trkpt>
      <trkpt lat="43.38789" lon="6.10165">
        <ele>301.39999389648</ele>
        <time>2013-02-09T13:49:33Z</time>
      </trkpt>
      <trkpt lat="43.38789" lon="6.10165">
        <ele>302.20001220703</ele>
        <time>2013-02-09T13:49:47Z</time>
      </trkpt>
      <trkpt lat="43.38789" lon="6.10165">
        <ele>302.20001220703</ele>
        <time>2013-02-09T13:50:10Z</time>
      </trkpt>
      <trkpt lat="43.3879" lon="6.10165">
        <ele>302.20001220703</ele>
        <time>2013-02-09T13:50:14Z</time>
      </trkpt>
      <trkpt lat="43.3879" lon="6.10165">
        <ele>302.20001220703</ele>
        <time>2013-02-09T13:50:26Z</time>
      </trkpt>
      <trkpt lat="43.3879" lon="6.10165">
        <ele>302.20001220703</ele>
        <time>2013-02-09T13:50:32Z</time>
      </trkpt>
      <trkpt lat="43.3879" lon="6.10165">
        <ele>302.20001220703</ele>
        <time>2013-02-09T13:50:46Z</time>
      </trkpt>
      <trkpt lat="43.38791" lon="6.10167">
        <ele>302.20001220703</ele>
        <time>2013-02-09T13:50:56Z</time>
      </trkpt>
      <trkpt lat="43.38792" lon="6.10168">
        <ele>302.20001220703</ele>
        <time>2013-02-09T13:50:58Z</time>
      </trkpt>
      <trkpt lat="43.38792" lon="6.10168">
        <ele>302.20001220703</ele>
        <time>2013-02-09T13:51:02Z</time>
      </trkpt>
      <trkpt lat="43.38792" lon="6.10169">
        <ele>302.20001220703</ele>
        <time>2013-02-09T13:51:04Z</time>
      </trkpt>
      <trkpt lat="43.38795" lon="6.10173">
        <ele>302.20001220703</ele>
        <time>2013-02-09T13:51:06Z</time>
      </trkpt>
      <trkpt lat="43.38797" lon="6.10174">
        <ele>302.20001220703</ele>
        <time>2013-02-09T13:51:07Z</time>
      </trkpt>
      <trkpt lat="43.388" lon="6.10174">
        <ele>302.20001220703</ele>
        <time>2013-02-09T13:51:10Z</time>
      </trkpt>
      <trkpt lat="43.388" lon="6.10174">
        <ele>302.20001220703</ele>
        <time>2013-02-09T13:51:15Z</time>
      </trkpt>
      <trkpt lat="43.388" lon="6.10174">
        <ele>302.20001220703</ele>
        <time>2013-02-09T13:51:21Z</time>
      </trkpt>
      <trkpt lat="43.38806" lon="6.10169">
        <ele>302.20001220703</ele>
        <time>2013-02-09T13:51:25Z</time>
      </trkpt>
      <trkpt lat="43.38823" lon="6.10167">
        <ele>302.20001220703</ele>
        <time>2013-02-09T13:51:32Z</time>
      </trkpt>
      <trkpt lat="43.38826" lon="6.10181">
        <ele>302.20001220703</ele>
        <time>2013-02-09T13:51:36Z</time>
      </trkpt>
      <trkpt lat="43.38823" lon="6.10188">
        <ele>302.20001220703</ele>
        <time>2013-02-09T13:51:39Z</time>
      </trkpt>
      <trkpt lat="43.38819" lon="6.10194">
        <ele>302.20001220703</ele>
        <time>2013-02-09T13:51:43Z</time>
      </trkpt>
      <trkpt lat="43.38819" lon="6.10199">
        <ele>302.20001220703</ele>
        <time>2013-02-09T13:51:45Z</time>
      </trkpt>
      <trkpt lat="43.38818" lon="6.10208">
        <ele>302.60000610352</ele>
        <time>2013-02-09T13:51:50Z</time>
      </trkpt>
      <trkpt lat="43.38817" lon="6.10214">
        <ele>303.79998779297</ele>
        <time>2013-02-09T13:51:53Z</time>
      </trkpt>
      <trkpt lat="43.38817" lon="6.10223">
        <ele>304.20001220703</ele>
        <time>2013-02-09T13:51:58Z</time>
      </trkpt>
      <trkpt lat="43.38818" lon="6.10227">
        <ele>304.20001220703</ele>
        <time>2013-02-09T13:52:00Z</time>
      </trkpt>
      <trkpt lat="43.38821" lon="6.10234">
        <ele>304.20001220703</ele>
        <time>2013-02-09T13:52:03Z</time>
      </trkpt>
      <trkpt lat="43.38821" lon="6.10236">
        <ele>304.20001220703</ele>
        <time>2013-02-09T13:52:04Z</time>
      </trkpt>
      <trkpt lat="43.38823" lon="6.10255">
        <ele>303.79998779297</ele>
        <time>2013-02-09T13:52:10Z</time>
      </trkpt>
      <trkpt lat="43.38824" lon="6.10263">
        <ele>302.79998779297</ele>
        <time>2013-02-09T13:52:12Z</time>
      </trkpt>
      <trkpt lat="43.38825" lon="6.10271">
        <ele>302</ele>
        <time>2013-02-09T13:52:14Z</time>
      </trkpt>
      <trkpt lat="43.38827" lon="6.1028">
        <ele>302</ele>
        <time>2013-02-09T13:52:16Z</time>
      </trkpt>
      <trkpt lat="43.38826" lon="6.10285">
        <ele>301.60000610352</ele>
        <time>2013-02-09T13:52:17Z</time>
      </trkpt>
      <trkpt lat="43.38827" lon="6.1029">
        <ele>301</ele>
        <time>2013-02-09T13:52:18Z</time>
      </trkpt>
      <trkpt lat="43.38829" lon="6.103">
        <ele>300.20001220703</ele>
        <time>2013-02-09T13:52:20Z</time>
      </trkpt>
      <trkpt lat="43.38829" lon="6.10305">
        <ele>299.79998779297</ele>
        <time>2013-02-09T13:52:21Z</time>
      </trkpt>
      <trkpt lat="43.38829" lon="6.10323">
        <ele>299.79998779297</ele>
        <time>2013-02-09T13:52:25Z</time>
      </trkpt>
      <trkpt lat="43.3883" lon="6.10346">
        <ele>299.79998779297</ele>
        <time>2013-02-09T13:52:30Z</time>
      </trkpt>
      <trkpt lat="43.38831" lon="6.10362">
        <ele>299.39999389648</ele>
        <time>2013-02-09T13:52:33Z</time>
      </trkpt>
      <trkpt lat="43.38831" lon="6.10367">
        <ele>299</ele>
        <time>2013-02-09T13:52:34Z</time>
      </trkpt>
      <trkpt lat="43.38831" lon="6.10407">
        <ele>297.79998779297</ele>
        <time>2013-02-09T13:52:41Z</time>
      </trkpt>
      <trkpt lat="43.38829" lon="6.1042">
        <ele>297.39999389648</ele>
        <time>2013-02-09T13:52:43Z</time>
      </trkpt>
      <trkpt lat="43.38829" lon="6.10426">
        <ele>297</ele>
        <time>2013-02-09T13:52:44Z</time>
      </trkpt>
      <trkpt lat="43.38828" lon="6.10432">
        <ele>296.39999389648</ele>
        <time>2013-02-09T13:52:45Z</time>
      </trkpt>
      <trkpt lat="43.38825" lon="6.10444">
        <ele>295.60000610352</ele>
        <time>2013-02-09T13:52:47Z</time>
      </trkpt>
      <trkpt lat="43.38825" lon="6.10457">
        <ele>295.60000610352</ele>
        <time>2013-02-09T13:52:49Z</time>
      </trkpt>
      <trkpt lat="43.38823" lon="6.10485">
        <ele>295.60000610352</ele>
        <time>2013-02-09T13:52:53Z</time>
      </trkpt>
      <trkpt lat="43.38821" lon="6.10496">
        <ele>295.20001220703</ele>
        <time>2013-02-09T13:52:55Z</time>
      </trkpt>
      <trkpt lat="43.38817" lon="6.10507">
        <ele>294.39999389648</ele>
        <time>2013-02-09T13:52:57Z</time>
      </trkpt>
      <trkpt lat="43.38814" lon="6.10518">
        <ele>293.60000610352</ele>
        <time>2013-02-09T13:52:59Z</time>
      </trkpt>
      <trkpt lat="43.38811" lon="6.10537">
        <ele>293.60000610352</ele>
        <time>2013-02-09T13:53:03Z</time>
      </trkpt>
      <trkpt lat="43.38811" lon="6.10547">
        <ele>292.79998779297</ele>
        <time>2013-02-09T13:53:05Z</time>
      </trkpt>
      <trkpt lat="43.38808" lon="6.10555">
        <ele>292</ele>
        <time>2013-02-09T13:53:07Z</time>
      </trkpt>
      <trkpt lat="43.38807" lon="6.10558">
        <ele>291.60000610352</ele>
        <time>2013-02-09T13:53:08Z</time>
      </trkpt>
      <trkpt lat="43.38805" lon="6.10564">
        <ele>291.60000610352</ele>
        <time>2013-02-09T13:53:10Z</time>
      </trkpt>
      <trkpt lat="43.38805" lon="6.10569">
        <ele>291.60000610352</ele>
        <time>2013-02-09T13:53:11Z</time>
      </trkpt>
      <trkpt lat="43.38798" lon="6.10605">
        <ele>291</ele>
        <time>2013-02-09T13:53:18Z</time>
      </trkpt>
      <trkpt lat="43.38797" lon="6.1061">
        <ele>290.60000610352</ele>
        <time>2013-02-09T13:53:19Z</time>
      </trkpt>
      <trkpt lat="43.38796" lon="6.10616">
        <ele>290.20001220703</ele>
        <time>2013-02-09T13:53:20Z</time>
      </trkpt>
      <trkpt lat="43.38794" lon="6.10627">
        <ele>289.20001220703</ele>
        <time>2013-02-09T13:53:22Z</time>
      </trkpt>
      <trkpt lat="43.38792" lon="6.10641">
        <ele>288.79998779297</ele>
        <time>2013-02-09T13:53:25Z</time>
      </trkpt>
      <trkpt lat="43.3879" lon="6.10655">
        <ele>287.60000610352</ele>
        <time>2013-02-09T13:53:28Z</time>
      </trkpt>
      <trkpt lat="43.38787" lon="6.10664">
        <ele>287.20001220703</ele>
        <time>2013-02-09T13:53:30Z</time>
      </trkpt>
      <trkpt lat="43.38784" lon="6.1068">
        <ele>287.20001220703</ele>
        <time>2013-02-09T13:53:34Z</time>
      </trkpt>
      <trkpt lat="43.38778" lon="6.10707">
        <ele>287.20001220703</ele>
        <time>2013-02-09T13:53:40Z</time>
      </trkpt>
      <trkpt lat="43.38777" lon="6.10718">
        <ele>286.79998779297</ele>
        <time>2013-02-09T13:53:42Z</time>
      </trkpt>
      <trkpt lat="43.38775" lon="6.10723">
        <ele>286.39999389648</ele>
        <time>2013-02-09T13:53:43Z</time>
      </trkpt>
      <trkpt lat="43.38774" lon="6.10728">
        <ele>286</ele>
        <time>2013-02-09T13:53:44Z</time>
      </trkpt>
      <trkpt lat="43.38773" lon="6.10733">
        <ele>285.60000610352</ele>
        <time>2013-02-09T13:53:45Z</time>
      </trkpt>
      <trkpt lat="43.38773" lon="6.10737">
        <ele>285.20001220703</ele>
        <time>2013-02-09T13:53:46Z</time>
      </trkpt>
      <trkpt lat="43.38771" lon="6.10748">
        <ele>285.20001220703</ele>
        <time>2013-02-09T13:53:50Z</time>
      </trkpt>
      <trkpt lat="43.38771" lon="6.10748">
        <ele>285.20001220703</ele>
        <time>2013-02-09T13:53:54Z</time>
      </trkpt>
      <trkpt lat="43.38771" lon="6.10748">
        <ele>285.20001220703</ele>
        <time>2013-02-09T13:54:20Z</time>
      </trkpt>
      <trkpt lat="43.38771" lon="6.10747">
        <ele>285.20001220703</ele>
        <time>2013-02-09T13:54:32Z</time>
      </trkpt>
      <trkpt lat="43.38771" lon="6.10747">
        <ele>285.20001220703</ele>
        <time>2013-02-09T13:54:57Z</time>
      </trkpt>
      <trkpt lat="43.38771" lon="6.10747">
        <ele>285.20001220703</ele>
        <time>2013-02-09T13:55:20Z</time>
      </trkpt>
      <trkpt lat="43.38771" lon="6.10747">
        <ele>285.20001220703</ele>
        <time>2013-02-09T13:55:21Z</time>
      </trkpt>
      <trkpt lat="43.38771" lon="6.10748">
        <ele>285.20001220703</ele>
        <time>2013-02-09T13:55:28Z</time>
      </trkpt>
      <trkpt lat="43.38772" lon="6.10751">
        <ele>285.20001220703</ele>
        <time>2013-02-09T13:55:30Z</time>
      </trkpt>
      <trkpt lat="43.38772" lon="6.10752">
        <ele>285.20001220703</ele>
        <time>2013-02-09T13:55:35Z</time>
      </trkpt>
      <trkpt lat="43.38772" lon="6.10752">
        <ele>285.20001220703</ele>
        <time>2013-02-09T13:55:46Z</time>
      </trkpt>
      <trkpt lat="43.38772" lon="6.10752">
        <ele>285.20001220703</ele>
        <time>2013-02-09T13:55:51Z</time>
      </trkpt>
      <trkpt lat="43.38772" lon="6.10752">
        <ele>285.20001220703</ele>
        <time>2013-02-09T13:56:00Z</time>
      </trkpt>
      <trkpt lat="43.38775" lon="6.10754">
        <ele>285.20001220703</ele>
        <time>2013-02-09T13:56:09Z</time>
      </trkpt>
      <trkpt lat="43.38777" lon="6.10756">
        <ele>284.79998779297</ele>
        <time>2013-02-09T13:56:10Z</time>
      </trkpt>
      <trkpt lat="43.3878" lon="6.10757">
        <ele>284.39999389648</ele>
        <time>2013-02-09T13:56:11Z</time>
      </trkpt>
      <trkpt lat="43.38784" lon="6.10757">
        <ele>284</ele>
        <time>2013-02-09T13:56:12Z</time>
      </trkpt>
      <trkpt lat="43.38789" lon="6.10756">
        <ele>283.60000610352</ele>
        <time>2013-02-09T13:56:13Z</time>
      </trkpt>
      <trkpt lat="43.38792" lon="6.10756">
        <ele>283</ele>
        <time>2013-02-09T13:56:14Z</time>
      </trkpt>
      <trkpt lat="43.38811" lon="6.10754">
        <ele>283</ele>
        <time>2013-02-09T13:56:18Z</time>
      </trkpt>
      <trkpt lat="43.38815" lon="6.10755">
        <ele>283</ele>
        <time>2013-02-09T13:56:19Z</time>
      </trkpt>
      <trkpt lat="43.3882" lon="6.10755">
        <ele>282.60000610352</ele>
        <time>2013-02-09T13:56:20Z</time>
      </trkpt>
      <trkpt lat="43.38824" lon="6.10755">
        <ele>282.20001220703</ele>
        <time>2013-02-09T13:56:21Z</time>
      </trkpt>
      <trkpt lat="43.38828" lon="6.10755">
        <ele>281.79998779297</ele>
        <time>2013-02-09T13:56:22Z</time>
      </trkpt>
      <trkpt lat="43.38845" lon="6.10755">
        <ele>281</ele>
        <time>2013-02-09T13:56:26Z</time>
      </trkpt>
      <trkpt lat="43.38867" lon="6.10755">
        <ele>281</ele>
        <time>2013-02-09T13:56:31Z</time>
      </trkpt>
      <trkpt lat="43.38871" lon="6.10756">
        <ele>281</ele>
        <time>2013-02-09T13:56:32Z</time>
      </trkpt>
      <trkpt lat="43.38895" lon="6.10762">
        <ele>278.79998779297</ele>
        <time>2013-02-09T13:56:38Z</time>
      </trkpt>
      <trkpt lat="43.38914" lon="6.10775">
        <ele>278.79998779297</ele>
        <time>2013-02-09T13:56:43Z</time>
      </trkpt>
      <trkpt lat="43.38932" lon="6.10821">
        <ele>278.79998779297</ele>
        <time>2013-02-09T13:56:53Z</time>
      </trkpt>
      <trkpt lat="43.38946" lon="6.1083">
        <ele>278.79998779297</ele>
        <time>2013-02-09T13:56:57Z</time>
      </trkpt>
      <trkpt lat="43.38972" lon="6.10839">
        <ele>278.79998779297</ele>
        <time>2013-02-09T13:57:04Z</time>
      </trkpt>
      <trkpt lat="43.38993" lon="6.10845">
        <ele>278.79998779297</ele>
        <time>2013-02-09T13:57:10Z</time>
      </trkpt>
      <trkpt lat="43.39006" lon="6.10838">
        <ele>278.79998779297</ele>
        <time>2013-02-09T13:57:14Z</time>
      </trkpt>
      <trkpt lat="43.39027" lon="6.1083">
        <ele>278.79998779297</ele>
        <time>2013-02-09T13:57:19Z</time>
      </trkpt>
      <trkpt lat="43.39042" lon="6.10826">
        <ele>277.60000610352</ele>
        <time>2013-02-09T13:57:22Z</time>
      </trkpt>
      <trkpt lat="43.39051" lon="6.10823">
        <ele>276.79998779297</ele>
        <time>2013-02-09T13:57:24Z</time>
      </trkpt>
      <trkpt lat="43.39071" lon="6.10816">
        <ele>276.79998779297</ele>
        <time>2013-02-09T13:57:29Z</time>
      </trkpt>
      <trkpt lat="43.39081" lon="6.10808">
        <ele>276.79998779297</ele>
        <time>2013-02-09T13:57:32Z</time>
      </trkpt>
      <trkpt lat="43.39087" lon="6.108">
        <ele>276.79998779297</ele>
        <time>2013-02-09T13:57:34Z</time>
      </trkpt>
      <trkpt lat="43.391" lon="6.10784">
        <ele>276.79998779297</ele>
        <time>2013-02-09T13:57:38Z</time>
      </trkpt>
      <trkpt lat="43.39112" lon="6.10775">
        <ele>276.79998779297</ele>
        <time>2013-02-09T13:57:41Z</time>
      </trkpt>
      <trkpt lat="43.39124" lon="6.10767">
        <ele>276.79998779297</ele>
        <time>2013-02-09T13:57:44Z</time>
      </trkpt>
      <trkpt lat="43.39138" lon="6.1076">
        <ele>276.39999389648</ele>
        <time>2013-02-09T13:57:47Z</time>
      </trkpt>
      <trkpt lat="43.39148" lon="6.10752">
        <ele>275.60000610352</ele>
        <time>2013-02-09T13:57:49Z</time>
      </trkpt>
      <trkpt lat="43.39153" lon="6.10748">
        <ele>275.20001220703</ele>
        <time>2013-02-09T13:57:50Z</time>
      </trkpt>
      <trkpt lat="43.39157" lon="6.10744">
        <ele>274.79998779297</ele>
        <time>2013-02-09T13:57:51Z</time>
      </trkpt>
      <trkpt lat="43.39161" lon="6.10739">
        <ele>274.79998779297</ele>
        <time>2013-02-09T13:57:52Z</time>
      </trkpt>
      <trkpt lat="43.39167" lon="6.10727">
        <ele>274.79998779297</ele>
        <time>2013-02-09T13:57:54Z</time>
      </trkpt>
      <trkpt lat="43.39169" lon="6.1072">
        <ele>274.79998779297</ele>
        <time>2013-02-09T13:57:55Z</time>
      </trkpt>
      <trkpt lat="43.3917" lon="6.10713">
        <ele>274.39999389648</ele>
        <time>2013-02-09T13:57:56Z</time>
      </trkpt>
      <trkpt lat="43.39172" lon="6.10707">
        <ele>274</ele>
        <time>2013-02-09T13:57:57Z</time>
      </trkpt>
      <trkpt lat="43.39175" lon="6.107">
        <ele>273.60000610352</ele>
        <time>2013-02-09T13:57:58Z</time>
      </trkpt>
      <trkpt lat="43.39178" lon="6.10696">
        <ele>273</ele>
        <time>2013-02-09T13:57:59Z</time>
      </trkpt>
      <trkpt lat="43.39182" lon="6.10694">
        <ele>272.60000610352</ele>
        <time>2013-02-09T13:58:00Z</time>
      </trkpt>
      <trkpt lat="43.39191" lon="6.10696">
        <ele>272.60000610352</ele>
        <time>2013-02-09T13:58:03Z</time>
      </trkpt>
      <trkpt lat="43.39197" lon="6.10705">
        <ele>272.60000610352</ele>
        <time>2013-02-09T13:58:06Z</time>
      </trkpt>
      <trkpt lat="43.39206" lon="6.10723">
        <ele>272.60000610352</ele>
        <time>2013-02-09T13:58:12Z</time>
      </trkpt>
      <trkpt lat="43.39212" lon="6.10733">
        <ele>272.60000610352</ele>
        <time>2013-02-09T13:58:16Z</time>
      </trkpt>
      <trkpt lat="43.39218" lon="6.10739">
        <ele>272.60000610352</ele>
        <time>2013-02-09T13:58:19Z</time>
      </trkpt>
      <trkpt lat="43.39226" lon="6.10746">
        <ele>274.39999389648</ele>
        <time>2013-02-09T13:58:24Z</time>
      </trkpt>
      <trkpt lat="43.39227" lon="6.10748">
        <ele>274.79998779297</ele>
        <time>2013-02-09T13:58:25Z</time>
      </trkpt>
      <trkpt lat="43.39231" lon="6.10763">
        <ele>275.20001220703</ele>
        <time>2013-02-09T13:58:31Z</time>
      </trkpt>
      <trkpt lat="43.39235" lon="6.10774">
        <ele>276.79998779297</ele>
        <time>2013-02-09T13:58:36Z</time>
      </trkpt>
      <trkpt lat="43.39238" lon="6.10787">
        <ele>277.20001220703</ele>
        <time>2013-02-09T13:58:42Z</time>
      </trkpt>
      <trkpt lat="43.3924" lon="6.10792">
        <ele>278.39999389648</ele>
        <time>2013-02-09T13:58:44Z</time>
      </trkpt>
      <trkpt lat="43.39241" lon="6.10794">
        <ele>278.79998779297</ele>
        <time>2013-02-09T13:58:45Z</time>
      </trkpt>
      <trkpt lat="43.39245" lon="6.1081">
        <ele>278.79998779297</ele>
        <time>2013-02-09T13:58:52Z</time>
      </trkpt>
      <trkpt lat="43.39247" lon="6.10817">
        <ele>279.20001220703</ele>
        <time>2013-02-09T13:58:56Z</time>
      </trkpt>
      <trkpt lat="43.39247" lon="6.10817">
        <ele>279.60000610352</ele>
        <time>2013-02-09T13:58:57Z</time>
      </trkpt>
      <trkpt lat="43.39247" lon="6.10817">
        <ele>280.79998779297</ele>
        <time>2013-02-09T13:59:13Z</time>
      </trkpt>
      <trkpt lat="43.39247" lon="6.10816">
        <ele>280.79998779297</ele>
        <time>2013-02-09T13:59:43Z</time>
      </trkpt>
      <trkpt lat="43.39247" lon="6.10816">
        <ele>280.79998779297</ele>
        <time>2013-02-09T13:59:47Z</time>
      </trkpt>
      <trkpt lat="43.39247" lon="6.10815">
        <ele>280.79998779297</ele>
        <time>2013-02-09T13:59:54Z</time>
      </trkpt>
      <trkpt lat="43.39246" lon="6.1081">
        <ele>280.79998779297</ele>
        <time>2013-02-09T13:59:57Z</time>
      </trkpt>
      <trkpt lat="43.39244" lon="6.10793">
        <ele>280.79998779297</ele>
        <time>2013-02-09T14:00:02Z</time>
      </trkpt>
      <trkpt lat="43.39239" lon="6.1078">
        <ele>280.79998779297</ele>
        <time>2013-02-09T14:00:05Z</time>
      </trkpt>
      <trkpt lat="43.39237" lon="6.1077">
        <ele>280.39999389648</ele>
        <time>2013-02-09T14:00:07Z</time>
      </trkpt>
      <trkpt lat="43.39235" lon="6.10764">
        <ele>279.79998779297</ele>
        <time>2013-02-09T14:00:08Z</time>
      </trkpt>
      <trkpt lat="43.39233" lon="6.10758">
        <ele>279.39999389648</ele>
        <time>2013-02-09T14:00:09Z</time>
      </trkpt>
      <trkpt lat="43.39232" lon="6.10754">
        <ele>279</ele>
        <time>2013-02-09T14:00:10Z</time>
      </trkpt>
      <trkpt lat="43.39231" lon="6.10751">
        <ele>278.39999389648</ele>
        <time>2013-02-09T14:00:11Z</time>
      </trkpt>
      <trkpt lat="43.3923" lon="6.10745">
        <ele>278</ele>
        <time>2013-02-09T14:00:14Z</time>
      </trkpt>
      <trkpt lat="43.39229" lon="6.10744">
        <ele>277.60000610352</ele>
        <time>2013-02-09T14:00:15Z</time>
      </trkpt>
      <trkpt lat="43.39228" lon="6.10743">
        <ele>277.20001220703</ele>
        <time>2013-02-09T14:00:16Z</time>
      </trkpt>
      <trkpt lat="43.39227" lon="6.10742">
        <ele>276.79998779297</ele>
        <time>2013-02-09T14:00:17Z</time>
      </trkpt>
      <trkpt lat="43.39227" lon="6.10742">
        <ele>276.39999389648</ele>
        <time>2013-02-09T14:00:18Z</time>
      </trkpt>
      <trkpt lat="43.39228" lon="6.10742">
        <ele>276.39999389648</ele>
        <time>2013-02-09T14:00:22Z</time>
      </trkpt>
      <trkpt lat="43.39228" lon="6.10742">
        <ele>276.39999389648</ele>
        <time>2013-02-09T14:00:40Z</time>
      </trkpt>
      <trkpt lat="43.39228" lon="6.10742">
        <ele>275.60000610352</ele>
        <time>2013-02-09T14:00:47Z</time>
      </trkpt>
      <trkpt lat="43.39228" lon="6.10742">
        <ele>275.20001220703</ele>
        <time>2013-02-09T14:00:48Z</time>
      </trkpt>
      <trkpt lat="43.39228" lon="6.10743">
        <ele>274.39999389648</ele>
        <time>2013-02-09T14:00:52Z</time>
      </trkpt>
      <trkpt lat="43.39228" lon="6.10744">
        <ele>274.39999389648</ele>
        <time>2013-02-09T14:00:59Z</time>
      </trkpt>
      <trkpt lat="43.39229" lon="6.10745">
        <ele>274.39999389648</ele>
        <time>2013-02-09T14:01:02Z</time>
      </trkpt>
      <trkpt lat="43.39233" lon="6.10762">
        <ele>274.39999389648</ele>
        <time>2013-02-09T14:01:11Z</time>
      </trkpt>
      <trkpt lat="43.39233" lon="6.10764">
        <ele>274.79998779297</ele>
        <time>2013-02-09T14:01:12Z</time>
      </trkpt>
      <trkpt lat="43.39234" lon="6.10767">
        <ele>275.60000610352</ele>
        <time>2013-02-09T14:01:14Z</time>
      </trkpt>
      <trkpt lat="43.39236" lon="6.10773">
        <ele>276.39999389648</ele>
        <time>2013-02-09T14:01:18Z</time>
      </trkpt>
      <trkpt lat="43.39238" lon="6.10781">
        <ele>276.39999389648</ele>
        <time>2013-02-09T14:01:23Z</time>
      </trkpt>
      <trkpt lat="43.39242" lon="6.10796">
        <ele>278.60000610352</ele>
        <time>2013-02-09T14:01:31Z</time>
      </trkpt>
      <trkpt lat="43.39245" lon="6.10804">
        <ele>278.60000610352</ele>
        <time>2013-02-09T14:01:35Z</time>
      </trkpt>
      <trkpt lat="43.39246" lon="6.10808">
        <ele>278.60000610352</ele>
        <time>2013-02-09T14:01:37Z</time>
      </trkpt>
      <trkpt lat="43.39248" lon="6.10821">
        <ele>280.39999389648</ele>
        <time>2013-02-09T14:01:45Z</time>
      </trkpt>
      <trkpt lat="43.39248" lon="6.10824">
        <ele>280.79998779297</ele>
        <time>2013-02-09T14:01:46Z</time>
      </trkpt>
      <trkpt lat="43.39247" lon="6.10828">
        <ele>280.79998779297</ele>
        <time>2013-02-09T14:01:49Z</time>
      </trkpt>
      <trkpt lat="43.39248" lon="6.10834">
        <ele>280.79998779297</ele>
        <time>2013-02-09T14:01:52Z</time>
      </trkpt>
      <trkpt lat="43.39248" lon="6.1085">
        <ele>280.79998779297</ele>
        <time>2013-02-09T14:02:00Z</time>
      </trkpt>
      <trkpt lat="43.39249" lon="6.10863">
        <ele>280.79998779297</ele>
        <time>2013-02-09T14:02:06Z</time>
      </trkpt>
      <trkpt lat="43.39248" lon="6.10877">
        <ele>280.79998779297</ele>
        <time>2013-02-09T14:02:12Z</time>
      </trkpt>
      <trkpt lat="43.39249" lon="6.10897">
        <ele>280.79998779297</ele>
        <time>2013-02-09T14:02:18Z</time>
      </trkpt>
      <trkpt lat="43.39249" lon="6.10921">
        <ele>280.79998779297</ele>
        <time>2013-02-09T14:02:25Z</time>
      </trkpt>
      <trkpt lat="43.39252" lon="6.10936">
        <ele>281.20001220703</ele>
        <time>2013-02-09T14:02:30Z</time>
      </trkpt>
      <trkpt lat="43.39253" lon="6.10961">
        <ele>282.79998779297</ele>
        <time>2013-02-09T14:02:39Z</time>
      </trkpt>
      <trkpt lat="43.39254" lon="6.10971">
        <ele>283.20001220703</ele>
        <time>2013-02-09T14:02:43Z</time>
      </trkpt>
      <trkpt lat="43.39255" lon="6.10979">
        <ele>284.39999389648</ele>
        <time>2013-02-09T14:02:46Z</time>
      </trkpt>
      <trkpt lat="43.39256" lon="6.11001">
        <ele>285.60000610352</ele>
        <time>2013-02-09T14:02:55Z</time>
      </trkpt>
      <trkpt lat="43.39256" lon="6.11012">
        <ele>287</ele>
        <time>2013-02-09T14:02:59Z</time>
      </trkpt>
      <trkpt lat="43.39256" lon="6.11028">
        <ele>287</ele>
        <time>2013-02-09T14:03:06Z</time>
      </trkpt>
      <trkpt lat="43.39257" lon="6.11034">
        <ele>287.79998779297</ele>
        <time>2013-02-09T14:03:09Z</time>
      </trkpt>
      <trkpt lat="43.39257" lon="6.11036">
        <ele>288.20001220703</ele>
        <time>2013-02-09T14:03:10Z</time>
      </trkpt>
      <trkpt lat="43.39257" lon="6.1104">
        <ele>289</ele>
        <time>2013-02-09T14:03:12Z</time>
      </trkpt>
      <trkpt lat="43.39257" lon="6.11041">
        <ele>289</ele>
        <time>2013-02-09T14:03:13Z</time>
      </trkpt>
      <trkpt lat="43.39257" lon="6.11045">
        <ele>289</ele>
        <time>2013-02-09T14:03:16Z</time>
      </trkpt>
      <trkpt lat="43.39257" lon="6.11045">
        <ele>289</ele>
        <time>2013-02-09T14:03:37Z</time>
      </trkpt>
      <trkpt lat="43.39257" lon="6.11045">
        <ele>289</ele>
        <time>2013-02-09T14:03:50Z</time>
      </trkpt>
      <trkpt lat="43.39257" lon="6.11046">
        <ele>289</ele>
        <time>2013-02-09T14:03:56Z</time>
      </trkpt>
      <trkpt lat="43.39257" lon="6.1105">
        <ele>289</ele>
        <time>2013-02-09T14:03:58Z</time>
      </trkpt>
      <trkpt lat="43.39257" lon="6.11058">
        <ele>289</ele>
        <time>2013-02-09T14:04:01Z</time>
      </trkpt>
      <trkpt lat="43.39258" lon="6.11068">
        <ele>289.39999389648</ele>
        <time>2013-02-09T14:04:05Z</time>
      </trkpt>
      <trkpt lat="43.39257" lon="6.11073">
        <ele>290.20001220703</ele>
        <time>2013-02-09T14:04:07Z</time>
      </trkpt>
      <trkpt lat="43.39257" lon="6.11077">
        <ele>291</ele>
        <time>2013-02-09T14:04:09Z</time>
      </trkpt>
      <trkpt lat="43.39257" lon="6.1109">
        <ele>291</ele>
        <time>2013-02-09T14:04:14Z</time>
      </trkpt>
      <trkpt lat="43.39258" lon="6.1111">
        <ele>291</ele>
        <time>2013-02-09T14:04:21Z</time>
      </trkpt>
      <trkpt lat="43.39258" lon="6.11126">
        <ele>291</ele>
        <time>2013-02-09T14:04:27Z</time>
      </trkpt>
      <trkpt lat="43.39257" lon="6.11135">
        <ele>291</ele>
        <time>2013-02-09T14:04:32Z</time>
      </trkpt>
      <trkpt lat="43.39257" lon="6.11135">
        <ele>291</ele>
        <time>2013-02-09T14:04:33Z</time>
      </trkpt>
      <trkpt lat="43.39257" lon="6.11135">
        <ele>291</ele>
        <time>2013-02-09T14:04:45Z</time>
      </trkpt>
      <trkpt lat="43.39257" lon="6.11135">
        <ele>291</ele>
        <time>2013-02-09T14:04:59Z</time>
      </trkpt>
      <trkpt lat="43.39257" lon="6.11137">
        <ele>291</ele>
        <time>2013-02-09T14:05:03Z</time>
      </trkpt>
      <trkpt lat="43.39257" lon="6.11139">
        <ele>291</ele>
        <time>2013-02-09T14:05:04Z</time>
      </trkpt>
      <trkpt lat="43.39256" lon="6.11148">
        <ele>291</ele>
        <time>2013-02-09T14:05:07Z</time>
      </trkpt>
      <trkpt lat="43.39256" lon="6.11155">
        <ele>291</ele>
        <time>2013-02-09T14:05:09Z</time>
      </trkpt>
      <trkpt lat="43.39252" lon="6.11176">
        <ele>291</ele>
        <time>2013-02-09T14:05:16Z</time>
      </trkpt>
      <trkpt lat="43.39249" lon="6.11189">
        <ele>291.39999389648</ele>
        <time>2013-02-09T14:05:21Z</time>
      </trkpt>
      <trkpt lat="43.39249" lon="6.11193">
        <ele>291.79998779297</ele>
        <time>2013-02-09T14:05:22Z</time>
      </trkpt>
      <trkpt lat="43.3925" lon="6.11202">
        <ele>293</ele>
        <time>2013-02-09T14:05:25Z</time>
      </trkpt>
      <trkpt lat="43.39254" lon="6.1121">
        <ele>293</ele>
        <time>2013-02-09T14:05:28Z</time>
      </trkpt>
      <trkpt lat="43.39255" lon="6.11212">
        <ele>293</ele>
        <time>2013-02-09T14:05:29Z</time>
      </trkpt>
      <trkpt lat="43.39263" lon="6.11214">
        <ele>293</ele>
        <time>2013-02-09T14:05:33Z</time>
      </trkpt>
      <trkpt lat="43.39268" lon="6.11214">
        <ele>293</ele>
        <time>2013-02-09T14:05:35Z</time>
      </trkpt>
      <trkpt lat="43.39285" lon="6.11213">
        <ele>293</ele>
        <time>2013-02-09T14:05:43Z</time>
      </trkpt>
      <trkpt lat="43.39301" lon="6.11215">
        <ele>293</ele>
        <time>2013-02-09T14:05:50Z</time>
      </trkpt>
      <trkpt lat="43.39318" lon="6.11216">
        <ele>293</ele>
        <time>2013-02-09T14:05:58Z</time>
      </trkpt>
      <trkpt lat="43.39328" lon="6.11215">
        <ele>293</ele>
        <time>2013-02-09T14:06:03Z</time>
      </trkpt>
      <trkpt lat="43.39344" lon="6.11214">
        <ele>293</ele>
        <time>2013-02-09T14:06:10Z</time>
      </trkpt>
      <trkpt lat="43.39356" lon="6.11212">
        <ele>293.60000610352</ele>
        <time>2013-02-09T14:06:16Z</time>
      </trkpt>
      <trkpt lat="43.39363" lon="6.11209">
        <ele>295.20001220703</ele>
        <time>2013-02-09T14:06:20Z</time>
      </trkpt>
      <trkpt lat="43.39374" lon="6.11208">
        <ele>295.20001220703</ele>
        <time>2013-02-09T14:06:25Z</time>
      </trkpt>
      <trkpt lat="43.39391" lon="6.11208">
        <ele>295.60000610352</ele>
        <time>2013-02-09T14:06:34Z</time>
      </trkpt>
      <trkpt lat="43.39393" lon="6.11209">
        <ele>296</ele>
        <time>2013-02-09T14:06:35Z</time>
      </trkpt>
      <trkpt lat="43.39404" lon="6.11213">
        <ele>297.20001220703</ele>
        <time>2013-02-09T14:06:41Z</time>
      </trkpt>
      <trkpt lat="43.39414" lon="6.11222">
        <ele>298.39999389648</ele>
        <time>2013-02-09T14:06:48Z</time>
      </trkpt>
      <trkpt lat="43.39426" lon="6.11232">
        <ele>299.20001220703</ele>
        <time>2013-02-09T14:06:55Z</time>
      </trkpt>
      <trkpt lat="43.3944" lon="6.11238">
        <ele>299.20001220703</ele>
        <time>2013-02-09T14:07:03Z</time>
      </trkpt>
      <trkpt lat="43.39444" lon="6.11239">
        <ele>299.60000610352</ele>
        <time>2013-02-09T14:07:06Z</time>
      </trkpt>
      <trkpt lat="43.3946" lon="6.11242">
        <ele>301.39999389648</ele>
        <time>2013-02-09T14:07:16Z</time>
      </trkpt>
      <trkpt lat="43.39469" lon="6.11244">
        <ele>303.39999389648</ele>
        <time>2013-02-09T14:07:22Z</time>
      </trkpt>
      <trkpt lat="43.39472" lon="6.11243">
        <ele>303.39999389648</ele>
        <time>2013-02-09T14:07:24Z</time>
      </trkpt>
      <trkpt lat="43.39485" lon="6.1124">
        <ele>305</ele>
        <time>2013-02-09T14:07:33Z</time>
      </trkpt>
      <trkpt lat="43.39502" lon="6.11238">
        <ele>305.39999389648</ele>
        <time>2013-02-09T14:07:44Z</time>
      </trkpt>
      <trkpt lat="43.39513" lon="6.11238">
        <ele>305.79998779297</ele>
        <time>2013-02-09T14:07:50Z</time>
      </trkpt>
      <trkpt lat="43.39521" lon="6.11243">
        <ele>307.39999389648</ele>
        <time>2013-02-09T14:07:56Z</time>
      </trkpt>
      <trkpt lat="43.39523" lon="6.11248">
        <ele>307.39999389648</ele>
        <time>2013-02-09T14:08:00Z</time>
      </trkpt>
      <trkpt lat="43.39523" lon="6.11256">
        <ele>307.39999389648</ele>
        <time>2013-02-09T14:08:04Z</time>
      </trkpt>
      <trkpt lat="43.39521" lon="6.11261">
        <ele>307.39999389648</ele>
        <time>2013-02-09T14:08:07Z</time>
      </trkpt>
      <trkpt lat="43.3952" lon="6.11269">
        <ele>307.39999389648</ele>
        <time>2013-02-09T14:08:11Z</time>
      </trkpt>
      <trkpt lat="43.39519" lon="6.11276">
        <ele>307.39999389648</ele>
        <time>2013-02-09T14:08:14Z</time>
      </trkpt>
      <trkpt lat="43.39518" lon="6.11283">
        <ele>307.39999389648</ele>
        <time>2013-02-09T14:08:17Z</time>
      </trkpt>
      <trkpt lat="43.39517" lon="6.11291">
        <ele>307.39999389648</ele>
        <time>2013-02-09T14:08:20Z</time>
      </trkpt>
      <trkpt lat="43.39516" lon="6.113">
        <ele>307.39999389648</ele>
        <time>2013-02-09T14:08:23Z</time>
      </trkpt>
      <trkpt lat="43.39515" lon="6.11307">
        <ele>307.39999389648</ele>
        <time>2013-02-09T14:08:26Z</time>
      </trkpt>
      <trkpt lat="43.39514" lon="6.1132">
        <ele>307.39999389648</ele>
        <time>2013-02-09T14:08:31Z</time>
      </trkpt>
      <trkpt lat="43.39508" lon="6.11361">
        <ele>307.39999389648</ele>
        <time>2013-02-09T14:08:42Z</time>
      </trkpt>
      <trkpt lat="43.395" lon="6.11427">
        <ele>307.39999389648</ele>
        <time>2013-02-09T14:08:57Z</time>
      </trkpt>
      <trkpt lat="43.39499" lon="6.11438">
        <ele>307.39999389648</ele>
        <time>2013-02-09T14:08:59Z</time>
      </trkpt>
      <trkpt lat="43.39497" lon="6.11462">
        <ele>307.39999389648</ele>
        <time>2013-02-09T14:09:03Z</time>
      </trkpt>
      <trkpt lat="43.39497" lon="6.1147">
        <ele>306.60000610352</ele>
        <time>2013-02-09T14:09:05Z</time>
      </trkpt>
      <trkpt lat="43.39496" lon="6.11477">
        <ele>305.39999389648</ele>
        <time>2013-02-09T14:09:08Z</time>
      </trkpt>
      <trkpt lat="43.39496" lon="6.11492">
        <ele>305.39999389648</ele>
        <time>2013-02-09T14:09:12Z</time>
      </trkpt>
      <trkpt lat="43.39503" lon="6.11505">
        <ele>305.39999389648</ele>
        <time>2013-02-09T14:09:16Z</time>
      </trkpt>
      <trkpt lat="43.39518" lon="6.11516">
        <ele>305.39999389648</ele>
        <time>2013-02-09T14:09:22Z</time>
      </trkpt>
      <trkpt lat="43.39536" lon="6.11525">
        <ele>305.39999389648</ele>
        <time>2013-02-09T14:09:29Z</time>
      </trkpt>
      <trkpt lat="43.39549" lon="6.1153">
        <ele>305.39999389648</ele>
        <time>2013-02-09T14:09:33Z</time>
      </trkpt>
      <trkpt lat="43.39564" lon="6.11525">
        <ele>305.39999389648</ele>
        <time>2013-02-09T14:09:38Z</time>
      </trkpt>
      <trkpt lat="43.39571" lon="6.11521">
        <ele>305.39999389648</ele>
        <time>2013-02-09T14:09:41Z</time>
      </trkpt>
      <trkpt lat="43.3958" lon="6.11517">
        <ele>305.39999389648</ele>
        <time>2013-02-09T14:09:45Z</time>
      </trkpt>
      <trkpt lat="43.39589" lon="6.11507">
        <ele>305.39999389648</ele>
        <time>2013-02-09T14:09:50Z</time>
      </trkpt>
      <trkpt lat="43.39593" lon="6.11502">
        <ele>305.39999389648</ele>
        <time>2013-02-09T14:09:52Z</time>
      </trkpt>
      <trkpt lat="43.39602" lon="6.11484">
        <ele>305.39999389648</ele>
        <time>2013-02-09T14:09:59Z</time>
      </trkpt>
      <trkpt lat="43.39615" lon="6.11445">
        <ele>306.60000610352</ele>
        <time>2013-02-09T14:10:13Z</time>
      </trkpt>
      <trkpt lat="43.39622" lon="6.11428">
        <ele>307.39999389648</ele>
        <time>2013-02-09T14:10:20Z</time>
      </trkpt>
      <trkpt lat="43.39635" lon="6.11387">
        <ele>307.39999389648</ele>
        <time>2013-02-09T14:10:36Z</time>
      </trkpt>
      <trkpt lat="43.39639" lon="6.11363">
        <ele>309.39999389648</ele>
        <time>2013-02-09T14:10:46Z</time>
      </trkpt>
      <trkpt lat="43.3964" lon="6.11355">
        <ele>309.39999389648</ele>
        <time>2013-02-09T14:10:49Z</time>
      </trkpt>
      <trkpt lat="43.39642" lon="6.11341">
        <ele>309.39999389648</ele>
        <time>2013-02-09T14:10:55Z</time>
      </trkpt>
      <trkpt lat="43.39642" lon="6.11337">
        <ele>310</ele>
        <time>2013-02-09T14:10:57Z</time>
      </trkpt>
      <trkpt lat="43.39642" lon="6.11334">
        <ele>310.39999389648</ele>
        <time>2013-02-09T14:10:58Z</time>
      </trkpt>
      <trkpt lat="43.39643" lon="6.11331">
        <ele>311.20001220703</ele>
        <time>2013-02-09T14:11:00Z</time>
      </trkpt>
      <trkpt lat="43.39643" lon="6.11332">
        <ele>311.60000610352</ele>
        <time>2013-02-09T14:11:01Z</time>
      </trkpt>
      <trkpt lat="43.39643" lon="6.11332">
        <ele>311.60000610352</ele>
        <time>2013-02-09T14:11:09Z</time>
      </trkpt>
      <trkpt lat="43.39643" lon="6.11332">
        <ele>311.60000610352</ele>
        <time>2013-02-09T14:11:14Z</time>
      </trkpt>
      <trkpt lat="43.39643" lon="6.11331">
        <ele>311.60000610352</ele>
        <time>2013-02-09T14:11:17Z</time>
      </trkpt>
      <trkpt lat="43.39644" lon="6.11326">
        <ele>311.60000610352</ele>
        <time>2013-02-09T14:11:19Z</time>
      </trkpt>
      <trkpt lat="43.39646" lon="6.1131">
        <ele>311.60000610352</ele>
        <time>2013-02-09T14:11:23Z</time>
      </trkpt>
      <trkpt lat="43.39648" lon="6.11284">
        <ele>311.60000610352</ele>
        <time>2013-02-09T14:11:29Z</time>
      </trkpt>
      <trkpt lat="43.39654" lon="6.11247">
        <ele>311.60000610352</ele>
        <time>2013-02-09T14:11:36Z</time>
      </trkpt>
      <trkpt lat="43.39655" lon="6.11231">
        <ele>311.60000610352</ele>
        <time>2013-02-09T14:11:39Z</time>
      </trkpt>
      <trkpt lat="43.39655" lon="6.11226">
        <ele>311.60000610352</ele>
        <time>2013-02-09T14:11:42Z</time>
      </trkpt>
      <trkpt lat="43.39655" lon="6.11226">
        <ele>311.60000610352</ele>
        <time>2013-02-09T14:11:45Z</time>
      </trkpt>
      <trkpt lat="43.39655" lon="6.11226">
        <ele>311.60000610352</ele>
        <time>2013-02-09T14:12:05Z</time>
      </trkpt>
      <trkpt lat="43.39655" lon="6.11226">
        <ele>311.60000610352</ele>
        <time>2013-02-09T14:12:31Z</time>
      </trkpt>
      <trkpt lat="43.39655" lon="6.11226">
        <ele>311.60000610352</ele>
        <time>2013-02-09T14:12:39Z</time>
      </trkpt>
      <trkpt lat="43.39655" lon="6.11225">
        <ele>311.60000610352</ele>
        <time>2013-02-09T14:12:43Z</time>
      </trkpt>
      <trkpt lat="43.39655" lon="6.11223">
        <ele>311.60000610352</ele>
        <time>2013-02-09T14:12:44Z</time>
      </trkpt>
      <trkpt lat="43.39659" lon="6.11207">
        <ele>311.20001220703</ele>
        <time>2013-02-09T14:12:48Z</time>
      </trkpt>
      <trkpt lat="43.39662" lon="6.11195">
        <ele>310.39999389648</ele>
        <time>2013-02-09T14:12:50Z</time>
      </trkpt>
      <trkpt lat="43.39664" lon="6.11189">
        <ele>310</ele>
        <time>2013-02-09T14:12:51Z</time>
      </trkpt>
      <trkpt lat="43.39666" lon="6.11183">
        <ele>309.60000610352</ele>
        <time>2013-02-09T14:12:52Z</time>
      </trkpt>
      <trkpt lat="43.39668" lon="6.11176">
        <ele>309.20001220703</ele>
        <time>2013-02-09T14:12:53Z</time>
      </trkpt>
      <trkpt lat="43.39669" lon="6.11169">
        <ele>308.79998779297</ele>
        <time>2013-02-09T14:12:54Z</time>
      </trkpt>
      <trkpt lat="43.3967" lon="6.11161">
        <ele>308.39999389648</ele>
        <time>2013-02-09T14:12:55Z</time>
      </trkpt>
      <trkpt lat="43.39671" lon="6.11153">
        <ele>308</ele>
        <time>2013-02-09T14:12:56Z</time>
      </trkpt>
      <trkpt lat="43.39672" lon="6.11146">
        <ele>307.39999389648</ele>
        <time>2013-02-09T14:12:57Z</time>
      </trkpt>
      <trkpt lat="43.39671" lon="6.11138">
        <ele>306.79998779297</ele>
        <time>2013-02-09T14:12:58Z</time>
      </trkpt>
      <trkpt lat="43.39674" lon="6.11132">
        <ele>306.20001220703</ele>
        <time>2013-02-09T14:12:59Z</time>
      </trkpt>
      <trkpt lat="43.39679" lon="6.11121">
        <ele>305.20001220703</ele>
        <time>2013-02-09T14:13:01Z</time>
      </trkpt>
      <trkpt lat="43.39682" lon="6.11115">
        <ele>305.20001220703</ele>
        <time>2013-02-09T14:13:02Z</time>
      </trkpt>
      <trkpt lat="43.39684" lon="6.11102">
        <ele>304.39999389648</ele>
        <time>2013-02-09T14:13:04Z</time>
      </trkpt>
      <trkpt lat="43.39685" lon="6.11096">
        <ele>303.79998779297</ele>
        <time>2013-02-09T14:13:05Z</time>
      </trkpt>
      <trkpt lat="43.39685" lon="6.11082">
        <ele>303</ele>
        <time>2013-02-09T14:13:07Z</time>
      </trkpt>
      <trkpt lat="43.39683" lon="6.11065">
        <ele>303</ele>
        <time>2013-02-09T14:13:10Z</time>
      </trkpt>
      <trkpt lat="43.39682" lon="6.11059">
        <ele>303</ele>
        <time>2013-02-09T14:13:11Z</time>
      </trkpt>
      <trkpt lat="43.39684" lon="6.11039">
        <ele>302</ele>
        <time>2013-02-09T14:13:14Z</time>
      </trkpt>
      <trkpt lat="43.39681" lon="6.11025">
        <ele>301.20001220703</ele>
        <time>2013-02-09T14:13:16Z</time>
      </trkpt>
      <trkpt lat="43.3968" lon="6.11019">
        <ele>300.79998779297</ele>
        <time>2013-02-09T14:13:17Z</time>
      </trkpt>
      <trkpt lat="43.39679" lon="6.11013">
        <ele>300.79998779297</ele>
        <time>2013-02-09T14:13:18Z</time>
      </trkpt>
      <trkpt lat="43.39672" lon="6.10995">
        <ele>300.79998779297</ele>
        <time>2013-02-09T14:13:21Z</time>
      </trkpt>
      <trkpt lat="43.39668" lon="6.1097">
        <ele>299.39999389648</ele>
        <time>2013-02-09T14:13:25Z</time>
      </trkpt>
      <trkpt lat="43.39664" lon="6.10963">
        <ele>298.60000610352</ele>
        <time>2013-02-09T14:13:27Z</time>
      </trkpt>
      <trkpt lat="43.39657" lon="6.10954">
        <ele>298.60000610352</ele>
        <time>2013-02-09T14:13:30Z</time>
      </trkpt>
      <trkpt lat="43.39655" lon="6.10934">
        <ele>298.20001220703</ele>
        <time>2013-02-09T14:13:34Z</time>
      </trkpt>
      <trkpt lat="43.39653" lon="6.10922">
        <ele>297.39999389648</ele>
        <time>2013-02-09T14:13:36Z</time>
      </trkpt>
      <trkpt lat="43.3965" lon="6.10907">
        <ele>296.60000610352</ele>
        <time>2013-02-09T14:13:38Z</time>
      </trkpt>
      <trkpt lat="43.39645" lon="6.10892">
        <ele>296.20001220703</ele>
        <time>2013-02-09T14:13:40Z</time>
      </trkpt>
      <trkpt lat="43.39643" lon="6.10886">
        <ele>295.79998779297</ele>
        <time>2013-02-09T14:13:41Z</time>
      </trkpt>
      <trkpt lat="43.3964" lon="6.1088">
        <ele>295.39999389648</ele>
        <time>2013-02-09T14:13:42Z</time>
      </trkpt>
      <trkpt lat="43.39637" lon="6.10873">
        <ele>295</ele>
        <time>2013-02-09T14:13:43Z</time>
      </trkpt>
      <trkpt lat="43.39634" lon="6.10868">
        <ele>294.60000610352</ele>
        <time>2013-02-09T14:13:44Z</time>
      </trkpt>
      <trkpt lat="43.39626" lon="6.10847">
        <ele>294.20001220703</ele>
        <time>2013-02-09T14:13:47Z</time>
      </trkpt>
      <trkpt lat="43.39623" lon="6.10841">
        <ele>293.79998779297</ele>
        <time>2013-02-09T14:13:48Z</time>
      </trkpt>
      <trkpt lat="43.3962" lon="6.10835">
        <ele>293.20001220703</ele>
        <time>2013-02-09T14:13:49Z</time>
      </trkpt>
      <trkpt lat="43.39618" lon="6.10828">
        <ele>292.79998779297</ele>
        <time>2013-02-09T14:13:50Z</time>
      </trkpt>
      <trkpt lat="43.39616" lon="6.10822">
        <ele>292.39999389648</ele>
        <time>2013-02-09T14:13:51Z</time>
      </trkpt>
      <trkpt lat="43.39609" lon="6.10807">
        <ele>292.39999389648</ele>
        <time>2013-02-09T14:13:54Z</time>
      </trkpt>
      <trkpt lat="43.39609" lon="6.10805">
        <ele>292</ele>
        <time>2013-02-09T14:13:57Z</time>
      </trkpt>
      <trkpt lat="43.39609" lon="6.10805">
        <ele>290.39999389648</ele>
        <time>2013-02-09T14:14:00Z</time>
      </trkpt>
      <trkpt lat="43.39609" lon="6.10799">
        <ele>290.39999389648</ele>
        <time>2013-02-09T14:14:05Z</time>
      </trkpt>
      <trkpt lat="43.39605" lon="6.10782">
        <ele>290.39999389648</ele>
        <time>2013-02-09T14:14:09Z</time>
      </trkpt>
      <trkpt lat="43.396" lon="6.10769">
        <ele>290</ele>
        <time>2013-02-09T14:14:12Z</time>
      </trkpt>
      <trkpt lat="43.396" lon="6.10764">
        <ele>289.60000610352</ele>
        <time>2013-02-09T14:14:13Z</time>
      </trkpt>
      <trkpt lat="43.39599" lon="6.10758">
        <ele>289.20001220703</ele>
        <time>2013-02-09T14:14:14Z</time>
      </trkpt>
      <trkpt lat="43.39597" lon="6.10752">
        <ele>288.79998779297</ele>
        <time>2013-02-09T14:14:15Z</time>
      </trkpt>
      <trkpt lat="43.39595" lon="6.10747">
        <ele>288.39999389648</ele>
        <time>2013-02-09T14:14:16Z</time>
      </trkpt>
      <trkpt lat="43.39593" lon="6.10736">
        <ele>288.39999389648</ele>
        <time>2013-02-09T14:14:18Z</time>
      </trkpt>
      <trkpt lat="43.39592" lon="6.10733">
        <ele>288.39999389648</ele>
        <time>2013-02-09T14:14:19Z</time>
      </trkpt>
      <trkpt lat="43.39591" lon="6.10725">
        <ele>287.39999389648</ele>
        <time>2013-02-09T14:14:21Z</time>
      </trkpt>
      <trkpt lat="43.3959" lon="6.10717">
        <ele>286.20001220703</ele>
        <time>2013-02-09T14:14:23Z</time>
      </trkpt>
      <trkpt lat="43.39589" lon="6.10713">
        <ele>286.20001220703</ele>
        <time>2013-02-09T14:14:24Z</time>
      </trkpt>
      <trkpt lat="43.39589" lon="6.1071">
        <ele>285.79998779297</ele>
        <time>2013-02-09T14:14:25Z</time>
      </trkpt>
      <trkpt lat="43.39588" lon="6.10708">
        <ele>285.20001220703</ele>
        <time>2013-02-09T14:14:26Z</time>
      </trkpt>
      <trkpt lat="43.39588" lon="6.10707">
        <ele>284.79998779297</ele>
        <time>2013-02-09T14:14:27Z</time>
      </trkpt>
      <trkpt lat="43.39588" lon="6.10707">
        <ele>284</ele>
        <time>2013-02-09T14:14:29Z</time>
      </trkpt>
      <trkpt lat="43.39588" lon="6.10707">
        <ele>284</ele>
        <time>2013-02-09T14:14:41Z</time>
      </trkpt>
      <trkpt lat="43.39588" lon="6.10706">
        <ele>284</ele>
        <time>2013-02-09T14:14:42Z</time>
      </trkpt>
      <trkpt lat="43.39589" lon="6.10698">
        <ele>284</ele>
        <time>2013-02-09T14:14:45Z</time>
      </trkpt>
      <trkpt lat="43.39588" lon="6.10688">
        <ele>284</ele>
        <time>2013-02-09T14:14:47Z</time>
      </trkpt>
      <trkpt lat="43.39587" lon="6.10671">
        <ele>283.20001220703</ele>
        <time>2013-02-09T14:14:50Z</time>
      </trkpt>
      <trkpt lat="43.39587" lon="6.10661">
        <ele>282.20001220703</ele>
        <time>2013-02-09T14:14:52Z</time>
      </trkpt>
      <trkpt lat="43.39586" lon="6.10656">
        <ele>281.60000610352</ele>
        <time>2013-02-09T14:14:53Z</time>
      </trkpt>
      <trkpt lat="43.39585" lon="6.10646">
        <ele>281.20001220703</ele>
        <time>2013-02-09T14:14:55Z</time>
      </trkpt>
      <trkpt lat="43.39579" lon="6.10627">
        <ele>279.60000610352</ele>
        <time>2013-02-09T14:14:59Z</time>
      </trkpt>
      <trkpt lat="43.39568" lon="6.10599">
        <ele>279.60000610352</ele>
        <time>2013-02-09T14:15:05Z</time>
      </trkpt>
      <trkpt lat="43.39565" lon="6.10587">
        <ele>279</ele>
        <time>2013-02-09T14:15:07Z</time>
      </trkpt>
      <trkpt lat="43.39554" lon="6.10541">
        <ele>275.60000610352</ele>
        <time>2013-02-09T14:15:15Z</time>
      </trkpt>
      <trkpt lat="43.39554" lon="6.10536">
        <ele>275.20001220703</ele>
        <time>2013-02-09T14:15:16Z</time>
      </trkpt>
      <trkpt lat="43.39553" lon="6.10515">
        <ele>275.20001220703</ele>
        <time>2013-02-09T14:15:20Z</time>
      </trkpt>
      <trkpt lat="43.39554" lon="6.10502">
        <ele>274.39999389648</ele>
        <time>2013-02-09T14:15:22Z</time>
      </trkpt>
      <trkpt lat="43.39553" lon="6.10496">
        <ele>274</ele>
        <time>2013-02-09T14:15:23Z</time>
      </trkpt>
      <trkpt lat="43.39552" lon="6.10484">
        <ele>273.20001220703</ele>
        <time>2013-02-09T14:15:25Z</time>
      </trkpt>
      <trkpt lat="43.39548" lon="6.10469">
        <ele>272.79998779297</ele>
        <time>2013-02-09T14:15:28Z</time>
      </trkpt>
      <trkpt lat="43.39544" lon="6.10456">
        <ele>271.60000610352</ele>
        <time>2013-02-09T14:15:31Z</time>
      </trkpt>
      <trkpt lat="43.39544" lon="6.10445">
        <ele>271.20001220703</ele>
        <time>2013-02-09T14:15:34Z</time>
      </trkpt>
      <trkpt lat="43.3954" lon="6.10433">
        <ele>270.60000610352</ele>
        <time>2013-02-09T14:15:37Z</time>
      </trkpt>
      <trkpt lat="43.39536" lon="6.10419">
        <ele>269.39999389648</ele>
        <time>2013-02-09T14:15:40Z</time>
      </trkpt>
      <trkpt lat="43.39536" lon="6.10408">
        <ele>269</ele>
        <time>2013-02-09T14:15:42Z</time>
      </trkpt>
      <trkpt lat="43.39536" lon="6.10401">
        <ele>269</ele>
        <time>2013-02-09T14:15:44Z</time>
      </trkpt>
      <trkpt lat="43.39535" lon="6.10399">
        <ele>269</ele>
        <time>2013-02-09T14:15:45Z</time>
      </trkpt>
      <trkpt lat="43.39535" lon="6.10399">
        <ele>266.60000610352</ele>
        <time>2013-02-09T14:15:57Z</time>
      </trkpt>
      <trkpt lat="43.39535" lon="6.10399">
        <ele>266.60000610352</ele>
        <time>2013-02-09T14:16:12Z</time>
      </trkpt>
      <trkpt lat="43.39536" lon="6.104">
        <ele>266.60000610352</ele>
        <time>2013-02-09T14:16:17Z</time>
      </trkpt>
      <trkpt lat="43.39536" lon="6.104">
        <ele>266.60000610352</ele>
        <time>2013-02-09T14:16:22Z</time>
      </trkpt>
      <trkpt lat="43.39536" lon="6.104">
        <ele>266.60000610352</ele>
        <time>2013-02-09T14:16:24Z</time>
      </trkpt>
      <trkpt lat="43.39532" lon="6.10395">
        <ele>266.60000610352</ele>
        <time>2013-02-09T14:16:27Z</time>
      </trkpt>
      <trkpt lat="43.39526" lon="6.1039">
        <ele>266.60000610352</ele>
        <time>2013-02-09T14:16:30Z</time>
      </trkpt>
      <trkpt lat="43.39521" lon="6.10386">
        <ele>266.60000610352</ele>
        <time>2013-02-09T14:16:32Z</time>
      </trkpt>
      <trkpt lat="43.39506" lon="6.10384">
        <ele>266.60000610352</ele>
        <time>2013-02-09T14:16:37Z</time>
      </trkpt>
      <trkpt lat="43.39482" lon="6.10383">
        <ele>266.60000610352</ele>
        <time>2013-02-09T14:16:43Z</time>
      </trkpt>
      <trkpt lat="43.39478" lon="6.10382">
        <ele>266.20001220703</ele>
        <time>2013-02-09T14:16:44Z</time>
      </trkpt>
      <trkpt lat="43.39475" lon="6.10382">
        <ele>265.79998779297</ele>
        <time>2013-02-09T14:16:45Z</time>
      </trkpt>
      <trkpt lat="43.39466" lon="6.10376">
        <ele>264.60000610352</ele>
        <time>2013-02-09T14:16:48Z</time>
      </trkpt>
      <trkpt lat="43.3946" lon="6.10373">
        <ele>264.20001220703</ele>
        <time>2013-02-09T14:16:51Z</time>
      </trkpt>
      <trkpt lat="43.39459" lon="6.10374">
        <ele>263.79998779297</ele>
        <time>2013-02-09T14:16:52Z</time>
      </trkpt>
      <trkpt lat="43.39459" lon="6.10374">
        <ele>263.39999389648</ele>
        <time>2013-02-09T14:16:53Z</time>
      </trkpt>
      <trkpt lat="43.39459" lon="6.10374">
        <ele>263</ele>
        <time>2013-02-09T14:16:54Z</time>
      </trkpt>
      <trkpt lat="43.39458" lon="6.10374">
        <ele>262.39999389648</ele>
        <time>2013-02-09T14:16:55Z</time>
      </trkpt>
      <trkpt lat="43.39457" lon="6.10375">
        <ele>262.39999389648</ele>
        <time>2013-02-09T14:16:56Z</time>
      </trkpt>
      <trkpt lat="43.39454" lon="6.10377">
        <ele>262.39999389648</ele>
        <time>2013-02-09T14:16:58Z</time>
      </trkpt>
      <trkpt lat="43.39454" lon="6.10377">
        <ele>262.39999389648</ele>
        <time>2013-02-09T14:16:59Z</time>
      </trkpt>
      <trkpt lat="43.39454" lon="6.10377">
        <ele>262.39999389648</ele>
        <time>2013-02-09T14:17:00Z</time>
      </trkpt>
      <trkpt lat="43.39458" lon="6.10377">
        <ele>262.39999389648</ele>
        <time>2013-02-09T14:17:04Z</time>
      </trkpt>
      <trkpt lat="43.39461" lon="6.10377">
        <ele>262.39999389648</ele>
        <time>2013-02-09T14:17:07Z</time>
      </trkpt>
      <trkpt lat="43.39464" lon="6.10377">
        <ele>262.39999389648</ele>
        <time>2013-02-09T14:17:10Z</time>
      </trkpt>
      <trkpt lat="43.39464" lon="6.10376">
        <ele>262.39999389648</ele>
        <time>2013-02-09T14:17:15Z</time>
      </trkpt>
      <trkpt lat="43.39464" lon="6.10376">
        <ele>262.39999389648</ele>
        <time>2013-02-09T14:17:40Z</time>
      </trkpt>
      <trkpt lat="43.39464" lon="6.10376">
        <ele>262.39999389648</ele>
        <time>2013-02-09T14:17:50Z</time>
      </trkpt>
      <trkpt lat="43.39465" lon="6.10376">
        <ele>262.39999389648</ele>
        <time>2013-02-09T14:17:59Z</time>
      </trkpt>
      <trkpt lat="43.39464" lon="6.10375">
        <ele>262.39999389648</ele>
        <time>2013-02-09T14:18:02Z</time>
      </trkpt>
      <trkpt lat="43.39463" lon="6.10373">
        <ele>262.39999389648</ele>
        <time>2013-02-09T14:18:04Z</time>
      </trkpt>
      <trkpt lat="43.39463" lon="6.10373">
        <ele>262.39999389648</ele>
        <time>2013-02-09T14:18:14Z</time>
      </trkpt>
      <trkpt lat="43.39462" lon="6.10373">
        <ele>262.39999389648</ele>
        <time>2013-02-09T14:18:18Z</time>
      </trkpt>
      <trkpt lat="43.3946" lon="6.10373">
        <ele>262.39999389648</ele>
        <time>2013-02-09T14:18:19Z</time>
      </trkpt>
      <trkpt lat="43.39449" lon="6.10376">
        <ele>262.39999389648</ele>
        <time>2013-02-09T14:18:24Z</time>
      </trkpt>
      <trkpt lat="43.39435" lon="6.10391">
        <ele>262.39999389648</ele>
        <time>2013-02-09T14:18:29Z</time>
      </trkpt>
      <trkpt lat="43.39423" lon="6.10407">
        <ele>262.39999389648</ele>
        <time>2013-02-09T14:18:35Z</time>
      </trkpt>
      <trkpt lat="43.39415" lon="6.10418">
        <ele>262.39999389648</ele>
        <time>2013-02-09T14:18:39Z</time>
      </trkpt>
      <trkpt lat="43.39404" lon="6.10413">
        <ele>262.39999389648</ele>
        <time>2013-02-09T14:18:43Z</time>
      </trkpt>
      <trkpt lat="43.39401" lon="6.1041">
        <ele>262.39999389648</ele>
        <time>2013-02-09T14:18:46Z</time>
      </trkpt>
      <trkpt lat="43.39397" lon="6.10407">
        <ele>262</ele>
        <time>2013-02-09T14:18:50Z</time>
      </trkpt>
      <trkpt lat="43.39396" lon="6.10406">
        <ele>261.60000610352</ele>
        <time>2013-02-09T14:18:51Z</time>
      </trkpt>
      <trkpt lat="43.39392" lon="6.10402">
        <ele>260.39999389648</ele>
        <time>2013-02-09T14:18:53Z</time>
      </trkpt>
      <trkpt lat="43.39382" lon="6.10395">
        <ele>260.39999389648</ele>
        <time>2013-02-09T14:18:59Z</time>
      </trkpt>
      <trkpt lat="43.39374" lon="6.10388">
        <ele>260.39999389648</ele>
        <time>2013-02-09T14:19:04Z</time>
      </trkpt>
      <trkpt lat="43.39369" lon="6.10391">
        <ele>260.39999389648</ele>
        <time>2013-02-09T14:19:08Z</time>
      </trkpt>
      <trkpt lat="43.39368" lon="6.10392">
        <ele>260.79998779297</ele>
        <time>2013-02-09T14:19:10Z</time>
      </trkpt>
      <trkpt lat="43.39368" lon="6.10392">
        <ele>261.60000610352</ele>
        <time>2013-02-09T14:19:12Z</time>
      </trkpt>
      <trkpt lat="43.39368" lon="6.10392">
        <ele>262.39999389648</ele>
        <time>2013-02-09T14:19:14Z</time>
      </trkpt>
      <trkpt lat="43.39367" lon="6.10397">
        <ele>262.39999389648</ele>
        <time>2013-02-09T14:19:17Z</time>
      </trkpt>
      <trkpt lat="43.39364" lon="6.10409">
        <ele>262.39999389648</ele>
        <time>2013-02-09T14:19:22Z</time>
      </trkpt>
      <trkpt lat="43.39362" lon="6.10412">
        <ele>262.39999389648</ele>
        <time>2013-02-09T14:19:23Z</time>
      </trkpt>
      <trkpt lat="43.39355" lon="6.10419">
        <ele>262.39999389648</ele>
        <time>2013-02-09T14:19:27Z</time>
      </trkpt>
      <trkpt lat="43.39352" lon="6.10418">
        <ele>262.39999389648</ele>
        <time>2013-02-09T14:19:29Z</time>
      </trkpt>
      <trkpt lat="43.39346" lon="6.10418">
        <ele>262.39999389648</ele>
        <time>2013-02-09T14:19:32Z</time>
      </trkpt>
      <trkpt lat="43.39343" lon="6.10419">
        <ele>262.39999389648</ele>
        <time>2013-02-09T14:19:34Z</time>
      </trkpt>
      <trkpt lat="43.39335" lon="6.10422">
        <ele>262.79998779297</ele>
        <time>2013-02-09T14:19:38Z</time>
      </trkpt>
      <trkpt lat="43.39333" lon="6.10425">
        <ele>263.79998779297</ele>
        <time>2013-02-09T14:19:40Z</time>
      </trkpt>
      <trkpt lat="43.39321" lon="6.10438">
        <ele>264.60000610352</ele>
        <time>2013-02-09T14:19:49Z</time>
      </trkpt>
      <trkpt lat="43.39318" lon="6.10442">
        <ele>264.60000610352</ele>
        <time>2013-02-09T14:19:51Z</time>
      </trkpt>
      <trkpt lat="43.39312" lon="6.10451">
        <ele>264.60000610352</ele>
        <time>2013-02-09T14:19:56Z</time>
      </trkpt>
      <trkpt lat="43.39308" lon="6.10462">
        <ele>264.60000610352</ele>
        <time>2013-02-09T14:20:01Z</time>
      </trkpt>
      <trkpt lat="43.39301" lon="6.10477">
        <ele>264.60000610352</ele>
        <time>2013-02-09T14:20:08Z</time>
      </trkpt>
      <trkpt lat="43.39293" lon="6.10487">
        <ele>265.39999389648</ele>
        <time>2013-02-09T14:20:14Z</time>
      </trkpt>
      <trkpt lat="43.39288" lon="6.10502">
        <ele>266.60000610352</ele>
        <time>2013-02-09T14:20:21Z</time>
      </trkpt>
      <trkpt lat="43.39284" lon="6.10517">
        <ele>266.60000610352</ele>
        <time>2013-02-09T14:20:27Z</time>
      </trkpt>
      <trkpt lat="43.39279" lon="6.10528">
        <ele>267.39999389648</ele>
        <time>2013-02-09T14:20:32Z</time>
      </trkpt>
      <trkpt lat="43.39271" lon="6.10543">
        <ele>268.60000610352</ele>
        <time>2013-02-09T14:20:39Z</time>
      </trkpt>
      <trkpt lat="43.39266" lon="6.10558">
        <ele>268.60000610352</ele>
        <time>2013-02-09T14:20:44Z</time>
      </trkpt>
      <trkpt lat="43.39259" lon="6.10576">
        <ele>268.60000610352</ele>
        <time>2013-02-09T14:20:50Z</time>
      </trkpt>
      <trkpt lat="43.39249" lon="6.10593">
        <ele>268.60000610352</ele>
        <time>2013-02-09T14:20:56Z</time>
      </trkpt>
      <trkpt lat="43.3923" lon="6.10609">
        <ele>268.60000610352</ele>
        <time>2013-02-09T14:21:05Z</time>
      </trkpt>
      <trkpt lat="43.39215" lon="6.10626">
        <ele>268.60000610352</ele>
        <time>2013-02-09T14:21:11Z</time>
      </trkpt>
      <trkpt lat="43.39203" lon="6.10636">
        <ele>268.60000610352</ele>
        <time>2013-02-09T14:21:16Z</time>
      </trkpt>
      <trkpt lat="43.39187" lon="6.1065">
        <ele>268.60000610352</ele>
        <time>2013-02-09T14:21:22Z</time>
      </trkpt>
      <trkpt lat="43.3918" lon="6.10675">
        <ele>268.60000610352</ele>
        <time>2013-02-09T14:21:29Z</time>
      </trkpt>
      <trkpt lat="43.39185" lon="6.10686">
        <ele>268.60000610352</ele>
        <time>2013-02-09T14:21:33Z</time>
      </trkpt>
      <trkpt lat="43.39194" lon="6.107">
        <ele>268.60000610352</ele>
        <time>2013-02-09T14:21:39Z</time>
      </trkpt>
      <trkpt lat="43.39204" lon="6.10714">
        <ele>268.60000610352</ele>
        <time>2013-02-09T14:21:45Z</time>
      </trkpt>
      <trkpt lat="43.3921" lon="6.10725">
        <ele>268.60000610352</ele>
        <time>2013-02-09T14:21:49Z</time>
      </trkpt>
      <trkpt lat="43.39212" lon="6.1073">
        <ele>269</ele>
        <time>2013-02-09T14:21:51Z</time>
      </trkpt>
      <trkpt lat="43.39214" lon="6.10734">
        <ele>270</ele>
        <time>2013-02-09T14:21:53Z</time>
      </trkpt>
      <trkpt lat="43.39216" lon="6.10742">
        <ele>270.79998779297</ele>
        <time>2013-02-09T14:21:56Z</time>
      </trkpt>
      <trkpt lat="43.39217" lon="6.10748">
        <ele>270.79998779297</ele>
        <time>2013-02-09T14:22:00Z</time>
      </trkpt>
      <trkpt lat="43.39216" lon="6.1075">
        <ele>270.79998779297</ele>
        <time>2013-02-09T14:22:01Z</time>
      </trkpt>
      <trkpt lat="43.39218" lon="6.10779">
        <ele>270.79998779297</ele>
        <time>2013-02-09T14:22:11Z</time>
      </trkpt>
      <trkpt lat="43.39217" lon="6.10783">
        <ele>270.79998779297</ele>
        <time>2013-02-09T14:22:12Z</time>
      </trkpt>
      <trkpt lat="43.39219" lon="6.10801">
        <ele>270.79998779297</ele>
        <time>2013-02-09T14:22:17Z</time>
      </trkpt>
      <trkpt lat="43.39223" lon="6.10819">
        <ele>270.79998779297</ele>
        <time>2013-02-09T14:22:23Z</time>
      </trkpt>
      <trkpt lat="43.39223" lon="6.10832">
        <ele>270.79998779297</ele>
        <time>2013-02-09T14:22:28Z</time>
      </trkpt>
      <trkpt lat="43.39227" lon="6.1084">
        <ele>271.20001220703</ele>
        <time>2013-02-09T14:22:31Z</time>
      </trkpt>
      <trkpt lat="43.39229" lon="6.10844">
        <ele>272.20001220703</ele>
        <time>2013-02-09T14:22:33Z</time>
      </trkpt>
      <trkpt lat="43.39227" lon="6.10862">
        <ele>273</ele>
        <time>2013-02-09T14:22:40Z</time>
      </trkpt>
      <trkpt lat="43.39228" lon="6.1088">
        <ele>273</ele>
        <time>2013-02-09T14:22:47Z</time>
      </trkpt>
      <trkpt lat="43.3922" lon="6.10896">
        <ele>273</ele>
        <time>2013-02-09T14:22:53Z</time>
      </trkpt>
      <trkpt lat="43.39214" lon="6.10904">
        <ele>273</ele>
        <time>2013-02-09T14:22:57Z</time>
      </trkpt>
      <trkpt lat="43.39211" lon="6.10908">
        <ele>273</ele>
        <time>2013-02-09T14:22:59Z</time>
      </trkpt>
      <trkpt lat="43.39207" lon="6.10918">
        <ele>273</ele>
        <time>2013-02-09T14:23:04Z</time>
      </trkpt>
      <trkpt lat="43.39205" lon="6.1092">
        <ele>273</ele>
        <time>2013-02-09T14:23:05Z</time>
      </trkpt>
      <trkpt lat="43.39195" lon="6.10924">
        <ele>273</ele>
        <time>2013-02-09T14:23:11Z</time>
      </trkpt>
      <trkpt lat="43.39192" lon="6.10926">
        <ele>273</ele>
        <time>2013-02-09T14:23:13Z</time>
      </trkpt>
      <trkpt lat="43.39184" lon="6.10935">
        <ele>273</ele>
        <time>2013-02-09T14:23:19Z</time>
      </trkpt>
      <trkpt lat="43.39181" lon="6.10942">
        <ele>273</ele>
        <time>2013-02-09T14:23:23Z</time>
      </trkpt>
      <trkpt lat="43.3918" lon="6.10943">
        <ele>273</ele>
        <time>2013-02-09T14:23:25Z</time>
      </trkpt>
      <trkpt lat="43.3918" lon="6.10943">
        <ele>273</ele>
        <time>2013-02-09T14:23:47Z</time>
      </trkpt>
      <trkpt lat="43.3918" lon="6.10943">
        <ele>273</ele>
        <time>2013-02-09T14:23:59Z</time>
      </trkpt>
      <trkpt lat="43.39177" lon="6.1095">
        <ele>273</ele>
        <time>2013-02-09T14:24:06Z</time>
      </trkpt>
      <trkpt lat="43.39164" lon="6.10968">
        <ele>273.39999389648</ele>
        <time>2013-02-09T14:24:14Z</time>
      </trkpt>
      <trkpt lat="43.39161" lon="6.10971">
        <ele>274.39999389648</ele>
        <time>2013-02-09T14:24:16Z</time>
      </trkpt>
      <trkpt lat="43.39158" lon="6.10974">
        <ele>275.20001220703</ele>
        <time>2013-02-09T14:24:18Z</time>
      </trkpt>
      <trkpt lat="43.39152" lon="6.10981">
        <ele>275.20001220703</ele>
        <time>2013-02-09T14:24:22Z</time>
      </trkpt>
      <trkpt lat="43.39148" lon="6.10992">
        <ele>275.20001220703</ele>
        <time>2013-02-09T14:24:26Z</time>
      </trkpt>
      <trkpt lat="43.39148" lon="6.10995">
        <ele>275.20001220703</ele>
        <time>2013-02-09T14:24:27Z</time>
      </trkpt>
      <trkpt lat="43.39151" lon="6.11013">
        <ele>275.20001220703</ele>
        <time>2013-02-09T14:24:32Z</time>
      </trkpt>
      <trkpt lat="43.39151" lon="6.11017">
        <ele>275.20001220703</ele>
        <time>2013-02-09T14:24:33Z</time>
      </trkpt>
      <trkpt lat="43.39151" lon="6.11035">
        <ele>275.20001220703</ele>
        <time>2013-02-09T14:24:38Z</time>
      </trkpt>
      <trkpt lat="43.39147" lon="6.11047">
        <ele>275.20001220703</ele>
        <time>2013-02-09T14:24:45Z</time>
      </trkpt>
      <trkpt lat="43.39146" lon="6.11052">
        <ele>275.20001220703</ele>
        <time>2013-02-09T14:24:58Z</time>
      </trkpt>
      <trkpt lat="43.39144" lon="6.11057">
        <ele>275.20001220703</ele>
        <time>2013-02-09T14:25:05Z</time>
      </trkpt>
      <trkpt lat="43.39144" lon="6.11057">
        <ele>277.20001220703</ele>
        <time>2013-02-09T14:25:17Z</time>
      </trkpt>
      <trkpt lat="43.39144" lon="6.11057">
        <ele>277.20001220703</ele>
        <time>2013-02-09T14:25:22Z</time>
      </trkpt>
      <trkpt lat="43.39144" lon="6.11057">
        <ele>277.20001220703</ele>
        <time>2013-02-09T14:25:34Z</time>
      </trkpt>
      <trkpt lat="43.39145" lon="6.11065">
        <ele>277.20001220703</ele>
        <time>2013-02-09T14:25:39Z</time>
      </trkpt>
      <trkpt lat="43.39146" lon="6.11079">
        <ele>277.20001220703</ele>
        <time>2013-02-09T14:25:45Z</time>
      </trkpt>
      <trkpt lat="43.39144" lon="6.11095">
        <ele>277.20001220703</ele>
        <time>2013-02-09T14:25:51Z</time>
      </trkpt>
      <trkpt lat="43.39142" lon="6.11109">
        <ele>277.20001220703</ele>
        <time>2013-02-09T14:25:56Z</time>
      </trkpt>
      <trkpt lat="43.39142" lon="6.11112">
        <ele>277.20001220703</ele>
        <time>2013-02-09T14:25:57Z</time>
      </trkpt>
      <trkpt lat="43.3914" lon="6.11131">
        <ele>277.20001220703</ele>
        <time>2013-02-09T14:26:04Z</time>
      </trkpt>
      <trkpt lat="43.3914" lon="6.11148">
        <ele>277.20001220703</ele>
        <time>2013-02-09T14:26:11Z</time>
      </trkpt>
      <trkpt lat="43.39135" lon="6.1116">
        <ele>278.60000610352</ele>
        <time>2013-02-09T14:26:17Z</time>
      </trkpt>
      <trkpt lat="43.39133" lon="6.11163">
        <ele>279.39999389648</ele>
        <time>2013-02-09T14:26:19Z</time>
      </trkpt>
      <trkpt lat="43.39125" lon="6.11167">
        <ele>279.39999389648</ele>
        <time>2013-02-09T14:26:24Z</time>
      </trkpt>
      <trkpt lat="43.39124" lon="6.11167">
        <ele>279.39999389648</ele>
        <time>2013-02-09T14:26:25Z</time>
      </trkpt>
      <trkpt lat="43.39122" lon="6.11167">
        <ele>279.79998779297</ele>
        <time>2013-02-09T14:26:26Z</time>
      </trkpt>
      <trkpt lat="43.39121" lon="6.11167">
        <ele>280.20001220703</ele>
        <time>2013-02-09T14:26:27Z</time>
      </trkpt>
      <trkpt lat="43.3912" lon="6.11168">
        <ele>280.60000610352</ele>
        <time>2013-02-09T14:26:28Z</time>
      </trkpt>
      <trkpt lat="43.3912" lon="6.11169">
        <ele>281.39999389648</ele>
        <time>2013-02-09T14:26:30Z</time>
      </trkpt>
      <trkpt lat="43.3912" lon="6.11169">
        <ele>281.39999389648</ele>
        <time>2013-02-09T14:26:32Z</time>
      </trkpt>
      <trkpt lat="43.39119" lon="6.11169">
        <ele>281.39999389648</ele>
        <time>2013-02-09T14:26:34Z</time>
      </trkpt>
      <trkpt lat="43.39119" lon="6.11169">
        <ele>281.79998779297</ele>
        <time>2013-02-09T14:26:36Z</time>
      </trkpt>
      <trkpt lat="43.39119" lon="6.11169">
        <ele>282.20001220703</ele>
        <time>2013-02-09T14:26:37Z</time>
      </trkpt>
      <trkpt lat="43.39116" lon="6.11169">
        <ele>283.60000610352</ele>
        <time>2013-02-09T14:26:40Z</time>
      </trkpt>
      <trkpt lat="43.39112" lon="6.1117">
        <ele>283.60000610352</ele>
        <time>2013-02-09T14:26:44Z</time>
      </trkpt>
      <trkpt lat="43.39112" lon="6.1117">
        <ele>283.60000610352</ele>
        <time>2013-02-09T14:27:07Z</time>
      </trkpt>
      <trkpt lat="43.39112" lon="6.1117">
        <ele>283.60000610352</ele>
        <time>2013-02-09T14:27:25Z</time>
      </trkpt>
      <trkpt lat="43.39112" lon="6.1117">
        <ele>283.60000610352</ele>
        <time>2013-02-09T14:27:28Z</time>
      </trkpt>
      <trkpt lat="43.39112" lon="6.11171">
        <ele>283.60000610352</ele>
        <time>2013-02-09T14:27:37Z</time>
      </trkpt>
      <trkpt lat="43.39112" lon="6.11171">
        <ele>283.60000610352</ele>
        <time>2013-02-09T14:27:39Z</time>
      </trkpt>
      <trkpt lat="43.39111" lon="6.11173">
        <ele>283.60000610352</ele>
        <time>2013-02-09T14:27:49Z</time>
      </trkpt>
      <trkpt lat="43.39111" lon="6.11175">
        <ele>283.60000610352</ele>
        <time>2013-02-09T14:27:50Z</time>
      </trkpt>
      <trkpt lat="43.3911" lon="6.11184">
        <ele>283.60000610352</ele>
        <time>2013-02-09T14:27:54Z</time>
      </trkpt>
      <trkpt lat="43.39109" lon="6.11193">
        <ele>283.60000610352</ele>
        <time>2013-02-09T14:27:59Z</time>
      </trkpt>
      <trkpt lat="43.3911" lon="6.11194">
        <ele>283.60000610352</ele>
        <time>2013-02-09T14:28:00Z</time>
      </trkpt>
      <trkpt lat="43.3911" lon="6.11198">
        <ele>283.60000610352</ele>
        <time>2013-02-09T14:28:02Z</time>
      </trkpt>
      <trkpt lat="43.39108" lon="6.11205">
        <ele>284.79998779297</ele>
        <time>2013-02-09T14:28:06Z</time>
      </trkpt>
      <trkpt lat="43.39106" lon="6.1121">
        <ele>285.60000610352</ele>
        <time>2013-02-09T14:28:09Z</time>
      </trkpt>
      <trkpt lat="43.39106" lon="6.11218">
        <ele>285.60000610352</ele>
        <time>2013-02-09T14:28:13Z</time>
      </trkpt>
      <trkpt lat="43.39104" lon="6.11234">
        <ele>285.60000610352</ele>
        <time>2013-02-09T14:28:20Z</time>
      </trkpt>
      <trkpt lat="43.39101" lon="6.11249">
        <ele>285.60000610352</ele>
        <time>2013-02-09T14:28:26Z</time>
      </trkpt>
      <trkpt lat="43.391" lon="6.11266">
        <ele>285.60000610352</ele>
        <time>2013-02-09T14:28:31Z</time>
      </trkpt>
      <trkpt lat="43.39095" lon="6.11277">
        <ele>285.60000610352</ele>
        <time>2013-02-09T14:28:35Z</time>
      </trkpt>
      <trkpt lat="43.39091" lon="6.11284">
        <ele>285.60000610352</ele>
        <time>2013-02-09T14:28:38Z</time>
      </trkpt>
      <trkpt lat="43.39087" lon="6.11295">
        <ele>285.60000610352</ele>
        <time>2013-02-09T14:28:43Z</time>
      </trkpt>
      <trkpt lat="43.39086" lon="6.11296">
        <ele>285.60000610352</ele>
        <time>2013-02-09T14:28:44Z</time>
      </trkpt>
      <trkpt lat="43.3908" lon="6.11295">
        <ele>285.60000610352</ele>
        <time>2013-02-09T14:28:48Z</time>
      </trkpt>
      <trkpt lat="43.39079" lon="6.11294">
        <ele>285.60000610352</ele>
        <time>2013-02-09T14:28:49Z</time>
      </trkpt>
      <trkpt lat="43.39076" lon="6.11291">
        <ele>285.60000610352</ele>
        <time>2013-02-09T14:28:52Z</time>
      </trkpt>
      <trkpt lat="43.39069" lon="6.11277">
        <ele>287.79998779297</ele>
        <time>2013-02-09T14:29:00Z</time>
      </trkpt>
      <trkpt lat="43.39058" lon="6.11256">
        <ele>287.79998779297</ele>
        <time>2013-02-09T14:29:12Z</time>
      </trkpt>
      <trkpt lat="43.3905" lon="6.11246">
        <ele>287.79998779297</ele>
        <time>2013-02-09T14:29:18Z</time>
      </trkpt>
      <trkpt lat="43.39041" lon="6.11235">
        <ele>287.79998779297</ele>
        <time>2013-02-09T14:29:23Z</time>
      </trkpt>
      <trkpt lat="43.39034" lon="6.11217">
        <ele>287.79998779297</ele>
        <time>2013-02-09T14:29:28Z</time>
      </trkpt>
      <trkpt lat="43.39032" lon="6.11213">
        <ele>287.79998779297</ele>
        <time>2013-02-09T14:29:29Z</time>
      </trkpt>
      <trkpt lat="43.3901" lon="6.11192">
        <ele>287.20001220703</ele>
        <time>2013-02-09T14:29:36Z</time>
      </trkpt>
      <trkpt lat="43.39004" lon="6.11188">
        <ele>286.20001220703</ele>
        <time>2013-02-09T14:29:38Z</time>
      </trkpt>
      <trkpt lat="43.38997" lon="6.11188">
        <ele>285.20001220703</ele>
        <time>2013-02-09T14:29:40Z</time>
      </trkpt>
      <trkpt lat="43.38992" lon="6.11188">
        <ele>284.79998779297</ele>
        <time>2013-02-09T14:29:41Z</time>
      </trkpt>
      <trkpt lat="43.38987" lon="6.11188">
        <ele>284.39999389648</ele>
        <time>2013-02-09T14:29:42Z</time>
      </trkpt>
      <trkpt lat="43.38982" lon="6.11189">
        <ele>284</ele>
        <time>2013-02-09T14:29:43Z</time>
      </trkpt>
      <trkpt lat="43.38977" lon="6.11189">
        <ele>283.60000610352</ele>
        <time>2013-02-09T14:29:44Z</time>
      </trkpt>
      <trkpt lat="43.38972" lon="6.11189">
        <ele>283</ele>
        <time>2013-02-09T14:29:45Z</time>
      </trkpt>
      <trkpt lat="43.3895" lon="6.11193">
        <ele>280.79998779297</ele>
        <time>2013-02-09T14:29:49Z</time>
      </trkpt>
      <trkpt lat="43.38946" lon="6.11193">
        <ele>280.20001220703</ele>
        <time>2013-02-09T14:29:50Z</time>
      </trkpt>
      <trkpt lat="43.38944" lon="6.11193">
        <ele>279.39999389648</ele>
        <time>2013-02-09T14:29:51Z</time>
      </trkpt>
      <trkpt lat="43.38943" lon="6.11193">
        <ele>278.79998779297</ele>
        <time>2013-02-09T14:29:52Z</time>
      </trkpt>
      <trkpt lat="43.38943" lon="6.11194">
        <ele>278</ele>
        <time>2013-02-09T14:29:53Z</time>
      </trkpt>
      <trkpt lat="43.38943" lon="6.11194">
        <ele>278</ele>
        <time>2013-02-09T14:29:54Z</time>
      </trkpt>
      <trkpt lat="43.38936" lon="6.11191">
        <ele>278</ele>
        <time>2013-02-09T14:30:00Z</time>
      </trkpt>
      <trkpt lat="43.38921" lon="6.11186">
        <ele>278</ele>
        <time>2013-02-09T14:30:07Z</time>
      </trkpt>
      <trkpt lat="43.38908" lon="6.11181">
        <ele>278</ele>
        <time>2013-02-09T14:30:14Z</time>
      </trkpt>
      <trkpt lat="43.38887" lon="6.1118">
        <ele>278</ele>
        <time>2013-02-09T14:30:27Z</time>
      </trkpt>
      <trkpt lat="43.38876" lon="6.11178">
        <ele>278</ele>
        <time>2013-02-09T14:30:35Z</time>
      </trkpt>
      <trkpt lat="43.38865" lon="6.11175">
        <ele>278</ele>
        <time>2013-02-09T14:30:41Z</time>
      </trkpt>
      <trkpt lat="43.38855" lon="6.11172">
        <ele>278</ele>
        <time>2013-02-09T14:30:45Z</time>
      </trkpt>
      <trkpt lat="43.38843" lon="6.11168">
        <ele>278</ele>
        <time>2013-02-09T14:30:51Z</time>
      </trkpt>
      <trkpt lat="43.38838" lon="6.11166">
        <ele>278</ele>
        <time>2013-02-09T14:30:54Z</time>
      </trkpt>
      <trkpt lat="43.38823" lon="6.11157">
        <ele>278</ele>
        <time>2013-02-09T14:31:01Z</time>
      </trkpt>
      <trkpt lat="43.38809" lon="6.11151">
        <ele>278</ele>
        <time>2013-02-09T14:31:08Z</time>
      </trkpt>
      <trkpt lat="43.38799" lon="6.11143">
        <ele>278</ele>
        <time>2013-02-09T14:31:14Z</time>
      </trkpt>
      <trkpt lat="43.38794" lon="6.1114">
        <ele>278</ele>
        <time>2013-02-09T14:31:17Z</time>
      </trkpt>
      <trkpt lat="43.38783" lon="6.11133">
        <ele>279.20001220703</ele>
        <time>2013-02-09T14:31:22Z</time>
      </trkpt>
      <trkpt lat="43.38774" lon="6.11128">
        <ele>280</ele>
        <time>2013-02-09T14:31:26Z</time>
      </trkpt>
      <trkpt lat="43.3876" lon="6.11122">
        <ele>280</ele>
        <time>2013-02-09T14:31:32Z</time>
      </trkpt>
      <trkpt lat="43.38741" lon="6.11115">
        <ele>280</ele>
        <time>2013-02-09T14:31:39Z</time>
      </trkpt>
      <trkpt lat="43.38723" lon="6.1111">
        <ele>280</ele>
        <time>2013-02-09T14:31:46Z</time>
      </trkpt>
      <trkpt lat="43.3871" lon="6.11103">
        <ele>280</ele>
        <time>2013-02-09T14:31:52Z</time>
      </trkpt>
      <trkpt lat="43.3871" lon="6.11101">
        <ele>280</ele>
        <time>2013-02-09T14:31:53Z</time>
      </trkpt>
      <trkpt lat="43.38708" lon="6.11087">
        <ele>280</ele>
        <time>2013-02-09T14:31:58Z</time>
      </trkpt>
      <trkpt lat="43.38708" lon="6.11073">
        <ele>280</ele>
        <time>2013-02-09T14:32:03Z</time>
      </trkpt>
      <trkpt lat="43.38705" lon="6.11069">
        <ele>280</ele>
        <time>2013-02-09T14:32:05Z</time>
      </trkpt>
      <trkpt lat="43.38699" lon="6.11066">
        <ele>280</ele>
        <time>2013-02-09T14:32:08Z</time>
      </trkpt>
      <trkpt lat="43.38689" lon="6.11059">
        <ele>280</ele>
        <time>2013-02-09T14:32:14Z</time>
      </trkpt>
      <trkpt lat="43.38675" lon="6.11044">
        <ele>281</ele>
        <time>2013-02-09T14:32:22Z</time>
      </trkpt>
      <trkpt lat="43.38669" lon="6.11039">
        <ele>282.20001220703</ele>
        <time>2013-02-09T14:32:25Z</time>
      </trkpt>
      <trkpt lat="43.38665" lon="6.11036">
        <ele>282.20001220703</ele>
        <time>2013-02-09T14:32:27Z</time>
      </trkpt>
      <trkpt lat="43.38647" lon="6.1102">
        <ele>282.60000610352</ele>
        <time>2013-02-09T14:32:39Z</time>
      </trkpt>
      <trkpt lat="43.38643" lon="6.11017">
        <ele>283.79998779297</ele>
        <time>2013-02-09T14:32:42Z</time>
      </trkpt>
      <trkpt lat="43.38633" lon="6.1101">
        <ele>284.79998779297</ele>
        <time>2013-02-09T14:32:49Z</time>
      </trkpt>
      <trkpt lat="43.38622" lon="6.11">
        <ele>286.39999389648</ele>
        <time>2013-02-09T14:32:57Z</time>
      </trkpt>
      <trkpt lat="43.38615" lon="6.10997">
        <ele>286.39999389648</ele>
        <time>2013-02-09T14:33:04Z</time>
      </trkpt>
      <trkpt lat="43.38611" lon="6.10993">
        <ele>286.39999389648</ele>
        <time>2013-02-09T14:33:07Z</time>
      </trkpt>
      <trkpt lat="43.38605" lon="6.1099">
        <ele>286.39999389648</ele>
        <time>2013-02-09T14:33:10Z</time>
      </trkpt>
      <trkpt lat="43.3859" lon="6.10991">
        <ele>286.39999389648</ele>
        <time>2013-02-09T14:33:15Z</time>
      </trkpt>
      <trkpt lat="43.3857" lon="6.10991">
        <ele>286.39999389648</ele>
        <time>2013-02-09T14:33:20Z</time>
      </trkpt>
      <trkpt lat="43.38554" lon="6.10989">
        <ele>286.39999389648</ele>
        <time>2013-02-09T14:33:23Z</time>
      </trkpt>
      <trkpt lat="43.38549" lon="6.10987">
        <ele>286.39999389648</ele>
        <time>2013-02-09T14:33:24Z</time>
      </trkpt>
      <trkpt lat="43.38544" lon="6.10984">
        <ele>286.39999389648</ele>
        <time>2013-02-09T14:33:25Z</time>
      </trkpt>
      <trkpt lat="43.38533" lon="6.10978">
        <ele>286</ele>
        <time>2013-02-09T14:33:27Z</time>
      </trkpt>
      <trkpt lat="43.38528" lon="6.10976">
        <ele>285.39999389648</ele>
        <time>2013-02-09T14:33:28Z</time>
      </trkpt>
      <trkpt lat="43.38522" lon="6.10974">
        <ele>285</ele>
        <time>2013-02-09T14:33:29Z</time>
      </trkpt>
      <trkpt lat="43.38516" lon="6.10972">
        <ele>284.60000610352</ele>
        <time>2013-02-09T14:33:30Z</time>
      </trkpt>
      <trkpt lat="43.38509" lon="6.1097">
        <ele>284.20001220703</ele>
        <time>2013-02-09T14:33:31Z</time>
      </trkpt>
      <trkpt lat="43.38501" lon="6.10968">
        <ele>283.79998779297</ele>
        <time>2013-02-09T14:33:32Z</time>
      </trkpt>
      <trkpt lat="43.3849" lon="6.10964">
        <ele>282.79998779297</ele>
        <time>2013-02-09T14:33:34Z</time>
      </trkpt>
      <trkpt lat="43.38485" lon="6.10963">
        <ele>281.60000610352</ele>
        <time>2013-02-09T14:33:35Z</time>
      </trkpt>
      <trkpt lat="43.3848" lon="6.10962">
        <ele>281</ele>
        <time>2013-02-09T14:33:36Z</time>
      </trkpt>
      <trkpt lat="43.38477" lon="6.10961">
        <ele>280.39999389648</ele>
        <time>2013-02-09T14:33:37Z</time>
      </trkpt>
      <trkpt lat="43.38474" lon="6.10961">
        <ele>280</ele>
        <time>2013-02-09T14:33:38Z</time>
      </trkpt>
      <trkpt lat="43.38472" lon="6.1096">
        <ele>279.39999389648</ele>
        <time>2013-02-09T14:33:39Z</time>
      </trkpt>
      <trkpt lat="43.3847" lon="6.10959">
        <ele>278.39999389648</ele>
        <time>2013-02-09T14:33:41Z</time>
      </trkpt>
      <trkpt lat="43.38468" lon="6.10959">
        <ele>277.79998779297</ele>
        <time>2013-02-09T14:33:42Z</time>
      </trkpt>
      <trkpt lat="43.38463" lon="6.10959">
        <ele>277.79998779297</ele>
        <time>2013-02-09T14:33:44Z</time>
      </trkpt>
      <trkpt lat="43.38457" lon="6.1096">
        <ele>277.79998779297</ele>
        <time>2013-02-09T14:33:50Z</time>
      </trkpt>
      <trkpt lat="43.38457" lon="6.1096">
        <ele>277.79998779297</ele>
        <time>2013-02-09T14:34:01Z</time>
      </trkpt>
      <trkpt lat="43.38457" lon="6.1096">
        <ele>277.79998779297</ele>
        <time>2013-02-09T14:34:14Z</time>
      </trkpt>
      <trkpt lat="43.38454" lon="6.10959">
        <ele>277.79998779297</ele>
        <time>2013-02-09T14:34:18Z</time>
      </trkpt>
      <trkpt lat="43.38451" lon="6.10959">
        <ele>277.79998779297</ele>
        <time>2013-02-09T14:34:19Z</time>
      </trkpt>
      <trkpt lat="43.38432" lon="6.10955">
        <ele>277.79998779297</ele>
        <time>2013-02-09T14:34:25Z</time>
      </trkpt>
      <trkpt lat="43.38416" lon="6.10952">
        <ele>277.79998779297</ele>
        <time>2013-02-09T14:34:29Z</time>
      </trkpt>
      <trkpt lat="43.384" lon="6.10947">
        <ele>277.79998779297</ele>
        <time>2013-02-09T14:34:33Z</time>
      </trkpt>
      <trkpt lat="43.38385" lon="6.10944">
        <ele>277.39999389648</ele>
        <time>2013-02-09T14:34:36Z</time>
      </trkpt>
      <trkpt lat="43.38381" lon="6.10942">
        <ele>277</ele>
        <time>2013-02-09T14:34:37Z</time>
      </trkpt>
      <trkpt lat="43.38372" lon="6.1094">
        <ele>276.20001220703</ele>
        <time>2013-02-09T14:34:39Z</time>
      </trkpt>
      <trkpt lat="43.38367" lon="6.10939">
        <ele>275.60000610352</ele>
        <time>2013-02-09T14:34:40Z</time>
      </trkpt>
      <trkpt lat="43.38348" lon="6.10934">
        <ele>274.20001220703</ele>
        <time>2013-02-09T14:34:45Z</time>
      </trkpt>
      <trkpt lat="43.38342" lon="6.10932">
        <ele>273.20001220703</ele>
        <time>2013-02-09T14:34:47Z</time>
      </trkpt>
      <trkpt lat="43.38332" lon="6.10928">
        <ele>273.20001220703</ele>
        <time>2013-02-09T14:34:50Z</time>
      </trkpt>
      <trkpt lat="43.38316" lon="6.10923">
        <ele>273.20001220703</ele>
        <time>2013-02-09T14:34:54Z</time>
      </trkpt>
      <trkpt lat="43.38313" lon="6.10921">
        <ele>273.20001220703</ele>
        <time>2013-02-09T14:34:55Z</time>
      </trkpt>
      <trkpt lat="43.38288" lon="6.10914">
        <ele>273.20001220703</ele>
        <time>2013-02-09T14:35:01Z</time>
      </trkpt>
      <trkpt lat="43.38256" lon="6.10904">
        <ele>273.20001220703</ele>
        <time>2013-02-09T14:35:09Z</time>
      </trkpt>
      <trkpt lat="43.38229" lon="6.10896">
        <ele>273.20001220703</ele>
        <time>2013-02-09T14:35:16Z</time>
      </trkpt>
      <trkpt lat="43.38207" lon="6.1089">
        <ele>273.20001220703</ele>
        <time>2013-02-09T14:35:22Z</time>
      </trkpt>
      <trkpt lat="43.38196" lon="6.1089">
        <ele>273.20001220703</ele>
        <time>2013-02-09T14:35:26Z</time>
      </trkpt>
      <trkpt lat="43.38194" lon="6.10893">
        <ele>273.20001220703</ele>
        <time>2013-02-09T14:35:27Z</time>
      </trkpt>
      <trkpt lat="43.38191" lon="6.10909">
        <ele>273.20001220703</ele>
        <time>2013-02-09T14:35:31Z</time>
      </trkpt>
      <trkpt lat="43.3819" lon="6.10916">
        <ele>273.60000610352</ele>
        <time>2013-02-09T14:35:33Z</time>
      </trkpt>
      <trkpt lat="43.38187" lon="6.10932">
        <ele>275.20001220703</ele>
        <time>2013-02-09T14:35:37Z</time>
      </trkpt>
      <trkpt lat="43.38182" lon="6.10958">
        <ele>275.20001220703</ele>
        <time>2013-02-09T14:35:44Z</time>
      </trkpt>
      <trkpt lat="43.38177" lon="6.10985">
        <ele>275.20001220703</ele>
        <time>2013-02-09T14:35:52Z</time>
      </trkpt>
      <trkpt lat="43.38174" lon="6.11">
        <ele>276</ele>
        <time>2013-02-09T14:35:57Z</time>
      </trkpt>
      <trkpt lat="43.38171" lon="6.11009">
        <ele>277.39999389648</ele>
        <time>2013-02-09T14:36:00Z</time>
      </trkpt>
      <trkpt lat="43.3817" lon="6.11019">
        <ele>277.39999389648</ele>
        <time>2013-02-09T14:36:03Z</time>
      </trkpt>
      <trkpt lat="43.38167" lon="6.1104">
        <ele>277.39999389648</ele>
        <time>2013-02-09T14:36:09Z</time>
      </trkpt>
      <trkpt lat="43.38163" lon="6.11063">
        <ele>277.79998779297</ele>
        <time>2013-02-09T14:36:15Z</time>
      </trkpt>
      <trkpt lat="43.38158" lon="6.11078">
        <ele>279.39999389648</ele>
        <time>2013-02-09T14:36:19Z</time>
      </trkpt>
      <trkpt lat="43.3815" lon="6.11098">
        <ele>279.39999389648</ele>
        <time>2013-02-09T14:36:24Z</time>
      </trkpt>
      <trkpt lat="43.38136" lon="6.11121">
        <ele>279.39999389648</ele>
        <time>2013-02-09T14:36:31Z</time>
      </trkpt>
      <trkpt lat="43.3813" lon="6.11128">
        <ele>279.79998779297</ele>
        <time>2013-02-09T14:36:34Z</time>
      </trkpt>
      <trkpt lat="43.38122" lon="6.11136">
        <ele>281</ele>
        <time>2013-02-09T14:36:37Z</time>
      </trkpt>
      <trkpt lat="43.38096" lon="6.11164">
        <ele>282</ele>
        <time>2013-02-09T14:36:50Z</time>
      </trkpt>
      <trkpt lat="43.38092" lon="6.11168">
        <ele>282.79998779297</ele>
        <time>2013-02-09T14:36:52Z</time>
      </trkpt>
      <trkpt lat="43.38078" lon="6.11184">
        <ele>283.60000610352</ele>
        <time>2013-02-09T14:37:00Z</time>
      </trkpt>
      <trkpt lat="43.3807" lon="6.11192">
        <ele>285.39999389648</ele>
        <time>2013-02-09T14:37:04Z</time>
      </trkpt>
      <trkpt lat="43.38067" lon="6.11195">
        <ele>285.79998779297</ele>
        <time>2013-02-09T14:37:06Z</time>
      </trkpt>
      <trkpt lat="43.38063" lon="6.11199">
        <ele>285.79998779297</ele>
        <time>2013-02-09T14:37:09Z</time>
      </trkpt>
      <trkpt lat="43.38062" lon="6.11201">
        <ele>285.79998779297</ele>
        <time>2013-02-09T14:37:11Z</time>
      </trkpt>
      <trkpt lat="43.38055" lon="6.11203">
        <ele>285.79998779297</ele>
        <time>2013-02-09T14:37:15Z</time>
      </trkpt>
      <trkpt lat="43.38054" lon="6.11205">
        <ele>285.79998779297</ele>
        <time>2013-02-09T14:37:16Z</time>
      </trkpt>
      <trkpt lat="43.38051" lon="6.11211">
        <ele>285.79998779297</ele>
        <time>2013-02-09T14:37:19Z</time>
      </trkpt>
      <trkpt lat="43.3805" lon="6.11214">
        <ele>285.79998779297</ele>
        <time>2013-02-09T14:37:21Z</time>
      </trkpt>
      <trkpt lat="43.38046" lon="6.11224">
        <ele>285.79998779297</ele>
        <time>2013-02-09T14:37:25Z</time>
      </trkpt>
      <trkpt lat="43.3804" lon="6.11235">
        <ele>285.79998779297</ele>
        <time>2013-02-09T14:37:29Z</time>
      </trkpt>
      <trkpt lat="43.38036" lon="6.11246">
        <ele>285.79998779297</ele>
        <time>2013-02-09T14:37:32Z</time>
      </trkpt>
      <trkpt lat="43.38028" lon="6.11265">
        <ele>285.79998779297</ele>
        <time>2013-02-09T14:37:37Z</time>
      </trkpt>
      <trkpt lat="43.38017" lon="6.11285">
        <ele>285.79998779297</ele>
        <time>2013-02-09T14:37:43Z</time>
      </trkpt>
      <trkpt lat="43.38007" lon="6.11309">
        <ele>285.79998779297</ele>
        <time>2013-02-09T14:37:50Z</time>
      </trkpt>
      <trkpt lat="43.38002" lon="6.11323">
        <ele>285.79998779297</ele>
        <time>2013-02-09T14:37:54Z</time>
      </trkpt>
      <trkpt lat="43.37988" lon="6.11348">
        <ele>285.79998779297</ele>
        <time>2013-02-09T14:38:01Z</time>
      </trkpt>
      <trkpt lat="43.37976" lon="6.11365">
        <ele>285.79998779297</ele>
        <time>2013-02-09T14:38:07Z</time>
      </trkpt>
      <trkpt lat="43.37965" lon="6.11379">
        <ele>285.79998779297</ele>
        <time>2013-02-09T14:38:12Z</time>
      </trkpt>
      <trkpt lat="43.37951" lon="6.11394">
        <ele>285.79998779297</ele>
        <time>2013-02-09T14:38:18Z</time>
      </trkpt>
      <trkpt lat="43.3794" lon="6.1141">
        <ele>285.79998779297</ele>
        <time>2013-02-09T14:38:24Z</time>
      </trkpt>
      <trkpt lat="43.37935" lon="6.11416">
        <ele>285.79998779297</ele>
        <time>2013-02-09T14:38:28Z</time>
      </trkpt>
      <trkpt lat="43.37934" lon="6.11417">
        <ele>285.79998779297</ele>
        <time>2013-02-09T14:38:29Z</time>
      </trkpt>
      <trkpt lat="43.37934" lon="6.11418">
        <ele>285.79998779297</ele>
        <time>2013-02-09T14:38:34Z</time>
      </trkpt>
      <trkpt lat="43.37934" lon="6.11418">
        <ele>285.79998779297</ele>
        <time>2013-02-09T14:38:43Z</time>
      </trkpt>
      <trkpt lat="43.37934" lon="6.11418">
        <ele>285.79998779297</ele>
        <time>2013-02-09T14:38:47Z</time>
      </trkpt>
      <trkpt lat="43.37934" lon="6.11421">
        <ele>285.79998779297</ele>
        <time>2013-02-09T14:38:53Z</time>
      </trkpt>
      <trkpt lat="43.37933" lon="6.11422">
        <ele>285.79998779297</ele>
        <time>2013-02-09T14:38:54Z</time>
      </trkpt>
      <trkpt lat="43.37934" lon="6.1143">
        <ele>285.79998779297</ele>
        <time>2013-02-09T14:38:58Z</time>
      </trkpt>
      <trkpt lat="43.37933" lon="6.11435">
        <ele>285.79998779297</ele>
        <time>2013-02-09T14:39:00Z</time>
      </trkpt>
      <trkpt lat="43.37929" lon="6.1145">
        <ele>285.79998779297</ele>
        <time>2013-02-09T14:39:06Z</time>
      </trkpt>
      <trkpt lat="43.37927" lon="6.11455">
        <ele>286.20001220703</ele>
        <time>2013-02-09T14:39:08Z</time>
      </trkpt>
      <trkpt lat="43.37927" lon="6.11457">
        <ele>286.60000610352</ele>
        <time>2013-02-09T14:39:09Z</time>
      </trkpt>
      <trkpt lat="43.37924" lon="6.11464">
        <ele>287.79998779297</ele>
        <time>2013-02-09T14:39:12Z</time>
      </trkpt>
      <trkpt lat="43.3792" lon="6.11474">
        <ele>287.79998779297</ele>
        <time>2013-02-09T14:39:16Z</time>
      </trkpt>
      <trkpt lat="43.37919" lon="6.11481">
        <ele>287.79998779297</ele>
        <time>2013-02-09T14:39:19Z</time>
      </trkpt>
      <trkpt lat="43.37913" lon="6.11504">
        <ele>287.79998779297</ele>
        <time>2013-02-09T14:39:27Z</time>
      </trkpt>
      <trkpt lat="43.37909" lon="6.11524">
        <ele>288.60000610352</ele>
        <time>2013-02-09T14:39:35Z</time>
      </trkpt>
      <trkpt lat="43.37907" lon="6.11537">
        <ele>289.79998779297</ele>
        <time>2013-02-09T14:39:39Z</time>
      </trkpt>
      <trkpt lat="43.37904" lon="6.11554">
        <ele>289.79998779297</ele>
        <time>2013-02-09T14:39:45Z</time>
      </trkpt>
      <trkpt lat="43.37899" lon="6.11576">
        <ele>289.79998779297</ele>
        <time>2013-02-09T14:39:52Z</time>
      </trkpt>
      <trkpt lat="43.37895" lon="6.11591">
        <ele>289.79998779297</ele>
        <time>2013-02-09T14:39:57Z</time>
      </trkpt>
      <trkpt lat="43.37893" lon="6.11598">
        <ele>289.79998779297</ele>
        <time>2013-02-09T14:40:00Z</time>
      </trkpt>
      <trkpt lat="43.37893" lon="6.116">
        <ele>289.79998779297</ele>
        <time>2013-02-09T14:40:02Z</time>
      </trkpt>
      <trkpt lat="43.37892" lon="6.11601">
        <ele>289.79998779297</ele>
        <time>2013-02-09T14:40:08Z</time>
      </trkpt>
      <trkpt lat="43.37892" lon="6.11601">
        <ele>289.79998779297</ele>
        <time>2013-02-09T14:40:18Z</time>
      </trkpt>
      <trkpt lat="43.37892" lon="6.11601">
        <ele>292</ele>
        <time>2013-02-09T14:40:24Z</time>
      </trkpt>
      <trkpt lat="43.37891" lon="6.11605">
        <ele>292</ele>
        <time>2013-02-09T14:40:27Z</time>
      </trkpt>
      <trkpt lat="43.3789" lon="6.11614">
        <ele>292</ele>
        <time>2013-02-09T14:40:31Z</time>
      </trkpt>
      <trkpt lat="43.37889" lon="6.11617">
        <ele>292</ele>
        <time>2013-02-09T14:40:32Z</time>
      </trkpt>
      <trkpt lat="43.37889" lon="6.11619">
        <ele>292</ele>
        <time>2013-02-09T14:40:33Z</time>
      </trkpt>
      <trkpt lat="43.37885" lon="6.11632">
        <ele>292</ele>
        <time>2013-02-09T14:40:37Z</time>
      </trkpt>
      <trkpt lat="43.37882" lon="6.11651">
        <ele>292</ele>
        <time>2013-02-09T14:40:43Z</time>
      </trkpt>
      <trkpt lat="43.37879" lon="6.11668">
        <ele>292</ele>
        <time>2013-02-09T14:40:49Z</time>
      </trkpt>
      <trkpt lat="43.37877" lon="6.11682">
        <ele>292.39999389648</ele>
        <time>2013-02-09T14:40:54Z</time>
      </trkpt>
      <trkpt lat="43.37876" lon="6.11685">
        <ele>292.79998779297</ele>
        <time>2013-02-09T14:40:55Z</time>
      </trkpt>
      <trkpt lat="43.37875" lon="6.1169">
        <ele>293.60000610352</ele>
        <time>2013-02-09T14:40:57Z</time>
      </trkpt>
      <trkpt lat="43.37875" lon="6.11691">
        <ele>294</ele>
        <time>2013-02-09T14:40:58Z</time>
      </trkpt>
      <trkpt lat="43.37874" lon="6.11695">
        <ele>294</ele>
        <time>2013-02-09T14:41:01Z</time>
      </trkpt>
      <trkpt lat="43.37874" lon="6.11696">
        <ele>294</ele>
        <time>2013-02-09T14:41:08Z</time>
      </trkpt>
      <trkpt lat="43.37874" lon="6.11696">
        <ele>294</ele>
        <time>2013-02-09T14:41:23Z</time>
      </trkpt>
      <trkpt lat="43.37874" lon="6.11697">
        <ele>294</ele>
        <time>2013-02-09T14:41:48Z</time>
      </trkpt>
      <trkpt lat="43.37874" lon="6.11697">
        <ele>294</ele>
        <time>2013-02-09T14:41:59Z</time>
      </trkpt>
      <trkpt lat="43.37873" lon="6.117">
        <ele>294</ele>
        <time>2013-02-09T14:42:05Z</time>
      </trkpt>
      <trkpt lat="43.37872" lon="6.11705">
        <ele>294</ele>
        <time>2013-02-09T14:42:07Z</time>
      </trkpt>
      <trkpt lat="43.37872" lon="6.11712">
        <ele>294</ele>
        <time>2013-02-09T14:42:09Z</time>
      </trkpt>
      <trkpt lat="43.37869" lon="6.11723">
        <ele>294</ele>
        <time>2013-02-09T14:42:13Z</time>
      </trkpt>
      <trkpt lat="43.37866" lon="6.11735">
        <ele>294.39999389648</ele>
        <time>2013-02-09T14:42:17Z</time>
      </trkpt>
      <trkpt lat="43.37865" lon="6.11737">
        <ele>294.79998779297</ele>
        <time>2013-02-09T14:42:18Z</time>
      </trkpt>
      <trkpt lat="43.37865" lon="6.11739">
        <ele>295.20001220703</ele>
        <time>2013-02-09T14:42:19Z</time>
      </trkpt>
      <trkpt lat="43.37865" lon="6.11755">
        <ele>296</ele>
        <time>2013-02-09T14:42:26Z</time>
      </trkpt>
      <trkpt lat="43.37864" lon="6.11762">
        <ele>296</ele>
        <time>2013-02-09T14:42:32Z</time>
      </trkpt>
      <trkpt lat="43.37863" lon="6.11763">
        <ele>296</ele>
        <time>2013-02-09T14:42:39Z</time>
      </trkpt>
      <trkpt lat="43.37863" lon="6.11763">
        <ele>296</ele>
        <time>2013-02-09T14:43:02Z</time>
      </trkpt>
      <trkpt lat="43.37863" lon="6.11764">
        <ele>296</ele>
        <time>2013-02-09T14:43:18Z</time>
      </trkpt>
      <trkpt lat="43.37863" lon="6.11764">
        <ele>296</ele>
        <time>2013-02-09T14:43:45Z</time>
      </trkpt>
      <trkpt lat="43.37863" lon="6.11764">
        <ele>296</ele>
        <time>2013-02-09T14:43:57Z</time>
      </trkpt>
      <trkpt lat="43.37863" lon="6.11764">
        <ele>296</ele>
        <time>2013-02-09T14:44:14Z</time>
      </trkpt>
      <trkpt lat="43.37862" lon="6.11767">
        <ele>296</ele>
        <time>2013-02-09T14:44:15Z</time>
      </trkpt>
      <trkpt lat="43.37862" lon="6.11769">
        <ele>296</ele>
        <time>2013-02-09T14:44:16Z</time>
      </trkpt>
      <trkpt lat="43.37855" lon="6.11787">
        <ele>296</ele>
        <time>2013-02-09T14:44:22Z</time>
      </trkpt>
      <trkpt lat="43.37848" lon="6.11804">
        <ele>296</ele>
        <time>2013-02-09T14:44:28Z</time>
      </trkpt>
      <trkpt lat="43.37839" lon="6.11824">
        <ele>296</ele>
        <time>2013-02-09T14:44:34Z</time>
      </trkpt>
      <trkpt lat="43.37835" lon="6.11837">
        <ele>296</ele>
        <time>2013-02-09T14:44:38Z</time>
      </trkpt>
      <trkpt lat="43.37833" lon="6.11843">
        <ele>296</ele>
        <time>2013-02-09T14:44:40Z</time>
      </trkpt>
      <trkpt lat="43.37831" lon="6.11852">
        <ele>297</ele>
        <time>2013-02-09T14:44:43Z</time>
      </trkpt>
      <trkpt lat="43.37832" lon="6.1186">
        <ele>298.20001220703</ele>
        <time>2013-02-09T14:44:46Z</time>
      </trkpt>
      <trkpt lat="43.37836" lon="6.11871">
        <ele>298.20001220703</ele>
        <time>2013-02-09T14:44:50Z</time>
      </trkpt>
      <trkpt lat="43.37842" lon="6.11892">
        <ele>298.20001220703</ele>
        <time>2013-02-09T14:44:57Z</time>
      </trkpt>
      <trkpt lat="43.37845" lon="6.11907">
        <ele>298.60000610352</ele>
        <time>2013-02-09T14:45:02Z</time>
      </trkpt>
      <trkpt lat="43.37847" lon="6.11918">
        <ele>300.39999389648</ele>
        <time>2013-02-09T14:45:06Z</time>
      </trkpt>
      <trkpt lat="43.37848" lon="6.11929">
        <ele>300.39999389648</ele>
        <time>2013-02-09T14:45:10Z</time>
      </trkpt>
      <trkpt lat="43.37848" lon="6.11944">
        <ele>300.39999389648</ele>
        <time>2013-02-09T14:45:16Z</time>
      </trkpt>
      <trkpt lat="43.37846" lon="6.11956">
        <ele>302.39999389648</ele>
        <time>2013-02-09T14:45:21Z</time>
      </trkpt>
      <trkpt lat="43.37841" lon="6.11974">
        <ele>302.79998779297</ele>
        <time>2013-02-09T14:45:29Z</time>
      </trkpt>
      <trkpt lat="43.3784" lon="6.1198">
        <ele>304</ele>
        <time>2013-02-09T14:45:32Z</time>
      </trkpt>
      <trkpt lat="43.37838" lon="6.11986">
        <ele>304.39999389648</ele>
        <time>2013-02-09T14:45:35Z</time>
      </trkpt>
      <trkpt lat="43.37834" lon="6.12001">
        <ele>304.39999389648</ele>
        <time>2013-02-09T14:45:40Z</time>
      </trkpt>
      <trkpt lat="43.37831" lon="6.12017">
        <ele>305.20001220703</ele>
        <time>2013-02-09T14:45:46Z</time>
      </trkpt>
      <trkpt lat="43.3783" lon="6.1203">
        <ele>306.60000610352</ele>
        <time>2013-02-09T14:45:51Z</time>
      </trkpt>
      <trkpt lat="43.37826" lon="6.12049">
        <ele>306.60000610352</ele>
        <time>2013-02-09T14:45:57Z</time>
      </trkpt>
      <trkpt lat="43.37822" lon="6.12063">
        <ele>306.60000610352</ele>
        <time>2013-02-09T14:46:02Z</time>
      </trkpt>
      <trkpt lat="43.37817" lon="6.12086">
        <ele>306.60000610352</ele>
        <time>2013-02-09T14:46:09Z</time>
      </trkpt>
      <trkpt lat="43.37814" lon="6.12097">
        <ele>307</ele>
        <time>2013-02-09T14:46:13Z</time>
      </trkpt>
      <trkpt lat="43.37815" lon="6.12102">
        <ele>308.60000610352</ele>
        <time>2013-02-09T14:46:16Z</time>
      </trkpt>
      <trkpt lat="43.37813" lon="6.1211">
        <ele>308.60000610352</ele>
        <time>2013-02-09T14:46:19Z</time>
      </trkpt>
      <trkpt lat="43.37805" lon="6.12133">
        <ele>308.60000610352</ele>
        <time>2013-02-09T14:46:26Z</time>
      </trkpt>
      <trkpt lat="43.37801" lon="6.12146">
        <ele>308.60000610352</ele>
        <time>2013-02-09T14:46:31Z</time>
      </trkpt>
      <trkpt lat="43.37792" lon="6.12185">
        <ele>310.79998779297</ele>
        <time>2013-02-09T14:46:44Z</time>
      </trkpt>
      <trkpt lat="43.37785" lon="6.122">
        <ele>310.79998779297</ele>
        <time>2013-02-09T14:46:50Z</time>
      </trkpt>
      <trkpt lat="43.3778" lon="6.12213">
        <ele>310.79998779297</ele>
        <time>2013-02-09T14:46:54Z</time>
      </trkpt>
      <trkpt lat="43.3778" lon="6.12217">
        <ele>310.79998779297</ele>
        <time>2013-02-09T14:46:55Z</time>
      </trkpt>
      <trkpt lat="43.37772" lon="6.12238">
        <ele>310.79998779297</ele>
        <time>2013-02-09T14:47:02Z</time>
      </trkpt>
      <trkpt lat="43.37767" lon="6.12243">
        <ele>310.79998779297</ele>
        <time>2013-02-09T14:47:05Z</time>
      </trkpt>
      <trkpt lat="43.37764" lon="6.12248">
        <ele>310.79998779297</ele>
        <time>2013-02-09T14:47:08Z</time>
      </trkpt>
      <trkpt lat="43.37758" lon="6.1226">
        <ele>311.20001220703</ele>
        <time>2013-02-09T14:47:14Z</time>
      </trkpt>
      <trkpt lat="43.37757" lon="6.12262">
        <ele>312</ele>
        <time>2013-02-09T14:47:16Z</time>
      </trkpt>
      <trkpt lat="43.37754" lon="6.12268">
        <ele>313</ele>
        <time>2013-02-09T14:47:21Z</time>
      </trkpt>
      <trkpt lat="43.37749" lon="6.12275">
        <ele>313</ele>
        <time>2013-02-09T14:47:25Z</time>
      </trkpt>
      <trkpt lat="43.37744" lon="6.12287">
        <ele>313</ele>
        <time>2013-02-09T14:47:29Z</time>
      </trkpt>
      <trkpt lat="43.37743" lon="6.12293">
        <ele>313</ele>
        <time>2013-02-09T14:47:31Z</time>
      </trkpt>
      <trkpt lat="43.37742" lon="6.12301">
        <ele>313</ele>
        <time>2013-02-09T14:47:34Z</time>
      </trkpt>
      <trkpt lat="43.37742" lon="6.12303">
        <ele>313</ele>
        <time>2013-02-09T14:47:35Z</time>
      </trkpt>
      <trkpt lat="43.3774" lon="6.12313">
        <ele>313</ele>
        <time>2013-02-09T14:47:38Z</time>
      </trkpt>
      <trkpt lat="43.37738" lon="6.12323">
        <ele>313.39999389648</ele>
        <time>2013-02-09T14:47:41Z</time>
      </trkpt>
      <trkpt lat="43.37739" lon="6.1233">
        <ele>314.20001220703</ele>
        <time>2013-02-09T14:47:43Z</time>
      </trkpt>
      <trkpt lat="43.37741" lon="6.12334">
        <ele>315.20001220703</ele>
        <time>2013-02-09T14:47:45Z</time>
      </trkpt>
      <trkpt lat="43.37742" lon="6.12346">
        <ele>315.20001220703</ele>
        <time>2013-02-09T14:47:52Z</time>
      </trkpt>
      <trkpt lat="43.37741" lon="6.12349">
        <ele>315.20001220703</ele>
        <time>2013-02-09T14:47:54Z</time>
      </trkpt>
      <trkpt lat="43.37739" lon="6.12357">
        <ele>316</ele>
        <time>2013-02-09T14:48:00Z</time>
      </trkpt>
      <trkpt lat="43.37737" lon="6.12363">
        <ele>317.20001220703</ele>
        <time>2013-02-09T14:48:03Z</time>
      </trkpt>
      <trkpt lat="43.37736" lon="6.12365">
        <ele>317.20001220703</ele>
        <time>2013-02-09T14:48:04Z</time>
      </trkpt>
      <trkpt lat="43.37734" lon="6.12377">
        <ele>317.20001220703</ele>
        <time>2013-02-09T14:48:09Z</time>
      </trkpt>
      <trkpt lat="43.37732" lon="6.12395">
        <ele>317.20001220703</ele>
        <time>2013-02-09T14:48:16Z</time>
      </trkpt>
      <trkpt lat="43.3773" lon="6.12415">
        <ele>317.20001220703</ele>
        <time>2013-02-09T14:48:23Z</time>
      </trkpt>
      <trkpt lat="43.37731" lon="6.1243">
        <ele>319.39999389648</ele>
        <time>2013-02-09T14:48:30Z</time>
      </trkpt>
      <trkpt lat="43.3773" lon="6.12438">
        <ele>319.39999389648</ele>
        <time>2013-02-09T14:48:35Z</time>
      </trkpt>
      <trkpt lat="43.37729" lon="6.12454">
        <ele>319.39999389648</ele>
        <time>2013-02-09T14:48:42Z</time>
      </trkpt>
      <trkpt lat="43.37729" lon="6.12458">
        <ele>320.20001220703</ele>
        <time>2013-02-09T14:48:44Z</time>
      </trkpt>
      <trkpt lat="43.37727" lon="6.12464">
        <ele>321.39999389648</ele>
        <time>2013-02-09T14:48:47Z</time>
      </trkpt>
      <trkpt lat="43.37725" lon="6.12469">
        <ele>321.39999389648</ele>
        <time>2013-02-09T14:48:49Z</time>
      </trkpt>
      <trkpt lat="43.37722" lon="6.12483">
        <ele>321.39999389648</ele>
        <time>2013-02-09T14:48:55Z</time>
      </trkpt>
      <trkpt lat="43.3772" lon="6.12489">
        <ele>321.39999389648</ele>
        <time>2013-02-09T14:48:58Z</time>
      </trkpt>
      <trkpt lat="43.37719" lon="6.12494">
        <ele>321.39999389648</ele>
        <time>2013-02-09T14:49:00Z</time>
      </trkpt>
      <trkpt lat="43.37717" lon="6.12508">
        <ele>321.39999389648</ele>
        <time>2013-02-09T14:49:06Z</time>
      </trkpt>
      <trkpt lat="43.37716" lon="6.12515">
        <ele>322.20001220703</ele>
        <time>2013-02-09T14:49:09Z</time>
      </trkpt>
      <trkpt lat="43.37715" lon="6.12521">
        <ele>323</ele>
        <time>2013-02-09T14:49:11Z</time>
      </trkpt>
      <trkpt lat="43.37711" lon="6.12548">
        <ele>323.39999389648</ele>
        <time>2013-02-09T14:49:19Z</time>
      </trkpt>
      <trkpt lat="43.37709" lon="6.12567">
        <ele>323.39999389648</ele>
        <time>2013-02-09T14:49:25Z</time>
      </trkpt>
      <trkpt lat="43.37708" lon="6.12588">
        <ele>323.39999389648</ele>
        <time>2013-02-09T14:49:32Z</time>
      </trkpt>
      <trkpt lat="43.37709" lon="6.12614">
        <ele>323.39999389648</ele>
        <time>2013-02-09T14:49:40Z</time>
      </trkpt>
      <trkpt lat="43.37709" lon="6.12626">
        <ele>323.79998779297</ele>
        <time>2013-02-09T14:49:44Z</time>
      </trkpt>
      <trkpt lat="43.37709" lon="6.12631">
        <ele>324.60000610352</ele>
        <time>2013-02-09T14:49:46Z</time>
      </trkpt>
      <trkpt lat="43.37709" lon="6.12633">
        <ele>325</ele>
        <time>2013-02-09T14:49:47Z</time>
      </trkpt>
      <trkpt lat="43.37709" lon="6.12635">
        <ele>325.39999389648</ele>
        <time>2013-02-09T14:49:48Z</time>
      </trkpt>
      <trkpt lat="43.37709" lon="6.12637">
        <ele>325.39999389648</ele>
        <time>2013-02-09T14:49:52Z</time>
      </trkpt>
      <trkpt lat="43.37709" lon="6.12638">
        <ele>325.39999389648</ele>
        <time>2013-02-09T14:49:57Z</time>
      </trkpt>
      <trkpt lat="43.37709" lon="6.12642">
        <ele>325.39999389648</ele>
        <time>2013-02-09T14:49:59Z</time>
      </trkpt>
      <trkpt lat="43.37707" lon="6.12656">
        <ele>325.39999389648</ele>
        <time>2013-02-09T14:50:04Z</time>
      </trkpt>
      <trkpt lat="43.37706" lon="6.1266">
        <ele>325.39999389648</ele>
        <time>2013-02-09T14:50:05Z</time>
      </trkpt>
      <trkpt lat="43.37704" lon="6.12681">
        <ele>325.39999389648</ele>
        <time>2013-02-09T14:50:12Z</time>
      </trkpt>
      <trkpt lat="43.37703" lon="6.12724">
        <ele>325.79998779297</ele>
        <time>2013-02-09T14:50:26Z</time>
      </trkpt>
      <trkpt lat="43.37703" lon="6.12734">
        <ele>327.20001220703</ele>
        <time>2013-02-09T14:50:29Z</time>
      </trkpt>
      <trkpt lat="43.37704" lon="6.1274">
        <ele>327.60000610352</ele>
        <time>2013-02-09T14:50:31Z</time>
      </trkpt>
      <trkpt lat="43.37705" lon="6.12754">
        <ele>327.60000610352</ele>
        <time>2013-02-09T14:50:36Z</time>
      </trkpt>
      <trkpt lat="43.37711" lon="6.12793">
        <ele>329.60000610352</ele>
        <time>2013-02-09T14:50:51Z</time>
      </trkpt>
      <trkpt lat="43.37712" lon="6.12807">
        <ele>329.60000610352</ele>
        <time>2013-02-09T14:50:57Z</time>
      </trkpt>
      <trkpt lat="43.37711" lon="6.12817">
        <ele>330</ele>
        <time>2013-02-09T14:51:01Z</time>
      </trkpt>
      <trkpt lat="43.37711" lon="6.12821">
        <ele>330.79998779297</ele>
        <time>2013-02-09T14:51:03Z</time>
      </trkpt>
      <trkpt lat="43.37711" lon="6.12823">
        <ele>331.20001220703</ele>
        <time>2013-02-09T14:51:04Z</time>
      </trkpt>
      <trkpt lat="43.37711" lon="6.12824">
        <ele>331.60000610352</ele>
        <time>2013-02-09T14:51:05Z</time>
      </trkpt>
      <trkpt lat="43.37711" lon="6.12825">
        <ele>331.60000610352</ele>
        <time>2013-02-09T14:51:08Z</time>
      </trkpt>
      <trkpt lat="43.37711" lon="6.12825">
        <ele>331.60000610352</ele>
        <time>2013-02-09T14:51:19Z</time>
      </trkpt>
      <trkpt lat="43.37711" lon="6.12825">
        <ele>331.60000610352</ele>
        <time>2013-02-09T14:51:30Z</time>
      </trkpt>
      <trkpt lat="43.3771" lon="6.12836">
        <ele>331.60000610352</ele>
        <time>2013-02-09T14:51:35Z</time>
      </trkpt>
      <trkpt lat="43.37709" lon="6.1285">
        <ele>331.60000610352</ele>
        <time>2013-02-09T14:51:40Z</time>
      </trkpt>
      <trkpt lat="43.3771" lon="6.12855">
        <ele>331.60000610352</ele>
        <time>2013-02-09T14:51:42Z</time>
      </trkpt>
      <trkpt lat="43.3771" lon="6.12861">
        <ele>331.60000610352</ele>
        <time>2013-02-09T14:51:44Z</time>
      </trkpt>
      <trkpt lat="43.37704" lon="6.12894">
        <ele>331.60000610352</ele>
        <time>2013-02-09T14:51:55Z</time>
      </trkpt>
      <trkpt lat="43.37702" lon="6.12907">
        <ele>332</ele>
        <time>2013-02-09T14:51:59Z</time>
      </trkpt>
      <trkpt lat="43.377" lon="6.12914">
        <ele>333.20001220703</ele>
        <time>2013-02-09T14:52:01Z</time>
      </trkpt>
      <trkpt lat="43.37699" lon="6.12917">
        <ele>333.60000610352</ele>
        <time>2013-02-09T14:52:02Z</time>
      </trkpt>
      <trkpt lat="43.37691" lon="6.12938">
        <ele>333.60000610352</ele>
        <time>2013-02-09T14:52:09Z</time>
      </trkpt>
      <trkpt lat="43.37685" lon="6.12953">
        <ele>333.60000610352</ele>
        <time>2013-02-09T14:52:15Z</time>
      </trkpt>
      <trkpt lat="43.37682" lon="6.12972">
        <ele>333.60000610352</ele>
        <time>2013-02-09T14:52:22Z</time>
      </trkpt>
      <trkpt lat="43.37683" lon="6.12983">
        <ele>333.60000610352</ele>
        <time>2013-02-09T14:52:27Z</time>
      </trkpt>
      <trkpt lat="43.37681" lon="6.12983">
        <ele>333.60000610352</ele>
        <time>2013-02-09T14:52:31Z</time>
      </trkpt>
      <trkpt lat="43.37682" lon="6.1298">
        <ele>333.60000610352</ele>
        <time>2013-02-09T14:52:36Z</time>
      </trkpt>
      <trkpt lat="43.37684" lon="6.12985">
        <ele>333.60000610352</ele>
        <time>2013-02-09T14:52:40Z</time>
      </trkpt>
      <trkpt lat="43.37682" lon="6.12987">
        <ele>333.60000610352</ele>
        <time>2013-02-09T14:52:43Z</time>
      </trkpt>
      <trkpt lat="43.3768" lon="6.12987">
        <ele>333.60000610352</ele>
        <time>2013-02-09T14:52:44Z</time>
      </trkpt>
      <trkpt lat="43.37672" lon="6.12984">
        <ele>333.60000610352</ele>
        <time>2013-02-09T14:52:49Z</time>
      </trkpt>
      <trkpt lat="43.37667" lon="6.12984">
        <ele>333.60000610352</ele>
        <time>2013-02-09T14:52:53Z</time>
      </trkpt>
      <trkpt lat="43.37667" lon="6.1299">
        <ele>333.60000610352</ele>
        <time>2013-02-09T14:52:56Z</time>
      </trkpt>
      <trkpt lat="43.37669" lon="6.12995">
        <ele>333.60000610352</ele>
        <time>2013-02-09T14:53:00Z</time>
      </trkpt>
      <trkpt lat="43.3767" lon="6.13003">
        <ele>333.60000610352</ele>
        <time>2013-02-09T14:53:04Z</time>
      </trkpt>
      <trkpt lat="43.37669" lon="6.13008">
        <ele>334.20001220703</ele>
        <time>2013-02-09T14:53:08Z</time>
      </trkpt>
      <trkpt lat="43.37669" lon="6.13008">
        <ele>335.60000610352</ele>
        <time>2013-02-09T14:53:11Z</time>
      </trkpt>
      <trkpt lat="43.3767" lon="6.13008">
        <ele>336</ele>
        <time>2013-02-09T14:53:12Z</time>
      </trkpt>
      <trkpt lat="43.3767" lon="6.13008">
        <ele>336</ele>
        <time>2013-02-09T14:53:17Z</time>
      </trkpt>
      <trkpt lat="43.3767" lon="6.13011">
        <ele>336</ele>
        <time>2013-02-09T14:53:24Z</time>
      </trkpt>
      <trkpt lat="43.37671" lon="6.13014">
        <ele>336</ele>
        <time>2013-02-09T14:53:25Z</time>
      </trkpt>
      <trkpt lat="43.37671" lon="6.1302">
        <ele>336</ele>
        <time>2013-02-09T14:53:27Z</time>
      </trkpt>
      <trkpt lat="43.37668" lon="6.13032">
        <ele>336</ele>
        <time>2013-02-09T14:53:33Z</time>
      </trkpt>
      <trkpt lat="43.37665" lon="6.1304">
        <ele>336</ele>
        <time>2013-02-09T14:53:37Z</time>
      </trkpt>
      <trkpt lat="43.37664" lon="6.13042">
        <ele>336</ele>
        <time>2013-02-09T14:53:38Z</time>
      </trkpt>
      <trkpt lat="43.37655" lon="6.13055">
        <ele>336</ele>
        <time>2013-02-09T14:53:45Z</time>
      </trkpt>
      <trkpt lat="43.37644" lon="6.13071">
        <ele>336</ele>
        <time>2013-02-09T14:53:53Z</time>
      </trkpt>
      <trkpt lat="43.37634" lon="6.13087">
        <ele>336.39999389648</ele>
        <time>2013-02-09T14:54:01Z</time>
      </trkpt>
      <trkpt lat="43.37631" lon="6.13091">
        <ele>337.20001220703</ele>
        <time>2013-02-09T14:54:03Z</time>
      </trkpt>
      <trkpt lat="43.37629" lon="6.13096">
        <ele>338</ele>
        <time>2013-02-09T14:54:05Z</time>
      </trkpt>
      <trkpt lat="43.37621" lon="6.13107">
        <ele>338</ele>
        <time>2013-02-09T14:54:11Z</time>
      </trkpt>
      <trkpt lat="43.37615" lon="6.13116">
        <ele>338</ele>
        <time>2013-02-09T14:54:17Z</time>
      </trkpt>
      <trkpt lat="43.37615" lon="6.13117">
        <ele>338</ele>
        <time>2013-02-09T14:54:18Z</time>
      </trkpt>
      <trkpt lat="43.37614" lon="6.13118">
        <ele>338</ele>
        <time>2013-02-09T14:54:25Z</time>
      </trkpt>
      <trkpt lat="43.37614" lon="6.13118">
        <ele>338</ele>
        <time>2013-02-09T14:54:44Z</time>
      </trkpt>
      <trkpt lat="43.37615" lon="6.13118">
        <ele>338</ele>
        <time>2013-02-09T14:55:00Z</time>
      </trkpt>
      <trkpt lat="43.37615" lon="6.13118">
        <ele>340</ele>
        <time>2013-02-09T14:55:22Z</time>
      </trkpt>
      <trkpt lat="43.37615" lon="6.13118">
        <ele>340</ele>
        <time>2013-02-09T14:55:39Z</time>
      </trkpt>
      <trkpt lat="43.37614" lon="6.13118">
        <ele>340</ele>
        <time>2013-02-09T14:55:45Z</time>
      </trkpt>
      <trkpt lat="43.37614" lon="6.13118">
        <ele>340</ele>
        <time>2013-02-09T14:55:53Z</time>
      </trkpt>
      <trkpt lat="43.37614" lon="6.13118">
        <ele>340</ele>
        <time>2013-02-09T14:56:15Z</time>
      </trkpt>
      <trkpt lat="43.37611" lon="6.13124">
        <ele>340</ele>
        <time>2013-02-09T14:56:19Z</time>
      </trkpt>
      <trkpt lat="43.37609" lon="6.13128">
        <ele>340</ele>
        <time>2013-02-09T14:56:21Z</time>
      </trkpt>
      <trkpt lat="43.37605" lon="6.13136">
        <ele>340</ele>
        <time>2013-02-09T14:56:25Z</time>
      </trkpt>
      <trkpt lat="43.37603" lon="6.1314">
        <ele>340</ele>
        <time>2013-02-09T14:56:27Z</time>
      </trkpt>
      <trkpt lat="43.37597" lon="6.13153">
        <ele>340</ele>
        <time>2013-02-09T14:56:33Z</time>
      </trkpt>
      <trkpt lat="43.37588" lon="6.1317">
        <ele>340</ele>
        <time>2013-02-09T14:56:41Z</time>
      </trkpt>
      <trkpt lat="43.37585" lon="6.13181">
        <ele>340</ele>
        <time>2013-02-09T14:56:45Z</time>
      </trkpt>
      <trkpt lat="43.37581" lon="6.13198">
        <ele>342.20001220703</ele>
        <time>2013-02-09T14:56:53Z</time>
      </trkpt>
      <trkpt lat="43.37578" lon="6.13213">
        <ele>342.20001220703</ele>
        <time>2013-02-09T14:57:00Z</time>
      </trkpt>
      <trkpt lat="43.37576" lon="6.13227">
        <ele>342.20001220703</ele>
        <time>2013-02-09T14:57:06Z</time>
      </trkpt>
      <trkpt lat="43.37575" lon="6.13238">
        <ele>343.79998779297</ele>
        <time>2013-02-09T14:57:11Z</time>
      </trkpt>
      <trkpt lat="43.37575" lon="6.1324">
        <ele>344.20001220703</ele>
        <time>2013-02-09T14:57:12Z</time>
      </trkpt>
      <trkpt lat="43.37571" lon="6.13281">
        <ele>344.20001220703</ele>
        <time>2013-02-09T14:57:31Z</time>
      </trkpt>
      <trkpt lat="43.3757" lon="6.13295">
        <ele>344.60000610352</ele>
        <time>2013-02-09T14:57:38Z</time>
      </trkpt>
      <trkpt lat="43.37569" lon="6.133">
        <ele>345.39999389648</ele>
        <time>2013-02-09T14:57:40Z</time>
      </trkpt>
      <trkpt lat="43.3757" lon="6.13302">
        <ele>345.79998779297</ele>
        <time>2013-02-09T14:57:41Z</time>
      </trkpt>
      <trkpt lat="43.37569" lon="6.13306">
        <ele>346.20001220703</ele>
        <time>2013-02-09T14:57:43Z</time>
      </trkpt>
      <trkpt lat="43.37571" lon="6.13323">
        <ele>346.20001220703</ele>
        <time>2013-02-09T14:57:48Z</time>
      </trkpt>
      <trkpt lat="43.37571" lon="6.13326">
        <ele>346.20001220703</ele>
        <time>2013-02-09T14:57:49Z</time>
      </trkpt>
      <trkpt lat="43.3757" lon="6.1333">
        <ele>346.20001220703</ele>
        <time>2013-02-09T14:57:51Z</time>
      </trkpt>
      <trkpt lat="43.37568" lon="6.13332">
        <ele>346.20001220703</ele>
        <time>2013-02-09T14:57:53Z</time>
      </trkpt>
      <trkpt lat="43.37568" lon="6.13333">
        <ele>346.20001220703</ele>
        <time>2013-02-09T14:57:56Z</time>
      </trkpt>
      <trkpt lat="43.37568" lon="6.13333">
        <ele>348.20001220703</ele>
        <time>2013-02-09T14:58:22Z</time>
      </trkpt>
      <trkpt lat="43.37568" lon="6.13333">
        <ele>348.20001220703</ele>
        <time>2013-02-09T14:58:34Z</time>
      </trkpt>
      <trkpt lat="43.37567" lon="6.13334">
        <ele>348.20001220703</ele>
        <time>2013-02-09T14:58:46Z</time>
      </trkpt>
      <trkpt lat="43.37566" lon="6.13336">
        <ele>348.20001220703</ele>
        <time>2013-02-09T14:58:49Z</time>
      </trkpt>
      <trkpt lat="43.37563" lon="6.13341">
        <ele>348.20001220703</ele>
        <time>2013-02-09T14:58:51Z</time>
      </trkpt>
      <trkpt lat="43.37558" lon="6.13343">
        <ele>348.20001220703</ele>
        <time>2013-02-09T14:58:56Z</time>
      </trkpt>
      <trkpt lat="43.37556" lon="6.13343">
        <ele>348.20001220703</ele>
        <time>2013-02-09T14:58:57Z</time>
      </trkpt>
      <trkpt lat="43.37553" lon="6.1335">
        <ele>348.20001220703</ele>
        <time>2013-02-09T14:59:01Z</time>
      </trkpt>
      <trkpt lat="43.37542" lon="6.13367">
        <ele>348.20001220703</ele>
        <time>2013-02-09T14:59:08Z</time>
      </trkpt>
      <trkpt lat="43.37538" lon="6.13377">
        <ele>348.20001220703</ele>
        <time>2013-02-09T14:59:12Z</time>
      </trkpt>
      <trkpt lat="43.37537" lon="6.1338">
        <ele>348.20001220703</ele>
        <time>2013-02-09T14:59:13Z</time>
      </trkpt>
      <trkpt lat="43.37534" lon="6.13392">
        <ele>348.20001220703</ele>
        <time>2013-02-09T14:59:17Z</time>
      </trkpt>
      <trkpt lat="43.37533" lon="6.13398">
        <ele>348.20001220703</ele>
        <time>2013-02-09T14:59:19Z</time>
      </trkpt>
      <trkpt lat="43.37531" lon="6.13408">
        <ele>348.20001220703</ele>
        <time>2013-02-09T14:59:22Z</time>
      </trkpt>
      <trkpt lat="43.3753" lon="6.13412">
        <ele>348.20001220703</ele>
        <time>2013-02-09T14:59:24Z</time>
      </trkpt>
      <trkpt lat="43.37528" lon="6.13417">
        <ele>348.20001220703</ele>
        <time>2013-02-09T14:59:26Z</time>
      </trkpt>
      <trkpt lat="43.37527" lon="6.13419">
        <ele>348.60000610352</ele>
        <time>2013-02-09T14:59:27Z</time>
      </trkpt>
      <trkpt lat="43.37526" lon="6.13421">
        <ele>349.20001220703</ele>
        <time>2013-02-09T14:59:28Z</time>
      </trkpt>
      <trkpt lat="43.37526" lon="6.13422">
        <ele>349.60000610352</ele>
        <time>2013-02-09T14:59:29Z</time>
      </trkpt>
      <trkpt lat="43.37526" lon="6.13422">
        <ele>350.39999389648</ele>
        <time>2013-02-09T14:59:50Z</time>
      </trkpt>
      <trkpt lat="43.37526" lon="6.13422">
        <ele>350.39999389648</ele>
        <time>2013-02-09T14:59:55Z</time>
      </trkpt>
      <trkpt lat="43.37526" lon="6.13423">
        <ele>350.39999389648</ele>
        <time>2013-02-09T14:59:58Z</time>
      </trkpt>
      <trkpt lat="43.37526" lon="6.13425">
        <ele>350.39999389648</ele>
        <time>2013-02-09T14:59:59Z</time>
      </trkpt>
      <trkpt lat="43.37522" lon="6.13438">
        <ele>350.39999389648</ele>
        <time>2013-02-09T15:00:04Z</time>
      </trkpt>
      <trkpt lat="43.37522" lon="6.1344">
        <ele>350.39999389648</ele>
        <time>2013-02-09T15:00:05Z</time>
      </trkpt>
      <trkpt lat="43.37522" lon="6.13447">
        <ele>350.39999389648</ele>
        <time>2013-02-09T15:00:08Z</time>
      </trkpt>
      <trkpt lat="43.37522" lon="6.13455">
        <ele>350.39999389648</ele>
        <time>2013-02-09T15:00:11Z</time>
      </trkpt>
      <trkpt lat="43.37523" lon="6.13466">
        <ele>350.39999389648</ele>
        <time>2013-02-09T15:00:17Z</time>
      </trkpt>
      <trkpt lat="43.37523" lon="6.13466">
        <ele>350.39999389648</ele>
        <time>2013-02-09T15:00:25Z</time>
      </trkpt>
      <trkpt lat="43.37523" lon="6.13466">
        <ele>350.39999389648</ele>
        <time>2013-02-09T15:00:50Z</time>
      </trkpt>
      <trkpt lat="43.37523" lon="6.13466">
        <ele>350.39999389648</ele>
        <time>2013-02-09T15:01:05Z</time>
      </trkpt>
      <trkpt lat="43.37523" lon="6.13466">
        <ele>350.79998779297</ele>
        <time>2013-02-09T15:01:21Z</time>
      </trkpt>
      <trkpt lat="43.37523" lon="6.13466">
        <ele>351.20001220703</ele>
        <time>2013-02-09T15:01:22Z</time>
      </trkpt>
      <trkpt lat="43.37523" lon="6.13469">
        <ele>352</ele>
        <time>2013-02-09T15:01:24Z</time>
      </trkpt>
      <trkpt lat="43.37524" lon="6.1347">
        <ele>352.39999389648</ele>
        <time>2013-02-09T15:01:25Z</time>
      </trkpt>
      <trkpt lat="43.37524" lon="6.1348">
        <ele>352.39999389648</ele>
        <time>2013-02-09T15:01:29Z</time>
      </trkpt>
      <trkpt lat="43.37526" lon="6.13496">
        <ele>352.39999389648</ele>
        <time>2013-02-09T15:01:36Z</time>
      </trkpt>
      <trkpt lat="43.37528" lon="6.13506">
        <ele>352.39999389648</ele>
        <time>2013-02-09T15:01:41Z</time>
      </trkpt>
      <trkpt lat="43.37529" lon="6.1351">
        <ele>352.39999389648</ele>
        <time>2013-02-09T15:01:43Z</time>
      </trkpt>
      <trkpt lat="43.37529" lon="6.1352">
        <ele>352.39999389648</ele>
        <time>2013-02-09T15:01:48Z</time>
      </trkpt>
      <trkpt lat="43.37529" lon="6.13525">
        <ele>352.39999389648</ele>
        <time>2013-02-09T15:01:50Z</time>
      </trkpt>
      <trkpt lat="43.3753" lon="6.13529">
        <ele>352.79998779297</ele>
        <time>2013-02-09T15:01:52Z</time>
      </trkpt>
      <trkpt lat="43.3753" lon="6.13531">
        <ele>353.20001220703</ele>
        <time>2013-02-09T15:01:53Z</time>
      </trkpt>
      <trkpt lat="43.3753" lon="6.13532">
        <ele>354</ele>
        <time>2013-02-09T15:01:54Z</time>
      </trkpt>
      <trkpt lat="43.3753" lon="6.13532">
        <ele>354.39999389648</ele>
        <time>2013-02-09T15:01:55Z</time>
      </trkpt>
      <trkpt lat="43.3753" lon="6.13532">
        <ele>354.39999389648</ele>
        <time>2013-02-09T15:02:17Z</time>
      </trkpt>
      <trkpt lat="43.3753" lon="6.13532">
        <ele>354.39999389648</ele>
        <time>2013-02-09T15:02:39Z</time>
      </trkpt>
      <trkpt lat="43.3753" lon="6.13532">
        <ele>354.39999389648</ele>
        <time>2013-02-09T15:03:01Z</time>
      </trkpt>
      <trkpt lat="43.37531" lon="6.13539">
        <ele>354.39999389648</ele>
        <time>2013-02-09T15:03:10Z</time>
      </trkpt>
      <trkpt lat="43.3753" lon="6.13553">
        <ele>354.39999389648</ele>
        <time>2013-02-09T15:03:15Z</time>
      </trkpt>
      <trkpt lat="43.37535" lon="6.13571">
        <ele>354.39999389648</ele>
        <time>2013-02-09T15:03:21Z</time>
      </trkpt>
      <trkpt lat="43.37539" lon="6.13585">
        <ele>354.39999389648</ele>
        <time>2013-02-09T15:03:27Z</time>
      </trkpt>
      <trkpt lat="43.37543" lon="6.13599">
        <ele>355.39999389648</ele>
        <time>2013-02-09T15:03:33Z</time>
      </trkpt>
      <trkpt lat="43.37546" lon="6.13614">
        <ele>356.60000610352</ele>
        <time>2013-02-09T15:03:39Z</time>
      </trkpt>
      <trkpt lat="43.37547" lon="6.1362">
        <ele>356.60000610352</ele>
        <time>2013-02-09T15:03:42Z</time>
      </trkpt>
      <trkpt lat="43.37553" lon="6.13636">
        <ele>357.79998779297</ele>
        <time>2013-02-09T15:03:50Z</time>
      </trkpt>
      <trkpt lat="43.37554" lon="6.13645">
        <ele>358.60000610352</ele>
        <time>2013-02-09T15:03:55Z</time>
      </trkpt>
      <trkpt lat="43.37556" lon="6.13657">
        <ele>358.60000610352</ele>
        <time>2013-02-09T15:04:02Z</time>
      </trkpt>
      <trkpt lat="43.37558" lon="6.13685">
        <ele>358.60000610352</ele>
        <time>2013-02-09T15:04:18Z</time>
      </trkpt>
      <trkpt lat="43.37558" lon="6.13694">
        <ele>358.60000610352</ele>
        <time>2013-02-09T15:04:22Z</time>
      </trkpt>
      <trkpt lat="43.37559" lon="6.13697">
        <ele>358.60000610352</ele>
        <time>2013-02-09T15:04:24Z</time>
      </trkpt>
      <trkpt lat="43.3756" lon="6.13705">
        <ele>358.60000610352</ele>
        <time>2013-02-09T15:04:28Z</time>
      </trkpt>
      <trkpt lat="43.37564" lon="6.13718">
        <ele>359.79998779297</ele>
        <time>2013-02-09T15:04:35Z</time>
      </trkpt>
      <trkpt lat="43.37564" lon="6.13721">
        <ele>360.79998779297</ele>
        <time>2013-02-09T15:04:37Z</time>
      </trkpt>
      <trkpt lat="43.37565" lon="6.13729">
        <ele>360.79998779297</ele>
        <time>2013-02-09T15:04:41Z</time>
      </trkpt>
      <trkpt lat="43.37566" lon="6.13733">
        <ele>360.79998779297</ele>
        <time>2013-02-09T15:04:43Z</time>
      </trkpt>
      <trkpt lat="43.37566" lon="6.13737">
        <ele>360.79998779297</ele>
        <time>2013-02-09T15:04:48Z</time>
      </trkpt>
      <trkpt lat="43.37566" lon="6.1374">
        <ele>360.79998779297</ele>
        <time>2013-02-09T15:05:00Z</time>
      </trkpt>
      <trkpt lat="43.37566" lon="6.13747">
        <ele>361.20001220703</ele>
        <time>2013-02-09T15:05:03Z</time>
      </trkpt>
      <trkpt lat="43.37568" lon="6.13755">
        <ele>362.79998779297</ele>
        <time>2013-02-09T15:05:07Z</time>
      </trkpt>
      <trkpt lat="43.37569" lon="6.13763">
        <ele>362.79998779297</ele>
        <time>2013-02-09T15:05:11Z</time>
      </trkpt>
      <trkpt lat="43.3757" lon="6.13777">
        <ele>362.79998779297</ele>
        <time>2013-02-09T15:05:17Z</time>
      </trkpt>
      <trkpt lat="43.3757" lon="6.13787">
        <ele>362.79998779297</ele>
        <time>2013-02-09T15:05:22Z</time>
      </trkpt>
      <trkpt lat="43.37571" lon="6.13814">
        <ele>364.79998779297</ele>
        <time>2013-02-09T15:05:32Z</time>
      </trkpt>
      <trkpt lat="43.37567" lon="6.13853">
        <ele>364.79998779297</ele>
        <time>2013-02-09T15:05:46Z</time>
      </trkpt>
      <trkpt lat="43.37563" lon="6.13893">
        <ele>364.79998779297</ele>
        <time>2013-02-09T15:06:00Z</time>
      </trkpt>
      <trkpt lat="43.37554" lon="6.13925">
        <ele>365.20001220703</ele>
        <time>2013-02-09T15:06:12Z</time>
      </trkpt>
      <trkpt lat="43.37548" lon="6.13949">
        <ele>366.79998779297</ele>
        <time>2013-02-09T15:06:21Z</time>
      </trkpt>
      <trkpt lat="43.37543" lon="6.13964">
        <ele>366.79998779297</ele>
        <time>2013-02-09T15:06:27Z</time>
      </trkpt>
      <trkpt lat="43.37539" lon="6.13975">
        <ele>367.20001220703</ele>
        <time>2013-02-09T15:06:32Z</time>
      </trkpt>
      <trkpt lat="43.37537" lon="6.13991">
        <ele>369</ele>
        <time>2013-02-09T15:06:38Z</time>
      </trkpt>
      <trkpt lat="43.37537" lon="6.14008">
        <ele>369</ele>
        <time>2013-02-09T15:06:45Z</time>
      </trkpt>
      <trkpt lat="43.37534" lon="6.1402">
        <ele>369</ele>
        <time>2013-02-09T15:06:50Z</time>
      </trkpt>
      <trkpt lat="43.37528" lon="6.14038">
        <ele>369</ele>
        <time>2013-02-09T15:06:57Z</time>
      </trkpt>
      <trkpt lat="43.37524" lon="6.1405">
        <ele>371</ele>
        <time>2013-02-09T15:07:03Z</time>
      </trkpt>
      <trkpt lat="43.37523" lon="6.14058">
        <ele>371</ele>
        <time>2013-02-09T15:07:08Z</time>
      </trkpt>
      <trkpt lat="43.3752" lon="6.14073">
        <ele>371</ele>
        <time>2013-02-09T15:07:15Z</time>
      </trkpt>
      <trkpt lat="43.37519" lon="6.14088">
        <ele>371.79998779297</ele>
        <time>2013-02-09T15:07:23Z</time>
      </trkpt>
      <trkpt lat="43.37518" lon="6.14094">
        <ele>373</ele>
        <time>2013-02-09T15:07:26Z</time>
      </trkpt>
      <trkpt lat="43.37518" lon="6.14095">
        <ele>373</ele>
        <time>2013-02-09T15:07:27Z</time>
      </trkpt>
      <trkpt lat="43.37513" lon="6.14106">
        <ele>373</ele>
        <time>2013-02-09T15:07:33Z</time>
      </trkpt>
      <trkpt lat="43.37506" lon="6.14116">
        <ele>373</ele>
        <time>2013-02-09T15:07:40Z</time>
      </trkpt>
      <trkpt lat="43.375" lon="6.14126">
        <ele>375.20001220703</ele>
        <time>2013-02-09T15:07:46Z</time>
      </trkpt>
      <trkpt lat="43.37492" lon="6.14136">
        <ele>375.20001220703</ele>
        <time>2013-02-09T15:07:54Z</time>
      </trkpt>
      <trkpt lat="43.37489" lon="6.14139">
        <ele>375.20001220703</ele>
        <time>2013-02-09T15:07:57Z</time>
      </trkpt>
      <trkpt lat="43.37484" lon="6.14146">
        <ele>377.20001220703</ele>
        <time>2013-02-09T15:08:02Z</time>
      </trkpt>
      <trkpt lat="43.37478" lon="6.14153">
        <ele>377.20001220703</ele>
        <time>2013-02-09T15:08:07Z</time>
      </trkpt>
      <trkpt lat="43.37476" lon="6.14156">
        <ele>377.20001220703</ele>
        <time>2013-02-09T15:08:09Z</time>
      </trkpt>
      <trkpt lat="43.37471" lon="6.14159">
        <ele>378</ele>
        <time>2013-02-09T15:08:13Z</time>
      </trkpt>
      <trkpt lat="43.37458" lon="6.1416">
        <ele>379.39999389648</ele>
        <time>2013-02-09T15:08:22Z</time>
      </trkpt>
      <trkpt lat="43.37439" lon="6.14174">
        <ele>381.39999389648</ele>
        <time>2013-02-09T15:08:37Z</time>
      </trkpt>
      <trkpt lat="43.37431" lon="6.14177">
        <ele>382.60000610352</ele>
        <time>2013-02-09T15:08:43Z</time>
      </trkpt>
      <trkpt lat="43.37425" lon="6.14181">
        <ele>383.39999389648</ele>
        <time>2013-02-09T15:08:48Z</time>
      </trkpt>
      <trkpt lat="43.3742" lon="6.14182">
        <ele>385.20001220703</ele>
        <time>2013-02-09T15:08:52Z</time>
      </trkpt>
      <trkpt lat="43.37412" lon="6.14184">
        <ele>386.39999389648</ele>
        <time>2013-02-09T15:08:57Z</time>
      </trkpt>
      <trkpt lat="43.37405" lon="6.14188">
        <ele>387.79998779297</ele>
        <time>2013-02-09T15:09:03Z</time>
      </trkpt>
      <trkpt lat="43.37399" lon="6.14191">
        <ele>388.20001220703</ele>
        <time>2013-02-09T15:09:09Z</time>
      </trkpt>
      <trkpt lat="43.37383" lon="6.14189">
        <ele>390</ele>
        <time>2013-02-09T15:09:21Z</time>
      </trkpt>
      <trkpt lat="43.37377" lon="6.14192">
        <ele>390</ele>
        <time>2013-02-09T15:09:26Z</time>
      </trkpt>
      <trkpt lat="43.37369" lon="6.14205">
        <ele>390.39999389648</ele>
        <time>2013-02-09T15:09:35Z</time>
      </trkpt>
      <trkpt lat="43.37367" lon="6.14208">
        <ele>391.20001220703</ele>
        <time>2013-02-09T15:09:37Z</time>
      </trkpt>
      <trkpt lat="43.37366" lon="6.14212">
        <ele>392</ele>
        <time>2013-02-09T15:09:39Z</time>
      </trkpt>
      <trkpt lat="43.37363" lon="6.14221">
        <ele>392</ele>
        <time>2013-02-09T15:09:44Z</time>
      </trkpt>
      <trkpt lat="43.37361" lon="6.14225">
        <ele>392.79998779297</ele>
        <time>2013-02-09T15:09:47Z</time>
      </trkpt>
      <trkpt lat="43.3736" lon="6.14226">
        <ele>393.20001220703</ele>
        <time>2013-02-09T15:09:48Z</time>
      </trkpt>
      <trkpt lat="43.37359" lon="6.14229">
        <ele>394</ele>
        <time>2013-02-09T15:09:50Z</time>
      </trkpt>
      <trkpt lat="43.37355" lon="6.14234">
        <ele>394</ele>
        <time>2013-02-09T15:09:55Z</time>
      </trkpt>
      <trkpt lat="43.37355" lon="6.14235">
        <ele>394</ele>
        <time>2013-02-09T15:09:56Z</time>
      </trkpt>
      <trkpt lat="43.37355" lon="6.14235">
        <ele>394</ele>
        <time>2013-02-09T15:10:16Z</time>
      </trkpt>
      <trkpt lat="43.37355" lon="6.14235">
        <ele>394</ele>
        <time>2013-02-09T15:10:35Z</time>
      </trkpt>
      <trkpt lat="43.37355" lon="6.14235">
        <ele>394</ele>
        <time>2013-02-09T15:10:43Z</time>
      </trkpt>
      <trkpt lat="43.37355" lon="6.14235">
        <ele>394</ele>
        <time>2013-02-09T15:11:02Z</time>
      </trkpt>
      <trkpt lat="43.37355" lon="6.14235">
        <ele>394</ele>
        <time>2013-02-09T15:11:39Z</time>
      </trkpt>
      <trkpt lat="43.37355" lon="6.14235">
        <ele>394</ele>
        <time>2013-02-09T15:11:54Z</time>
      </trkpt>
      <trkpt lat="43.37355" lon="6.14235">
        <ele>394</ele>
        <time>2013-02-09T15:11:57Z</time>
      </trkpt>
      <trkpt lat="43.37355" lon="6.14235">
        <ele>394</ele>
        <time>2013-02-09T15:12:13Z</time>
      </trkpt>
      <trkpt lat="43.37355" lon="6.14234">
        <ele>394</ele>
        <time>2013-02-09T15:12:40Z</time>
      </trkpt>
      <trkpt lat="43.37355" lon="6.14234">
        <ele>394</ele>
        <time>2013-02-09T15:12:43Z</time>
      </trkpt>
      <trkpt lat="43.37355" lon="6.14234">
        <ele>394</ele>
        <time>2013-02-09T15:13:02Z</time>
      </trkpt>
      <trkpt lat="43.37355" lon="6.14234">
        <ele>394</ele>
        <time>2013-02-09T15:13:20Z</time>
      </trkpt>
      <trkpt lat="43.37355" lon="6.14234">
        <ele>394</ele>
        <time>2013-02-09T15:13:26Z</time>
      </trkpt>
      <trkpt lat="43.37355" lon="6.14234">
        <ele>394</ele>
        <time>2013-02-09T15:13:39Z</time>
      </trkpt>
      <trkpt lat="43.37355" lon="6.14235">
        <ele>394</ele>
        <time>2013-02-09T15:14:08Z</time>
      </trkpt>
      <trkpt lat="43.37355" lon="6.14235">
        <ele>394</ele>
        <time>2013-02-09T15:14:19Z</time>
      </trkpt>
      <trkpt lat="43.37355" lon="6.14235">
        <ele>394</ele>
        <time>2013-02-09T15:14:39Z</time>
      </trkpt>
      <trkpt lat="43.37355" lon="6.14235">
        <ele>394</ele>
        <time>2013-02-09T15:14:43Z</time>
      </trkpt>
      <trkpt lat="43.37355" lon="6.14235">
        <ele>394</ele>
        <time>2013-02-09T15:15:11Z</time>
      </trkpt>
      <trkpt lat="43.37355" lon="6.14235">
        <ele>394</ele>
        <time>2013-02-09T15:15:30Z</time>
      </trkpt>
      <trkpt lat="43.37355" lon="6.14235">
        <ele>394</ele>
        <time>2013-02-09T15:15:45Z</time>
      </trkpt>
      <trkpt lat="43.37355" lon="6.14235">
        <ele>394</ele>
        <time>2013-02-09T15:16:45Z</time>
      </trkpt>
      <trkpt lat="43.37355" lon="6.14235">
        <ele>394</ele>
        <time>2013-02-09T15:17:12Z</time>
      </trkpt>
      <trkpt lat="43.37351" lon="6.1424">
        <ele>394</ele>
        <time>2013-02-09T15:17:18Z</time>
      </trkpt>
      <trkpt lat="43.37344" lon="6.14247">
        <ele>394</ele>
        <time>2013-02-09T15:17:23Z</time>
      </trkpt>
      <trkpt lat="43.37338" lon="6.14254">
        <ele>394</ele>
        <time>2013-02-09T15:17:27Z</time>
      </trkpt>
      <trkpt lat="43.37336" lon="6.14257">
        <ele>394</ele>
        <time>2013-02-09T15:17:28Z</time>
      </trkpt>
      <trkpt lat="43.37326" lon="6.14267">
        <ele>393.60000610352</ele>
        <time>2013-02-09T15:17:32Z</time>
      </trkpt>
      <trkpt lat="43.37319" lon="6.14276">
        <ele>392</ele>
        <time>2013-02-09T15:17:34Z</time>
      </trkpt>
      <trkpt lat="43.37317" lon="6.14279">
        <ele>391.39999389648</ele>
        <time>2013-02-09T15:17:35Z</time>
      </trkpt>
      <trkpt lat="43.37311" lon="6.14286">
        <ele>390.20001220703</ele>
        <time>2013-02-09T15:17:37Z</time>
      </trkpt>
      <trkpt lat="43.37307" lon="6.14287">
        <ele>389.39999389648</ele>
        <time>2013-02-09T15:17:38Z</time>
      </trkpt>
      <trkpt lat="43.37301" lon="6.14288">
        <ele>388.79998779297</ele>
        <time>2013-02-09T15:17:39Z</time>
      </trkpt>
      <trkpt lat="43.37296" lon="6.1429">
        <ele>388.20001220703</ele>
        <time>2013-02-09T15:17:40Z</time>
      </trkpt>
      <trkpt lat="43.37291" lon="6.14293">
        <ele>387.60000610352</ele>
        <time>2013-02-09T15:17:41Z</time>
      </trkpt>
      <trkpt lat="43.37286" lon="6.14296">
        <ele>386.60000610352</ele>
        <time>2013-02-09T15:17:42Z</time>
      </trkpt>
      <trkpt lat="43.37281" lon="6.14302">
        <ele>385.79998779297</ele>
        <time>2013-02-09T15:17:43Z</time>
      </trkpt>
      <trkpt lat="43.37276" lon="6.14307">
        <ele>384.79998779297</ele>
        <time>2013-02-09T15:17:44Z</time>
      </trkpt>
      <trkpt lat="43.37269" lon="6.14313">
        <ele>384</ele>
        <time>2013-02-09T15:17:45Z</time>
      </trkpt>
      <trkpt lat="43.37262" lon="6.14317">
        <ele>383</ele>
        <time>2013-02-09T15:17:46Z</time>
      </trkpt>
      <trkpt lat="43.37256" lon="6.14321">
        <ele>382</ele>
        <time>2013-02-09T15:17:47Z</time>
      </trkpt>
      <trkpt lat="43.37246" lon="6.14316">
        <ele>379.79998779297</ele>
        <time>2013-02-09T15:17:50Z</time>
      </trkpt>
      <trkpt lat="43.37242" lon="6.14315">
        <ele>379.20001220703</ele>
        <time>2013-02-09T15:17:51Z</time>
      </trkpt>
      <trkpt lat="43.37241" lon="6.14315">
        <ele>378.79998779297</ele>
        <time>2013-02-09T15:17:52Z</time>
      </trkpt>
      <trkpt lat="43.37238" lon="6.14315">
        <ele>377.79998779297</ele>
        <time>2013-02-09T15:17:54Z</time>
      </trkpt>
      <trkpt lat="43.37239" lon="6.14316">
        <ele>377.79998779297</ele>
        <time>2013-02-09T15:17:59Z</time>
      </trkpt>
      <trkpt lat="43.37239" lon="6.14316">
        <ele>377.79998779297</ele>
        <time>2013-02-09T15:18:07Z</time>
      </trkpt>
      <trkpt lat="43.37236" lon="6.14316">
        <ele>377.79998779297</ele>
        <time>2013-02-09T15:18:10Z</time>
      </trkpt>
      <trkpt lat="43.37231" lon="6.14317">
        <ele>377.79998779297</ele>
        <time>2013-02-09T15:18:12Z</time>
      </trkpt>
      <trkpt lat="43.37221" lon="6.14321">
        <ele>377.20001220703</ele>
        <time>2013-02-09T15:18:16Z</time>
      </trkpt>
      <trkpt lat="43.37218" lon="6.14323">
        <ele>376.79998779297</ele>
        <time>2013-02-09T15:18:17Z</time>
      </trkpt>
      <trkpt lat="43.37216" lon="6.14325">
        <ele>376.39999389648</ele>
        <time>2013-02-09T15:18:18Z</time>
      </trkpt>
      <trkpt lat="43.37214" lon="6.14327">
        <ele>376</ele>
        <time>2013-02-09T15:18:19Z</time>
      </trkpt>
      <trkpt lat="43.37212" lon="6.1433">
        <ele>375.60000610352</ele>
        <time>2013-02-09T15:18:20Z</time>
      </trkpt>
      <trkpt lat="43.37201" lon="6.14338">
        <ele>375.60000610352</ele>
        <time>2013-02-09T15:18:24Z</time>
      </trkpt>
      <trkpt lat="43.37193" lon="6.14339">
        <ele>375.60000610352</ele>
        <time>2013-02-09T15:18:26Z</time>
      </trkpt>
      <trkpt lat="43.3719" lon="6.1434">
        <ele>375.20001220703</ele>
        <time>2013-02-09T15:18:27Z</time>
      </trkpt>
      <trkpt lat="43.37183" lon="6.14362">
        <ele>373.39999389648</ele>
        <time>2013-02-09T15:18:35Z</time>
      </trkpt>
      <trkpt lat="43.3718" lon="6.14367">
        <ele>373.39999389648</ele>
        <time>2013-02-09T15:18:37Z</time>
      </trkpt>
      <trkpt lat="43.37166" lon="6.1437">
        <ele>373.39999389648</ele>
        <time>2013-02-09T15:18:42Z</time>
      </trkpt>
      <trkpt lat="43.37163" lon="6.14369">
        <ele>373.39999389648</ele>
        <time>2013-02-09T15:18:43Z</time>
      </trkpt>
      <trkpt lat="43.37152" lon="6.14366">
        <ele>373.39999389648</ele>
        <time>2013-02-09T15:18:47Z</time>
      </trkpt>
      <trkpt lat="43.37138" lon="6.14368">
        <ele>373.39999389648</ele>
        <time>2013-02-09T15:18:52Z</time>
      </trkpt>
      <trkpt lat="43.37127" lon="6.14367">
        <ele>373.39999389648</ele>
        <time>2013-02-09T15:18:57Z</time>
      </trkpt>
      <trkpt lat="43.37111" lon="6.14359">
        <ele>373.39999389648</ele>
        <time>2013-02-09T15:19:04Z</time>
      </trkpt>
      <trkpt lat="43.37094" lon="6.14344">
        <ele>373.39999389648</ele>
        <time>2013-02-09T15:19:11Z</time>
      </trkpt>
      <trkpt lat="43.3709" lon="6.14337">
        <ele>373</ele>
        <time>2013-02-09T15:19:13Z</time>
      </trkpt>
      <trkpt lat="43.37088" lon="6.14332">
        <ele>372.60000610352</ele>
        <time>2013-02-09T15:19:14Z</time>
      </trkpt>
      <trkpt lat="43.37085" lon="6.14316">
        <ele>371</ele>
        <time>2013-02-09T15:19:17Z</time>
      </trkpt>
      <trkpt lat="43.37081" lon="6.14305">
        <ele>371</ele>
        <time>2013-02-09T15:19:19Z</time>
      </trkpt>
      <trkpt lat="43.37074" lon="6.14288">
        <ele>371</ele>
        <time>2013-02-09T15:19:22Z</time>
      </trkpt>
      <trkpt lat="43.3707" lon="6.14276">
        <ele>371</ele>
        <time>2013-02-09T15:19:24Z</time>
      </trkpt>
      <trkpt lat="43.3707" lon="6.1427">
        <ele>371</ele>
        <time>2013-02-09T15:19:25Z</time>
      </trkpt>
      <trkpt lat="43.37066" lon="6.14248">
        <ele>370.60000610352</ele>
        <time>2013-02-09T15:19:29Z</time>
      </trkpt>
      <trkpt lat="43.37064" lon="6.14229">
        <ele>368.79998779297</ele>
        <time>2013-02-09T15:19:33Z</time>
      </trkpt>
      <trkpt lat="43.37059" lon="6.14212">
        <ele>368.79998779297</ele>
        <time>2013-02-09T15:19:37Z</time>
      </trkpt>
      <trkpt lat="43.37048" lon="6.14189">
        <ele>368.79998779297</ele>
        <time>2013-02-09T15:19:43Z</time>
      </trkpt>
      <trkpt lat="43.37036" lon="6.14166">
        <ele>368.79998779297</ele>
        <time>2013-02-09T15:19:48Z</time>
      </trkpt>
      <trkpt lat="43.37025" lon="6.14142">
        <ele>367</ele>
        <time>2013-02-09T15:19:52Z</time>
      </trkpt>
      <trkpt lat="43.37023" lon="6.14136">
        <ele>366.60000610352</ele>
        <time>2013-02-09T15:19:53Z</time>
      </trkpt>
      <trkpt lat="43.3702" lon="6.1413">
        <ele>366.60000610352</ele>
        <time>2013-02-09T15:19:54Z</time>
      </trkpt>
      <trkpt lat="43.37017" lon="6.14126">
        <ele>366.60000610352</ele>
        <time>2013-02-09T15:19:55Z</time>
      </trkpt>
      <trkpt lat="43.37002" lon="6.14107">
        <ele>366.20001220703</ele>
        <time>2013-02-09T15:19:59Z</time>
      </trkpt>
      <trkpt lat="43.36993" lon="6.14099">
        <ele>365.20001220703</ele>
        <time>2013-02-09T15:20:01Z</time>
      </trkpt>
      <trkpt lat="43.36989" lon="6.14097">
        <ele>364.39999389648</ele>
        <time>2013-02-09T15:20:02Z</time>
      </trkpt>
      <trkpt lat="43.36981" lon="6.14095">
        <ele>364.39999389648</ele>
        <time>2013-02-09T15:20:04Z</time>
      </trkpt>
      <trkpt lat="43.36963" lon="6.14099">
        <ele>364.39999389648</ele>
        <time>2013-02-09T15:20:09Z</time>
      </trkpt>
      <trkpt lat="43.36951" lon="6.14103">
        <ele>364.39999389648</ele>
        <time>2013-02-09T15:20:12Z</time>
      </trkpt>
      <trkpt lat="43.36949" lon="6.14103">
        <ele>364.39999389648</ele>
        <time>2013-02-09T15:20:13Z</time>
      </trkpt>
      <trkpt lat="43.36945" lon="6.14108">
        <ele>364.39999389648</ele>
        <time>2013-02-09T15:20:15Z</time>
      </trkpt>
      <trkpt lat="43.3694" lon="6.14113">
        <ele>364.39999389648</ele>
        <time>2013-02-09T15:20:17Z</time>
      </trkpt>
      <trkpt lat="43.36938" lon="6.14113">
        <ele>364.39999389648</ele>
        <time>2013-02-09T15:20:18Z</time>
      </trkpt>
      <trkpt lat="43.36934" lon="6.14114">
        <ele>365.20001220703</ele>
        <time>2013-02-09T15:20:20Z</time>
      </trkpt>
      <trkpt lat="43.36932" lon="6.14113">
        <ele>365.60000610352</ele>
        <time>2013-02-09T15:20:21Z</time>
      </trkpt>
      <trkpt lat="43.36929" lon="6.14113">
        <ele>366</ele>
        <time>2013-02-09T15:20:22Z</time>
      </trkpt>
      <trkpt lat="43.36927" lon="6.14112">
        <ele>366.39999389648</ele>
        <time>2013-02-09T15:20:23Z</time>
      </trkpt>
      <trkpt lat="43.36917" lon="6.14109">
        <ele>366.39999389648</ele>
        <time>2013-02-09T15:20:28Z</time>
      </trkpt>
      <trkpt lat="43.36904" lon="6.14118">
        <ele>366.39999389648</ele>
        <time>2013-02-09T15:20:33Z</time>
      </trkpt>
      <trkpt lat="43.36894" lon="6.14119">
        <ele>366.39999389648</ele>
        <time>2013-02-09T15:20:36Z</time>
      </trkpt>
      <trkpt lat="43.36892" lon="6.14118">
        <ele>366.39999389648</ele>
        <time>2013-02-09T15:20:37Z</time>
      </trkpt>
      <trkpt lat="43.36889" lon="6.14115">
        <ele>366.39999389648</ele>
        <time>2013-02-09T15:20:41Z</time>
      </trkpt>
      <trkpt lat="43.36889" lon="6.14115">
        <ele>366.39999389648</ele>
        <time>2013-02-09T15:20:51Z</time>
      </trkpt>
      <trkpt lat="43.36889" lon="6.14115">
        <ele>366.39999389648</ele>
        <time>2013-02-09T15:21:00Z</time>
      </trkpt>
      <trkpt lat="43.36884" lon="6.14105">
        <ele>366.39999389648</ele>
        <time>2013-02-09T15:21:06Z</time>
      </trkpt>
      <trkpt lat="43.3688" lon="6.14094">
        <ele>366</ele>
        <time>2013-02-09T15:21:08Z</time>
      </trkpt>
      <trkpt lat="43.36878" lon="6.14088">
        <ele>365.60000610352</ele>
        <time>2013-02-09T15:21:09Z</time>
      </trkpt>
      <trkpt lat="43.36877" lon="6.14081">
        <ele>365.20001220703</ele>
        <time>2013-02-09T15:21:10Z</time>
      </trkpt>
      <trkpt lat="43.36876" lon="6.14074">
        <ele>364.79998779297</ele>
        <time>2013-02-09T15:21:11Z</time>
      </trkpt>
      <trkpt lat="43.36876" lon="6.14067">
        <ele>364.20001220703</ele>
        <time>2013-02-09T15:21:12Z</time>
      </trkpt>
      <trkpt lat="43.36875" lon="6.14059">
        <ele>363.79998779297</ele>
        <time>2013-02-09T15:21:13Z</time>
      </trkpt>
      <trkpt lat="43.36872" lon="6.14052">
        <ele>363.39999389648</ele>
        <time>2013-02-09T15:21:14Z</time>
      </trkpt>
      <trkpt lat="43.36869" lon="6.14045">
        <ele>363</ele>
        <time>2013-02-09T15:21:15Z</time>
      </trkpt>
      <trkpt lat="43.36867" lon="6.14037">
        <ele>361.60000610352</ele>
        <time>2013-02-09T15:21:16Z</time>
      </trkpt>
      <trkpt lat="43.36865" lon="6.14028">
        <ele>361</ele>
        <time>2013-02-09T15:21:17Z</time>
      </trkpt>
      <trkpt lat="43.36864" lon="6.14019">
        <ele>360.39999389648</ele>
        <time>2013-02-09T15:21:18Z</time>
      </trkpt>
      <trkpt lat="43.36865" lon="6.14011">
        <ele>359.60000610352</ele>
        <time>2013-02-09T15:21:19Z</time>
      </trkpt>
      <trkpt lat="43.36863" lon="6.13995">
        <ele>358.20001220703</ele>
        <time>2013-02-09T15:21:21Z</time>
      </trkpt>
      <trkpt lat="43.36863" lon="6.1399">
        <ele>357.60000610352</ele>
        <time>2013-02-09T15:21:22Z</time>
      </trkpt>
      <trkpt lat="43.36861" lon="6.13987">
        <ele>356.79998779297</ele>
        <time>2013-02-09T15:21:23Z</time>
      </trkpt>
      <trkpt lat="43.3686" lon="6.13985">
        <ele>356</ele>
        <time>2013-02-09T15:21:24Z</time>
      </trkpt>
      <trkpt lat="43.36858" lon="6.13983">
        <ele>355.39999389648</ele>
        <time>2013-02-09T15:21:25Z</time>
      </trkpt>
      <trkpt lat="43.36855" lon="6.13979">
        <ele>355.39999389648</ele>
        <time>2013-02-09T15:21:27Z</time>
      </trkpt>
      <trkpt lat="43.36852" lon="6.13974">
        <ele>355.39999389648</ele>
        <time>2013-02-09T15:21:29Z</time>
      </trkpt>
      <trkpt lat="43.3685" lon="6.13973">
        <ele>355.39999389648</ele>
        <time>2013-02-09T15:21:30Z</time>
      </trkpt>
      <trkpt lat="43.36845" lon="6.13968">
        <ele>355.39999389648</ele>
        <time>2013-02-09T15:21:32Z</time>
      </trkpt>
      <trkpt lat="43.3684" lon="6.13962">
        <ele>355</ele>
        <time>2013-02-09T15:21:34Z</time>
      </trkpt>
      <trkpt lat="43.36836" lon="6.13957">
        <ele>354</ele>
        <time>2013-02-09T15:21:36Z</time>
      </trkpt>
      <trkpt lat="43.36834" lon="6.13955">
        <ele>353.60000610352</ele>
        <time>2013-02-09T15:21:37Z</time>
      </trkpt>
      <trkpt lat="43.36832" lon="6.13955">
        <ele>353.20001220703</ele>
        <time>2013-02-09T15:21:38Z</time>
      </trkpt>
      <trkpt lat="43.36828" lon="6.13959">
        <ele>353.20001220703</ele>
        <time>2013-02-09T15:21:40Z</time>
      </trkpt>
      <trkpt lat="43.36827" lon="6.13962">
        <ele>353.20001220703</ele>
        <time>2013-02-09T15:21:42Z</time>
      </trkpt>
      <trkpt lat="43.36826" lon="6.13965">
        <ele>353.20001220703</ele>
        <time>2013-02-09T15:21:44Z</time>
      </trkpt>
      <trkpt lat="43.36825" lon="6.1397">
        <ele>353.20001220703</ele>
        <time>2013-02-09T15:21:46Z</time>
      </trkpt>
      <trkpt lat="43.36823" lon="6.13975">
        <ele>353.20001220703</ele>
        <time>2013-02-09T15:21:48Z</time>
      </trkpt>
      <trkpt lat="43.36819" lon="6.13979">
        <ele>353.79998779297</ele>
        <time>2013-02-09T15:21:51Z</time>
      </trkpt>
      <trkpt lat="43.36816" lon="6.13981">
        <ele>354.60000610352</ele>
        <time>2013-02-09T15:21:53Z</time>
      </trkpt>
      <trkpt lat="43.36813" lon="6.13982">
        <ele>355.60000610352</ele>
        <time>2013-02-09T15:21:55Z</time>
      </trkpt>
      <trkpt lat="43.3681" lon="6.13983">
        <ele>355.60000610352</ele>
        <time>2013-02-09T15:21:58Z</time>
      </trkpt>
      <trkpt lat="43.36809" lon="6.13983">
        <ele>355.60000610352</ele>
        <time>2013-02-09T15:21:59Z</time>
      </trkpt>
      <trkpt lat="43.36804" lon="6.13986">
        <ele>355.60000610352</ele>
        <time>2013-02-09T15:22:05Z</time>
      </trkpt>
      <trkpt lat="43.36801" lon="6.13988">
        <ele>355.60000610352</ele>
        <time>2013-02-09T15:22:09Z</time>
      </trkpt>
      <trkpt lat="43.36797" lon="6.1399">
        <ele>355.60000610352</ele>
        <time>2013-02-09T15:22:12Z</time>
      </trkpt>
      <trkpt lat="43.3679" lon="6.13995">
        <ele>355.60000610352</ele>
        <time>2013-02-09T15:22:19Z</time>
      </trkpt>
      <trkpt lat="43.36784" lon="6.13998">
        <ele>357.79998779297</ele>
        <time>2013-02-09T15:22:24Z</time>
      </trkpt>
      <trkpt lat="43.3678" lon="6.14001">
        <ele>357.79998779297</ele>
        <time>2013-02-09T15:22:27Z</time>
      </trkpt>
      <trkpt lat="43.36775" lon="6.14008">
        <ele>357.79998779297</ele>
        <time>2013-02-09T15:22:32Z</time>
      </trkpt>
      <trkpt lat="43.36772" lon="6.14011">
        <ele>358.20001220703</ele>
        <time>2013-02-09T15:22:34Z</time>
      </trkpt>
      <trkpt lat="43.3677" lon="6.14013">
        <ele>359</ele>
        <time>2013-02-09T15:22:36Z</time>
      </trkpt>
      <trkpt lat="43.36768" lon="6.14014">
        <ele>359.39999389648</ele>
        <time>2013-02-09T15:22:37Z</time>
      </trkpt>
      <trkpt lat="43.36766" lon="6.14014">
        <ele>359.79998779297</ele>
        <time>2013-02-09T15:22:38Z</time>
      </trkpt>
      <trkpt lat="43.36762" lon="6.14016">
        <ele>359.79998779297</ele>
        <time>2013-02-09T15:22:41Z</time>
      </trkpt>
      <trkpt lat="43.36753" lon="6.14018">
        <ele>360.60000610352</ele>
        <time>2013-02-09T15:22:49Z</time>
      </trkpt>
      <trkpt lat="43.36753" lon="6.14018">
        <ele>361</ele>
        <time>2013-02-09T15:22:50Z</time>
      </trkpt>
      <trkpt lat="43.36752" lon="6.14017">
        <ele>361.39999389648</ele>
        <time>2013-02-09T15:22:51Z</time>
      </trkpt>
      <trkpt lat="43.36752" lon="6.14017">
        <ele>361.79998779297</ele>
        <time>2013-02-09T15:22:52Z</time>
      </trkpt>
      <trkpt lat="43.36752" lon="6.14017">
        <ele>361.79998779297</ele>
        <time>2013-02-09T15:23:11Z</time>
      </trkpt>
      <trkpt lat="43.36752" lon="6.14017">
        <ele>361.79998779297</ele>
        <time>2013-02-09T15:24:23Z</time>
      </trkpt>
      <trkpt lat="43.36752" lon="6.14017">
        <ele>361.79998779297</ele>
        <time>2013-02-09T15:24:45Z</time>
      </trkpt>
      <trkpt lat="43.36752" lon="6.14017">
        <ele>361.79998779297</ele>
        <time>2013-02-09T15:24:58Z</time>
      </trkpt>
      <trkpt lat="43.36752" lon="6.14016">
        <ele>361.79998779297</ele>
        <time>2013-02-09T15:25:06Z</time>
      </trkpt>
      <trkpt lat="43.36751" lon="6.14016">
        <ele>361.79998779297</ele>
        <time>2013-02-09T15:25:07Z</time>
      </trkpt>
      <trkpt lat="43.36745" lon="6.14014">
        <ele>361.79998779297</ele>
        <time>2013-02-09T15:25:10Z</time>
      </trkpt>
      <trkpt lat="43.3674" lon="6.14011">
        <ele>361.79998779297</ele>
        <time>2013-02-09T15:25:12Z</time>
      </trkpt>
      <trkpt lat="43.36725" lon="6.14003">
        <ele>361.79998779297</ele>
        <time>2013-02-09T15:25:20Z</time>
      </trkpt>
      <trkpt lat="43.36718" lon="6.14003">
        <ele>361.79998779297</ele>
        <time>2013-02-09T15:25:24Z</time>
      </trkpt>
      <trkpt lat="43.36713" lon="6.14005">
        <ele>361.79998779297</ele>
        <time>2013-02-09T15:25:26Z</time>
      </trkpt>
      <trkpt lat="43.36706" lon="6.14016">
        <ele>361.79998779297</ele>
        <time>2013-02-09T15:25:29Z</time>
      </trkpt>
      <trkpt lat="43.36703" lon="6.14022">
        <ele>361.79998779297</ele>
        <time>2013-02-09T15:25:31Z</time>
      </trkpt>
      <trkpt lat="43.36698" lon="6.14031">
        <ele>361.79998779297</ele>
        <time>2013-02-09T15:25:34Z</time>
      </trkpt>
      <trkpt lat="43.36678" lon="6.1405">
        <ele>361.79998779297</ele>
        <time>2013-02-09T15:25:43Z</time>
      </trkpt>
      <trkpt lat="43.3667" lon="6.1407">
        <ele>361.79998779297</ele>
        <time>2013-02-09T15:25:49Z</time>
      </trkpt>
      <trkpt lat="43.36669" lon="6.14074">
        <ele>361.79998779297</ele>
        <time>2013-02-09T15:25:50Z</time>
      </trkpt>
      <trkpt lat="43.36667" lon="6.14091">
        <ele>361.79998779297</ele>
        <time>2013-02-09T15:25:55Z</time>
      </trkpt>
      <trkpt lat="43.36664" lon="6.14107">
        <ele>361.79998779297</ele>
        <time>2013-02-09T15:26:01Z</time>
      </trkpt>
      <trkpt lat="43.36664" lon="6.14121">
        <ele>361.79998779297</ele>
        <time>2013-02-09T15:26:06Z</time>
      </trkpt>
      <trkpt lat="43.36664" lon="6.14126">
        <ele>362.60000610352</ele>
        <time>2013-02-09T15:26:08Z</time>
      </trkpt>
      <trkpt lat="43.36665" lon="6.14138">
        <ele>363.79998779297</ele>
        <time>2013-02-09T15:26:13Z</time>
      </trkpt>
      <trkpt lat="43.36668" lon="6.14155">
        <ele>363.79998779297</ele>
        <time>2013-02-09T15:26:20Z</time>
      </trkpt>
      <trkpt lat="43.3667" lon="6.14163">
        <ele>364.39999389648</ele>
        <time>2013-02-09T15:26:23Z</time>
      </trkpt>
      <trkpt lat="43.3667" lon="6.14166">
        <ele>364.79998779297</ele>
        <time>2013-02-09T15:26:24Z</time>
      </trkpt>
      <trkpt lat="43.3667" lon="6.14166">
        <ele>365.20001220703</ele>
        <time>2013-02-09T15:26:25Z</time>
      </trkpt>
      <trkpt lat="43.3667" lon="6.14166">
        <ele>365.60000610352</ele>
        <time>2013-02-09T15:26:26Z</time>
      </trkpt>
      <trkpt lat="43.3667" lon="6.14166">
        <ele>366</ele>
        <time>2013-02-09T15:26:27Z</time>
      </trkpt>
      <trkpt lat="43.3667" lon="6.14167">
        <ele>366</ele>
        <time>2013-02-09T15:26:30Z</time>
      </trkpt>
      <trkpt lat="43.3667" lon="6.14168">
        <ele>366</ele>
        <time>2013-02-09T15:26:35Z</time>
      </trkpt>
      <trkpt lat="43.3667" lon="6.14168">
        <ele>366</ele>
        <time>2013-02-09T15:26:42Z</time>
      </trkpt>
      <trkpt lat="43.3667" lon="6.14168">
        <ele>366</ele>
        <time>2013-02-09T15:26:46Z</time>
      </trkpt>
      <trkpt lat="43.36671" lon="6.1417">
        <ele>366</ele>
        <time>2013-02-09T15:26:53Z</time>
      </trkpt>
      <trkpt lat="43.36674" lon="6.1418">
        <ele>366</ele>
        <time>2013-02-09T15:26:58Z</time>
      </trkpt>
      <trkpt lat="43.36676" lon="6.14189">
        <ele>366</ele>
        <time>2013-02-09T15:27:03Z</time>
      </trkpt>
      <trkpt lat="43.36677" lon="6.14194">
        <ele>366.39999389648</ele>
        <time>2013-02-09T15:27:05Z</time>
      </trkpt>
      <trkpt lat="43.36678" lon="6.14196">
        <ele>366.79998779297</ele>
        <time>2013-02-09T15:27:06Z</time>
      </trkpt>
      <trkpt lat="43.36681" lon="6.14225">
        <ele>368.20001220703</ele>
        <time>2013-02-09T15:27:18Z</time>
      </trkpt>
      <trkpt lat="43.36681" lon="6.14233">
        <ele>368.20001220703</ele>
        <time>2013-02-09T15:27:21Z</time>
      </trkpt>
      <trkpt lat="43.36682" lon="6.14261">
        <ele>368.20001220703</ele>
        <time>2013-02-09T15:27:33Z</time>
      </trkpt>
      <trkpt lat="43.3668" lon="6.14277">
        <ele>368.60000610352</ele>
        <time>2013-02-09T15:27:39Z</time>
      </trkpt>
      <trkpt lat="43.3668" lon="6.14297">
        <ele>370.79998779297</ele>
        <time>2013-02-09T15:27:48Z</time>
      </trkpt>
      <trkpt lat="43.36679" lon="6.14302">
        <ele>371.60000610352</ele>
        <time>2013-02-09T15:27:50Z</time>
      </trkpt>
      <trkpt lat="43.36679" lon="6.14307">
        <ele>372.39999389648</ele>
        <time>2013-02-09T15:27:52Z</time>
      </trkpt>
      <trkpt lat="43.36676" lon="6.14319">
        <ele>372.39999389648</ele>
        <time>2013-02-09T15:27:57Z</time>
      </trkpt>
      <trkpt lat="43.36674" lon="6.14325">
        <ele>372.39999389648</ele>
        <time>2013-02-09T15:27:59Z</time>
      </trkpt>
      <trkpt lat="43.3667" lon="6.14338">
        <ele>372.39999389648</ele>
        <time>2013-02-09T15:28:05Z</time>
      </trkpt>
      <trkpt lat="43.36659" lon="6.14362">
        <ele>372.39999389648</ele>
        <time>2013-02-09T15:28:15Z</time>
      </trkpt>
      <trkpt lat="43.36648" lon="6.14377">
        <ele>372.39999389648</ele>
        <time>2013-02-09T15:28:23Z</time>
      </trkpt>
      <trkpt lat="43.36634" lon="6.14393">
        <ele>374.60000610352</ele>
        <time>2013-02-09T15:28:34Z</time>
      </trkpt>
      <trkpt lat="43.36625" lon="6.14403">
        <ele>375</ele>
        <time>2013-02-09T15:28:41Z</time>
      </trkpt>
      <trkpt lat="43.36611" lon="6.14424">
        <ele>376.60000610352</ele>
        <time>2013-02-09T15:28:53Z</time>
      </trkpt>
      <trkpt lat="43.36606" lon="6.14437">
        <ele>376.60000610352</ele>
        <time>2013-02-09T15:29:00Z</time>
      </trkpt>
      <trkpt lat="43.36602" lon="6.14451">
        <ele>377</ele>
        <time>2013-02-09T15:29:07Z</time>
      </trkpt>
      <trkpt lat="43.36599" lon="6.14459">
        <ele>378.60000610352</ele>
        <time>2013-02-09T15:29:11Z</time>
      </trkpt>
      <trkpt lat="43.36597" lon="6.14459">
        <ele>378.60000610352</ele>
        <time>2013-02-09T15:29:12Z</time>
      </trkpt>
      <trkpt lat="43.36594" lon="6.14461">
        <ele>378.60000610352</ele>
        <time>2013-02-09T15:29:14Z</time>
      </trkpt>
      <trkpt lat="43.36591" lon="6.1446">
        <ele>378.60000610352</ele>
        <time>2013-02-09T15:29:15Z</time>
      </trkpt>
      <trkpt lat="43.36584" lon="6.14453">
        <ele>378.60000610352</ele>
        <time>2013-02-09T15:29:19Z</time>
      </trkpt>
      <trkpt lat="43.36584" lon="6.14447">
        <ele>378.60000610352</ele>
        <time>2013-02-09T15:29:22Z</time>
      </trkpt>
      <trkpt lat="43.36583" lon="6.14427">
        <ele>378.60000610352</ele>
        <time>2013-02-09T15:29:30Z</time>
      </trkpt>
      <trkpt lat="43.36582" lon="6.14413">
        <ele>378.60000610352</ele>
        <time>2013-02-09T15:29:35Z</time>
      </trkpt>
      <trkpt lat="43.36581" lon="6.14407">
        <ele>378.60000610352</ele>
        <time>2013-02-09T15:29:37Z</time>
      </trkpt>
      <trkpt lat="43.36578" lon="6.144">
        <ele>379.20001220703</ele>
        <time>2013-02-09T15:29:40Z</time>
      </trkpt>
      <trkpt lat="43.36572" lon="6.14394">
        <ele>380.79998779297</ele>
        <time>2013-02-09T15:29:44Z</time>
      </trkpt>
      <trkpt lat="43.36567" lon="6.14391">
        <ele>381.20001220703</ele>
        <time>2013-02-09T15:29:48Z</time>
      </trkpt>
      <trkpt lat="43.36563" lon="6.14389">
        <ele>382.39999389648</ele>
        <time>2013-02-09T15:29:51Z</time>
      </trkpt>
      <trkpt lat="43.36561" lon="6.14387">
        <ele>383</ele>
        <time>2013-02-09T15:29:53Z</time>
      </trkpt>
      <trkpt lat="43.36555" lon="6.14386">
        <ele>384.20001220703</ele>
        <time>2013-02-09T15:29:57Z</time>
      </trkpt>
      <trkpt lat="43.36546" lon="6.14383">
        <ele>385</ele>
        <time>2013-02-09T15:30:05Z</time>
      </trkpt>
      <trkpt lat="43.36541" lon="6.1438">
        <ele>385.39999389648</ele>
        <time>2013-02-09T15:30:09Z</time>
      </trkpt>
      <trkpt lat="43.36538" lon="6.1438">
        <ele>386.20001220703</ele>
        <time>2013-02-09T15:30:11Z</time>
      </trkpt>
      <trkpt lat="43.36536" lon="6.14378">
        <ele>387.20001220703</ele>
        <time>2013-02-09T15:30:13Z</time>
      </trkpt>
      <trkpt lat="43.36533" lon="6.14376">
        <ele>387.20001220703</ele>
        <time>2013-02-09T15:30:16Z</time>
      </trkpt>
      <trkpt lat="43.36532" lon="6.14375">
        <ele>387.20001220703</ele>
        <time>2013-02-09T15:30:18Z</time>
      </trkpt>
      <trkpt lat="43.36532" lon="6.14375">
        <ele>388</ele>
        <time>2013-02-09T15:30:20Z</time>
      </trkpt>
      <trkpt lat="43.36532" lon="6.14375">
        <ele>389.20001220703</ele>
        <time>2013-02-09T15:30:38Z</time>
      </trkpt>
      <trkpt lat="43.36532" lon="6.14375">
        <ele>389.20001220703</ele>
        <time>2013-02-09T15:30:58Z</time>
      </trkpt>
      <trkpt lat="43.36532" lon="6.14375">
        <ele>389.20001220703</ele>
        <time>2013-02-09T15:31:00Z</time>
      </trkpt>
      <trkpt lat="43.36532" lon="6.14375">
        <ele>389.20001220703</ele>
        <time>2013-02-09T15:31:18Z</time>
      </trkpt>
      <trkpt lat="43.36532" lon="6.14375">
        <ele>389.20001220703</ele>
        <time>2013-02-09T15:31:43Z</time>
      </trkpt>
      <trkpt lat="43.36532" lon="6.14375">
        <ele>389.20001220703</ele>
        <time>2013-02-09T15:32:01Z</time>
      </trkpt>
      <trkpt lat="43.36531" lon="6.14374">
        <ele>389.20001220703</ele>
        <time>2013-02-09T15:32:05Z</time>
      </trkpt>
      <trkpt lat="43.3653" lon="6.14372">
        <ele>389.20001220703</ele>
        <time>2013-02-09T15:32:07Z</time>
      </trkpt>
      <trkpt lat="43.36526" lon="6.14363">
        <ele>389.20001220703</ele>
        <time>2013-02-09T15:32:11Z</time>
      </trkpt>
      <trkpt lat="43.36526" lon="6.1436">
        <ele>389.20001220703</ele>
        <time>2013-02-09T15:32:12Z</time>
      </trkpt>
      <trkpt lat="43.36524" lon="6.14354">
        <ele>389.20001220703</ele>
        <time>2013-02-09T15:32:14Z</time>
      </trkpt>
      <trkpt lat="43.36523" lon="6.14348">
        <ele>389.20001220703</ele>
        <time>2013-02-09T15:32:16Z</time>
      </trkpt>
      <trkpt lat="43.36523" lon="6.14338">
        <ele>389.20001220703</ele>
        <time>2013-02-09T15:32:19Z</time>
      </trkpt>
      <trkpt lat="43.36529" lon="6.14321">
        <ele>389.20001220703</ele>
        <time>2013-02-09T15:32:24Z</time>
      </trkpt>
      <trkpt lat="43.36537" lon="6.14305">
        <ele>389.20001220703</ele>
        <time>2013-02-09T15:32:28Z</time>
      </trkpt>
      <trkpt lat="43.3654" lon="6.14295">
        <ele>389.20001220703</ele>
        <time>2013-02-09T15:32:30Z</time>
      </trkpt>
      <trkpt lat="43.36544" lon="6.14277">
        <ele>389.20001220703</ele>
        <time>2013-02-09T15:32:33Z</time>
      </trkpt>
      <trkpt lat="43.36548" lon="6.14257">
        <ele>389.20001220703</ele>
        <time>2013-02-09T15:32:36Z</time>
      </trkpt>
      <trkpt lat="43.36549" lon="6.14244">
        <ele>388.79998779297</ele>
        <time>2013-02-09T15:32:38Z</time>
      </trkpt>
      <trkpt lat="43.36552" lon="6.14222">
        <ele>387.39999389648</ele>
        <time>2013-02-09T15:32:41Z</time>
      </trkpt>
      <trkpt lat="43.36551" lon="6.14185">
        <ele>385.79998779297</ele>
        <time>2013-02-09T15:32:46Z</time>
      </trkpt>
      <trkpt lat="43.36551" lon="6.14178">
        <ele>384.79998779297</ele>
        <time>2013-02-09T15:32:47Z</time>
      </trkpt>
      <trkpt lat="43.3655" lon="6.14169">
        <ele>384.20001220703</ele>
        <time>2013-02-09T15:32:48Z</time>
      </trkpt>
      <trkpt lat="43.36545" lon="6.14128">
        <ele>382.79998779297</ele>
        <time>2013-02-09T15:32:53Z</time>
      </trkpt>
      <trkpt lat="43.36543" lon="6.1412">
        <ele>382.79998779297</ele>
        <time>2013-02-09T15:32:54Z</time>
      </trkpt>
      <trkpt lat="43.36539" lon="6.14101">
        <ele>382.79998779297</ele>
        <time>2013-02-09T15:32:56Z</time>
      </trkpt>
      <trkpt lat="43.36531" lon="6.14072">
        <ele>382.39999389648</ele>
        <time>2013-02-09T15:32:59Z</time>
      </trkpt>
      <trkpt lat="43.36528" lon="6.14062">
        <ele>382</ele>
        <time>2013-02-09T15:33:00Z</time>
      </trkpt>
      <trkpt lat="43.36526" lon="6.14051">
        <ele>381.39999389648</ele>
        <time>2013-02-09T15:33:01Z</time>
      </trkpt>
      <trkpt lat="43.36526" lon="6.14031">
        <ele>380.60000610352</ele>
        <time>2013-02-09T15:33:03Z</time>
      </trkpt>
      <trkpt lat="43.36528" lon="6.14021">
        <ele>380.60000610352</ele>
        <time>2013-02-09T15:33:04Z</time>
      </trkpt>
      <trkpt lat="43.3653" lon="6.13997">
        <ele>380.60000610352</ele>
        <time>2013-02-09T15:33:07Z</time>
      </trkpt>
      <trkpt lat="43.3653" lon="6.13989">
        <ele>380.60000610352</ele>
        <time>2013-02-09T15:33:08Z</time>
      </trkpt>
      <trkpt lat="43.36527" lon="6.13966">
        <ele>380.20001220703</ele>
        <time>2013-02-09T15:33:11Z</time>
      </trkpt>
      <trkpt lat="43.36526" lon="6.13958">
        <ele>379.39999389648</ele>
        <time>2013-02-09T15:33:12Z</time>
      </trkpt>
      <trkpt lat="43.36525" lon="6.13949">
        <ele>379</ele>
        <time>2013-02-09T15:33:13Z</time>
      </trkpt>
      <trkpt lat="43.36525" lon="6.13941">
        <ele>378.60000610352</ele>
        <time>2013-02-09T15:33:14Z</time>
      </trkpt>
      <trkpt lat="43.36525" lon="6.13933">
        <ele>378.60000610352</ele>
        <time>2013-02-09T15:33:15Z</time>
      </trkpt>
      <trkpt lat="43.36526" lon="6.13906">
        <ele>378.20001220703</ele>
        <time>2013-02-09T15:33:18Z</time>
      </trkpt>
      <trkpt lat="43.3653" lon="6.13879">
        <ele>376.79998779297</ele>
        <time>2013-02-09T15:33:21Z</time>
      </trkpt>
      <trkpt lat="43.36533" lon="6.13852">
        <ele>375.79998779297</ele>
        <time>2013-02-09T15:33:24Z</time>
      </trkpt>
      <trkpt lat="43.36534" lon="6.13833">
        <ele>374.79998779297</ele>
        <time>2013-02-09T15:33:26Z</time>
      </trkpt>
      <trkpt lat="43.36541" lon="6.13795">
        <ele>373</ele>
        <time>2013-02-09T15:33:30Z</time>
      </trkpt>
      <trkpt lat="43.36543" lon="6.13786">
        <ele>372.60000610352</ele>
        <time>2013-02-09T15:33:31Z</time>
      </trkpt>
      <trkpt lat="43.36546" lon="6.13764">
        <ele>371.79998779297</ele>
        <time>2013-02-09T15:33:33Z</time>
      </trkpt>
      <trkpt lat="43.36551" lon="6.1372">
        <ele>371.20001220703</ele>
        <time>2013-02-09T15:33:37Z</time>
      </trkpt>
      <trkpt lat="43.36555" lon="6.13697">
        <ele>370.20001220703</ele>
        <time>2013-02-09T15:33:39Z</time>
      </trkpt>
      <trkpt lat="43.36557" lon="6.13686">
        <ele>369.79998779297</ele>
        <time>2013-02-09T15:33:40Z</time>
      </trkpt>
      <trkpt lat="43.3656" lon="6.13673">
        <ele>369.20001220703</ele>
        <time>2013-02-09T15:33:41Z</time>
      </trkpt>
      <trkpt lat="43.36563" lon="6.13648">
        <ele>368</ele>
        <time>2013-02-09T15:33:43Z</time>
      </trkpt>
      <trkpt lat="43.36568" lon="6.13624">
        <ele>366.60000610352</ele>
        <time>2013-02-09T15:33:45Z</time>
      </trkpt>
      <trkpt lat="43.36573" lon="6.136">
        <ele>365.20001220703</ele>
        <time>2013-02-09T15:33:47Z</time>
      </trkpt>
      <trkpt lat="43.36576" lon="6.13589">
        <ele>364.39999389648</ele>
        <time>2013-02-09T15:33:48Z</time>
      </trkpt>
      <trkpt lat="43.36583" lon="6.13565">
        <ele>364</ele>
        <time>2013-02-09T15:33:50Z</time>
      </trkpt>
      <trkpt lat="43.36586" lon="6.13554">
        <ele>363.60000610352</ele>
        <time>2013-02-09T15:33:51Z</time>
      </trkpt>
      <trkpt lat="43.36595" lon="6.1352">
        <ele>362</ele>
        <time>2013-02-09T15:33:54Z</time>
      </trkpt>
      <trkpt lat="43.36599" lon="6.13496">
        <ele>361</ele>
        <time>2013-02-09T15:33:56Z</time>
      </trkpt>
      <trkpt lat="43.36603" lon="6.13475">
        <ele>359.79998779297</ele>
        <time>2013-02-09T15:33:58Z</time>
      </trkpt>
      <trkpt lat="43.36605" lon="6.13464">
        <ele>359.39999389648</ele>
        <time>2013-02-09T15:33:59Z</time>
      </trkpt>
      <trkpt lat="43.36607" lon="6.13454">
        <ele>359</ele>
        <time>2013-02-09T15:34:00Z</time>
      </trkpt>
      <trkpt lat="43.36624" lon="6.13399">
        <ele>356.79998779297</ele>
        <time>2013-02-09T15:34:06Z</time>
      </trkpt>
      <trkpt lat="43.36627" lon="6.13391">
        <ele>356.39999389648</ele>
        <time>2013-02-09T15:34:07Z</time>
      </trkpt>
      <trkpt lat="43.36629" lon="6.13382">
        <ele>356</ele>
        <time>2013-02-09T15:34:08Z</time>
      </trkpt>
      <trkpt lat="43.36631" lon="6.13374">
        <ele>355.60000610352</ele>
        <time>2013-02-09T15:34:09Z</time>
      </trkpt>
      <trkpt lat="43.36643" lon="6.13324">
        <ele>355.60000610352</ele>
        <time>2013-02-09T15:34:15Z</time>
      </trkpt>
      <trkpt lat="43.36645" lon="6.13316">
        <ele>355.20001220703</ele>
        <time>2013-02-09T15:34:16Z</time>
      </trkpt>
      <trkpt lat="43.36647" lon="6.13307">
        <ele>354.79998779297</ele>
        <time>2013-02-09T15:34:17Z</time>
      </trkpt>
      <trkpt lat="43.36652" lon="6.13279">
        <ele>353.39999389648</ele>
        <time>2013-02-09T15:34:20Z</time>
      </trkpt>
      <trkpt lat="43.36654" lon="6.13262">
        <ele>353</ele>
        <time>2013-02-09T15:34:22Z</time>
      </trkpt>
      <trkpt lat="43.36655" lon="6.13253">
        <ele>352.60000610352</ele>
        <time>2013-02-09T15:34:23Z</time>
      </trkpt>
      <trkpt lat="43.36656" lon="6.13243">
        <ele>352.20001220703</ele>
        <time>2013-02-09T15:34:24Z</time>
      </trkpt>
      <trkpt lat="43.36657" lon="6.13233">
        <ele>351.20001220703</ele>
        <time>2013-02-09T15:34:25Z</time>
      </trkpt>
      <trkpt lat="43.36657" lon="6.13224">
        <ele>350.60000610352</ele>
        <time>2013-02-09T15:34:26Z</time>
      </trkpt>
      <trkpt lat="43.3666" lon="6.13205">
        <ele>349.60000610352</ele>
        <time>2013-02-09T15:34:28Z</time>
      </trkpt>
      <trkpt lat="43.36663" lon="6.13185">
        <ele>349</ele>
        <time>2013-02-09T15:34:30Z</time>
      </trkpt>
      <trkpt lat="43.36663" lon="6.13176">
        <ele>348.60000610352</ele>
        <time>2013-02-09T15:34:31Z</time>
      </trkpt>
      <trkpt lat="43.36666" lon="6.1316">
        <ele>347.60000610352</ele>
        <time>2013-02-09T15:34:33Z</time>
      </trkpt>
      <trkpt lat="43.36673" lon="6.13151">
        <ele>346.60000610352</ele>
        <time>2013-02-09T15:34:35Z</time>
      </trkpt>
      <trkpt lat="43.36678" lon="6.13149">
        <ele>346.20001220703</ele>
        <time>2013-02-09T15:34:36Z</time>
      </trkpt>
      <trkpt lat="43.36689" lon="6.13145">
        <ele>345.20001220703</ele>
        <time>2013-02-09T15:34:38Z</time>
      </trkpt>
      <trkpt lat="43.36694" lon="6.13141">
        <ele>344.60000610352</ele>
        <time>2013-02-09T15:34:39Z</time>
      </trkpt>
      <trkpt lat="43.36705" lon="6.1313">
        <ele>344.20001220703</ele>
        <time>2013-02-09T15:34:41Z</time>
      </trkpt>
      <trkpt lat="43.36709" lon="6.13123">
        <ele>343.79998779297</ele>
        <time>2013-02-09T15:34:42Z</time>
      </trkpt>
      <trkpt lat="43.36716" lon="6.13104">
        <ele>343</ele>
        <time>2013-02-09T15:34:44Z</time>
      </trkpt>
      <trkpt lat="43.3672" lon="6.13084">
        <ele>342</ele>
        <time>2013-02-09T15:34:46Z</time>
      </trkpt>
      <trkpt lat="43.36727" lon="6.13066">
        <ele>341</ele>
        <time>2013-02-09T15:34:48Z</time>
      </trkpt>
      <trkpt lat="43.36734" lon="6.1305">
        <ele>339.60000610352</ele>
        <time>2013-02-09T15:34:50Z</time>
      </trkpt>
      <trkpt lat="43.36743" lon="6.13035">
        <ele>338.60000610352</ele>
        <time>2013-02-09T15:34:52Z</time>
      </trkpt>
      <trkpt lat="43.3676" lon="6.13004">
        <ele>337.20001220703</ele>
        <time>2013-02-09T15:34:56Z</time>
      </trkpt>
      <trkpt lat="43.36766" lon="6.12996">
        <ele>336.79998779297</ele>
        <time>2013-02-09T15:34:57Z</time>
      </trkpt>
      <trkpt lat="43.36771" lon="6.1299">
        <ele>336.20001220703</ele>
        <time>2013-02-09T15:34:58Z</time>
      </trkpt>
      <trkpt lat="43.368" lon="6.12958">
        <ele>332.39999389648</ele>
        <time>2013-02-09T15:35:03Z</time>
      </trkpt>
      <trkpt lat="43.36828" lon="6.12924">
        <ele>332</ele>
        <time>2013-02-09T15:35:08Z</time>
      </trkpt>
      <trkpt lat="43.36834" lon="6.12919">
        <ele>331.60000610352</ele>
        <time>2013-02-09T15:35:09Z</time>
      </trkpt>
      <trkpt lat="43.36846" lon="6.12907">
        <ele>330.60000610352</ele>
        <time>2013-02-09T15:35:11Z</time>
      </trkpt>
      <trkpt lat="43.36859" lon="6.12894">
        <ele>329.79998779297</ele>
        <time>2013-02-09T15:35:13Z</time>
      </trkpt>
      <trkpt lat="43.36893" lon="6.12864">
        <ele>326.39999389648</ele>
        <time>2013-02-09T15:35:18Z</time>
      </trkpt>
      <trkpt lat="43.36899" lon="6.12857">
        <ele>325.60000610352</ele>
        <time>2013-02-09T15:35:19Z</time>
      </trkpt>
      <trkpt lat="43.36904" lon="6.1285">
        <ele>325.20001220703</ele>
        <time>2013-02-09T15:35:20Z</time>
      </trkpt>
      <trkpt lat="43.36909" lon="6.12843">
        <ele>324.79998779297</ele>
        <time>2013-02-09T15:35:21Z</time>
      </trkpt>
      <trkpt lat="43.36913" lon="6.12835">
        <ele>324.39999389648</ele>
        <time>2013-02-09T15:35:22Z</time>
      </trkpt>
      <trkpt lat="43.36922" lon="6.12819">
        <ele>323.39999389648</ele>
        <time>2013-02-09T15:35:24Z</time>
      </trkpt>
      <trkpt lat="43.36937" lon="6.12786">
        <ele>323</ele>
        <time>2013-02-09T15:35:28Z</time>
      </trkpt>
      <trkpt lat="43.36943" lon="6.1277">
        <ele>322.20001220703</ele>
        <time>2013-02-09T15:35:30Z</time>
      </trkpt>
      <trkpt lat="43.3695" lon="6.12757">
        <ele>321.20001220703</ele>
        <time>2013-02-09T15:35:32Z</time>
      </trkpt>
      <trkpt lat="43.36958" lon="6.12744">
        <ele>321.20001220703</ele>
        <time>2013-02-09T15:35:34Z</time>
      </trkpt>
      <trkpt lat="43.36965" lon="6.12725">
        <ele>321.20001220703</ele>
        <time>2013-02-09T15:35:37Z</time>
      </trkpt>
      <trkpt lat="43.36973" lon="6.12708">
        <ele>320.79998779297</ele>
        <time>2013-02-09T15:35:40Z</time>
      </trkpt>
      <trkpt lat="43.36976" lon="6.12702">
        <ele>320.39999389648</ele>
        <time>2013-02-09T15:35:41Z</time>
      </trkpt>
      <trkpt lat="43.36979" lon="6.12697">
        <ele>320</ele>
        <time>2013-02-09T15:35:42Z</time>
      </trkpt>
      <trkpt lat="43.36981" lon="6.12692">
        <ele>319.60000610352</ele>
        <time>2013-02-09T15:35:43Z</time>
      </trkpt>
      <trkpt lat="43.36982" lon="6.12687">
        <ele>319</ele>
        <time>2013-02-09T15:35:44Z</time>
      </trkpt>
      <trkpt lat="43.36988" lon="6.12673">
        <ele>319</ele>
        <time>2013-02-09T15:35:48Z</time>
      </trkpt>
      <trkpt lat="43.36988" lon="6.12673">
        <ele>319</ele>
        <time>2013-02-09T15:35:52Z</time>
      </trkpt>
      <trkpt lat="43.36988" lon="6.12673">
        <ele>319</ele>
        <time>2013-02-09T15:36:20Z</time>
      </trkpt>
      <trkpt lat="43.36989" lon="6.12672">
        <ele>319</ele>
        <time>2013-02-09T15:37:55Z</time>
      </trkpt>
      <trkpt lat="43.36989" lon="6.12672">
        <ele>319</ele>
        <time>2013-02-09T15:38:13Z</time>
      </trkpt>
      <trkpt lat="43.36989" lon="6.12672">
        <ele>319</ele>
        <time>2013-02-09T15:38:25Z</time>
      </trkpt>
      <trkpt lat="43.3699" lon="6.12673">
        <ele>319</ele>
        <time>2013-02-09T15:38:41Z</time>
      </trkpt>
      <trkpt lat="43.3699" lon="6.12673">
        <ele>319</ele>
        <time>2013-02-09T15:38:57Z</time>
      </trkpt>
      <trkpt lat="43.3699" lon="6.12672">
        <ele>319</ele>
        <time>2013-02-09T15:39:03Z</time>
      </trkpt>
      <trkpt lat="43.36992" lon="6.12668">
        <ele>319</ele>
        <time>2013-02-09T15:39:05Z</time>
      </trkpt>
      <trkpt lat="43.36994" lon="6.12662">
        <ele>319</ele>
        <time>2013-02-09T15:39:07Z</time>
      </trkpt>
      <trkpt lat="43.36999" lon="6.12653">
        <ele>319</ele>
        <time>2013-02-09T15:39:10Z</time>
      </trkpt>
      <trkpt lat="43.37" lon="6.12649">
        <ele>319</ele>
        <time>2013-02-09T15:39:11Z</time>
      </trkpt>
      <trkpt lat="43.37009" lon="6.1263">
        <ele>319</ele>
        <time>2013-02-09T15:39:16Z</time>
      </trkpt>
      <trkpt lat="43.37012" lon="6.12622">
        <ele>319</ele>
        <time>2013-02-09T15:39:18Z</time>
      </trkpt>
      <trkpt lat="43.37041" lon="6.12566">
        <ele>316.79998779297</ele>
        <time>2013-02-09T15:39:31Z</time>
      </trkpt>
      <trkpt lat="43.37067" lon="6.1254">
        <ele>316.79998779297</ele>
        <time>2013-02-09T15:39:38Z</time>
      </trkpt>
      <trkpt lat="43.37088" lon="6.12521">
        <ele>316.39999389648</ele>
        <time>2013-02-09T15:39:43Z</time>
      </trkpt>
      <trkpt lat="43.37101" lon="6.12508">
        <ele>314.79998779297</ele>
        <time>2013-02-09T15:39:46Z</time>
      </trkpt>
      <trkpt lat="43.37108" lon="6.125">
        <ele>314.79998779297</ele>
        <time>2013-02-09T15:39:48Z</time>
      </trkpt>
      <trkpt lat="43.37117" lon="6.12484">
        <ele>314.79998779297</ele>
        <time>2013-02-09T15:39:51Z</time>
      </trkpt>
      <trkpt lat="43.37143" lon="6.12425">
        <ele>314.79998779297</ele>
        <time>2013-02-09T15:40:02Z</time>
      </trkpt>
      <trkpt lat="43.37147" lon="6.12415">
        <ele>314.79998779297</ele>
        <time>2013-02-09T15:40:04Z</time>
      </trkpt>
      <trkpt lat="43.37164" lon="6.12389">
        <ele>314.79998779297</ele>
        <time>2013-02-09T15:40:10Z</time>
      </trkpt>
      <trkpt lat="43.37169" lon="6.12382">
        <ele>314.79998779297</ele>
        <time>2013-02-09T15:40:12Z</time>
      </trkpt>
      <trkpt lat="43.37185" lon="6.12361">
        <ele>314.79998779297</ele>
        <time>2013-02-09T15:40:19Z</time>
      </trkpt>
      <trkpt lat="43.37196" lon="6.12348">
        <ele>314.79998779297</ele>
        <time>2013-02-09T15:40:24Z</time>
      </trkpt>
      <trkpt lat="43.37201" lon="6.1234">
        <ele>314.79998779297</ele>
        <time>2013-02-09T15:40:27Z</time>
      </trkpt>
      <trkpt lat="43.37209" lon="6.12326">
        <ele>315.20001220703</ele>
        <time>2013-02-09T15:40:32Z</time>
      </trkpt>
      <trkpt lat="43.37211" lon="6.12321">
        <ele>316</ele>
        <time>2013-02-09T15:40:34Z</time>
      </trkpt>
      <trkpt lat="43.3722" lon="6.12302">
        <ele>317.20001220703</ele>
        <time>2013-02-09T15:40:41Z</time>
      </trkpt>
      <trkpt lat="43.37221" lon="6.12299">
        <ele>317.60000610352</ele>
        <time>2013-02-09T15:40:42Z</time>
      </trkpt>
      <trkpt lat="43.37223" lon="6.12293">
        <ele>318.39999389648</ele>
        <time>2013-02-09T15:40:44Z</time>
      </trkpt>
      <trkpt lat="43.37228" lon="6.12279">
        <ele>318.79998779297</ele>
        <time>2013-02-09T15:40:49Z</time>
      </trkpt>
      <trkpt lat="43.37238" lon="6.12251">
        <ele>321</ele>
        <time>2013-02-09T15:41:01Z</time>
      </trkpt>
      <trkpt lat="43.37238" lon="6.12247">
        <ele>321</ele>
        <time>2013-02-09T15:41:03Z</time>
      </trkpt>
      <trkpt lat="43.37242" lon="6.12238">
        <ele>321</ele>
        <time>2013-02-09T15:41:08Z</time>
      </trkpt>
      <trkpt lat="43.37246" lon="6.12229">
        <ele>321.39999389648</ele>
        <time>2013-02-09T15:41:13Z</time>
      </trkpt>
      <trkpt lat="43.37248" lon="6.12223">
        <ele>322.60000610352</ele>
        <time>2013-02-09T15:41:16Z</time>
      </trkpt>
      <trkpt lat="43.37252" lon="6.12214">
        <ele>323</ele>
        <time>2013-02-09T15:41:21Z</time>
      </trkpt>
      <trkpt lat="43.37264" lon="6.1219">
        <ele>325.20001220703</ele>
        <time>2013-02-09T15:41:33Z</time>
      </trkpt>
      <trkpt lat="43.37271" lon="6.12176">
        <ele>325.20001220703</ele>
        <time>2013-02-09T15:41:40Z</time>
      </trkpt>
      <trkpt lat="43.37278" lon="6.12164">
        <ele>325.60000610352</ele>
        <time>2013-02-09T15:41:46Z</time>
      </trkpt>
      <trkpt lat="43.3728" lon="6.12161">
        <ele>326.39999389648</ele>
        <time>2013-02-09T15:41:48Z</time>
      </trkpt>
      <trkpt lat="43.37281" lon="6.12159">
        <ele>326.79998779297</ele>
        <time>2013-02-09T15:41:49Z</time>
      </trkpt>
      <trkpt lat="43.37288" lon="6.12149">
        <ele>328</ele>
        <time>2013-02-09T15:41:56Z</time>
      </trkpt>
      <trkpt lat="43.3729" lon="6.12147">
        <ele>329</ele>
        <time>2013-02-09T15:41:58Z</time>
      </trkpt>
      <trkpt lat="43.37292" lon="6.12146">
        <ele>329.39999389648</ele>
        <time>2013-02-09T15:42:00Z</time>
      </trkpt>
      <trkpt lat="43.37301" lon="6.12139">
        <ele>330.20001220703</ele>
        <time>2013-02-09T15:42:08Z</time>
      </trkpt>
      <trkpt lat="43.37303" lon="6.12137">
        <ele>331.20001220703</ele>
        <time>2013-02-09T15:42:10Z</time>
      </trkpt>
      <trkpt lat="43.3731" lon="6.12133">
        <ele>332.60000610352</ele>
        <time>2013-02-09T15:42:16Z</time>
      </trkpt>
      <trkpt lat="43.37315" lon="6.1213">
        <ele>333.79998779297</ele>
        <time>2013-02-09T15:42:19Z</time>
      </trkpt>
      <trkpt lat="43.37325" lon="6.12127">
        <ele>334.20001220703</ele>
        <time>2013-02-09T15:42:26Z</time>
      </trkpt>
      <trkpt lat="43.37329" lon="6.12124">
        <ele>335.79998779297</ele>
        <time>2013-02-09T15:42:30Z</time>
      </trkpt>
      <trkpt lat="43.37332" lon="6.12121">
        <ele>335.79998779297</ele>
        <time>2013-02-09T15:42:32Z</time>
      </trkpt>
      <trkpt lat="43.37339" lon="6.12115">
        <ele>335.79998779297</ele>
        <time>2013-02-09T15:42:38Z</time>
      </trkpt>
      <trkpt lat="43.37344" lon="6.12111">
        <ele>336.60000610352</ele>
        <time>2013-02-09T15:42:43Z</time>
      </trkpt>
      <trkpt lat="43.37346" lon="6.12108">
        <ele>337.60000610352</ele>
        <time>2013-02-09T15:42:45Z</time>
      </trkpt>
      <trkpt lat="43.37355" lon="6.121">
        <ele>338</ele>
        <time>2013-02-09T15:42:53Z</time>
      </trkpt>
      <trkpt lat="43.37362" lon="6.12097">
        <ele>338.39999389648</ele>
        <time>2013-02-09T15:42:58Z</time>
      </trkpt>
      <trkpt lat="43.37367" lon="6.12093">
        <ele>340</ele>
        <time>2013-02-09T15:43:02Z</time>
      </trkpt>
      <trkpt lat="43.37377" lon="6.12091">
        <ele>340</ele>
        <time>2013-02-09T15:43:10Z</time>
      </trkpt>
      <trkpt lat="43.37386" lon="6.1209">
        <ele>341.60000610352</ele>
        <time>2013-02-09T15:43:16Z</time>
      </trkpt>
      <trkpt lat="43.37395" lon="6.12089">
        <ele>342</ele>
        <time>2013-02-09T15:43:22Z</time>
      </trkpt>
      <trkpt lat="43.37407" lon="6.12089">
        <ele>342</ele>
        <time>2013-02-09T15:43:30Z</time>
      </trkpt>
      <trkpt lat="43.37415" lon="6.12088">
        <ele>344</ele>
        <time>2013-02-09T15:43:36Z</time>
      </trkpt>
      <trkpt lat="43.37421" lon="6.12086">
        <ele>344</ele>
        <time>2013-02-09T15:43:40Z</time>
      </trkpt>
      <trkpt lat="43.37429" lon="6.12084">
        <ele>344</ele>
        <time>2013-02-09T15:43:47Z</time>
      </trkpt>
      <trkpt lat="43.3743" lon="6.12084">
        <ele>344.60000610352</ele>
        <time>2013-02-09T15:43:48Z</time>
      </trkpt>
      <trkpt lat="43.3743" lon="6.12084">
        <ele>346.20001220703</ele>
        <time>2013-02-09T15:44:04Z</time>
      </trkpt>
      <trkpt lat="43.3743" lon="6.12084">
        <ele>346.20001220703</ele>
        <time>2013-02-09T15:44:55Z</time>
      </trkpt>
      <trkpt lat="43.3743" lon="6.12084">
        <ele>346.20001220703</ele>
        <time>2013-02-09T15:45:24Z</time>
      </trkpt>
      <trkpt lat="43.37436" lon="6.12084">
        <ele>346.20001220703</ele>
        <time>2013-02-09T15:45:28Z</time>
      </trkpt>
      <trkpt lat="43.37447" lon="6.12083">
        <ele>346.20001220703</ele>
        <time>2013-02-09T15:45:32Z</time>
      </trkpt>
      <trkpt lat="43.37455" lon="6.1208">
        <ele>345.79998779297</ele>
        <time>2013-02-09T15:45:34Z</time>
      </trkpt>
      <trkpt lat="43.37471" lon="6.12073">
        <ele>344</ele>
        <time>2013-02-09T15:45:38Z</time>
      </trkpt>
      <trkpt lat="43.37474" lon="6.1207">
        <ele>343.39999389648</ele>
        <time>2013-02-09T15:45:39Z</time>
      </trkpt>
      <trkpt lat="43.37478" lon="6.12068">
        <ele>342.79998779297</ele>
        <time>2013-02-09T15:45:40Z</time>
      </trkpt>
      <trkpt lat="43.37481" lon="6.12064">
        <ele>342.20001220703</ele>
        <time>2013-02-09T15:45:41Z</time>
      </trkpt>
      <trkpt lat="43.37485" lon="6.1206">
        <ele>341.60000610352</ele>
        <time>2013-02-09T15:45:42Z</time>
      </trkpt>
      <trkpt lat="43.37494" lon="6.1205">
        <ele>340.20001220703</ele>
        <time>2013-02-09T15:45:44Z</time>
      </trkpt>
      <trkpt lat="43.37506" lon="6.12039">
        <ele>338.79998779297</ele>
        <time>2013-02-09T15:45:46Z</time>
      </trkpt>
      <trkpt lat="43.37512" lon="6.12033">
        <ele>338.20001220703</ele>
        <time>2013-02-09T15:45:47Z</time>
      </trkpt>
      <trkpt lat="43.37518" lon="6.12026">
        <ele>337.39999389648</ele>
        <time>2013-02-09T15:45:48Z</time>
      </trkpt>
      <trkpt lat="43.37523" lon="6.1202">
        <ele>336.60000610352</ele>
        <time>2013-02-09T15:45:49Z</time>
      </trkpt>
      <trkpt lat="43.37529" lon="6.12014">
        <ele>335.79998779297</ele>
        <time>2013-02-09T15:45:50Z</time>
      </trkpt>
      <trkpt lat="43.37534" lon="6.12008">
        <ele>334.79998779297</ele>
        <time>2013-02-09T15:45:51Z</time>
      </trkpt>
      <trkpt lat="43.37539" lon="6.12001">
        <ele>334</ele>
        <time>2013-02-09T15:45:52Z</time>
      </trkpt>
      <trkpt lat="43.37546" lon="6.11994">
        <ele>333</ele>
        <time>2013-02-09T15:45:53Z</time>
      </trkpt>
      <trkpt lat="43.3756" lon="6.11982">
        <ele>330.79998779297</ele>
        <time>2013-02-09T15:45:55Z</time>
      </trkpt>
      <trkpt lat="43.37574" lon="6.11973">
        <ele>327.60000610352</ele>
        <time>2013-02-09T15:45:57Z</time>
      </trkpt>
      <trkpt lat="43.37587" lon="6.11965">
        <ele>325.79998779297</ele>
        <time>2013-02-09T15:45:59Z</time>
      </trkpt>
      <trkpt lat="43.37593" lon="6.1196">
        <ele>324.79998779297</ele>
        <time>2013-02-09T15:46:00Z</time>
      </trkpt>
      <trkpt lat="43.37598" lon="6.11953">
        <ele>323.79998779297</ele>
        <time>2013-02-09T15:46:01Z</time>
      </trkpt>
      <trkpt lat="43.37603" lon="6.11946">
        <ele>322.79998779297</ele>
        <time>2013-02-09T15:46:02Z</time>
      </trkpt>
      <trkpt lat="43.37613" lon="6.1193">
        <ele>321</ele>
        <time>2013-02-09T15:46:04Z</time>
      </trkpt>
      <trkpt lat="43.37628" lon="6.11905">
        <ele>318.20001220703</ele>
        <time>2013-02-09T15:46:07Z</time>
      </trkpt>
      <trkpt lat="43.37643" lon="6.11878">
        <ele>315.39999389648</ele>
        <time>2013-02-09T15:46:10Z</time>
      </trkpt>
      <trkpt lat="43.37653" lon="6.11863">
        <ele>313.79998779297</ele>
        <time>2013-02-09T15:46:12Z</time>
      </trkpt>
      <trkpt lat="43.37686" lon="6.11818">
        <ele>308.60000610352</ele>
        <time>2013-02-09T15:46:19Z</time>
      </trkpt>
      <trkpt lat="43.3769" lon="6.11809">
        <ele>308</ele>
        <time>2013-02-09T15:46:20Z</time>
      </trkpt>
      <trkpt lat="43.37698" lon="6.11787">
        <ele>305.60000610352</ele>
        <time>2013-02-09T15:46:22Z</time>
      </trkpt>
      <trkpt lat="43.37709" lon="6.11757">
        <ele>303.60000610352</ele>
        <time>2013-02-09T15:46:25Z</time>
      </trkpt>
      <trkpt lat="43.37713" lon="6.11747">
        <ele>303</ele>
        <time>2013-02-09T15:46:26Z</time>
      </trkpt>
      <trkpt lat="43.37717" lon="6.11739">
        <ele>302.20001220703</ele>
        <time>2013-02-09T15:46:27Z</time>
      </trkpt>
      <trkpt lat="43.37722" lon="6.1173">
        <ele>301.60000610352</ele>
        <time>2013-02-09T15:46:28Z</time>
      </trkpt>
      <trkpt lat="43.37727" lon="6.11721">
        <ele>301</ele>
        <time>2013-02-09T15:46:29Z</time>
      </trkpt>
      <trkpt lat="43.37731" lon="6.11712">
        <ele>300.60000610352</ele>
        <time>2013-02-09T15:46:30Z</time>
      </trkpt>
      <trkpt lat="43.37735" lon="6.11703">
        <ele>300.20001220703</ele>
        <time>2013-02-09T15:46:31Z</time>
      </trkpt>
      <trkpt lat="43.3774" lon="6.11694">
        <ele>299.60000610352</ele>
        <time>2013-02-09T15:46:32Z</time>
      </trkpt>
      <trkpt lat="43.37744" lon="6.11686">
        <ele>299.20001220703</ele>
        <time>2013-02-09T15:46:33Z</time>
      </trkpt>
      <trkpt lat="43.37748" lon="6.11677">
        <ele>298.79998779297</ele>
        <time>2013-02-09T15:46:34Z</time>
      </trkpt>
      <trkpt lat="43.37751" lon="6.1167">
        <ele>298.79998779297</ele>
        <time>2013-02-09T15:46:35Z</time>
      </trkpt>
      <trkpt lat="43.37756" lon="6.11656">
        <ele>298.79998779297</ele>
        <time>2013-02-09T15:46:38Z</time>
      </trkpt>
      <trkpt lat="43.37759" lon="6.11648">
        <ele>298.39999389648</ele>
        <time>2013-02-09T15:46:41Z</time>
      </trkpt>
      <trkpt lat="43.37761" lon="6.11645">
        <ele>297.79998779297</ele>
        <time>2013-02-09T15:46:42Z</time>
      </trkpt>
      <trkpt lat="43.37762" lon="6.11642">
        <ele>297.39999389648</ele>
        <time>2013-02-09T15:46:43Z</time>
      </trkpt>
      <trkpt lat="43.37764" lon="6.11639">
        <ele>296.79998779297</ele>
        <time>2013-02-09T15:46:44Z</time>
      </trkpt>
      <trkpt lat="43.37765" lon="6.11636">
        <ele>296.39999389648</ele>
        <time>2013-02-09T15:46:45Z</time>
      </trkpt>
      <trkpt lat="43.3777" lon="6.11629">
        <ele>296.39999389648</ele>
        <time>2013-02-09T15:46:47Z</time>
      </trkpt>
      <trkpt lat="43.37778" lon="6.11617">
        <ele>296.39999389648</ele>
        <time>2013-02-09T15:46:50Z</time>
      </trkpt>
      <trkpt lat="43.37788" lon="6.11604">
        <ele>296</ele>
        <time>2013-02-09T15:46:53Z</time>
      </trkpt>
      <trkpt lat="43.37795" lon="6.11594">
        <ele>295</ele>
        <time>2013-02-09T15:46:55Z</time>
      </trkpt>
      <trkpt lat="43.37799" lon="6.11589">
        <ele>294.60000610352</ele>
        <time>2013-02-09T15:46:56Z</time>
      </trkpt>
      <trkpt lat="43.37811" lon="6.11576">
        <ele>294.20001220703</ele>
        <time>2013-02-09T15:46:59Z</time>
      </trkpt>
      <trkpt lat="43.37814" lon="6.11572">
        <ele>294.20001220703</ele>
        <time>2013-02-09T15:47:00Z</time>
      </trkpt>
      <trkpt lat="43.3782" lon="6.11561">
        <ele>293.79998779297</ele>
        <time>2013-02-09T15:47:02Z</time>
      </trkpt>
      <trkpt lat="43.3783" lon="6.11535">
        <ele>292</ele>
        <time>2013-02-09T15:47:06Z</time>
      </trkpt>
      <trkpt lat="43.37842" lon="6.11502">
        <ele>291.60000610352</ele>
        <time>2013-02-09T15:47:11Z</time>
      </trkpt>
      <trkpt lat="43.37848" lon="6.11491">
        <ele>290.79998779297</ele>
        <time>2013-02-09T15:47:13Z</time>
      </trkpt>
      <trkpt lat="43.37851" lon="6.11486">
        <ele>290.20001220703</ele>
        <time>2013-02-09T15:47:14Z</time>
      </trkpt>
      <trkpt lat="43.37865" lon="6.11474">
        <ele>289.79998779297</ele>
        <time>2013-02-09T15:47:17Z</time>
      </trkpt>
      <trkpt lat="43.37881" lon="6.1147">
        <ele>289.39999389648</ele>
        <time>2013-02-09T15:47:20Z</time>
      </trkpt>
      <trkpt lat="43.37894" lon="6.11464">
        <ele>288.20001220703</ele>
        <time>2013-02-09T15:47:23Z</time>
      </trkpt>
      <trkpt lat="43.3791" lon="6.1145">
        <ele>287.60000610352</ele>
        <time>2013-02-09T15:47:27Z</time>
      </trkpt>
      <trkpt lat="43.37914" lon="6.11446">
        <ele>287.60000610352</ele>
        <time>2013-02-09T15:47:28Z</time>
      </trkpt>
      <trkpt lat="43.37925" lon="6.11432">
        <ele>287.60000610352</ele>
        <time>2013-02-09T15:47:31Z</time>
      </trkpt>
      <trkpt lat="43.37932" lon="6.11424">
        <ele>287.60000610352</ele>
        <time>2013-02-09T15:47:33Z</time>
      </trkpt>
      <trkpt lat="43.37956" lon="6.11389">
        <ele>287.60000610352</ele>
        <time>2013-02-09T15:47:40Z</time>
      </trkpt>
      <trkpt lat="43.37982" lon="6.1136">
        <ele>287.60000610352</ele>
        <time>2013-02-09T15:47:47Z</time>
      </trkpt>
      <trkpt lat="43.37994" lon="6.1134">
        <ele>287.60000610352</ele>
        <time>2013-02-09T15:47:51Z</time>
      </trkpt>
      <trkpt lat="43.38001" lon="6.11325">
        <ele>287.60000610352</ele>
        <time>2013-02-09T15:47:54Z</time>
      </trkpt>
      <trkpt lat="43.3801" lon="6.11306">
        <ele>287.60000610352</ele>
        <time>2013-02-09T15:47:58Z</time>
      </trkpt>
      <trkpt lat="43.38029" lon="6.11266">
        <ele>287.60000610352</ele>
        <time>2013-02-09T15:48:06Z</time>
      </trkpt>
      <trkpt lat="43.38039" lon="6.11246">
        <ele>287.60000610352</ele>
        <time>2013-02-09T15:48:10Z</time>
      </trkpt>
      <trkpt lat="43.38056" lon="6.11216">
        <ele>287.60000610352</ele>
        <time>2013-02-09T15:48:17Z</time>
      </trkpt>
      <trkpt lat="43.38072" lon="6.11199">
        <ele>287.60000610352</ele>
        <time>2013-02-09T15:48:23Z</time>
      </trkpt>
      <trkpt lat="43.38083" lon="6.11186">
        <ele>287.60000610352</ele>
        <time>2013-02-09T15:48:28Z</time>
      </trkpt>
      <trkpt lat="43.38085" lon="6.11182">
        <ele>287.60000610352</ele>
        <time>2013-02-09T15:48:29Z</time>
      </trkpt>
      <trkpt lat="43.38096" lon="6.11171">
        <ele>287.60000610352</ele>
        <time>2013-02-09T15:48:33Z</time>
      </trkpt>
      <trkpt lat="43.38116" lon="6.11148">
        <ele>286.60000610352</ele>
        <time>2013-02-09T15:48:38Z</time>
      </trkpt>
      <trkpt lat="43.38129" lon="6.11134">
        <ele>285</ele>
        <time>2013-02-09T15:48:41Z</time>
      </trkpt>
      <trkpt lat="43.38142" lon="6.1112">
        <ele>285</ele>
        <time>2013-02-09T15:48:44Z</time>
      </trkpt>
      <trkpt lat="43.38146" lon="6.11114">
        <ele>285</ele>
        <time>2013-02-09T15:48:45Z</time>
      </trkpt>
      <trkpt lat="43.38149" lon="6.11108">
        <ele>284.60000610352</ele>
        <time>2013-02-09T15:48:46Z</time>
      </trkpt>
      <trkpt lat="43.38153" lon="6.11101">
        <ele>284.20001220703</ele>
        <time>2013-02-09T15:48:47Z</time>
      </trkpt>
      <trkpt lat="43.38168" lon="6.11052">
        <ele>282.20001220703</ele>
        <time>2013-02-09T15:48:54Z</time>
      </trkpt>
      <trkpt lat="43.38183" lon="6.10971">
        <ele>281</ele>
        <time>2013-02-09T15:49:04Z</time>
      </trkpt>
      <trkpt lat="43.38187" lon="6.10954">
        <ele>280</ele>
        <time>2013-02-09T15:49:06Z</time>
      </trkpt>
      <trkpt lat="43.38192" lon="6.10929">
        <ele>278.60000610352</ele>
        <time>2013-02-09T15:49:09Z</time>
      </trkpt>
      <trkpt lat="43.38194" lon="6.10912">
        <ele>278.60000610352</ele>
        <time>2013-02-09T15:49:11Z</time>
      </trkpt>
      <trkpt lat="43.38197" lon="6.10872">
        <ele>276.20001220703</ele>
        <time>2013-02-09T15:49:16Z</time>
      </trkpt>
      <trkpt lat="43.38198" lon="6.10855">
        <ele>276.20001220703</ele>
        <time>2013-02-09T15:49:18Z</time>
      </trkpt>
      <trkpt lat="43.38202" lon="6.10832">
        <ele>276.20001220703</ele>
        <time>2013-02-09T15:49:21Z</time>
      </trkpt>
      <trkpt lat="43.38208" lon="6.10809">
        <ele>276.20001220703</ele>
        <time>2013-02-09T15:49:24Z</time>
      </trkpt>
      <trkpt lat="43.38221" lon="6.10765">
        <ele>275.79998779297</ele>
        <time>2013-02-09T15:49:30Z</time>
      </trkpt>
      <trkpt lat="43.38223" lon="6.10758">
        <ele>275.39999389648</ele>
        <time>2013-02-09T15:49:31Z</time>
      </trkpt>
      <trkpt lat="43.38237" lon="6.10723">
        <ele>274.20001220703</ele>
        <time>2013-02-09T15:49:36Z</time>
      </trkpt>
      <trkpt lat="43.38278" lon="6.1064">
        <ele>274.20001220703</ele>
        <time>2013-02-09T15:49:48Z</time>
      </trkpt>
      <trkpt lat="43.38295" lon="6.10604">
        <ele>272.79998779297</ele>
        <time>2013-02-09T15:49:53Z</time>
      </trkpt>
      <trkpt lat="43.38301" lon="6.10589">
        <ele>271.79998779297</ele>
        <time>2013-02-09T15:49:55Z</time>
      </trkpt>
      <trkpt lat="43.38313" lon="6.1056">
        <ele>271.79998779297</ele>
        <time>2013-02-09T15:49:59Z</time>
      </trkpt>
      <trkpt lat="43.38327" lon="6.10524">
        <ele>270.79998779297</ele>
        <time>2013-02-09T15:50:04Z</time>
      </trkpt>
      <trkpt lat="43.38332" lon="6.10509">
        <ele>269.79998779297</ele>
        <time>2013-02-09T15:50:06Z</time>
      </trkpt>
      <trkpt lat="43.38338" lon="6.10495">
        <ele>269.39999389648</ele>
        <time>2013-02-09T15:50:08Z</time>
      </trkpt>
      <trkpt lat="43.38347" lon="6.10486">
        <ele>269.39999389648</ele>
        <time>2013-02-09T15:50:10Z</time>
      </trkpt>
      <trkpt lat="43.38363" lon="6.10482">
        <ele>269.39999389648</ele>
        <time>2013-02-09T15:50:13Z</time>
      </trkpt>
      <trkpt lat="43.38369" lon="6.10482">
        <ele>269.39999389648</ele>
        <time>2013-02-09T15:50:14Z</time>
      </trkpt>
      <trkpt lat="43.38398" lon="6.10478">
        <ele>269.39999389648</ele>
        <time>2013-02-09T15:50:20Z</time>
      </trkpt>
      <trkpt lat="43.3841" lon="6.10477">
        <ele>269.39999389648</ele>
        <time>2013-02-09T15:50:23Z</time>
      </trkpt>
      <trkpt lat="43.38421" lon="6.10475">
        <ele>269.39999389648</ele>
        <time>2013-02-09T15:50:26Z</time>
      </trkpt>
      <trkpt lat="43.38439" lon="6.10468">
        <ele>269.39999389648</ele>
        <time>2013-02-09T15:50:32Z</time>
      </trkpt>
      <trkpt lat="43.38465" lon="6.10446">
        <ele>272.20001220703</ele>
        <time>2013-02-09T15:50:45Z</time>
      </trkpt>
      <trkpt lat="43.3847" lon="6.10442">
        <ele>273.39999389648</ele>
        <time>2013-02-09T15:50:48Z</time>
      </trkpt>
      <trkpt lat="43.38472" lon="6.10439">
        <ele>273.79998779297</ele>
        <time>2013-02-09T15:50:50Z</time>
      </trkpt>
      <trkpt lat="43.38475" lon="6.10436">
        <ele>274.79998779297</ele>
        <time>2013-02-09T15:50:52Z</time>
      </trkpt>
      <trkpt lat="43.38482" lon="6.1043">
        <ele>276.39999389648</ele>
        <time>2013-02-09T15:50:58Z</time>
      </trkpt>
      <trkpt lat="43.38482" lon="6.10429">
        <ele>276.79998779297</ele>
        <time>2013-02-09T15:50:59Z</time>
      </trkpt>
      <trkpt lat="43.38488" lon="6.10421">
        <ele>277.60000610352</ele>
        <time>2013-02-09T15:51:04Z</time>
      </trkpt>
      <trkpt lat="43.38499" lon="6.10405">
        <ele>279.60000610352</ele>
        <time>2013-02-09T15:51:15Z</time>
      </trkpt>
      <trkpt lat="43.38506" lon="6.10392">
        <ele>281.79998779297</ele>
        <time>2013-02-09T15:51:22Z</time>
      </trkpt>
      <trkpt lat="43.38511" lon="6.10383">
        <ele>281.79998779297</ele>
        <time>2013-02-09T15:51:28Z</time>
      </trkpt>
      <trkpt lat="43.38518" lon="6.10375">
        <ele>282.39999389648</ele>
        <time>2013-02-09T15:51:34Z</time>
      </trkpt>
      <trkpt lat="43.38521" lon="6.10373">
        <ele>283.20001220703</ele>
        <time>2013-02-09T15:51:36Z</time>
      </trkpt>
      <trkpt lat="43.38523" lon="6.1037">
        <ele>284</ele>
        <time>2013-02-09T15:51:38Z</time>
      </trkpt>
      <trkpt lat="43.38524" lon="6.10369">
        <ele>284</ele>
        <time>2013-02-09T15:51:39Z</time>
      </trkpt>
      <trkpt lat="43.38527" lon="6.10366">
        <ele>284</ele>
        <time>2013-02-09T15:51:41Z</time>
      </trkpt>
      <trkpt lat="43.38531" lon="6.10363">
        <ele>284</ele>
        <time>2013-02-09T15:51:48Z</time>
      </trkpt>
      <trkpt lat="43.38531" lon="6.10363">
        <ele>284</ele>
        <time>2013-02-09T15:52:04Z</time>
      </trkpt>
      <trkpt lat="43.38531" lon="6.10363">
        <ele>286</ele>
        <time>2013-02-09T15:53:15Z</time>
      </trkpt>
      <trkpt lat="43.38531" lon="6.10363">
        <ele>286</ele>
        <time>2013-02-09T15:53:27Z</time>
      </trkpt>
      <trkpt lat="43.38533" lon="6.10362">
        <ele>286</ele>
        <time>2013-02-09T15:53:32Z</time>
      </trkpt>
      <trkpt lat="43.38536" lon="6.1036">
        <ele>286</ele>
        <time>2013-02-09T15:53:34Z</time>
      </trkpt>
      <trkpt lat="43.38538" lon="6.10358">
        <ele>286</ele>
        <time>2013-02-09T15:53:36Z</time>
      </trkpt>
      <trkpt lat="43.38541" lon="6.10356">
        <ele>286</ele>
        <time>2013-02-09T15:53:38Z</time>
      </trkpt>
      <trkpt lat="43.38543" lon="6.10355">
        <ele>286</ele>
        <time>2013-02-09T15:53:39Z</time>
      </trkpt>
      <trkpt lat="43.38544" lon="6.10354">
        <ele>286</ele>
        <time>2013-02-09T15:53:40Z</time>
      </trkpt>
      <trkpt lat="43.38545" lon="6.10353">
        <ele>286</ele>
        <time>2013-02-09T15:53:41Z</time>
      </trkpt>
      <trkpt lat="43.38555" lon="6.10346">
        <ele>286</ele>
        <time>2013-02-09T15:53:47Z</time>
      </trkpt>
      <trkpt lat="43.38556" lon="6.10345">
        <ele>286</ele>
        <time>2013-02-09T15:53:48Z</time>
      </trkpt>
      <trkpt lat="43.3856" lon="6.10341">
        <ele>286</ele>
        <time>2013-02-09T15:53:51Z</time>
      </trkpt>
      <trkpt lat="43.38566" lon="6.10335">
        <ele>286.79998779297</ele>
        <time>2013-02-09T15:53:55Z</time>
      </trkpt>
      <trkpt lat="43.38568" lon="6.10334">
        <ele>287.20001220703</ele>
        <time>2013-02-09T15:53:56Z</time>
      </trkpt>
      <trkpt lat="43.38578" lon="6.10327">
        <ele>288</ele>
        <time>2013-02-09T15:54:01Z</time>
      </trkpt>
      <trkpt lat="43.38587" lon="6.1032">
        <ele>288</ele>
        <time>2013-02-09T15:54:06Z</time>
      </trkpt>
      <trkpt lat="43.38589" lon="6.1032">
        <ele>288</ele>
        <time>2013-02-09T15:54:07Z</time>
      </trkpt>
      <trkpt lat="43.38602" lon="6.10315">
        <ele>288</ele>
        <time>2013-02-09T15:54:12Z</time>
      </trkpt>
      <trkpt lat="43.38626" lon="6.10312">
        <ele>288</ele>
        <time>2013-02-09T15:54:20Z</time>
      </trkpt>
      <trkpt lat="43.38642" lon="6.10312">
        <ele>288</ele>
        <time>2013-02-09T15:54:26Z</time>
      </trkpt>
      <trkpt lat="43.38657" lon="6.10311">
        <ele>288</ele>
        <time>2013-02-09T15:54:32Z</time>
      </trkpt>
      <trkpt lat="43.38674" lon="6.103">
        <ele>288</ele>
        <time>2013-02-09T15:54:38Z</time>
      </trkpt>
      <trkpt lat="43.3868" lon="6.10287">
        <ele>288.39999389648</ele>
        <time>2013-02-09T15:54:42Z</time>
      </trkpt>
      <trkpt lat="43.38681" lon="6.10279">
        <ele>289.20001220703</ele>
        <time>2013-02-09T15:54:44Z</time>
      </trkpt>
      <trkpt lat="43.38682" lon="6.10275">
        <ele>289.60000610352</ele>
        <time>2013-02-09T15:54:45Z</time>
      </trkpt>
      <trkpt lat="43.38683" lon="6.10271">
        <ele>290</ele>
        <time>2013-02-09T15:54:46Z</time>
      </trkpt>
      <trkpt lat="43.38685" lon="6.10257">
        <ele>290</ele>
        <time>2013-02-09T15:54:50Z</time>
      </trkpt>
      <trkpt lat="43.38685" lon="6.10238">
        <ele>290</ele>
        <time>2013-02-09T15:54:56Z</time>
      </trkpt>
      <trkpt lat="43.38683" lon="6.10223">
        <ele>290</ele>
        <time>2013-02-09T15:55:02Z</time>
      </trkpt>
      <trkpt lat="43.38684" lon="6.1022">
        <ele>290</ele>
        <time>2013-02-09T15:55:04Z</time>
      </trkpt>
      <trkpt lat="43.38686" lon="6.10216">
        <ele>290.60000610352</ele>
        <time>2013-02-09T15:55:06Z</time>
      </trkpt>
      <trkpt lat="43.38688" lon="6.10214">
        <ele>291</ele>
        <time>2013-02-09T15:55:07Z</time>
      </trkpt>
      <trkpt lat="43.38689" lon="6.10213">
        <ele>291.39999389648</ele>
        <time>2013-02-09T15:55:08Z</time>
      </trkpt>
      <trkpt lat="43.38694" lon="6.10212">
        <ele>292.20001220703</ele>
        <time>2013-02-09T15:55:10Z</time>
      </trkpt>
      <trkpt lat="43.38698" lon="6.10211">
        <ele>292.20001220703</ele>
        <time>2013-02-09T15:55:12Z</time>
      </trkpt>
      <trkpt lat="43.38716" lon="6.10204">
        <ele>292.20001220703</ele>
        <time>2013-02-09T15:55:19Z</time>
      </trkpt>
      <trkpt lat="43.38767" lon="6.10185">
        <ele>294.20001220703</ele>
        <time>2013-02-09T15:55:39Z</time>
      </trkpt>
      <trkpt lat="43.3877" lon="6.10185">
        <ele>294.20001220703</ele>
        <time>2013-02-09T15:55:40Z</time>
      </trkpt>
      <trkpt lat="43.38794" lon="6.10175">
        <ele>296.60000610352</ele>
        <time>2013-02-09T15:55:49Z</time>
      </trkpt>
      <trkpt lat="43.38799" lon="6.10173">
        <ele>296.60000610352</ele>
        <time>2013-02-09T15:55:52Z</time>
      </trkpt>
      <trkpt lat="43.38812" lon="6.10169">
        <ele>297</ele>
        <time>2013-02-09T15:55:57Z</time>
      </trkpt>
      <trkpt lat="43.38814" lon="6.10168">
        <ele>297.39999389648</ele>
        <time>2013-02-09T15:55:58Z</time>
      </trkpt>
      <trkpt lat="43.38817" lon="6.10167">
        <ele>297.79998779297</ele>
        <time>2013-02-09T15:55:59Z</time>
      </trkpt>
      <trkpt lat="43.3882" lon="6.10167">
        <ele>298.20001220703</ele>
        <time>2013-02-09T15:56:00Z</time>
      </trkpt>
      <trkpt lat="43.38822" lon="6.10168">
        <ele>298.60000610352</ele>
        <time>2013-02-09T15:56:01Z</time>
      </trkpt>
      <trkpt lat="43.38825" lon="6.10174">
        <ele>298.60000610352</ele>
        <time>2013-02-09T15:56:03Z</time>
      </trkpt>
      <trkpt lat="43.38828" lon="6.10195">
        <ele>298.60000610352</ele>
        <time>2013-02-09T15:56:08Z</time>
      </trkpt>
      <trkpt lat="43.38832" lon="6.10233">
        <ele>298.60000610352</ele>
        <time>2013-02-09T15:56:14Z</time>
      </trkpt>
      <trkpt lat="43.38835" lon="6.10262">
        <ele>298.20001220703</ele>
        <time>2013-02-09T15:56:18Z</time>
      </trkpt>
      <trkpt lat="43.38836" lon="6.10277">
        <ele>297.20001220703</ele>
        <time>2013-02-09T15:56:20Z</time>
      </trkpt>
      <trkpt lat="43.38837" lon="6.10293">
        <ele>296.39999389648</ele>
        <time>2013-02-09T15:56:22Z</time>
      </trkpt>
      <trkpt lat="43.38844" lon="6.10361">
        <ele>294.20001220703</ele>
        <time>2013-02-09T15:56:30Z</time>
      </trkpt>
      <trkpt lat="43.38846" lon="6.1038">
        <ele>293.79998779297</ele>
        <time>2013-02-09T15:56:32Z</time>
      </trkpt>
      <trkpt lat="43.38847" lon="6.10389">
        <ele>293.20001220703</ele>
        <time>2013-02-09T15:56:33Z</time>
      </trkpt>
      <trkpt lat="43.38847" lon="6.1041">
        <ele>292.20001220703</ele>
        <time>2013-02-09T15:56:35Z</time>
      </trkpt>
      <trkpt lat="43.38847" lon="6.10421">
        <ele>291.79998779297</ele>
        <time>2013-02-09T15:56:36Z</time>
      </trkpt>
      <trkpt lat="43.38846" lon="6.10432">
        <ele>291.20001220703</ele>
        <time>2013-02-09T15:56:37Z</time>
      </trkpt>
      <trkpt lat="43.38843" lon="6.10453">
        <ele>289.60000610352</ele>
        <time>2013-02-09T15:56:39Z</time>
      </trkpt>
      <trkpt lat="43.38841" lon="6.10464">
        <ele>289.60000610352</ele>
        <time>2013-02-09T15:56:40Z</time>
      </trkpt>
      <trkpt lat="43.3884" lon="6.10475">
        <ele>289.20001220703</ele>
        <time>2013-02-09T15:56:41Z</time>
      </trkpt>
      <trkpt lat="43.38838" lon="6.10485">
        <ele>288.79998779297</ele>
        <time>2013-02-09T15:56:42Z</time>
      </trkpt>
      <trkpt lat="43.38834" lon="6.10505">
        <ele>288</ele>
        <time>2013-02-09T15:56:44Z</time>
      </trkpt>
      <trkpt lat="43.38832" lon="6.10514">
        <ele>287.60000610352</ele>
        <time>2013-02-09T15:56:45Z</time>
      </trkpt>
      <trkpt lat="43.38829" lon="6.10534">
        <ele>287.20001220703</ele>
        <time>2013-02-09T15:56:47Z</time>
      </trkpt>
      <trkpt lat="43.38824" lon="6.10561">
        <ele>286</ele>
        <time>2013-02-09T15:56:50Z</time>
      </trkpt>
      <trkpt lat="43.38822" lon="6.1057">
        <ele>285.60000610352</ele>
        <time>2013-02-09T15:56:51Z</time>
      </trkpt>
      <trkpt lat="43.38816" lon="6.10594">
        <ele>285.60000610352</ele>
        <time>2013-02-09T15:56:54Z</time>
      </trkpt>
      <trkpt lat="43.38807" lon="6.10625">
        <ele>285.60000610352</ele>
        <time>2013-02-09T15:56:58Z</time>
      </trkpt>
      <trkpt lat="43.38802" lon="6.10644">
        <ele>285.20001220703</ele>
        <time>2013-02-09T15:57:01Z</time>
      </trkpt>
      <trkpt lat="43.38797" lon="6.10661">
        <ele>283.60000610352</ele>
        <time>2013-02-09T15:57:04Z</time>
      </trkpt>
      <trkpt lat="43.38791" lon="6.10683">
        <ele>283.60000610352</ele>
        <time>2013-02-09T15:57:08Z</time>
      </trkpt>
      <trkpt lat="43.38787" lon="6.10695">
        <ele>283.60000610352</ele>
        <time>2013-02-09T15:57:10Z</time>
      </trkpt>
      <trkpt lat="43.38786" lon="6.10702">
        <ele>283.60000610352</ele>
        <time>2013-02-09T15:57:11Z</time>
      </trkpt>
      <trkpt lat="43.3878" lon="6.10725">
        <ele>283.60000610352</ele>
        <time>2013-02-09T15:57:15Z</time>
      </trkpt>
      <trkpt lat="43.38774" lon="6.10748">
        <ele>283.60000610352</ele>
        <time>2013-02-09T15:57:20Z</time>
      </trkpt>
      <trkpt lat="43.38775" lon="6.10751">
        <ele>283.60000610352</ele>
        <time>2013-02-09T15:57:21Z</time>
      </trkpt>
      <trkpt lat="43.38779" lon="6.10757">
        <ele>283.60000610352</ele>
        <time>2013-02-09T15:57:23Z</time>
      </trkpt>
      <trkpt lat="43.38786" lon="6.10759">
        <ele>283</ele>
        <time>2013-02-09T15:57:25Z</time>
      </trkpt>
      <trkpt lat="43.38808" lon="6.10759">
        <ele>281.39999389648</ele>
        <time>2013-02-09T15:57:29Z</time>
      </trkpt>
      <trkpt lat="43.38825" lon="6.10758">
        <ele>281.39999389648</ele>
        <time>2013-02-09T15:57:32Z</time>
      </trkpt>
      <trkpt lat="43.38849" lon="6.10756">
        <ele>281</ele>
        <time>2013-02-09T15:57:38Z</time>
      </trkpt>
      <trkpt lat="43.38858" lon="6.10755">
        <ele>280</ele>
        <time>2013-02-09T15:57:40Z</time>
      </trkpt>
      <trkpt lat="43.38867" lon="6.10755">
        <ele>279.20001220703</ele>
        <time>2013-02-09T15:57:42Z</time>
      </trkpt>
      <trkpt lat="43.38876" lon="6.10756">
        <ele>279.20001220703</ele>
        <time>2013-02-09T15:57:44Z</time>
      </trkpt>
      <trkpt lat="43.38894" lon="6.1076">
        <ele>279.20001220703</ele>
        <time>2013-02-09T15:57:48Z</time>
      </trkpt>
      <trkpt lat="43.38902" lon="6.10764">
        <ele>279.20001220703</ele>
        <time>2013-02-09T15:57:50Z</time>
      </trkpt>
      <trkpt lat="43.38906" lon="6.10765">
        <ele>279.20001220703</ele>
        <time>2013-02-09T15:57:51Z</time>
      </trkpt>
      <trkpt lat="43.38916" lon="6.10777">
        <ele>279.20001220703</ele>
        <time>2013-02-09T15:57:54Z</time>
      </trkpt>
      <trkpt lat="43.3892" lon="6.10793">
        <ele>279.20001220703</ele>
        <time>2013-02-09T15:57:57Z</time>
      </trkpt>
      <trkpt lat="43.38927" lon="6.10812">
        <ele>278.79998779297</ele>
        <time>2013-02-09T15:58:01Z</time>
      </trkpt>
      <trkpt lat="43.38935" lon="6.10823">
        <ele>277.60000610352</ele>
        <time>2013-02-09T15:58:04Z</time>
      </trkpt>
      <trkpt lat="43.38955" lon="6.10832">
        <ele>277.20001220703</ele>
        <time>2013-02-09T15:58:09Z</time>
      </trkpt>
      <trkpt lat="43.38963" lon="6.10835">
        <ele>277.20001220703</ele>
        <time>2013-02-09T15:58:11Z</time>
      </trkpt>
      <trkpt lat="43.38978" lon="6.10841">
        <ele>277.20001220703</ele>
        <time>2013-02-09T15:58:15Z</time>
      </trkpt>
      <trkpt lat="43.38997" lon="6.10845">
        <ele>277.20001220703</ele>
        <time>2013-02-09T15:58:20Z</time>
      </trkpt>
      <trkpt lat="43.39009" lon="6.10839">
        <ele>277.20001220703</ele>
        <time>2013-02-09T15:58:23Z</time>
      </trkpt>
      <trkpt lat="43.39025" lon="6.10832">
        <ele>277.20001220703</ele>
        <time>2013-02-09T15:58:27Z</time>
      </trkpt>
      <trkpt lat="43.39034" lon="6.1083">
        <ele>276.79998779297</ele>
        <time>2013-02-09T15:58:29Z</time>
      </trkpt>
      <trkpt lat="43.39056" lon="6.10822">
        <ele>275.20001220703</ele>
        <time>2013-02-09T15:58:34Z</time>
      </trkpt>
      <trkpt lat="43.39072" lon="6.10816">
        <ele>275.20001220703</ele>
        <time>2013-02-09T15:58:38Z</time>
      </trkpt>
      <trkpt lat="43.39089" lon="6.108">
        <ele>275.20001220703</ele>
        <time>2013-02-09T15:58:43Z</time>
      </trkpt>
      <trkpt lat="43.39104" lon="6.10783">
        <ele>275.20001220703</ele>
        <time>2013-02-09T15:58:48Z</time>
      </trkpt>
      <trkpt lat="43.39126" lon="6.10769">
        <ele>275.20001220703</ele>
        <time>2013-02-09T15:58:53Z</time>
      </trkpt>
      <trkpt lat="43.3914" lon="6.10761">
        <ele>274.79998779297</ele>
        <time>2013-02-09T15:58:57Z</time>
      </trkpt>
      <trkpt lat="43.39144" lon="6.10759">
        <ele>274.39999389648</ele>
        <time>2013-02-09T15:58:58Z</time>
      </trkpt>
      <trkpt lat="43.39155" lon="6.10748">
        <ele>273</ele>
        <time>2013-02-09T15:59:01Z</time>
      </trkpt>
      <trkpt lat="43.39166" lon="6.10736">
        <ele>273</ele>
        <time>2013-02-09T15:59:04Z</time>
      </trkpt>
      <trkpt lat="43.39175" lon="6.10714">
        <ele>273</ele>
        <time>2013-02-09T15:59:08Z</time>
      </trkpt>
      <trkpt lat="43.39176" lon="6.10708">
        <ele>273</ele>
        <time>2013-02-09T15:59:09Z</time>
      </trkpt>
      <trkpt lat="43.3918" lon="6.10687">
        <ele>272.60000610352</ele>
        <time>2013-02-09T15:59:12Z</time>
      </trkpt>
      <trkpt lat="43.39182" lon="6.10674">
        <ele>271.79998779297</ele>
        <time>2013-02-09T15:59:14Z</time>
      </trkpt>
      <trkpt lat="43.39184" lon="6.10668">
        <ele>271.39999389648</ele>
        <time>2013-02-09T15:59:15Z</time>
      </trkpt>
      <trkpt lat="43.39186" lon="6.10662">
        <ele>270.79998779297</ele>
        <time>2013-02-09T15:59:16Z</time>
      </trkpt>
      <trkpt lat="43.39194" lon="6.10645">
        <ele>270.79998779297</ele>
        <time>2013-02-09T15:59:19Z</time>
      </trkpt>
      <trkpt lat="43.392" lon="6.10637">
        <ele>270.79998779297</ele>
        <time>2013-02-09T15:59:21Z</time>
      </trkpt>
      <trkpt lat="43.39209" lon="6.10635">
        <ele>270.79998779297</ele>
        <time>2013-02-09T15:59:23Z</time>
      </trkpt>
      <trkpt lat="43.39234" lon="6.10609">
        <ele>270.79998779297</ele>
        <time>2013-02-09T15:59:31Z</time>
      </trkpt>
      <trkpt lat="43.39251" lon="6.10596">
        <ele>270.79998779297</ele>
        <time>2013-02-09T15:59:37Z</time>
      </trkpt>
      <trkpt lat="43.39264" lon="6.10576">
        <ele>270.79998779297</ele>
        <time>2013-02-09T15:59:42Z</time>
      </trkpt>
      <trkpt lat="43.39277" lon="6.10535">
        <ele>270.79998779297</ele>
        <time>2013-02-09T15:59:50Z</time>
      </trkpt>
      <trkpt lat="43.39284" lon="6.10521">
        <ele>270.79998779297</ele>
        <time>2013-02-09T15:59:53Z</time>
      </trkpt>
      <trkpt lat="43.39289" lon="6.10511">
        <ele>270.79998779297</ele>
        <time>2013-02-09T15:59:55Z</time>
      </trkpt>
      <trkpt lat="43.39296" lon="6.10493">
        <ele>270.79998779297</ele>
        <time>2013-02-09T15:59:58Z</time>
      </trkpt>
      <trkpt lat="43.39301" lon="6.10483">
        <ele>270.79998779297</ele>
        <time>2013-02-09T16:00:00Z</time>
      </trkpt>
      <trkpt lat="43.39307" lon="6.10471">
        <ele>270.39999389648</ele>
        <time>2013-02-09T16:00:02Z</time>
      </trkpt>
      <trkpt lat="43.39316" lon="6.10456">
        <ele>269.20001220703</ele>
        <time>2013-02-09T16:00:05Z</time>
      </trkpt>
      <trkpt lat="43.39318" lon="6.10451">
        <ele>268.79998779297</ele>
        <time>2013-02-09T16:00:06Z</time>
      </trkpt>
      <trkpt lat="43.39331" lon="6.10433">
        <ele>268.79998779297</ele>
        <time>2013-02-09T16:00:10Z</time>
      </trkpt>
      <trkpt lat="43.39352" lon="6.1042">
        <ele>268.20001220703</ele>
        <time>2013-02-09T16:00:16Z</time>
      </trkpt>
      <trkpt lat="43.39361" lon="6.10419">
        <ele>267.39999389648</ele>
        <time>2013-02-09T16:00:18Z</time>
      </trkpt>
      <trkpt lat="43.39365" lon="6.10415">
        <ele>267</ele>
        <time>2013-02-09T16:00:19Z</time>
      </trkpt>
      <trkpt lat="43.39368" lon="6.10409">
        <ele>266.39999389648</ele>
        <time>2013-02-09T16:00:20Z</time>
      </trkpt>
      <trkpt lat="43.3937" lon="6.10391">
        <ele>265.20001220703</ele>
        <time>2013-02-09T16:00:23Z</time>
      </trkpt>
      <trkpt lat="43.39372" lon="6.10385">
        <ele>264.79998779297</ele>
        <time>2013-02-09T16:00:24Z</time>
      </trkpt>
      <trkpt lat="43.39374" lon="6.10381">
        <ele>264.39999389648</ele>
        <time>2013-02-09T16:00:25Z</time>
      </trkpt>
      <trkpt lat="43.3938" lon="6.10373">
        <ele>264.39999389648</ele>
        <time>2013-02-09T16:00:27Z</time>
      </trkpt>
      <trkpt lat="43.39386" lon="6.10365">
        <ele>264.39999389648</ele>
        <time>2013-02-09T16:00:29Z</time>
      </trkpt>
      <trkpt lat="43.39395" lon="6.10347">
        <ele>264.39999389648</ele>
        <time>2013-02-09T16:00:33Z</time>
      </trkpt>
      <trkpt lat="43.39412" lon="6.10322">
        <ele>264.39999389648</ele>
        <time>2013-02-09T16:00:40Z</time>
      </trkpt>
      <trkpt lat="43.39417" lon="6.10315">
        <ele>264</ele>
        <time>2013-02-09T16:00:42Z</time>
      </trkpt>
      <trkpt lat="43.39421" lon="6.10307">
        <ele>263.20001220703</ele>
        <time>2013-02-09T16:00:44Z</time>
      </trkpt>
      <trkpt lat="43.39427" lon="6.10301">
        <ele>262.39999389648</ele>
        <time>2013-02-09T16:00:46Z</time>
      </trkpt>
      <trkpt lat="43.3944" lon="6.10293">
        <ele>262.39999389648</ele>
        <time>2013-02-09T16:00:50Z</time>
      </trkpt>
      <trkpt lat="43.3945" lon="6.10285">
        <ele>262.39999389648</ele>
        <time>2013-02-09T16:00:53Z</time>
      </trkpt>
      <trkpt lat="43.39461" lon="6.10275">
        <ele>262.39999389648</ele>
        <time>2013-02-09T16:00:56Z</time>
      </trkpt>
      <trkpt lat="43.39464" lon="6.1027">
        <ele>262.39999389648</ele>
        <time>2013-02-09T16:00:57Z</time>
      </trkpt>
      <trkpt lat="43.39473" lon="6.1026">
        <ele>262</ele>
        <time>2013-02-09T16:01:00Z</time>
      </trkpt>
      <trkpt lat="43.3948" lon="6.10252">
        <ele>261</ele>
        <time>2013-02-09T16:01:02Z</time>
      </trkpt>
      <trkpt lat="43.39484" lon="6.10247">
        <ele>260.60000610352</ele>
        <time>2013-02-09T16:01:03Z</time>
      </trkpt>
      <trkpt lat="43.3949" lon="6.10236">
        <ele>260.20001220703</ele>
        <time>2013-02-09T16:01:05Z</time>
      </trkpt>
      <trkpt lat="43.39494" lon="6.10225">
        <ele>260.20001220703</ele>
        <time>2013-02-09T16:01:07Z</time>
      </trkpt>
      <trkpt lat="43.3951" lon="6.10164">
        <ele>258.20001220703</ele>
        <time>2013-02-09T16:01:18Z</time>
      </trkpt>
      <trkpt lat="43.39517" lon="6.10144">
        <ele>258.20001220703</ele>
        <time>2013-02-09T16:01:22Z</time>
      </trkpt>
      <trkpt lat="43.39519" lon="6.10133">
        <ele>258.20001220703</ele>
        <time>2013-02-09T16:01:24Z</time>
      </trkpt>
      <trkpt lat="43.39524" lon="6.10116">
        <ele>258.20001220703</ele>
        <time>2013-02-09T16:01:27Z</time>
      </trkpt>
      <trkpt lat="43.39526" lon="6.10106">
        <ele>257.20001220703</ele>
        <time>2013-02-09T16:01:29Z</time>
      </trkpt>
      <trkpt lat="43.39538" lon="6.10089">
        <ele>256</ele>
        <time>2013-02-09T16:01:33Z</time>
      </trkpt>
      <trkpt lat="43.39545" lon="6.1007">
        <ele>256</ele>
        <time>2013-02-09T16:01:36Z</time>
      </trkpt>
      <trkpt lat="43.39547" lon="6.10064">
        <ele>256</ele>
        <time>2013-02-09T16:01:37Z</time>
      </trkpt>
      <trkpt lat="43.39558" lon="6.10021">
        <ele>256</ele>
        <time>2013-02-09T16:01:44Z</time>
      </trkpt>
      <trkpt lat="43.39551" lon="6.10007">
        <ele>254.60000610352</ele>
        <time>2013-02-09T16:01:47Z</time>
      </trkpt>
      <trkpt lat="43.3955" lon="6.10002">
        <ele>254.19999694824</ele>
        <time>2013-02-09T16:01:48Z</time>
      </trkpt>
      <trkpt lat="43.39551" lon="6.09991">
        <ele>253.80000305176</ele>
        <time>2013-02-09T16:01:50Z</time>
      </trkpt>
      <trkpt lat="43.39553" lon="6.09975">
        <ele>253.80000305176</ele>
        <time>2013-02-09T16:01:54Z</time>
      </trkpt>
      <trkpt lat="43.39555" lon="6.09954">
        <ele>253.80000305176</ele>
        <time>2013-02-09T16:02:00Z</time>
      </trkpt>
      <trkpt lat="43.39553" lon="6.09944">
        <ele>253.80000305176</ele>
        <time>2013-02-09T16:02:03Z</time>
      </trkpt>
      <trkpt lat="43.39551" lon="6.09935">
        <ele>254.19999694824</ele>
        <time>2013-02-09T16:02:06Z</time>
      </trkpt>
      <trkpt lat="43.3955" lon="6.09933">
        <ele>254.80000305176</ele>
        <time>2013-02-09T16:02:07Z</time>
      </trkpt>
      <trkpt lat="43.39549" lon="6.0993">
        <ele>255.19999694824</ele>
        <time>2013-02-09T16:02:08Z</time>
      </trkpt>
      <trkpt lat="43.39546" lon="6.09925">
        <ele>256.20001220703</ele>
        <time>2013-02-09T16:02:10Z</time>
      </trkpt>
      <trkpt lat="43.39546" lon="6.09908">
        <ele>256.20001220703</ele>
        <time>2013-02-09T16:02:16Z</time>
      </trkpt>
      <trkpt lat="43.39555" lon="6.09883">
        <ele>258.20001220703</ele>
        <time>2013-02-09T16:02:25Z</time>
      </trkpt>
      <trkpt lat="43.39557" lon="6.09867">
        <ele>258.20001220703</ele>
        <time>2013-02-09T16:02:30Z</time>
      </trkpt>
      <trkpt lat="43.39558" lon="6.09865">
        <ele>258.20001220703</ele>
        <time>2013-02-09T16:02:31Z</time>
      </trkpt>
      <trkpt lat="43.3956" lon="6.09845">
        <ele>258.20001220703</ele>
        <time>2013-02-09T16:02:38Z</time>
      </trkpt>
      <trkpt lat="43.39561" lon="6.09835">
        <ele>258.20001220703</ele>
        <time>2013-02-09T16:02:42Z</time>
      </trkpt>
      <trkpt lat="43.39562" lon="6.09818">
        <ele>258.20001220703</ele>
        <time>2013-02-09T16:02:49Z</time>
      </trkpt>
      <trkpt lat="43.39563" lon="6.09811">
        <ele>258.20001220703</ele>
        <time>2013-02-09T16:02:51Z</time>
      </trkpt>
      <trkpt lat="43.39569" lon="6.09787">
        <ele>258.20001220703</ele>
        <time>2013-02-09T16:02:58Z</time>
      </trkpt>
      <trkpt lat="43.39575" lon="6.09764">
        <ele>258.20001220703</ele>
        <time>2013-02-09T16:03:04Z</time>
      </trkpt>
      <trkpt lat="43.39582" lon="6.09741">
        <ele>258.20001220703</ele>
        <time>2013-02-09T16:03:10Z</time>
      </trkpt>
      <trkpt lat="43.39588" lon="6.09719">
        <ele>258.20001220703</ele>
        <time>2013-02-09T16:03:15Z</time>
      </trkpt>
      <trkpt lat="43.39597" lon="6.09682">
        <ele>258.20001220703</ele>
        <time>2013-02-09T16:03:23Z</time>
      </trkpt>
      <trkpt lat="43.39603" lon="6.09652">
        <ele>258.20001220703</ele>
        <time>2013-02-09T16:03:29Z</time>
      </trkpt>
      <trkpt lat="43.39608" lon="6.09627">
        <ele>258.20001220703</ele>
        <time>2013-02-09T16:03:35Z</time>
      </trkpt>
      <trkpt lat="43.39612" lon="6.09611">
        <ele>258.20001220703</ele>
        <time>2013-02-09T16:03:40Z</time>
      </trkpt>
      <trkpt lat="43.39614" lon="6.09603">
        <ele>258.20001220703</ele>
        <time>2013-02-09T16:03:44Z</time>
      </trkpt>
      <trkpt lat="43.39614" lon="6.09599">
        <ele>258.20001220703</ele>
        <time>2013-02-09T16:03:47Z</time>
      </trkpt>
      <trkpt lat="43.39615" lon="6.09596">
        <ele>258.20001220703</ele>
        <time>2013-02-09T16:03:49Z</time>
      </trkpt>
      <trkpt lat="43.39616" lon="6.09591">
        <ele>258.20001220703</ele>
        <time>2013-02-09T16:03:52Z</time>
      </trkpt>
      <trkpt lat="43.3962" lon="6.09584">
        <ele>258.20001220703</ele>
        <time>2013-02-09T16:03:56Z</time>
      </trkpt>
      <trkpt lat="43.39623" lon="6.09576">
        <ele>258.20001220703</ele>
        <time>2013-02-09T16:03:59Z</time>
      </trkpt>
      <trkpt lat="43.39627" lon="6.09566">
        <ele>258.20001220703</ele>
        <time>2013-02-09T16:04:02Z</time>
      </trkpt>
      <trkpt lat="43.39636" lon="6.09546">
        <ele>258.20001220703</ele>
        <time>2013-02-09T16:04:06Z</time>
      </trkpt>
      <trkpt lat="43.39639" lon="6.09542">
        <ele>257.79998779297</ele>
        <time>2013-02-09T16:04:07Z</time>
      </trkpt>
      <trkpt lat="43.39642" lon="6.09538">
        <ele>257.20001220703</ele>
        <time>2013-02-09T16:04:08Z</time>
      </trkpt>
      <trkpt lat="43.39646" lon="6.09534">
        <ele>256.79998779297</ele>
        <time>2013-02-09T16:04:09Z</time>
      </trkpt>
      <trkpt lat="43.39654" lon="6.09525">
        <ele>256</ele>
        <time>2013-02-09T16:04:11Z</time>
      </trkpt>
      <trkpt lat="43.39661" lon="6.09512">
        <ele>255.39999389648</ele>
        <time>2013-02-09T16:04:13Z</time>
      </trkpt>
      <trkpt lat="43.39664" lon="6.09505">
        <ele>254.80000305176</ele>
        <time>2013-02-09T16:04:14Z</time>
      </trkpt>
      <trkpt lat="43.39671" lon="6.09482">
        <ele>253</ele>
        <time>2013-02-09T16:04:17Z</time>
      </trkpt>
      <trkpt lat="43.39675" lon="6.09465">
        <ele>251.19999694824</ele>
        <time>2013-02-09T16:04:19Z</time>
      </trkpt>
      <trkpt lat="43.3968" lon="6.0945">
        <ele>249.80000305176</ele>
        <time>2013-02-09T16:04:21Z</time>
      </trkpt>
      <trkpt lat="43.39684" lon="6.09443">
        <ele>249</ele>
        <time>2013-02-09T16:04:22Z</time>
      </trkpt>
      <trkpt lat="43.39688" lon="6.09437">
        <ele>248.19999694824</ele>
        <time>2013-02-09T16:04:23Z</time>
      </trkpt>
      <trkpt lat="43.39693" lon="6.09432">
        <ele>247.39999389648</ele>
        <time>2013-02-09T16:04:24Z</time>
      </trkpt>
      <trkpt lat="43.39698" lon="6.09429">
        <ele>247</ele>
        <time>2013-02-09T16:04:25Z</time>
      </trkpt>
      <trkpt lat="43.39711" lon="6.09422">
        <ele>245.80000305176</ele>
        <time>2013-02-09T16:04:27Z</time>
      </trkpt>
      <trkpt lat="43.39717" lon="6.09418">
        <ele>245.19999694824</ele>
        <time>2013-02-09T16:04:28Z</time>
      </trkpt>
      <trkpt lat="43.39723" lon="6.09413">
        <ele>244.60000610352</ele>
        <time>2013-02-09T16:04:29Z</time>
      </trkpt>
      <trkpt lat="43.39733" lon="6.094">
        <ele>242.80000305176</ele>
        <time>2013-02-09T16:04:31Z</time>
      </trkpt>
      <trkpt lat="43.39737" lon="6.09394">
        <ele>242.19999694824</ele>
        <time>2013-02-09T16:04:32Z</time>
      </trkpt>
      <trkpt lat="43.39745" lon="6.09377">
        <ele>242.19999694824</ele>
        <time>2013-02-09T16:04:35Z</time>
      </trkpt>
      <trkpt lat="43.39754" lon="6.09357">
        <ele>242.19999694824</ele>
        <time>2013-02-09T16:04:39Z</time>
      </trkpt>
      <trkpt lat="43.39756" lon="6.09352">
        <ele>242.19999694824</ele>
        <time>2013-02-09T16:04:40Z</time>
      </trkpt>
      <trkpt lat="43.39761" lon="6.09343">
        <ele>241.39999389648</ele>
        <time>2013-02-09T16:04:42Z</time>
      </trkpt>
      <trkpt lat="43.39763" lon="6.09338">
        <ele>241</ele>
        <time>2013-02-09T16:04:43Z</time>
      </trkpt>
      <trkpt lat="43.39769" lon="6.09329">
        <ele>240.19999694824</ele>
        <time>2013-02-09T16:04:45Z</time>
      </trkpt>
      <trkpt lat="43.39778" lon="6.09306">
        <ele>240.19999694824</ele>
        <time>2013-02-09T16:04:50Z</time>
      </trkpt>
      <trkpt lat="43.39785" lon="6.09288">
        <ele>240.19999694824</ele>
        <time>2013-02-09T16:04:54Z</time>
      </trkpt>
      <trkpt lat="43.3979" lon="6.09263">
        <ele>240.19999694824</ele>
        <time>2013-02-09T16:04:59Z</time>
      </trkpt>
      <trkpt lat="43.39796" lon="6.09237">
        <ele>240.19999694824</ele>
        <time>2013-02-09T16:05:04Z</time>
      </trkpt>
      <trkpt lat="43.39798" lon="6.09216">
        <ele>240.19999694824</ele>
        <time>2013-02-09T16:05:08Z</time>
      </trkpt>
      <trkpt lat="43.39799" lon="6.09206">
        <ele>240.19999694824</ele>
        <time>2013-02-09T16:05:10Z</time>
      </trkpt>
      <trkpt lat="43.398" lon="6.09175">
        <ele>240.19999694824</ele>
        <time>2013-02-09T16:05:16Z</time>
      </trkpt>
      <trkpt lat="43.39799" lon="6.09166">
        <ele>240.60000610352</ele>
        <time>2013-02-09T16:05:18Z</time>
      </trkpt>
      <trkpt lat="43.39799" lon="6.09158">
        <ele>242</ele>
        <time>2013-02-09T16:05:20Z</time>
      </trkpt>
      <trkpt lat="43.398" lon="6.09155">
        <ele>242.39999389648</ele>
        <time>2013-02-09T16:05:21Z</time>
      </trkpt>
      <trkpt lat="43.39802" lon="6.09142">
        <ele>242.39999389648</ele>
        <time>2013-02-09T16:05:24Z</time>
      </trkpt>
      <trkpt lat="43.39803" lon="6.09133">
        <ele>242.39999389648</ele>
        <time>2013-02-09T16:05:26Z</time>
      </trkpt>
      <trkpt lat="43.39809" lon="6.09108">
        <ele>242.39999389648</ele>
        <time>2013-02-09T16:05:32Z</time>
      </trkpt>
      <trkpt lat="43.39817" lon="6.09076">
        <ele>242.39999389648</ele>
        <time>2013-02-09T16:05:40Z</time>
      </trkpt>
      <trkpt lat="43.3982" lon="6.09067">
        <ele>242.39999389648</ele>
        <time>2013-02-09T16:05:43Z</time>
      </trkpt>
      <trkpt lat="43.39824" lon="6.09059">
        <ele>242.39999389648</ele>
        <time>2013-02-09T16:05:46Z</time>
      </trkpt>
      <trkpt lat="43.39826" lon="6.09056">
        <ele>242.39999389648</ele>
        <time>2013-02-09T16:05:47Z</time>
      </trkpt>
      <trkpt lat="43.3984" lon="6.09037">
        <ele>242.39999389648</ele>
        <time>2013-02-09T16:05:52Z</time>
      </trkpt>
      <trkpt lat="43.3986" lon="6.09015">
        <ele>242.39999389648</ele>
        <time>2013-02-09T16:05:57Z</time>
      </trkpt>
      <trkpt lat="43.39875" lon="6.08996">
        <ele>242.39999389648</ele>
        <time>2013-02-09T16:06:01Z</time>
      </trkpt>
      <trkpt lat="43.39879" lon="6.08993">
        <ele>242</ele>
        <time>2013-02-09T16:06:02Z</time>
      </trkpt>
      <trkpt lat="43.39884" lon="6.0899">
        <ele>241.60000610352</ele>
        <time>2013-02-09T16:06:03Z</time>
      </trkpt>
      <trkpt lat="43.39898" lon="6.08986">
        <ele>240.39999389648</ele>
        <time>2013-02-09T16:06:06Z</time>
      </trkpt>
      <trkpt lat="43.39902" lon="6.08987">
        <ele>240.39999389648</ele>
        <time>2013-02-09T16:06:07Z</time>
      </trkpt>
      <trkpt lat="43.39919" lon="6.08987">
        <ele>240.39999389648</ele>
        <time>2013-02-09T16:06:10Z</time>
      </trkpt>
      <trkpt lat="43.39925" lon="6.08986">
        <ele>240</ele>
        <time>2013-02-09T16:06:11Z</time>
      </trkpt>
      <trkpt lat="43.39945" lon="6.08984">
        <ele>238.60000610352</ele>
        <time>2013-02-09T16:06:14Z</time>
      </trkpt>
      <trkpt lat="43.39951" lon="6.08982">
        <ele>238.19999694824</ele>
        <time>2013-02-09T16:06:15Z</time>
      </trkpt>
      <trkpt lat="43.39957" lon="6.08981">
        <ele>237.60000610352</ele>
        <time>2013-02-09T16:06:16Z</time>
      </trkpt>
      <trkpt lat="43.39963" lon="6.0898">
        <ele>237.19999694824</ele>
        <time>2013-02-09T16:06:17Z</time>
      </trkpt>
      <trkpt lat="43.3997" lon="6.08979">
        <ele>236.60000610352</ele>
        <time>2013-02-09T16:06:18Z</time>
      </trkpt>
      <trkpt lat="43.39975" lon="6.08977">
        <ele>236.19999694824</ele>
        <time>2013-02-09T16:06:19Z</time>
      </trkpt>
      <trkpt lat="43.39991" lon="6.08974">
        <ele>236.19999694824</ele>
        <time>2013-02-09T16:06:22Z</time>
      </trkpt>
      <trkpt lat="43.4001" lon="6.08966">
        <ele>236.19999694824</ele>
        <time>2013-02-09T16:06:26Z</time>
      </trkpt>
      <trkpt lat="43.40015" lon="6.08964">
        <ele>236.19999694824</ele>
        <time>2013-02-09T16:06:27Z</time>
      </trkpt>
      <trkpt lat="43.40024" lon="6.08949">
        <ele>236.19999694824</ele>
        <time>2013-02-09T16:06:30Z</time>
      </trkpt>
      <trkpt lat="43.40028" lon="6.08945">
        <ele>236.19999694824</ele>
        <time>2013-02-09T16:06:31Z</time>
      </trkpt>
      <trkpt lat="43.40034" lon="6.08929">
        <ele>235.60000610352</ele>
        <time>2013-02-09T16:06:34Z</time>
      </trkpt>
      <trkpt lat="43.40038" lon="6.08918">
        <ele>234.60000610352</ele>
        <time>2013-02-09T16:06:36Z</time>
      </trkpt>
      <trkpt lat="43.40042" lon="6.08897">
        <ele>233.80000305176</ele>
        <time>2013-02-09T16:06:40Z</time>
      </trkpt>
      <trkpt lat="43.40046" lon="6.08887">
        <ele>233.80000305176</ele>
        <time>2013-02-09T16:06:42Z</time>
      </trkpt>
      <trkpt lat="43.40051" lon="6.08873">
        <ele>233.80000305176</ele>
        <time>2013-02-09T16:06:45Z</time>
      </trkpt>
      <trkpt lat="43.40062" lon="6.08841">
        <ele>233.80000305176</ele>
        <time>2013-02-09T16:06:52Z</time>
      </trkpt>
      <trkpt lat="43.40071" lon="6.08813">
        <ele>233.80000305176</ele>
        <time>2013-02-09T16:06:58Z</time>
      </trkpt>
      <trkpt lat="43.40082" lon="6.08779">
        <ele>233.80000305176</ele>
        <time>2013-02-09T16:07:05Z</time>
      </trkpt>
      <trkpt lat="43.40093" lon="6.08738">
        <ele>233.80000305176</ele>
        <time>2013-02-09T16:07:13Z</time>
      </trkpt>
      <trkpt lat="43.401" lon="6.08691">
        <ele>233.80000305176</ele>
        <time>2013-02-09T16:07:21Z</time>
      </trkpt>
      <trkpt lat="43.40101" lon="6.08679">
        <ele>233.80000305176</ele>
        <time>2013-02-09T16:07:23Z</time>
      </trkpt>
      <trkpt lat="43.40097" lon="6.0866">
        <ele>233.80000305176</ele>
        <time>2013-02-09T16:07:26Z</time>
      </trkpt>
      <trkpt lat="43.40095" lon="6.08652">
        <ele>233.19999694824</ele>
        <time>2013-02-09T16:07:27Z</time>
      </trkpt>
      <trkpt lat="43.40095" lon="6.08645">
        <ele>232.80000305176</ele>
        <time>2013-02-09T16:07:28Z</time>
      </trkpt>
      <trkpt lat="43.40096" lon="6.08638">
        <ele>232.39999389648</ele>
        <time>2013-02-09T16:07:29Z</time>
      </trkpt>
      <trkpt lat="43.40104" lon="6.08628">
        <ele>231.60000610352</ele>
        <time>2013-02-09T16:07:31Z</time>
      </trkpt>
      <trkpt lat="43.40116" lon="6.08618">
        <ele>231.60000610352</ele>
        <time>2013-02-09T16:07:34Z</time>
      </trkpt>
      <trkpt lat="43.40123" lon="6.08611">
        <ele>231.60000610352</ele>
        <time>2013-02-09T16:07:36Z</time>
      </trkpt>
      <trkpt lat="43.40138" lon="6.08597">
        <ele>231.60000610352</ele>
        <time>2013-02-09T16:07:40Z</time>
      </trkpt>
      <trkpt lat="43.40155" lon="6.08589">
        <ele>231.19999694824</ele>
        <time>2013-02-09T16:07:44Z</time>
      </trkpt>
      <trkpt lat="43.40158" lon="6.08588">
        <ele>230.80000305176</ele>
        <time>2013-02-09T16:07:45Z</time>
      </trkpt>
      <trkpt lat="43.40162" lon="6.08585">
        <ele>230.39999389648</ele>
        <time>2013-02-09T16:07:46Z</time>
      </trkpt>
      <trkpt lat="43.40165" lon="6.08582">
        <ele>229.60000610352</ele>
        <time>2013-02-09T16:07:47Z</time>
      </trkpt>
      <trkpt lat="43.40168" lon="6.08576">
        <ele>229.60000610352</ele>
        <time>2013-02-09T16:07:48Z</time>
      </trkpt>
      <trkpt lat="43.40169" lon="6.0857">
        <ele>229.60000610352</ele>
        <time>2013-02-09T16:07:49Z</time>
      </trkpt>
      <trkpt lat="43.40169" lon="6.08555">
        <ele>229.60000610352</ele>
        <time>2013-02-09T16:07:53Z</time>
      </trkpt>
      <trkpt lat="43.40168" lon="6.08544">
        <ele>229.60000610352</ele>
        <time>2013-02-09T16:07:56Z</time>
      </trkpt>
      <trkpt lat="43.40168" lon="6.08532">
        <ele>229.60000610352</ele>
        <time>2013-02-09T16:07:59Z</time>
      </trkpt>
      <trkpt lat="43.40168" lon="6.08523">
        <ele>229.60000610352</ele>
        <time>2013-02-09T16:08:01Z</time>
      </trkpt>
      <trkpt lat="43.40169" lon="6.08506">
        <ele>229.60000610352</ele>
        <time>2013-02-09T16:08:05Z</time>
      </trkpt>
      <trkpt lat="43.40173" lon="6.08471">
        <ele>229.60000610352</ele>
        <time>2013-02-09T16:08:13Z</time>
      </trkpt>
      <trkpt lat="43.40178" lon="6.08414">
        <ele>229.60000610352</ele>
        <time>2013-02-09T16:08:25Z</time>
      </trkpt>
      <trkpt lat="43.40178" lon="6.08387">
        <ele>229.60000610352</ele>
        <time>2013-02-09T16:08:30Z</time>
      </trkpt>
      <trkpt lat="43.40178" lon="6.08359">
        <ele>229.60000610352</ele>
        <time>2013-02-09T16:08:35Z</time>
      </trkpt>
      <trkpt lat="43.40178" lon="6.08354">
        <ele>229.60000610352</ele>
        <time>2013-02-09T16:08:36Z</time>
      </trkpt>
      <trkpt lat="43.40179" lon="6.08322">
        <ele>229.60000610352</ele>
        <time>2013-02-09T16:08:42Z</time>
      </trkpt>
      <trkpt lat="43.40182" lon="6.08284">
        <ele>229.60000610352</ele>
        <time>2013-02-09T16:08:50Z</time>
      </trkpt>
      <trkpt lat="43.40186" lon="6.08266">
        <ele>229.60000610352</ele>
        <time>2013-02-09T16:08:55Z</time>
      </trkpt>
      <trkpt lat="43.40185" lon="6.08252">
        <ele>229.60000610352</ele>
        <time>2013-02-09T16:09:00Z</time>
      </trkpt>
      <trkpt lat="43.40184" lon="6.08243">
        <ele>229.19999694824</ele>
        <time>2013-02-09T16:09:02Z</time>
      </trkpt>
      <trkpt lat="43.40183" lon="6.08239">
        <ele>228.60000610352</ele>
        <time>2013-02-09T16:09:03Z</time>
      </trkpt>
      <trkpt lat="43.40182" lon="6.08227">
        <ele>227.39999389648</ele>
        <time>2013-02-09T16:09:06Z</time>
      </trkpt>
      <trkpt lat="43.40187" lon="6.08214">
        <ele>227.39999389648</ele>
        <time>2013-02-09T16:09:09Z</time>
      </trkpt>
      <trkpt lat="43.40196" lon="6.08185">
        <ele>227.39999389648</ele>
        <time>2013-02-09T16:09:16Z</time>
      </trkpt>
      <trkpt lat="43.40199" lon="6.08158">
        <ele>227.39999389648</ele>
        <time>2013-02-09T16:09:21Z</time>
      </trkpt>
      <trkpt lat="43.40199" lon="6.08134">
        <ele>227.39999389648</ele>
        <time>2013-02-09T16:09:25Z</time>
      </trkpt>
      <trkpt lat="43.40198" lon="6.08128">
        <ele>227.39999389648</ele>
        <time>2013-02-09T16:09:26Z</time>
      </trkpt>
      <trkpt lat="43.40195" lon="6.0812">
        <ele>227.39999389648</ele>
        <time>2013-02-09T16:09:28Z</time>
      </trkpt>
      <trkpt lat="43.40194" lon="6.08117">
        <ele>227.39999389648</ele>
        <time>2013-02-09T16:09:29Z</time>
      </trkpt>
      <trkpt lat="43.40193" lon="6.08114">
        <ele>227.39999389648</ele>
        <time>2013-02-09T16:09:30Z</time>
      </trkpt>
      <trkpt lat="43.40191" lon="6.08092">
        <ele>227.39999389648</ele>
        <time>2013-02-09T16:09:35Z</time>
      </trkpt>
      <trkpt lat="43.40193" lon="6.08087">
        <ele>227.39999389648</ele>
        <time>2013-02-09T16:09:36Z</time>
      </trkpt>
      <trkpt lat="43.40199" lon="6.08068">
        <ele>227.39999389648</ele>
        <time>2013-02-09T16:09:39Z</time>
      </trkpt>
      <trkpt lat="43.40201" lon="6.08063">
        <ele>227</ele>
        <time>2013-02-09T16:09:40Z</time>
      </trkpt>
      <trkpt lat="43.40205" lon="6.08058">
        <ele>226.60000610352</ele>
        <time>2013-02-09T16:09:41Z</time>
      </trkpt>
      <trkpt lat="43.40212" lon="6.08048">
        <ele>225.80000305176</ele>
        <time>2013-02-09T16:09:43Z</time>
      </trkpt>
      <trkpt lat="43.40216" lon="6.08044">
        <ele>225.39999389648</ele>
        <time>2013-02-09T16:09:44Z</time>
      </trkpt>
      <trkpt lat="43.40244" lon="6.0801">
        <ele>225.39999389648</ele>
        <time>2013-02-09T16:09:51Z</time>
      </trkpt>
      <trkpt lat="43.4026" lon="6.07988">
        <ele>224.80000305176</ele>
        <time>2013-02-09T16:09:55Z</time>
      </trkpt>
      <trkpt lat="43.40267" lon="6.07978">
        <ele>224</ele>
        <time>2013-02-09T16:09:57Z</time>
      </trkpt>
      <trkpt lat="43.40285" lon="6.07937">
        <ele>223</ele>
        <time>2013-02-09T16:10:04Z</time>
      </trkpt>
      <trkpt lat="43.40291" lon="6.0791">
        <ele>222.60000610352</ele>
        <time>2013-02-09T16:10:08Z</time>
      </trkpt>
      <trkpt lat="43.40292" lon="6.07903">
        <ele>222.19999694824</ele>
        <time>2013-02-09T16:10:09Z</time>
      </trkpt>
      <trkpt lat="43.40305" lon="6.07804">
        <ele>220.60000610352</ele>
        <time>2013-02-09T16:10:23Z</time>
      </trkpt>
      <trkpt lat="43.40306" lon="6.0779">
        <ele>219.60000610352</ele>
        <time>2013-02-09T16:10:25Z</time>
      </trkpt>
      <trkpt lat="43.40312" lon="6.07746">
        <ele>218.80000305176</ele>
        <time>2013-02-09T16:10:31Z</time>
      </trkpt>
      <trkpt lat="43.40316" lon="6.07723">
        <ele>218.80000305176</ele>
        <time>2013-02-09T16:10:34Z</time>
      </trkpt>
      <trkpt lat="43.40329" lon="6.07695">
        <ele>218.39999389648</ele>
        <time>2013-02-09T16:10:38Z</time>
      </trkpt>
      <trkpt lat="43.40332" lon="6.07689">
        <ele>218</ele>
        <time>2013-02-09T16:10:39Z</time>
      </trkpt>
      <trkpt lat="43.4034" lon="6.0768">
        <ele>216.80000305176</ele>
        <time>2013-02-09T16:10:41Z</time>
      </trkpt>
      <trkpt lat="43.40362" lon="6.07655">
        <ele>216.80000305176</ele>
        <time>2013-02-09T16:10:47Z</time>
      </trkpt>
      <trkpt lat="43.40369" lon="6.07638">
        <ele>216.80000305176</ele>
        <time>2013-02-09T16:10:50Z</time>
      </trkpt>
      <trkpt lat="43.40373" lon="6.07607">
        <ele>216.80000305176</ele>
        <time>2013-02-09T16:10:55Z</time>
      </trkpt>
      <trkpt lat="43.40373" lon="6.07562">
        <ele>216.80000305176</ele>
        <time>2013-02-09T16:11:03Z</time>
      </trkpt>
      <trkpt lat="43.40374" lon="6.07529">
        <ele>216.80000305176</ele>
        <time>2013-02-09T16:11:10Z</time>
      </trkpt>
      <trkpt lat="43.40377" lon="6.07503">
        <ele>216.80000305176</ele>
        <time>2013-02-09T16:11:16Z</time>
      </trkpt>
      <trkpt lat="43.40383" lon="6.07477">
        <ele>216.80000305176</ele>
        <time>2013-02-09T16:11:22Z</time>
      </trkpt>
      <trkpt lat="43.4039" lon="6.07436">
        <ele>216.80000305176</ele>
        <time>2013-02-09T16:11:30Z</time>
      </trkpt>
      <trkpt lat="43.40391" lon="6.0739">
        <ele>216.80000305176</ele>
        <time>2013-02-09T16:11:38Z</time>
      </trkpt>
      <trkpt lat="43.40388" lon="6.07359">
        <ele>216.80000305176</ele>
        <time>2013-02-09T16:11:43Z</time>
      </trkpt>
      <trkpt lat="43.40388" lon="6.07347">
        <ele>216.80000305176</ele>
        <time>2013-02-09T16:11:45Z</time>
      </trkpt>
      <trkpt lat="43.40381" lon="6.07305">
        <ele>215.60000610352</ele>
        <time>2013-02-09T16:11:53Z</time>
      </trkpt>
      <trkpt lat="43.40381" lon="6.07299">
        <ele>214.60000610352</ele>
        <time>2013-02-09T16:11:54Z</time>
      </trkpt>
      <trkpt lat="43.40386" lon="6.07287">
        <ele>214.60000610352</ele>
        <time>2013-02-09T16:11:56Z</time>
      </trkpt>
      <trkpt lat="43.40391" lon="6.07276">
        <ele>214.60000610352</ele>
        <time>2013-02-09T16:11:58Z</time>
      </trkpt>
      <trkpt lat="43.40393" lon="6.0727">
        <ele>214.60000610352</ele>
        <time>2013-02-09T16:11:59Z</time>
      </trkpt>
      <trkpt lat="43.40394" lon="6.07263">
        <ele>214.19999694824</ele>
        <time>2013-02-09T16:12:00Z</time>
      </trkpt>
      <trkpt lat="43.40393" lon="6.07256">
        <ele>213.80000305176</ele>
        <time>2013-02-09T16:12:01Z</time>
      </trkpt>
      <trkpt lat="43.40387" lon="6.07245">
        <ele>213</ele>
        <time>2013-02-09T16:12:03Z</time>
      </trkpt>
      <trkpt lat="43.40385" lon="6.0724">
        <ele>212.60000610352</ele>
        <time>2013-02-09T16:12:04Z</time>
      </trkpt>
      <trkpt lat="43.40386" lon="6.07216">
        <ele>212.60000610352</ele>
        <time>2013-02-09T16:12:08Z</time>
      </trkpt>
      <trkpt lat="43.40388" lon="6.07183">
        <ele>212.60000610352</ele>
        <time>2013-02-09T16:12:14Z</time>
      </trkpt>
      <trkpt lat="43.40389" lon="6.07177">
        <ele>212.60000610352</ele>
        <time>2013-02-09T16:12:15Z</time>
      </trkpt>
      <trkpt lat="43.40394" lon="6.0715">
        <ele>212.60000610352</ele>
        <time>2013-02-09T16:12:21Z</time>
      </trkpt>
      <trkpt lat="43.40399" lon="6.07118">
        <ele>212.60000610352</ele>
        <time>2013-02-09T16:12:28Z</time>
      </trkpt>
      <trkpt lat="43.40404" lon="6.07091">
        <ele>212.60000610352</ele>
        <time>2013-02-09T16:12:35Z</time>
      </trkpt>
      <trkpt lat="43.40406" lon="6.07079">
        <ele>212.60000610352</ele>
        <time>2013-02-09T16:12:38Z</time>
      </trkpt>
      <trkpt lat="43.40407" lon="6.0707">
        <ele>212.60000610352</ele>
        <time>2013-02-09T16:12:40Z</time>
      </trkpt>
      <trkpt lat="43.40411" lon="6.07051">
        <ele>213</ele>
        <time>2013-02-09T16:12:45Z</time>
      </trkpt>
      <trkpt lat="43.40412" lon="6.07047">
        <ele>213.39999389648</ele>
        <time>2013-02-09T16:12:46Z</time>
      </trkpt>
      <trkpt lat="43.40414" lon="6.07038">
        <ele>214.60000610352</ele>
        <time>2013-02-09T16:12:49Z</time>
      </trkpt>
      <trkpt lat="43.40417" lon="6.07017">
        <ele>214.60000610352</ele>
        <time>2013-02-09T16:12:55Z</time>
      </trkpt>
      <trkpt lat="43.40417" lon="6.07013">
        <ele>214.60000610352</ele>
        <time>2013-02-09T16:12:56Z</time>
      </trkpt>
      <trkpt lat="43.40421" lon="6.06993">
        <ele>214.60000610352</ele>
        <time>2013-02-09T16:13:02Z</time>
      </trkpt>
      <trkpt lat="43.40419" lon="6.06989">
        <ele>214.60000610352</ele>
        <time>2013-02-09T16:13:04Z</time>
      </trkpt>
      <trkpt lat="43.4042" lon="6.06983">
        <ele>214.60000610352</ele>
        <time>2013-02-09T16:13:06Z</time>
      </trkpt>
      <trkpt lat="43.40422" lon="6.06972">
        <ele>215</ele>
        <time>2013-02-09T16:13:08Z</time>
      </trkpt>
      <trkpt lat="43.40424" lon="6.06957">
        <ele>216.19999694824</ele>
        <time>2013-02-09T16:13:11Z</time>
      </trkpt>
      <trkpt lat="43.40426" lon="6.06952">
        <ele>216.80000305176</ele>
        <time>2013-02-09T16:13:12Z</time>
      </trkpt>
      <trkpt lat="43.40433" lon="6.06934">
        <ele>216.80000305176</ele>
        <time>2013-02-09T16:13:16Z</time>
      </trkpt>
      <trkpt lat="43.40444" lon="6.06907">
        <ele>216.80000305176</ele>
        <time>2013-02-09T16:13:22Z</time>
      </trkpt>
      <trkpt lat="43.40449" lon="6.06898">
        <ele>216.80000305176</ele>
        <time>2013-02-09T16:13:26Z</time>
      </trkpt>
      <trkpt lat="43.40449" lon="6.06898">
        <ele>216.80000305176</ele>
        <time>2013-02-09T16:13:27Z</time>
      </trkpt>
      <trkpt lat="43.4045" lon="6.06896">
        <ele>216.80000305176</ele>
        <time>2013-02-09T16:13:29Z</time>
      </trkpt>
      <trkpt lat="43.40454" lon="6.06892">
        <ele>216.80000305176</ele>
        <time>2013-02-09T16:13:32Z</time>
      </trkpt>
      <trkpt lat="43.40454" lon="6.06888">
        <ele>216.80000305176</ele>
        <time>2013-02-09T16:13:33Z</time>
      </trkpt>
      <trkpt lat="43.40456" lon="6.06878">
        <ele>216.80000305176</ele>
        <time>2013-02-09T16:13:36Z</time>
      </trkpt>
      <trkpt lat="43.40459" lon="6.06865">
        <ele>216.80000305176</ele>
        <time>2013-02-09T16:13:41Z</time>
      </trkpt>
      <trkpt lat="43.40464" lon="6.0684">
        <ele>216.80000305176</ele>
        <time>2013-02-09T16:13:47Z</time>
      </trkpt>
      <trkpt lat="43.40465" lon="6.06804">
        <ele>216.80000305176</ele>
        <time>2013-02-09T16:13:55Z</time>
      </trkpt>
      <trkpt lat="43.40462" lon="6.06773">
        <ele>216.80000305176</ele>
        <time>2013-02-09T16:14:02Z</time>
      </trkpt>
      <trkpt lat="43.40462" lon="6.06741">
        <ele>216.80000305176</ele>
        <time>2013-02-09T16:14:09Z</time>
      </trkpt>
      <trkpt lat="43.40462" lon="6.06719">
        <ele>216.80000305176</ele>
        <time>2013-02-09T16:14:14Z</time>
      </trkpt>
      <trkpt lat="43.40464" lon="6.06711">
        <ele>216.80000305176</ele>
        <time>2013-02-09T16:14:16Z</time>
      </trkpt>
      <trkpt lat="43.40471" lon="6.06689">
        <ele>216.80000305176</ele>
        <time>2013-02-09T16:14:22Z</time>
      </trkpt>
      <trkpt lat="43.40479" lon="6.06659">
        <ele>216.80000305176</ele>
        <time>2013-02-09T16:14:29Z</time>
      </trkpt>
      <trkpt lat="43.40485" lon="6.06631">
        <ele>216.80000305176</ele>
        <time>2013-02-09T16:14:36Z</time>
      </trkpt>
      <trkpt lat="43.4049" lon="6.06601">
        <ele>216.80000305176</ele>
        <time>2013-02-09T16:14:43Z</time>
      </trkpt>
      <trkpt lat="43.40485" lon="6.06587">
        <ele>216.80000305176</ele>
        <time>2013-02-09T16:14:47Z</time>
      </trkpt>
      <trkpt lat="43.40482" lon="6.06586">
        <ele>216.80000305176</ele>
        <time>2013-02-09T16:14:48Z</time>
      </trkpt>
      <trkpt lat="43.40468" lon="6.06581">
        <ele>216.80000305176</ele>
        <time>2013-02-09T16:14:53Z</time>
      </trkpt>
      <trkpt lat="43.40452" lon="6.06575">
        <ele>216.80000305176</ele>
        <time>2013-02-09T16:14:58Z</time>
      </trkpt>
      <trkpt lat="43.40445" lon="6.06574">
        <ele>216.80000305176</ele>
        <time>2013-02-09T16:15:00Z</time>
      </trkpt>
      <trkpt lat="43.40441" lon="6.06573">
        <ele>216.80000305176</ele>
        <time>2013-02-09T16:15:01Z</time>
      </trkpt>
      <trkpt lat="43.40427" lon="6.06568">
        <ele>217.19999694824</ele>
        <time>2013-02-09T16:15:05Z</time>
      </trkpt>
      <trkpt lat="43.40424" lon="6.06567">
        <ele>217.60000610352</ele>
        <time>2013-02-09T16:15:06Z</time>
      </trkpt>
      <trkpt lat="43.4042" lon="6.06566">
        <ele>218</ele>
        <time>2013-02-09T16:15:07Z</time>
      </trkpt>
      <trkpt lat="43.40417" lon="6.06566">
        <ele>218.39999389648</ele>
        <time>2013-02-09T16:15:08Z</time>
      </trkpt>
      <trkpt lat="43.40414" lon="6.06565">
        <ele>218.80000305176</ele>
        <time>2013-02-09T16:15:09Z</time>
      </trkpt>
      <trkpt lat="43.40405" lon="6.0656">
        <ele>218.80000305176</ele>
        <time>2013-02-09T16:15:13Z</time>
      </trkpt>
      <trkpt lat="43.40403" lon="6.06557">
        <ele>218.80000305176</ele>
        <time>2013-02-09T16:15:15Z</time>
      </trkpt>
      <trkpt lat="43.40402" lon="6.06558">
        <ele>218.80000305176</ele>
        <time>2013-02-09T16:15:17Z</time>
      </trkpt>
      <trkpt lat="43.40402" lon="6.06558">
        <ele>218.80000305176</ele>
        <time>2013-02-09T16:15:42Z</time>
      </trkpt>
    </trkseg>
  </trk>
</gpx>